<?xml version='1.0' encoding='UTF-8'?><gpx version="1.1" creator="JPX - https://github.com/jenetics/jpx" xmlns="http://www.topografix.com/GPX/1/1"><trk><trkseg><trkpt lat="45.18082785623696" lon="8.474931957048932"><ele>109.0</ele><time>2026-04-04T08:19:17.577Z</time></trkpt><trkpt lat="45.18070369308464" lon="8.474984010015808"><ele>109.0</ele><time>2026-04-04T08:19:20.577Z</time></trkpt><trkpt lat="45.18061631848789" lon="8.475008981557542"><ele>109.0</ele><time>2026-04-04T08:19:21.577Z</time></trkpt><trkpt lat="45.180513693113056" lon="8.475025652416472"><ele>109.0</ele><time>2026-04-04T08:19:22.979Z</time></trkpt><trkpt lat="45.180418194443526" lon="8.475033076560534"><ele>109.0</ele><time>2026-04-04T08:19:24.982Z</time></trkpt><trkpt lat="45.180319031638994" lon="8.475035775176066"><ele>109.2</ele><time>2026-04-04T08:19:26.984Z</time></trkpt><trkpt lat="45.1802100811578" lon="8.475034919097444"><ele>109.4</ele><time>2026-04-04T08:19:28.987Z</time></trkpt><trkpt lat="45.18011044397477" lon="8.475031619417143"><ele>109.6</ele><time>2026-04-04T08:19:30.988Z</time></trkpt><trkpt lat="45.180014069015144" lon="8.475030299174806"><ele>109.8</ele><time>2026-04-04T08:19:32.99Z</time></trkpt><trkpt lat="45.17990439560559" lon="8.475034910031468"><ele>110.0</ele><time>2026-04-04T08:19:34.991Z</time></trkpt><trkpt lat="45.1798414874659" lon="8.475030107219597"><ele>110.2</ele><time>2026-04-04T08:19:35.992Z</time></trkpt><trkpt lat="45.17975225179514" lon="8.475020615627242"><ele>110.4</ele><time>2026-04-04T08:19:37.993Z</time></trkpt><trkpt lat="45.17967256220724" lon="8.475029364596876"><ele>110.6</ele><time>2026-04-04T08:19:40.994Z</time></trkpt><trkpt lat="45.17953404336856" lon="8.475018455851284"><ele>110.8</ele><time>2026-04-04T08:19:42.995Z</time></trkpt><trkpt lat="45.179394902782" lon="8.475014736141935"><ele>111.0</ele><time>2026-04-04T08:19:43.995Z</time></trkpt><trkpt lat="45.17923706832149" lon="8.475013622312286"><ele>111.0</ele><time>2026-04-04T08:19:44.996Z</time></trkpt><trkpt lat="45.17912247489539" lon="8.475011584466188"><ele>111.0</ele><time>2026-04-04T08:19:45.996Z</time></trkpt><trkpt lat="45.17899394771024" lon="8.475008331821419"><ele>111.0</ele><time>2026-04-04T08:19:46.996Z</time></trkpt><trkpt lat="45.17885691204525" lon="8.474984764277119"><ele>111.0</ele><time>2026-04-04T08:19:47.997Z</time></trkpt><trkpt lat="45.17872897439352" lon="8.474980952133905"><ele>110.8</ele><time>2026-04-04T08:19:48.997Z</time></trkpt><trkpt lat="45.17862616204226" lon="8.474963983024283"><ele>110.6</ele><time>2026-04-04T08:19:49.997Z</time></trkpt><trkpt lat="45.17853836499323" lon="8.474963050538923"><ele>110.4</ele><time>2026-04-04T08:19:50.997Z</time></trkpt><trkpt lat="45.178469284467596" lon="8.47498573441718"><ele>110.2</ele><time>2026-04-04T08:19:51.998Z</time></trkpt><trkpt lat="45.17840535217199" lon="8.474962892418505"><ele>110.0</ele><time>2026-04-04T08:19:57.999Z</time></trkpt><trkpt lat="45.178449227630004" lon="8.47513127844792"><ele>109.99999999999999</ele><time>2026-04-04T08:19:59.999Z</time></trkpt><trkpt lat="45.17850213228423" lon="8.475189131979734"><ele>110.0</ele><time>2026-04-04T08:20:00.999Z</time></trkpt><trkpt lat="45.17856245370708" lon="8.475242520558725"><ele>110.0</ele><time>2026-04-04T08:20:01.999Z</time></trkpt><trkpt lat="45.178624706606456" lon="8.47531007316968"><ele>110.0</ele><time>2026-04-04T08:20:02.999Z</time></trkpt><trkpt lat="45.178685807278654" lon="8.475396283853009"><ele>109.99999999999999</ele><time>2026-04-04T08:20:03.999Z</time></trkpt><trkpt lat="45.17875782666055" lon="8.475489863062716"><ele>110.0</ele><time>2026-04-04T08:20:04.999Z</time></trkpt><trkpt lat="45.178831232788916" lon="8.475586340335752"><ele>110.0</ele><time>2026-04-04T08:20:05.999Z</time></trkpt><trkpt lat="45.17890773463574" lon="8.475685865527135"><ele>110.0</ele><time>2026-04-04T08:20:06.999Z</time></trkpt><trkpt lat="45.17898398647845" lon="8.475782417150967"><ele>110.0</ele><time>2026-04-04T08:20:07.999Z</time></trkpt><trkpt lat="45.17906412060652" lon="8.475883473830232"><ele>110.0</ele><time>2026-04-04T08:20:09Z</time></trkpt><trkpt lat="45.17914212632884" lon="8.475985920911095"><ele>110.0</ele><time>2026-04-04T08:20:10Z</time></trkpt><trkpt lat="45.17922194041927" lon="8.47609485824757"><ele>109.75</ele><time>2026-04-04T08:20:11Z</time></trkpt><trkpt lat="45.17930272900743" lon="8.476207151544545"><ele>109.5</ele><time>2026-04-04T08:20:12Z</time></trkpt><trkpt lat="45.179383668686" lon="8.476313146002855"><ele>109.25</ele><time>2026-04-04T08:20:13Z</time></trkpt><trkpt lat="45.17946721198394" lon="8.47641025207429"><ele>109.0</ele><time>2026-04-04T08:20:14Z</time></trkpt><trkpt lat="45.179559478994065" lon="8.476520451149286"><ele>109.0</ele><time>2026-04-04T08:20:15Z</time></trkpt><trkpt lat="45.17965122651094" lon="8.476611774435268"><ele>109.0</ele><time>2026-04-04T08:20:16Z</time></trkpt><trkpt lat="45.179748961387546" lon="8.476702554170013"><ele>109.0</ele><time>2026-04-04T08:20:17Z</time></trkpt><trkpt lat="45.179853698890845" lon="8.476798548082762"><ele>109.0</ele><time>2026-04-04T08:20:18Z</time></trkpt><trkpt lat="45.179950329811774" lon="8.476881651849105"><ele>109.0</ele><time>2026-04-04T08:20:19Z</time></trkpt><trkpt lat="45.18006362899688" lon="8.476983543295427"><ele>109.0</ele><time>2026-04-04T08:20:20Z</time></trkpt><trkpt lat="45.18016570710939" lon="8.477069010548549"><ele>109.0</ele><time>2026-04-04T08:20:21Z</time></trkpt><trkpt lat="45.18024152961855" lon="8.477153470382321"><ele>109.0</ele><time>2026-04-04T08:20:22Z</time></trkpt><trkpt lat="45.180314481921144" lon="8.477221345472465"><ele>109.0</ele><time>2026-04-04T08:20:23Z</time></trkpt><trkpt lat="45.1803720833875" lon="8.477273862436734"><ele>109.16666666666667</ele><time>2026-04-04T08:20:24Z</time></trkpt><trkpt lat="45.18044451804743" lon="8.4773537493143"><ele>109.33333333333334</ele><time>2026-04-04T08:20:26Z</time></trkpt><trkpt lat="45.18043430419338" lon="8.477474758333216"><ele>109.5</ele><time>2026-04-04T08:20:28Z</time></trkpt><trkpt lat="45.18038817729816" lon="8.477557652201142"><ele>109.66666666666666</ele><time>2026-04-04T08:20:29Z</time></trkpt><trkpt lat="45.1803500143934" lon="8.477654644058603"><ele>109.83333333333333</ele><time>2026-04-04T08:20:30Z</time></trkpt><trkpt lat="45.180257275432425" lon="8.477729538625132"><ele>110.0</ele><time>2026-04-04T08:20:31Z</time></trkpt><trkpt lat="45.18019356799112" lon="8.477837094032145"><ele>110.0</ele><time>2026-04-04T08:20:32Z</time></trkpt><trkpt lat="45.180124217235544" lon="8.477967210144799"><ele>110.0</ele><time>2026-04-04T08:20:33Z</time></trkpt><trkpt lat="45.18005598467122" lon="8.478101708472165"><ele>110.0</ele><time>2026-04-04T08:20:34Z</time></trkpt><trkpt lat="45.17997841048836" lon="8.478246802429194"><ele>110.0</ele><time>2026-04-04T08:20:35Z</time></trkpt><trkpt lat="45.179894852461246" lon="8.478389407900716"><ele>109.75</ele><time>2026-04-04T08:20:36Z</time></trkpt><trkpt lat="45.17979544902589" lon="8.478527474703915"><ele>109.5</ele><time>2026-04-04T08:20:37Z</time></trkpt><trkpt lat="45.179679652934304" lon="8.478659947625228"><ele>109.25</ele><time>2026-04-04T08:20:38Z</time></trkpt><trkpt lat="45.17954962858487" lon="8.478785616297303"><ele>109.0</ele><time>2026-04-04T08:20:39Z</time></trkpt><trkpt lat="45.179414819167945" lon="8.478912373435643"><ele>109.0</ele><time>2026-04-04T08:20:40Z</time></trkpt><trkpt lat="45.179291484046715" lon="8.47903563620352"><ele>109.0</ele><time>2026-04-04T08:20:41Z</time></trkpt><trkpt lat="45.17918320403263" lon="8.479143856184141"><ele>109.0</ele><time>2026-04-04T08:20:42Z</time></trkpt><trkpt lat="45.17907826675217" lon="8.479258139412742"><ele>109.0</ele><time>2026-04-04T08:20:43Z</time></trkpt><trkpt lat="45.17897869934967" lon="8.479388358913585"><ele>109.33333333333334</ele><time>2026-04-04T08:20:44Z</time></trkpt><trkpt lat="45.17887911283925" lon="8.479540035182074"><ele>109.66666666666666</ele><time>2026-04-04T08:20:45Z</time></trkpt><trkpt lat="45.17877660346653" lon="8.479719721907987"><ele>110.0</ele><time>2026-04-04T08:20:46Z</time></trkpt><trkpt lat="45.178682608097695" lon="8.479916775969395"><ele>110.0</ele><time>2026-04-04T08:20:47Z</time></trkpt><trkpt lat="45.178597161703344" lon="8.480100725455237"><ele>110.0</ele><time>2026-04-04T08:20:48Z</time></trkpt><trkpt lat="45.17854035277953" lon="8.480233839368477"><ele>110.0</ele><time>2026-04-04T08:20:49Z</time></trkpt><trkpt lat="45.17849912574515" lon="8.48032239062388"><ele>110.0</ele><time>2026-04-04T08:20:50Z</time></trkpt><trkpt lat="45.178488814230256" lon="8.480457532257427"><ele>110.0</ele><time>2026-04-04T08:20:56Z</time></trkpt><trkpt lat="45.178542153301755" lon="8.480520506202083"><ele>109.6</ele><time>2026-04-04T08:20:57Z</time></trkpt><trkpt lat="45.17861437592579" lon="8.480574084530327"><ele>109.2</ele><time>2026-04-04T08:20:58Z</time></trkpt><trkpt lat="45.178691655419065" lon="8.480642973265857"><ele>108.80000000000001</ele><time>2026-04-04T08:20:59Z</time></trkpt><trkpt lat="45.17877404599196" lon="8.48071837743737"><ele>108.4</ele><time>2026-04-04T08:21:00Z</time></trkpt><trkpt lat="45.17886535499595" lon="8.480805273535895"><ele>108.0</ele><time>2026-04-04T08:21:01Z</time></trkpt><trkpt lat="45.17896712825213" lon="8.480898539282137"><ele>108.25</ele><time>2026-04-04T08:21:02Z</time></trkpt><trkpt lat="45.17908178232995" lon="8.48098231131197"><ele>108.5</ele><time>2026-04-04T08:21:03Z</time></trkpt><trkpt lat="45.17919989275123" lon="8.481042237011216"><ele>108.75</ele><time>2026-04-04T08:21:04Z</time></trkpt><trkpt lat="45.17931186116948" lon="8.481088680313096"><ele>109.0</ele><time>2026-04-04T08:21:05Z</time></trkpt><trkpt lat="45.17942678839077" lon="8.481027536002776"><ele>109.0</ele><time>2026-04-04T08:21:06Z</time></trkpt><trkpt lat="45.17953635457719" lon="8.480962594414917"><ele>109.0</ele><time>2026-04-04T08:21:07Z</time></trkpt><trkpt lat="45.17963831039108" lon="8.480875277762841"><ele>109.0</ele><time>2026-04-04T08:21:08Z</time></trkpt><trkpt lat="45.179748811661355" lon="8.480775789865143"><ele>109.0</ele><time>2026-04-04T08:21:09Z</time></trkpt><trkpt lat="45.179852244272695" lon="8.480688315972644"><ele>109.25</ele><time>2026-04-04T08:21:10Z</time></trkpt><trkpt lat="45.17996148495297" lon="8.480594738709094"><ele>109.5</ele><time>2026-04-04T08:21:11Z</time></trkpt><trkpt lat="45.18006472571552" lon="8.480502330901677"><ele>109.75</ele><time>2026-04-04T08:21:12Z</time></trkpt><trkpt lat="45.180176434468954" lon="8.480410242946338"><ele>110.0</ele><time>2026-04-04T08:21:13Z</time></trkpt><trkpt lat="45.18028347425967" lon="8.480329252526687"><ele>110.0</ele><time>2026-04-04T08:21:14Z</time></trkpt><trkpt lat="45.18038660837315" lon="8.48023784230676"><ele>110.0</ele><time>2026-04-04T08:21:15Z</time></trkpt><trkpt lat="45.18048636512971" lon="8.4801413872909"><ele>110.0</ele><time>2026-04-04T08:21:16Z</time></trkpt><trkpt lat="45.18059671272956" lon="8.480056380397887"><ele>110.0</ele><time>2026-04-04T08:21:17Z</time></trkpt><trkpt lat="45.18070349122052" lon="8.47997646481428"><ele>110.5</ele><time>2026-04-04T08:21:18Z</time></trkpt><trkpt lat="45.18079564960072" lon="8.479892350080767"><ele>111.0</ele><time>2026-04-04T08:21:19Z</time></trkpt><trkpt lat="45.180896098719415" lon="8.479798637494756"><ele>111.5</ele><time>2026-04-04T08:21:20Z</time></trkpt><trkpt lat="45.180987721264685" lon="8.479700970002986"><ele>112.0</ele><time>2026-04-04T08:21:21Z</time></trkpt><trkpt lat="45.18107068475046" lon="8.479601503558783"><ele>111.83333333333334</ele><time>2026-04-04T08:21:22Z</time></trkpt><trkpt lat="45.181149097548136" lon="8.479508963303308"><ele>111.66666666666667</ele><time>2026-04-04T08:21:23Z</time></trkpt><trkpt lat="45.18121646959607" lon="8.479424275067574"><ele>111.5</ele><time>2026-04-04T08:21:24.002Z</time></trkpt><trkpt lat="45.18128167152912" lon="8.479348039713267"><ele>111.33333333333334</ele><time>2026-04-04T08:21:25.002Z</time></trkpt><trkpt lat="45.18134655311701" lon="8.479275768094537"><ele>111.16666666666667</ele><time>2026-04-04T08:21:26.002Z</time></trkpt><trkpt lat="45.18141612358594" lon="8.47920660454785"><ele>111.0</ele><time>2026-04-04T08:21:27.001Z</time></trkpt><trkpt lat="45.181477302902216" lon="8.479142245488477"><ele>111.5</ele><time>2026-04-04T08:21:28.001Z</time></trkpt><trkpt lat="45.18154579082585" lon="8.47908744973179"><ele>112.0</ele><time>2026-04-04T08:21:29.001Z</time></trkpt><trkpt lat="45.18161308577773" lon="8.479034290306561"><ele>112.5</ele><time>2026-04-04T08:21:30.001Z</time></trkpt><trkpt lat="45.18168013859933" lon="8.478991990380745"><ele>113.0</ele><time>2026-04-04T08:21:31.001Z</time></trkpt><trkpt lat="45.181749322463205" lon="8.478940650112296"><ele>113.5</ele><time>2026-04-04T08:21:32.001Z</time></trkpt><trkpt lat="45.181819337368644" lon="8.478898214225913"><ele>114.0</ele><time>2026-04-04T08:21:33.001Z</time></trkpt><trkpt lat="45.18188853465902" lon="8.478856555148717"><ele>114.0</ele><time>2026-04-04T08:21:34.001Z</time></trkpt><trkpt lat="45.181955978733775" lon="8.478813714774578"><ele>114.0</ele><time>2026-04-04T08:21:35.001Z</time></trkpt><trkpt lat="45.18201961126777" lon="8.47878888885509"><ele>114.0</ele><time>2026-04-04T08:21:36.001Z</time></trkpt><trkpt lat="45.18208134211706" lon="8.478760441041906"><ele>114.0</ele><time>2026-04-04T08:21:39.001Z</time></trkpt><trkpt lat="45.18215218905337" lon="8.478764657806124"><ele>114.0</ele><time>2026-04-04T08:21:46.001Z</time></trkpt><trkpt lat="45.18218048912584" lon="8.478910936714437"><ele>114.0</ele><time>2026-04-04T08:21:48.001Z</time></trkpt><trkpt lat="45.18221372380818" lon="8.478998087197557"><ele>114.0</ele><time>2026-04-04T08:21:49.001Z</time></trkpt><trkpt lat="45.182217184203196" lon="8.479098638189177"><ele>114.0</ele><time>2026-04-04T08:21:50Z</time></trkpt><trkpt lat="45.18224196133184" lon="8.479216560431475"><ele>114.0</ele><time>2026-04-04T08:21:51Z</time></trkpt><trkpt lat="45.18227008178745" lon="8.479334202102853"><ele>114.0</ele><time>2026-04-04T08:21:52Z</time></trkpt><trkpt lat="45.18229581507565" lon="8.479462170406812"><ele>114.0</ele><time>2026-04-04T08:21:53Z</time></trkpt><trkpt lat="45.182317727066994" lon="8.479592423196134"><ele>114.0</ele><time>2026-04-04T08:21:54Z</time></trkpt><trkpt lat="45.18234760874504" lon="8.479714891179801"><ele>113.80000000000001</ele><time>2026-04-04T08:21:55Z</time></trkpt><trkpt lat="45.182372974255195" lon="8.479847704907632"><ele>113.60000000000001</ele><time>2026-04-04T08:21:56Z</time></trkpt><trkpt lat="45.18240330762221" lon="8.479976448625415"><ele>113.4</ele><time>2026-04-04T08:21:57Z</time></trkpt><trkpt lat="45.18243513426007" lon="8.480120606126203"><ele>113.2</ele><time>2026-04-04T08:21:58Z</time></trkpt><trkpt lat="45.18246668554713" lon="8.480292862117143"><ele>113.0</ele><time>2026-04-04T08:21:59Z</time></trkpt><trkpt lat="45.18249958681428" lon="8.480467700590182"><ele>112.5</ele><time>2026-04-04T08:22:00Z</time></trkpt><trkpt lat="45.18253526703232" lon="8.48062887413109"><ele>112.0</ele><time>2026-04-04T08:22:01Z</time></trkpt><trkpt lat="45.18255978125818" lon="8.480798880040176"><ele>111.5</ele><time>2026-04-04T08:22:02Z</time></trkpt><trkpt lat="45.18258129827195" lon="8.480963169713009"><ele>111.0</ele><time>2026-04-04T08:22:03Z</time></trkpt><trkpt lat="45.182614821038634" lon="8.481142100473397"><ele>111.0</ele><time>2026-04-04T08:22:04Z</time></trkpt><trkpt lat="45.18264473549833" lon="8.481307023911203"><ele>111.0</ele><time>2026-04-04T08:22:05Z</time></trkpt><trkpt lat="45.18266335548022" lon="8.481467407400086"><ele>111.0</ele><time>2026-04-04T08:22:06Z</time></trkpt><trkpt lat="45.18269015353795" lon="8.481638722513928"><ele>111.0</ele><time>2026-04-04T08:22:07Z</time></trkpt><trkpt lat="45.18271354731125" lon="8.481802949779215"><ele>111.0</ele><time>2026-04-04T08:22:08Z</time></trkpt><trkpt lat="45.18273701861917" lon="8.481954852157136"><ele>111.0</ele><time>2026-04-04T08:22:09Z</time></trkpt><trkpt lat="45.18276339554345" lon="8.482123795591942"><ele>111.0</ele><time>2026-04-04T08:22:10Z</time></trkpt><trkpt lat="45.18279211902452" lon="8.482305697810297"><ele>111.0</ele><time>2026-04-04T08:22:11Z</time></trkpt><trkpt lat="45.182815327597304" lon="8.482478725806683"><ele>110.75</ele><time>2026-04-04T08:22:12Z</time></trkpt><trkpt lat="45.18284934053466" lon="8.482666326692835"><ele>110.5</ele><time>2026-04-04T08:22:13Z</time></trkpt><trkpt lat="45.182885862123" lon="8.482841707261462"><ele>110.25</ele><time>2026-04-04T08:22:14Z</time></trkpt><trkpt lat="45.18291544014715" lon="8.48300877944219"><ele>110.0</ele><time>2026-04-04T08:22:15Z</time></trkpt><trkpt lat="45.1829482605375" lon="8.483190319992406"><ele>110.0</ele><time>2026-04-04T08:22:16Z</time></trkpt><trkpt lat="45.18297773617147" lon="8.483363582699289"><ele>110.0</ele><time>2026-04-04T08:22:17Z</time></trkpt><trkpt lat="45.1830092239456" lon="8.483533867728594"><ele>110.0</ele><time>2026-04-04T08:22:18Z</time></trkpt><trkpt lat="45.18303877568645" lon="8.483715017267242"><ele>110.0</ele><time>2026-04-04T08:22:19Z</time></trkpt><trkpt lat="45.18306699484387" lon="8.483880024042932"><ele>109.75</ele><time>2026-04-04T08:22:20Z</time></trkpt><trkpt lat="45.183097412274314" lon="8.484040244062463"><ele>109.5</ele><time>2026-04-04T08:22:21Z</time></trkpt><trkpt lat="45.183130074549915" lon="8.484198358160912"><ele>109.25</ele><time>2026-04-04T08:22:22Z</time></trkpt><trkpt lat="45.18316367965461" lon="8.484366593145753"><ele>109.0</ele><time>2026-04-04T08:22:23Z</time></trkpt><trkpt lat="45.1831976870831" lon="8.484538544043845"><ele>109.25</ele><time>2026-04-04T08:22:24Z</time></trkpt><trkpt lat="45.18323033629748" lon="8.484699303223108"><ele>109.5</ele><time>2026-04-04T08:22:25Z</time></trkpt><trkpt lat="45.183261786031636" lon="8.48487044964734"><ele>109.75</ele><time>2026-04-04T08:22:26Z</time></trkpt><trkpt lat="45.183293656659444" lon="8.485046857722688"><ele>110.0</ele><time>2026-04-04T08:22:27Z</time></trkpt><trkpt lat="45.18332142544598" lon="8.485215337173223"><ele>110.0</ele><time>2026-04-04T08:22:28Z</time></trkpt><trkpt lat="45.183351270777685" lon="8.485397462807837"><ele>110.0</ele><time>2026-04-04T08:22:29Z</time></trkpt><trkpt lat="45.18338283426041" lon="8.485578058930864"><ele>110.0</ele><time>2026-04-04T08:22:30Z</time></trkpt><trkpt lat="45.1834147604069" lon="8.485749034720097"><ele>110.0</ele><time>2026-04-04T08:22:31Z</time></trkpt><trkpt lat="45.183448622060396" lon="8.485926946034779"><ele>109.5</ele><time>2026-04-04T08:22:32Z</time></trkpt><trkpt lat="45.18348624068753" lon="8.486096225020658"><ele>109.0</ele><time>2026-04-04T08:22:33Z</time></trkpt><trkpt lat="45.18350994585994" lon="8.486255574613345"><ele>108.5</ele><time>2026-04-04T08:22:34Z</time></trkpt><trkpt lat="45.183549816335216" lon="8.486405686828306"><ele>108.0</ele><time>2026-04-04T08:22:35Z</time></trkpt><trkpt lat="45.183694554387685" lon="8.486514560899813"><ele>108.0</ele><time>2026-04-04T08:22:36Z</time></trkpt><trkpt lat="45.18382002480685" lon="8.486573935511034"><ele>108.0</ele><time>2026-04-04T08:22:37Z</time></trkpt><trkpt lat="45.183948661673604" lon="8.486656360044147"><ele>108.0</ele><time>2026-04-04T08:22:38Z</time></trkpt><trkpt lat="45.184082918144995" lon="8.486722156891911"><ele>108.0</ele><time>2026-04-04T08:22:39Z</time></trkpt><trkpt lat="45.18422285945155" lon="8.486781888336397"><ele>108.66666666666666</ele><time>2026-04-04T08:22:40Z</time></trkpt><trkpt lat="45.184365165910364" lon="8.486878746430024"><ele>109.33333333333333</ele><time>2026-04-04T08:22:41Z</time></trkpt><trkpt lat="45.184518406783745" lon="8.4869568739984"><ele>110.0</ele><time>2026-04-04T08:22:42Z</time></trkpt><trkpt lat="45.18467972720692" lon="8.487037147702846"><ele>110.0</ele><time>2026-04-04T08:22:43Z</time></trkpt><trkpt lat="45.18484329281286" lon="8.487117981704312"><ele>110.0</ele><time>2026-04-04T08:22:44Z</time></trkpt><trkpt lat="45.185017833098044" lon="8.487183059829778"><ele>110.0</ele><time>2026-04-04T08:22:45Z</time></trkpt><trkpt lat="45.18518933797772" lon="8.487270210213996"><ele>109.33333333333333</ele><time>2026-04-04T08:22:46Z</time></trkpt><trkpt lat="45.18536246661778" lon="8.48735495350563"><ele>108.66666666666666</ele><time>2026-04-04T08:22:47Z</time></trkpt><trkpt lat="45.18553746665478" lon="8.487440511506588"><ele>108.0</ele><time>2026-04-04T08:22:48Z</time></trkpt><trkpt lat="45.185708685703105" lon="8.487527634947105"><ele>108.0</ele><time>2026-04-04T08:22:49Z</time></trkpt><trkpt lat="45.185865005775256" lon="8.487612266117127"><ele>108.0</ele><time>2026-04-04T08:22:50Z</time></trkpt><trkpt lat="45.186020581066025" lon="8.487698922771173"><ele>108.0</ele><time>2026-04-04T08:22:51Z</time></trkpt><trkpt lat="45.186184146574085" lon="8.487782603366421"><ele>108.0</ele><time>2026-04-04T08:22:52Z</time></trkpt><trkpt lat="45.18633308760807" lon="8.487855767306216"><ele>108.0</ele><time>2026-04-04T08:22:52.999Z</time></trkpt><trkpt lat="45.1864775632209" lon="8.48792669954277"><ele>108.0</ele><time>2026-04-04T08:22:53.999Z</time></trkpt><trkpt lat="45.186605265120726" lon="8.487989302107245"><ele>108.0</ele><time>2026-04-04T08:22:54.999Z</time></trkpt><trkpt lat="45.18671924848971" lon="8.488052089086787"><ele>107.75</ele><time>2026-04-04T08:22:55.999Z</time></trkpt><trkpt lat="45.186822896406575" lon="8.488130825516183"><ele>107.5</ele><time>2026-04-04T08:22:56.999Z</time></trkpt><trkpt lat="45.186915653972186" lon="8.488240669816435"><ele>107.25</ele><time>2026-04-04T08:22:57.999Z</time></trkpt><trkpt lat="45.18699596984564" lon="8.488405295552417"><ele>107.0</ele><time>2026-04-04T08:22:58.999Z</time></trkpt><trkpt lat="45.18707354077498" lon="8.488584498822913"><ele>107.33333333333333</ele><time>2026-04-04T08:22:59.999Z</time></trkpt><trkpt lat="45.18715566336798" lon="8.488780755456668"><ele>107.66666666666666</ele><time>2026-04-04T08:23:00.999Z</time></trkpt><trkpt lat="45.187241170752465" lon="8.48897226043818"><ele>108.0</ele><time>2026-04-04T08:23:01.999Z</time></trkpt><trkpt lat="45.1873338725091" lon="8.489171438888969"><ele>107.66666666666666</ele><time>2026-04-04T08:23:02.999Z</time></trkpt><trkpt lat="45.18743006461375" lon="8.489379027718934"><ele>107.33333333333333</ele><time>2026-04-04T08:23:03.999Z</time></trkpt><trkpt lat="45.18753288826514" lon="8.489589478249586"><ele>107.0</ele><time>2026-04-04T08:23:04.999Z</time></trkpt><trkpt lat="45.187631799313166" lon="8.489814313213333"><ele>107.0</ele><time>2026-04-04T08:23:05.999Z</time></trkpt><trkpt lat="45.18776808228695" lon="8.489997017292296"><ele>107.0</ele><time>2026-04-04T08:23:06.999Z</time></trkpt><trkpt lat="45.187895931314884" lon="8.490181957475237"><ele>107.0</ele><time>2026-04-04T08:23:07.999Z</time></trkpt><trkpt lat="45.188025577215804" lon="8.49036227134716"><ele>107.0</ele><time>2026-04-04T08:23:08.999Z</time></trkpt><trkpt lat="45.18815589105254" lon="8.490540751806469"><ele>107.0</ele><time>2026-04-04T08:23:09.999Z</time></trkpt><trkpt lat="45.18828782242476" lon="8.490719651147264"><ele>107.0</ele><time>2026-04-04T08:23:10.999Z</time></trkpt><trkpt lat="45.188420979657636" lon="8.490898834903946"><ele>107.33333333333333</ele><time>2026-04-04T08:23:11.999Z</time></trkpt><trkpt lat="45.18855386112755" lon="8.491078976149657"><ele>107.66666666666666</ele><time>2026-04-04T08:23:12.999Z</time></trkpt><trkpt lat="45.188687981875326" lon="8.491259664179767"><ele>108.0</ele><time>2026-04-04T08:23:13.999Z</time></trkpt><trkpt lat="45.188827641671594" lon="8.491440417449493"><ele>108.0</ele><time>2026-04-04T08:23:14.999Z</time></trkpt><trkpt lat="45.188961625737214" lon="8.491624016170427"><ele>108.0</ele><time>2026-04-04T08:23:15.999Z</time></trkpt><trkpt lat="45.189081571168515" lon="8.491818744069555"><ele>108.0</ele><time>2026-04-04T08:23:16.999Z</time></trkpt><trkpt lat="45.18922266515345" lon="8.491983471181781"><ele>107.66666666666666</ele><time>2026-04-04T08:23:17.999Z</time></trkpt><trkpt lat="45.18938654541879" lon="8.492108638502463"><ele>107.33333333333333</ele><time>2026-04-04T08:23:18.999Z</time></trkpt><trkpt lat="45.18954416399427" lon="8.492250346660837"><ele>107.0</ele><time>2026-04-04T08:23:19.999Z</time></trkpt><trkpt lat="45.1897012301902" lon="8.492388320161345"><ele>107.66666666666666</ele><time>2026-04-04T08:23:20.999Z</time></trkpt><trkpt lat="45.189861210562846" lon="8.49252242249965"><ele>108.33333333333334</ele><time>2026-04-04T08:23:21.999Z</time></trkpt><trkpt lat="45.19001769856079" lon="8.492649421691453"><ele>109.0</ele><time>2026-04-04T08:23:22.999Z</time></trkpt><trkpt lat="45.190167120142924" lon="8.492773498828164"><ele>109.0</ele><time>2026-04-04T08:23:23.999Z</time></trkpt><trkpt lat="45.190319433800425" lon="8.49290370041456"><ele>109.0</ele><time>2026-04-04T08:23:24.999Z</time></trkpt><trkpt lat="45.190463032586834" lon="8.493025298256109"><ele>109.0</ele><time>2026-04-04T08:23:25.999Z</time></trkpt><trkpt lat="45.19060796784311" lon="8.493144117924054"><ele>109.66666666666667</ele><time>2026-04-04T08:23:26.999Z</time></trkpt><trkpt lat="45.190756649857775" lon="8.49327325355406"><ele>110.33333333333334</ele><time>2026-04-04T08:23:27.999Z</time></trkpt><trkpt lat="45.19090829928012" lon="8.493408125242658"><ele>111.0</ele><time>2026-04-04T08:23:28.999Z</time></trkpt><trkpt lat="45.191046306416226" lon="8.493530687242556"><ele>111.0</ele><time>2026-04-04T08:23:30.001Z</time></trkpt><trkpt lat="45.191185031787484" lon="8.493660918689818"><ele>111.0</ele><time>2026-04-04T08:23:31.001Z</time></trkpt><trkpt lat="45.19132171824944" lon="8.493806375979775"><ele>111.0</ele><time>2026-04-04T08:23:32.001Z</time></trkpt><trkpt lat="45.1914554190435" lon="8.493957042075985"><ele>111.66666666666666</ele><time>2026-04-04T08:23:33.001Z</time></trkpt><trkpt lat="45.19158031890768" lon="8.494099645114012"><ele>112.33333333333333</ele><time>2026-04-04T08:23:34.001Z</time></trkpt><trkpt lat="45.19170956839136" lon="8.494254742383093"><ele>113.0</ele><time>2026-04-04T08:23:35.001Z</time></trkpt><trkpt lat="45.19184424852839" lon="8.494415556485608"><ele>113.0</ele><time>2026-04-04T08:23:36.001Z</time></trkpt><trkpt lat="45.19198361486842" lon="8.494577349372149"><ele>113.0</ele><time>2026-04-04T08:23:37.001Z</time></trkpt><trkpt lat="45.19212774997939" lon="8.494734941961145"><ele>113.0</ele><time>2026-04-04T08:23:38.001Z</time></trkpt><trkpt lat="45.19227264229771" lon="8.494859018123817"><ele>112.0</ele><time>2026-04-04T08:23:39.001Z</time></trkpt><trkpt lat="45.19243583972831" lon="8.494958535585667"><ele>111.0</ele><time>2026-04-04T08:23:40.001Z</time></trkpt><trkpt lat="45.19261495932421" lon="8.495034773766784"><ele>110.0</ele><time>2026-04-04T08:23:41.001Z</time></trkpt><trkpt lat="45.19280676428533" lon="8.495082924051912"><ele>110.0</ele><time>2026-04-04T08:23:42.001Z</time></trkpt><trkpt lat="45.19300973617518" lon="8.495101253129759"><ele>110.0</ele><time>2026-04-04T08:23:43.001Z</time></trkpt><trkpt lat="45.19321500080601" lon="8.495097761790184"><ele>110.0</ele><time>2026-04-04T08:23:44.001Z</time></trkpt><trkpt lat="45.19340182446606" lon="8.49508786880021"><ele>109.66666666666666</ele><time>2026-04-04T08:23:45.001Z</time></trkpt><trkpt lat="45.19358295625427" lon="8.495086113249569"><ele>109.33333333333334</ele><time>2026-04-04T08:23:46Z</time></trkpt><trkpt lat="45.193766816060034" lon="8.495095134104883"><ele>109.0</ele><time>2026-04-04T08:23:47Z</time></trkpt><trkpt lat="45.19395671134351" lon="8.495106531110384"><ele>109.0</ele><time>2026-04-04T08:23:48Z</time></trkpt><trkpt lat="45.19414451671818" lon="8.495138252963084"><ele>109.0</ele><time>2026-04-04T08:23:49Z</time></trkpt><trkpt lat="45.19432954890925" lon="8.495189402051075"><ele>109.0</ele><time>2026-04-04T08:23:50Z</time></trkpt><trkpt lat="45.194517619490114" lon="8.49526102870189"><ele>109.0</ele><time>2026-04-04T08:23:51Z</time></trkpt><trkpt lat="45.19469116435549" lon="8.495334530474064"><ele>109.0</ele><time>2026-04-04T08:23:52Z</time></trkpt><trkpt lat="45.19485778256566" lon="8.495413394249084"><ele>109.0</ele><time>2026-04-04T08:23:53Z</time></trkpt><trkpt lat="45.19503030014659" lon="8.49549920232555"><ele>108.66666666666667</ele><time>2026-04-04T08:23:54Z</time></trkpt><trkpt lat="45.19520273754487" lon="8.495593887578298"><ele>108.33333333333334</ele><time>2026-04-04T08:23:55Z</time></trkpt><trkpt lat="45.19537840603886" lon="8.495686051966487"><ele>108.0</ele><time>2026-04-04T08:23:56Z</time></trkpt><trkpt lat="45.19555310470973" lon="8.495774063134032"><ele>107.33333333333334</ele><time>2026-04-04T08:23:57Z</time></trkpt><trkpt lat="45.195721766844756" lon="8.495857560513041"><ele>106.66666666666667</ele><time>2026-04-04T08:23:58Z</time></trkpt><trkpt lat="45.1958865027428" lon="8.495933749479283"><ele>106.0</ele><time>2026-04-04T08:23:59Z</time></trkpt><trkpt lat="45.19606015825693" lon="8.496007512800675"><ele>106.0</ele><time>2026-04-04T08:24:00Z</time></trkpt><trkpt lat="45.19623770862574" lon="8.496083014420586"><ele>106.0</ele><time>2026-04-04T08:24:01Z</time></trkpt><trkpt lat="45.196420765370945" lon="8.49615073497052"><ele>106.0</ele><time>2026-04-04T08:24:02Z</time></trkpt><trkpt lat="45.19660201996694" lon="8.496195666829564"><ele>106.66666666666667</ele><time>2026-04-04T08:24:03Z</time></trkpt><trkpt lat="45.19677163952569" lon="8.496222760578377"><ele>107.33333333333334</ele><time>2026-04-04T08:24:04Z</time></trkpt><trkpt lat="45.196949692761656" lon="8.496236309711625"><ele>108.0</ele><time>2026-04-04T08:24:05Z</time></trkpt><trkpt lat="45.19713078462588" lon="8.496247057519136"><ele>108.0</ele><time>2026-04-04T08:24:06Z</time></trkpt><trkpt lat="45.19731664053826" lon="8.496254769361403"><ele>108.0</ele><time>2026-04-04T08:24:07Z</time></trkpt><trkpt lat="45.19750516921312" lon="8.496264659835212"><ele>108.0</ele><time>2026-04-04T08:24:08Z</time></trkpt><trkpt lat="45.19767796752753" lon="8.496278452020935"><ele>108.0</ele><time>2026-04-04T08:24:09Z</time></trkpt><trkpt lat="45.197845526562254" lon="8.49629604381532"><ele>108.0</ele><time>2026-04-04T08:24:10Z</time></trkpt><trkpt lat="45.19802258699249" lon="8.496314252624643"><ele>108.0</ele><time>2026-04-04T08:24:11Z</time></trkpt><trkpt lat="45.19820315562452" lon="8.496334757753324"><ele>107.66666666666666</ele><time>2026-04-04T08:24:12Z</time></trkpt><trkpt lat="45.19838984887812" lon="8.496361583306758"><ele>107.33333333333333</ele><time>2026-04-04T08:24:13Z</time></trkpt><trkpt lat="45.198579216259056" lon="8.496389662563287"><ele>107.0</ele><time>2026-04-04T08:24:14Z</time></trkpt><trkpt lat="45.19876716344493" lon="8.496426353119388"><ele>107.0</ele><time>2026-04-04T08:24:15Z</time></trkpt><trkpt lat="45.198950132689504" lon="8.496469817288721"><ele>107.0</ele><time>2026-04-04T08:24:16Z</time></trkpt><trkpt lat="45.19913550534624" lon="8.496520527758038"><ele>107.0</ele><time>2026-04-04T08:24:17Z</time></trkpt><trkpt lat="45.19931843506226" lon="8.496574191514922"><ele>107.0</ele><time>2026-04-04T08:24:18Z</time></trkpt><trkpt lat="45.199504089237806" lon="8.49662819205362"><ele>107.0</ele><time>2026-04-04T08:24:19Z</time></trkpt><trkpt lat="45.19968580327051" lon="8.496670097888185"><ele>107.0</ele><time>2026-04-04T08:24:20Z</time></trkpt><trkpt lat="45.19986971337959" lon="8.496698629290313"><ele>107.0</ele><time>2026-04-04T08:24:21Z</time></trkpt><trkpt lat="45.20005607326762" lon="8.49672167087612"><ele>107.0</ele><time>2026-04-04T08:24:22Z</time></trkpt><trkpt lat="45.20024097299304" lon="8.49674063516332"><ele>107.0</ele><time>2026-04-04T08:24:23Z</time></trkpt><trkpt lat="45.20041592656053" lon="8.496757776513979"><ele>107.0</ele><time>2026-04-04T08:24:24Z</time></trkpt><trkpt lat="45.20058844039026" lon="8.496771810432442"><ele>107.0</ele><time>2026-04-04T08:24:25Z</time></trkpt><trkpt lat="45.2007700975647" lon="8.496790906441683"><ele>107.0</ele><time>2026-04-04T08:24:26Z</time></trkpt><trkpt lat="45.20095404069892" lon="8.496814196237553"><ele>107.0</ele><time>2026-04-04T08:24:27Z</time></trkpt><trkpt lat="45.201140062013586" lon="8.49684267037149"><ele>107.0</ele><time>2026-04-04T08:24:28Z</time></trkpt><trkpt lat="45.20131152891814" lon="8.496901745837198"><ele>107.0</ele><time>2026-04-04T08:24:29Z</time></trkpt><trkpt lat="45.20147827737677" lon="8.49697734314979"><ele>107.0</ele><time>2026-04-04T08:24:30Z</time></trkpt><trkpt lat="45.201651152370324" lon="8.49706296547155"><ele>107.0</ele><time>2026-04-04T08:24:31Z</time></trkpt><trkpt lat="45.20182832252763" lon="8.497150626561494"><ele>107.0</ele><time>2026-04-04T08:24:32Z</time></trkpt><trkpt lat="45.20200064877801" lon="8.497239287276923"><ele>107.0</ele><time>2026-04-04T08:24:33Z</time></trkpt><trkpt lat="45.20216425087678" lon="8.497310504088514"><ele>107.0</ele><time>2026-04-04T08:24:34Z</time></trkpt><trkpt lat="45.202345896394846" lon="8.49735409061279"><ele>107.0</ele><time>2026-04-04T08:24:35Z</time></trkpt><trkpt lat="45.20253689454435" lon="8.497359615246362"><ele>107.33333333333333</ele><time>2026-04-04T08:24:36Z</time></trkpt><trkpt lat="45.20272407803841" lon="8.497348289043542"><ele>107.66666666666666</ele><time>2026-04-04T08:24:37Z</time></trkpt><trkpt lat="45.20289711050931" lon="8.497336491136359"><ele>108.0</ele><time>2026-04-04T08:24:38Z</time></trkpt><trkpt lat="45.203081600061026" lon="8.497331871699469"><ele>108.0</ele><time>2026-04-04T08:24:39Z</time></trkpt><trkpt lat="45.20327052372852" lon="8.497343792283774"><ele>108.0</ele><time>2026-04-04T08:24:40Z</time></trkpt><trkpt lat="45.203452283241774" lon="8.4973763167951"><ele>108.0</ele><time>2026-04-04T08:24:41Z</time></trkpt><trkpt lat="45.20362291006564" lon="8.497431106063527"><ele>108.0</ele><time>2026-04-04T08:24:42Z</time></trkpt><trkpt lat="45.20379773981" lon="8.497514636625557"><ele>108.0</ele><time>2026-04-04T08:24:43Z</time></trkpt><trkpt lat="45.2039752670319" lon="8.497610577421646"><ele>108.0</ele><time>2026-04-04T08:24:44Z</time></trkpt><trkpt lat="45.20415477888754" lon="8.49770090233745"><ele>108.0</ele><time>2026-04-04T08:24:45Z</time></trkpt><trkpt lat="45.20433990968332" lon="8.497787753170115"><ele>108.0</ele><time>2026-04-04T08:24:46Z</time></trkpt><trkpt lat="45.20452340013962" lon="8.49787648070177"><ele>108.0</ele><time>2026-04-04T08:24:47Z</time></trkpt><trkpt lat="45.20469068815126" lon="8.497961341781059"><ele>108.66666666666666</ele><time>2026-04-04T08:24:48Z</time></trkpt><trkpt lat="45.20486839218496" lon="8.498041439726416"><ele>109.33333333333333</ele><time>2026-04-04T08:24:49Z</time></trkpt><trkpt lat="45.205053515664865" lon="8.498109118517025"><ele>110.0</ele><time>2026-04-04T08:24:50Z</time></trkpt><trkpt lat="45.20524218713111" lon="8.498174480157685"><ele>110.0</ele><time>2026-04-04T08:24:51Z</time></trkpt><trkpt lat="45.205428684768314" lon="8.498255116635608"><ele>110.0</ele><time>2026-04-04T08:24:52Z</time></trkpt><trkpt lat="45.20561172470635" lon="8.49835726364404"><ele>110.0</ele><time>2026-04-04T08:24:52.999Z</time></trkpt><trkpt lat="45.20577582016364" lon="8.498470823619439"><ele>110.33333333333333</ele><time>2026-04-04T08:24:53.999Z</time></trkpt><trkpt lat="45.20594954494662" lon="8.498591089052923"><ele>110.66666666666666</ele><time>2026-04-04T08:24:54.999Z</time></trkpt><trkpt lat="45.20612935900926" lon="8.498699467786787"><ele>111.0</ele><time>2026-04-04T08:24:55.999Z</time></trkpt><trkpt lat="45.20631847281515" lon="8.498789604054497"><ele>111.0</ele><time>2026-04-04T08:24:56.999Z</time></trkpt><trkpt lat="45.206516733211686" lon="8.498860691048703"><ele>111.0</ele><time>2026-04-04T08:24:57.999Z</time></trkpt><trkpt lat="45.206712356702255" lon="8.498931590204565"><ele>111.0</ele><time>2026-04-04T08:24:58.999Z</time></trkpt><trkpt lat="45.20688880016386" lon="8.498994500703667"><ele>111.0</ele><time>2026-04-04T08:24:59.999Z</time></trkpt><trkpt lat="45.20706277322317" lon="8.499061267992094"><ele>111.0</ele><time>2026-04-04T08:25:00.999Z</time></trkpt><trkpt lat="45.20724296974728" lon="8.499135014559261"><ele>111.0</ele><time>2026-04-04T08:25:01.999Z</time></trkpt><trkpt lat="45.20742235520265" lon="8.49920321467479"><ele>111.0</ele><time>2026-04-04T08:25:02.999Z</time></trkpt><trkpt lat="45.207603641020214" lon="8.499264397221216"><ele>111.0</ele><time>2026-04-04T08:25:03.999Z</time></trkpt><trkpt lat="45.20778565824889" lon="8.499329265302269"><ele>111.0</ele><time>2026-04-04T08:25:04.999Z</time></trkpt><trkpt lat="45.20796515883524" lon="8.499405206763566"><ele>111.0</ele><time>2026-04-04T08:25:05.999Z</time></trkpt><trkpt lat="45.2081383077933" lon="8.499504900479721"><ele>111.0</ele><time>2026-04-04T08:25:06.999Z</time></trkpt><trkpt lat="45.208306527707286" lon="8.499643719402952"><ele>111.0</ele><time>2026-04-04T08:25:07.999Z</time></trkpt><trkpt lat="45.2084665829315" lon="8.49980359781539"><ele>110.66666666666666</ele><time>2026-04-04T08:25:08.999Z</time></trkpt><trkpt lat="45.20861645992826" lon="8.49996170198369"><ele>110.33333333333333</ele><time>2026-04-04T08:25:09.999Z</time></trkpt><trkpt lat="45.20877414140798" lon="8.500111800198246"><ele>110.0</ele><time>2026-04-04T08:25:10.999Z</time></trkpt><trkpt lat="45.20895361577932" lon="8.500234509339979"><ele>110.0</ele><time>2026-04-04T08:25:11.999Z</time></trkpt><trkpt lat="45.20914840643065" lon="8.500324064276652"><ele>110.0</ele><time>2026-04-04T08:25:12.999Z</time></trkpt><trkpt lat="45.20934455766947" lon="8.500394935909979"><ele>110.0</ele><time>2026-04-04T08:25:13.999Z</time></trkpt><trkpt lat="45.20951920675041" lon="8.500477442290771"><ele>109.66666666666666</ele><time>2026-04-04T08:25:14.999Z</time></trkpt><trkpt lat="45.2096872236145" lon="8.500604701610333"><ele>109.33333333333334</ele><time>2026-04-04T08:25:15.999Z</time></trkpt><trkpt lat="45.20984472253856" lon="8.50077094993929"><ele>109.0</ele><time>2026-04-04T08:25:16.999Z</time></trkpt><trkpt lat="45.210000510571916" lon="8.500955679705429"><ele>108.66666666666667</ele><time>2026-04-04T08:25:17.999Z</time></trkpt><trkpt lat="45.210154734837275" lon="8.501142596496045"><ele>108.33333333333334</ele><time>2026-04-04T08:25:18.999Z</time></trkpt><trkpt lat="45.21031133059607" lon="8.501329401345753"><ele>108.0</ele><time>2026-04-04T08:25:19.999Z</time></trkpt><trkpt lat="45.21047279559555" lon="8.501505104721044"><ele>108.33333333333334</ele><time>2026-04-04T08:25:20.999Z</time></trkpt><trkpt lat="45.210632461811336" lon="8.501674887607177"><ele>108.66666666666667</ele><time>2026-04-04T08:25:21.999Z</time></trkpt><trkpt lat="45.21078263812178" lon="8.501840335550101"><ele>109.0</ele><time>2026-04-04T08:25:22.999Z</time></trkpt><trkpt lat="45.21093268734551" lon="8.502022233026183"><ele>109.0</ele><time>2026-04-04T08:25:23.999Z</time></trkpt><trkpt lat="45.21108407506181" lon="8.502217472533767"><ele>109.0</ele><time>2026-04-04T08:25:24.999Z</time></trkpt><trkpt lat="45.21123661660377" lon="8.502412335216501"><ele>109.0</ele><time>2026-04-04T08:25:25.999Z</time></trkpt><trkpt lat="45.21139632414376" lon="8.502604587523514"><ele>109.0</ele><time>2026-04-04T08:25:26.999Z</time></trkpt><trkpt lat="45.21155227718585" lon="8.502777547746003"><ele>109.0</ele><time>2026-04-04T08:25:27.999Z</time></trkpt><trkpt lat="45.21170538874494" lon="8.502927093510712"><ele>109.0</ele><time>2026-04-04T08:25:28.999Z</time></trkpt><trkpt lat="45.21187363076005" lon="8.50306888267406"><ele>109.0</ele><time>2026-04-04T08:25:29.999Z</time></trkpt><trkpt lat="45.21204766631732" lon="8.503209201994112"><ele>109.0</ele><time>2026-04-04T08:25:30.999Z</time></trkpt><trkpt lat="45.21222077048415" lon="8.503351304214638"><ele>109.0</ele><time>2026-04-04T08:25:31.999Z</time></trkpt><trkpt lat="45.212393494053245" lon="8.503491928269158"><ele>109.0</ele><time>2026-04-04T08:25:32.999Z</time></trkpt><trkpt lat="45.2125634112877" lon="8.503626876239498"><ele>109.0</ele><time>2026-04-04T08:25:33.999Z</time></trkpt><trkpt lat="45.21272675720534" lon="8.503756642472004"><ele>109.0</ele><time>2026-04-04T08:25:34.999Z</time></trkpt><trkpt lat="45.212886330503075" lon="8.503883619162103"><ele>109.0</ele><time>2026-04-04T08:25:36.001Z</time></trkpt><trkpt lat="45.21304987556708" lon="8.504009494761496"><ele>109.0</ele><time>2026-04-04T08:25:37.001Z</time></trkpt><trkpt lat="45.21320879324303" lon="8.504138945272912"><ele>109.0</ele><time>2026-04-04T08:25:38.001Z</time></trkpt><trkpt lat="45.213365118094416" lon="8.504279916986409"><ele>109.0</ele><time>2026-04-04T08:25:39.001Z</time></trkpt><trkpt lat="45.21352541025133" lon="8.504420387197033"><ele>109.0</ele><time>2026-04-04T08:25:40.001Z</time></trkpt><trkpt lat="45.213675006836844" lon="8.50454307956107"><ele>109.0</ele><time>2026-04-04T08:25:41.001Z</time></trkpt><trkpt lat="45.21383244600665" lon="8.504669533540836"><ele>109.0</ele><time>2026-04-04T08:25:42.001Z</time></trkpt><trkpt lat="45.21397835810535" lon="8.504787789440341"><ele>109.0</ele><time>2026-04-04T08:25:43.001Z</time></trkpt><trkpt lat="45.21410708654075" lon="8.504890616470018"><ele>109.0</ele><time>2026-04-04T08:25:44.001Z</time></trkpt><trkpt lat="45.21421026769329" lon="8.504972969806373"><ele>109.0</ele><time>2026-04-04T08:25:45.001Z</time></trkpt><trkpt lat="45.214291813427295" lon="8.505036530492465"><ele>109.5</ele><time>2026-04-04T08:25:46.001Z</time></trkpt><trkpt lat="45.21438390546726" lon="8.505106500400283"><ele>110.0</ele><time>2026-04-04T08:25:48Z</time></trkpt><trkpt lat="45.214506588403324" lon="8.505207799008447"><ele>110.5</ele><time>2026-04-04T08:25:50Z</time></trkpt><trkpt lat="45.21459728568413" lon="8.505268885859714"><ele>111.0</ele><time>2026-04-04T08:25:51Z</time></trkpt><trkpt lat="45.214697251680796" lon="8.505336633336846"><ele>111.0</ele><time>2026-04-04T08:25:52Z</time></trkpt><trkpt lat="45.21480998087405" lon="8.50541580361405"><ele>111.0</ele><time>2026-04-04T08:25:53Z</time></trkpt><trkpt lat="45.21492842061411" lon="8.505510397455659"><ele>111.0</ele><time>2026-04-04T08:25:54Z</time></trkpt><trkpt lat="45.21505036587738" lon="8.505607811800916"><ele>111.0</ele><time>2026-04-04T08:25:55Z</time></trkpt><trkpt lat="45.21518594513167" lon="8.5057108062827"><ele>111.25</ele><time>2026-04-04T08:25:56Z</time></trkpt><trkpt lat="45.21532868623895" lon="8.505814569550884"><ele>111.5</ele><time>2026-04-04T08:25:57Z</time></trkpt><trkpt lat="45.21544603402226" lon="8.505894012070245"><ele>111.75</ele><time>2026-04-04T08:25:58Z</time></trkpt><trkpt lat="45.2155332542231" lon="8.505952782949342"><ele>112.0</ele><time>2026-04-04T08:25:59Z</time></trkpt><trkpt lat="45.21559964763494" lon="8.505965014851443"><ele>111.83333333333334</ele><time>2026-04-04T08:26:00Z</time></trkpt><trkpt lat="45.21567032918505" lon="8.506053340885956"><ele>111.66666666666667</ele><time>2026-04-04T08:26:55Z</time></trkpt><trkpt lat="45.215732313217224" lon="8.506072411393447"><ele>111.5</ele><time>2026-04-04T08:26:55.999Z</time></trkpt><trkpt lat="45.21580641064524" lon="8.506099528144269"><ele>111.33333333333334</ele><time>2026-04-04T08:26:56.999Z</time></trkpt><trkpt lat="45.21588964522745" lon="8.506136025374616"><ele>111.16666666666667</ele><time>2026-04-04T08:26:57.999Z</time></trkpt><trkpt lat="45.2159866804753" lon="8.506141676980384"><ele>111.0</ele><time>2026-04-04T08:26:58.999Z</time></trkpt><trkpt lat="45.21608365450787" lon="8.506182694471537"><ele>111.0</ele><time>2026-04-04T08:26:59.999Z</time></trkpt><trkpt lat="45.2161774147557" lon="8.50622287744188"><ele>111.0</ele><time>2026-04-04T08:27:00.999Z</time></trkpt><trkpt lat="45.21627427600085" lon="8.50627400022409"><ele>111.0</ele><time>2026-04-04T08:27:01.999Z</time></trkpt><trkpt lat="45.21638456063003" lon="8.50629491508182"><ele>111.0</ele><time>2026-04-04T08:27:02.999Z</time></trkpt><trkpt lat="45.21650455082791" lon="8.506309718251664"><ele>111.0</ele><time>2026-04-04T08:27:03.999Z</time></trkpt><trkpt lat="45.21662969984358" lon="8.506320258225395"><ele>111.0</ele><time>2026-04-04T08:27:04.999Z</time></trkpt><trkpt lat="45.21675602227106" lon="8.506326079171302"><ele>111.0</ele><time>2026-04-04T08:27:05.999Z</time></trkpt><trkpt lat="45.216882267272204" lon="8.506332397599126"><ele>111.0</ele><time>2026-04-04T08:27:06.999Z</time></trkpt><trkpt lat="45.21701461813286" lon="8.506336390289972"><ele>111.0</ele><time>2026-04-04T08:27:07.999Z</time></trkpt><trkpt lat="45.21715011792787" lon="8.506335271711263"><ele>111.0</ele><time>2026-04-04T08:27:08.999Z</time></trkpt><trkpt lat="45.21728603979372" lon="8.50633433195899"><ele>111.0</ele><time>2026-04-04T08:27:09.999Z</time></trkpt><trkpt lat="45.217426778004786" lon="8.506335802402095"><ele>111.0</ele><time>2026-04-04T08:27:10.999Z</time></trkpt><trkpt lat="45.21757114323028" lon="8.50633698387627"><ele>111.0</ele><time>2026-04-04T08:27:11.999Z</time></trkpt><trkpt lat="45.217717750919114" lon="8.506339068164774"><ele>111.0</ele><time>2026-04-04T08:27:12.999Z</time></trkpt><trkpt lat="45.217874215807996" lon="8.506342262538515"><ele>111.0</ele><time>2026-04-04T08:27:13.999Z</time></trkpt><trkpt lat="45.218037676736444" lon="8.506347793815642"><ele>111.0</ele><time>2026-04-04T08:27:14.999Z</time></trkpt><trkpt lat="45.21820395241227" lon="8.506352165442765"><ele>111.0</ele><time>2026-04-04T08:27:15.999Z</time></trkpt><trkpt lat="45.218357430157226" lon="8.506357608606512"><ele>111.0</ele><time>2026-04-04T08:27:16.999Z</time></trkpt><trkpt lat="45.21849260380532" lon="8.506361392903031"><ele>111.0</ele><time>2026-04-04T08:27:17.999Z</time></trkpt><trkpt lat="45.218614619018545" lon="8.50636300276777"><ele>111.0</ele><time>2026-04-04T08:27:18.999Z</time></trkpt><trkpt lat="45.21872425671113" lon="8.506363598778993"><ele>111.0</ele><time>2026-04-04T08:27:19.999Z</time></trkpt><trkpt lat="45.21882360255499" lon="8.506364535194315"><ele>111.0</ele><time>2026-04-04T08:27:20.999Z</time></trkpt><trkpt lat="45.21891693585947" lon="8.506365111004005"><ele>111.0</ele><time>2026-04-04T08:27:21.999Z</time></trkpt><trkpt lat="45.21901280262129" lon="8.506367835927003"><ele>111.0</ele><time>2026-04-04T08:27:22.999Z</time></trkpt><trkpt lat="45.21910001702862" lon="8.506370730409879"><ele>111.0</ele><time>2026-04-04T08:27:23.999Z</time></trkpt><trkpt lat="45.21918462009426" lon="8.50636850234074"><ele>111.0</ele><time>2026-04-04T08:27:24.999Z</time></trkpt><trkpt lat="45.21927013577099" lon="8.506364998558025"><ele>111.0</ele><time>2026-04-04T08:27:25.999Z</time></trkpt><trkpt lat="45.21935621911932" lon="8.506361127779423"><ele>111.0</ele><time>2026-04-04T08:27:26.999Z</time></trkpt><trkpt lat="45.21944769343629" lon="8.506360426243443"><ele>111.0</ele><time>2026-04-04T08:27:27.999Z</time></trkpt><trkpt lat="45.219552707936565" lon="8.506364786260113"><ele>111.0</ele><time>2026-04-04T08:27:28.999Z</time></trkpt><trkpt lat="45.21967253359825" lon="8.506372646073777"><ele>111.0</ele><time>2026-04-04T08:27:29.999Z</time></trkpt><trkpt lat="45.21980472147322" lon="8.506372178085966"><ele>111.0</ele><time>2026-04-04T08:27:30.999Z</time></trkpt><trkpt lat="45.219950156522096" lon="8.506374244621446"><ele>111.0</ele><time>2026-04-04T08:27:31.999Z</time></trkpt><trkpt lat="45.220087136980936" lon="8.506375072552292"><ele>111.0</ele><time>2026-04-04T08:27:32.999Z</time></trkpt><trkpt lat="45.22021282360112" lon="8.506376400640805"><ele>111.0</ele><time>2026-04-04T08:27:33.999Z</time></trkpt><trkpt lat="45.22033209933459" lon="8.506376726328677"><ele>111.0</ele><time>2026-04-04T08:27:34.999Z</time></trkpt><trkpt lat="45.22045747626285" lon="8.50637725726636"><ele>111.0</ele><time>2026-04-04T08:27:35.999Z</time></trkpt><trkpt lat="45.220587249386654" lon="8.50637613421656"><ele>111.0</ele><time>2026-04-04T08:27:36.999Z</time></trkpt><trkpt lat="45.22071467753135" lon="8.506373853288531"><ele>111.5</ele><time>2026-04-04T08:27:37.999Z</time></trkpt><trkpt lat="45.22083762426207" lon="8.506369094633996"><ele>112.0</ele><time>2026-04-04T08:27:38.999Z</time></trkpt><trkpt lat="45.22095693855294" lon="8.506366378509517"><ele>112.5</ele><time>2026-04-04T08:27:39.999Z</time></trkpt><trkpt lat="45.22106334526686" lon="8.506368246702081"><ele>113.0</ele><time>2026-04-04T08:27:40.999Z</time></trkpt><trkpt lat="45.22116648926452" lon="8.506371013292107"><ele>112.99999999999999</ele><time>2026-04-04T08:27:42Z</time></trkpt><trkpt lat="45.22126827238085" lon="8.50637548876654"><ele>113.0</ele><time>2026-04-04T08:27:43Z</time></trkpt><trkpt lat="45.22135579475633" lon="8.506378789965401"><ele>113.0</ele><time>2026-04-04T08:27:44Z</time></trkpt><trkpt lat="45.221425191223965" lon="8.506381158731319"><ele>113.0</ele><time>2026-04-04T08:27:45Z</time></trkpt><trkpt lat="45.2215125749485" lon="8.506381544519561"><ele>112.99999999999999</ele><time>2026-04-04T08:27:47Z</time></trkpt><trkpt lat="45.22158802513236" lon="8.506365115456084"><ele>113.0</ele><time>2026-04-04T08:27:51Z</time></trkpt><trkpt lat="45.22163215934606" lon="8.506127391366816"><ele>113.16666666666666</ele><time>2026-04-04T08:27:54Z</time></trkpt><trkpt lat="45.221628564322266" lon="8.506007143327578"><ele>113.33333333333333</ele><time>2026-04-04T08:27:55Z</time></trkpt><trkpt lat="45.22162763287421" lon="8.505902656192871"><ele>113.5</ele><time>2026-04-04T08:27:56Z</time></trkpt><trkpt lat="45.22162982967828" lon="8.505804182412751"><ele>113.66666666666666</ele><time>2026-04-04T08:27:57Z</time></trkpt><trkpt lat="45.221630181702004" lon="8.505708135341065"><ele>113.83333333333333</ele><time>2026-04-04T08:27:58Z</time></trkpt><trkpt lat="45.22162678703335" lon="8.505538659158137"><ele>114.0</ele><time>2026-04-04T08:28:00Z</time></trkpt><trkpt lat="45.22162685234199" lon="8.505425918486399"><ele>114.0</ele><time>2026-04-04T08:28:02Z</time></trkpt><trkpt lat="45.221628125304534" lon="8.505328259130865"><ele>114.0</ele><time>2026-04-04T08:28:06Z</time></trkpt><trkpt lat="45.221610393418125" lon="8.505181963585965"><ele>114.0</ele><time>2026-04-04T08:28:09Z</time></trkpt><trkpt lat="45.221608062220874" lon="8.505069938468184"><ele>114.0</ele><time>2026-04-04T08:28:10Z</time></trkpt><trkpt lat="45.221615700023314" lon="8.50493620885896"><ele>114.0</ele><time>2026-04-04T08:28:11Z</time></trkpt><trkpt lat="45.22161640207278" lon="8.504783811942163"><ele>114.0</ele><time>2026-04-04T08:28:12Z</time></trkpt><trkpt lat="45.22161347988341" lon="8.504643261705338"><ele>114.0</ele><time>2026-04-04T08:28:13Z</time></trkpt><trkpt lat="45.2216115464225" lon="8.504514280565383"><ele>114.0</ele><time>2026-04-04T08:28:14Z</time></trkpt><trkpt lat="45.221607729022814" lon="8.504383499147343"><ele>114.0</ele><time>2026-04-04T08:28:15Z</time></trkpt><trkpt lat="45.221607242500895" lon="8.504226350694728"><ele>114.0</ele><time>2026-04-04T08:28:16Z</time></trkpt><trkpt lat="45.2216094843133" lon="8.50406105244923"><ele>113.75</ele><time>2026-04-04T08:28:17Z</time></trkpt><trkpt lat="45.22161010046604" lon="8.503876661656603"><ele>113.5</ele><time>2026-04-04T08:28:18Z</time></trkpt><trkpt lat="45.22160614696494" lon="8.503673231105926"><ele>113.25</ele><time>2026-04-04T08:28:19Z</time></trkpt><trkpt lat="45.22159972809825" lon="8.503453999266359"><ele>113.0</ele><time>2026-04-04T08:28:20Z</time></trkpt><trkpt lat="45.22159956635668" lon="8.503280539027724"><ele>112.99999999999999</ele><time>2026-04-04T08:28:21Z</time></trkpt><trkpt lat="45.22160056385858" lon="8.503147031094349"><ele>113.0</ele><time>2026-04-04T08:28:22Z</time></trkpt><trkpt lat="45.22161035250751" lon="8.503049566178106"><ele>113.0</ele><time>2026-04-04T08:28:23Z</time></trkpt><trkpt lat="45.22162662676383" lon="8.502961225228834"><ele>113.0</ele><time>2026-04-04T08:28:24Z</time></trkpt><trkpt lat="45.22169387692843" lon="8.502902204161728"><ele>112.99999999999999</ele><time>2026-04-04T08:28:25Z</time></trkpt><trkpt lat="45.221771435775885" lon="8.502855102753228"><ele>113.0</ele><time>2026-04-04T08:28:26Z</time></trkpt><trkpt lat="45.22187945877442" lon="8.50281907795888"><ele>113.0</ele><time>2026-04-04T08:28:27Z</time></trkpt><trkpt lat="45.22201341329022" lon="8.502811341496956"><ele>113.0</ele><time>2026-04-04T08:28:28Z</time></trkpt><trkpt lat="45.222150647780076" lon="8.50280639802387"><ele>113.0</ele><time>2026-04-04T08:28:29Z</time></trkpt><trkpt lat="45.222291687625386" lon="8.502800833650713"><ele>113.0</ele><time>2026-04-04T08:28:30Z</time></trkpt><trkpt lat="45.22241238997256" lon="8.502795535889913"><ele>112.33333333333333</ele><time>2026-04-04T08:28:31Z</time></trkpt><trkpt lat="45.22254808993332" lon="8.502725119607069"><ele>111.66666666666666</ele><time>2026-04-04T08:28:32Z</time></trkpt><trkpt lat="45.22271373503747" lon="8.502796007309232"><ele>111.0</ele><time>2026-04-04T08:28:33Z</time></trkpt><trkpt lat="45.2228770248986" lon="8.502784572949588"><ele>111.0</ele><time>2026-04-04T08:28:34Z</time></trkpt><trkpt lat="45.22304550283908" lon="8.502792409983554"><ele>111.0</ele><time>2026-04-04T08:28:35Z</time></trkpt><trkpt lat="45.22321798559857" lon="8.5027668689355"><ele>111.0</ele><time>2026-04-04T08:28:36Z</time></trkpt><trkpt lat="45.22338203434967" lon="8.502768070989884"><ele>111.0</ele><time>2026-04-04T08:28:37Z</time></trkpt><trkpt lat="45.223549894820565" lon="8.502771537467249"><ele>111.0</ele><time>2026-04-04T08:28:38Z</time></trkpt><trkpt lat="45.22372639688815" lon="8.502751055835466"><ele>111.0</ele><time>2026-04-04T08:28:39Z</time></trkpt><trkpt lat="45.223890922397985" lon="8.50273574163456"><ele>111.0</ele><time>2026-04-04T08:28:40Z</time></trkpt><trkpt lat="45.224026087503425" lon="8.502743360493268"><ele>111.0</ele><time>2026-04-04T08:28:41Z</time></trkpt><trkpt lat="45.224140409283436" lon="8.50276540040173"><ele>111.0</ele><time>2026-04-04T08:28:42Z</time></trkpt><trkpt lat="45.224246958504914" lon="8.50276940838061"><ele>111.0</ele><time>2026-04-04T08:28:43Z</time></trkpt><trkpt lat="45.22435175539389" lon="8.502720575343938"><ele>111.0</ele><time>2026-04-04T08:28:44Z</time></trkpt><trkpt lat="45.224466423575414" lon="8.502637842309506"><ele>111.0</ele><time>2026-04-04T08:28:45Z</time></trkpt><trkpt lat="45.22457229611257" lon="8.502511818263036"><ele>111.0</ele><time>2026-04-04T08:28:46Z</time></trkpt><trkpt lat="45.224682882282586" lon="8.502353354780526"><ele>111.0</ele><time>2026-04-04T08:28:47Z</time></trkpt><trkpt lat="45.22479761510374" lon="8.502133743216712"><ele>110.33333333333334</ele><time>2026-04-04T08:28:48Z</time></trkpt><trkpt lat="45.2248918967356" lon="8.501925559833182"><ele>109.66666666666667</ele><time>2026-04-04T08:28:49Z</time></trkpt><trkpt lat="45.22498161644727" lon="8.50170724563304"><ele>109.0</ele><time>2026-04-04T08:28:50Z</time></trkpt><trkpt lat="45.22506918655577" lon="8.501487079265013"><ele>109.0</ele><time>2026-04-04T08:28:51Z</time></trkpt><trkpt lat="45.22516119760468" lon="8.501251797764796"><ele>109.0</ele><time>2026-04-04T08:28:52Z</time></trkpt><trkpt lat="45.22525117644805" lon="8.50101917235779"><ele>109.0</ele><time>2026-04-04T08:28:53Z</time></trkpt><trkpt lat="45.225343149932826" lon="8.500780421655755"><ele>109.66666666666667</ele><time>2026-04-04T08:28:54Z</time></trkpt><trkpt lat="45.225431717789945" lon="8.50054125810265"><ele>110.33333333333334</ele><time>2026-04-04T08:28:55Z</time></trkpt><trkpt lat="45.22552196393104" lon="8.500300728809469"><ele>111.0</ele><time>2026-04-04T08:28:56Z</time></trkpt><trkpt lat="45.225610694391634" lon="8.500061961544997"><ele>110.66666666666666</ele><time>2026-04-04T08:28:56.999Z</time></trkpt><trkpt lat="45.22570001503557" lon="8.499845725512952"><ele>110.33333333333333</ele><time>2026-04-04T08:28:57.999Z</time></trkpt><trkpt lat="45.225815171164456" lon="8.499641329376306"><ele>110.0</ele><time>2026-04-04T08:28:58.999Z</time></trkpt><trkpt lat="45.22596145966999" lon="8.499469708954082"><ele>109.33333333333333</ele><time>2026-04-04T08:28:59.999Z</time></trkpt><trkpt lat="45.226125924470665" lon="8.499334567636089"><ele>108.66666666666666</ele><time>2026-04-04T08:29:00.999Z</time></trkpt><trkpt lat="45.22630426547317" lon="8.49921044686376"><ele>108.0</ele><time>2026-04-04T08:29:01.999Z</time></trkpt><trkpt lat="45.226477405144315" lon="8.499078092661321"><ele>108.33333333333334</ele><time>2026-04-04T08:29:02.999Z</time></trkpt><trkpt lat="45.226646446998906" lon="8.498939484784577"><ele>108.66666666666667</ele><time>2026-04-04T08:29:03.999Z</time></trkpt><trkpt lat="45.22681012117667" lon="8.49880472720083"><ele>109.0</ele><time>2026-04-04T08:29:04.999Z</time></trkpt><trkpt lat="45.22696943146078" lon="8.498675463428548"><ele>109.0</ele><time>2026-04-04T08:29:05.999Z</time></trkpt><trkpt lat="45.227137813249264" lon="8.498537918141507"><ele>109.0</ele><time>2026-04-04T08:29:06.999Z</time></trkpt><trkpt lat="45.22730478512939" lon="8.498407209809407"><ele>109.0</ele><time>2026-04-04T08:29:07.999Z</time></trkpt><trkpt lat="45.2274719071704" lon="8.498270551191698"><ele>109.0</ele><time>2026-04-04T08:29:08.999Z</time></trkpt><trkpt lat="45.22763510973543" lon="8.498120126178499"><ele>109.0</ele><time>2026-04-04T08:29:09.999Z</time></trkpt><trkpt lat="45.22779133211754" lon="8.497964510783836"><ele>109.0</ele><time>2026-04-04T08:29:10.999Z</time></trkpt><trkpt lat="45.2279437324245" lon="8.497808861344895"><ele>108.66666666666667</ele><time>2026-04-04T08:29:11.999Z</time></trkpt><trkpt lat="45.22809345561025" lon="8.49765062966347"><ele>108.33333333333334</ele><time>2026-04-04T08:29:12.999Z</time></trkpt><trkpt lat="45.228241606074505" lon="8.49748434176074"><ele>108.0</ele><time>2026-04-04T08:29:13.999Z</time></trkpt><trkpt lat="45.22838030712275" lon="8.497304415432737"><ele>108.0</ele><time>2026-04-04T08:29:14.999Z</time></trkpt><trkpt lat="45.22851159781194" lon="8.497111950678052"><ele>108.0</ele><time>2026-04-04T08:29:15.999Z</time></trkpt><trkpt lat="45.22863930019435" lon="8.496913978598734"><ele>108.0</ele><time>2026-04-04T08:29:16.999Z</time></trkpt><trkpt lat="45.228761128425106" lon="8.496726347046152"><ele>108.0</ele><time>2026-04-04T08:29:17.999Z</time></trkpt><trkpt lat="45.22888384661907" lon="8.496535696499418"><ele>108.0</ele><time>2026-04-04T08:29:18.999Z</time></trkpt><trkpt lat="45.2289949429184" lon="8.496357198192007"><ele>108.0</ele><time>2026-04-04T08:29:19.999Z</time></trkpt><trkpt lat="45.22908842857178" lon="8.496214047438785"><ele>108.4</ele><time>2026-04-04T08:29:20.999Z</time></trkpt><trkpt lat="45.22917442063146" lon="8.496101602892807"><ele>108.80000000000001</ele><time>2026-04-04T08:29:21.999Z</time></trkpt><trkpt lat="45.22925716521372" lon="8.496020727525844"><ele>109.2</ele><time>2026-04-04T08:29:22.999Z</time></trkpt><trkpt lat="45.22933225574473" lon="8.495962108174835"><ele>109.6</ele><time>2026-04-04T08:29:23.999Z</time></trkpt><trkpt lat="45.229410350832175" lon="8.495872290205257"><ele>110.0</ele><time>2026-04-04T08:29:24.999Z</time></trkpt><trkpt lat="45.22954642924162" lon="8.495860118205956"><ele>110.0</ele><time>2026-04-04T08:29:25.999Z</time></trkpt><trkpt lat="45.229693437691715" lon="8.495837148095667"><ele>110.0</ele><time>2026-04-04T08:29:26.999Z</time></trkpt><trkpt lat="45.22985055522028" lon="8.495813467230311"><ele>110.0</ele><time>2026-04-04T08:29:27.999Z</time></trkpt><trkpt lat="45.23001124467417" lon="8.4957797364685"><ele>110.0</ele><time>2026-04-04T08:29:28.999Z</time></trkpt><trkpt lat="45.23018149216889" lon="8.495739748218018"><ele>110.0</ele><time>2026-04-04T08:29:29.999Z</time></trkpt><trkpt lat="45.23036153996457" lon="8.495684671543222"><ele>110.0</ele><time>2026-04-04T08:29:30.999Z</time></trkpt><trkpt lat="45.2305414997199" lon="8.495615940823049"><ele>110.0</ele><time>2026-04-04T08:29:31.999Z</time></trkpt><trkpt lat="45.23072472750286" lon="8.495533256204379"><ele>110.0</ele><time>2026-04-04T08:29:32.999Z</time></trkpt><trkpt lat="45.230909126239496" lon="8.49544279576078"><ele>110.0</ele><time>2026-04-04T08:29:33.999Z</time></trkpt><trkpt lat="45.23110237389702" lon="8.495351990424107"><ele>110.0</ele><time>2026-04-04T08:29:34.999Z</time></trkpt><trkpt lat="45.23129701378367" lon="8.495249338024768"><ele>110.0</ele><time>2026-04-04T08:29:35.999Z</time></trkpt><trkpt lat="45.231486619741325" lon="8.495113083751992"><ele>110.0</ele><time>2026-04-04T08:29:36.999Z</time></trkpt><trkpt lat="45.23166447518992" lon="8.494933998391145"><ele>110.0</ele><time>2026-04-04T08:29:37.999Z</time></trkpt><trkpt lat="45.231831455074925" lon="8.49473186765137"><ele>110.0</ele><time>2026-04-04T08:29:38.999Z</time></trkpt><trkpt lat="45.23200761469919" lon="8.494544817890384"><ele>110.0</ele><time>2026-04-04T08:29:39.999Z</time></trkpt><trkpt lat="45.23220510053749" lon="8.49441829464368"><ele>110.66666666666666</ele><time>2026-04-04T08:29:40.999Z</time></trkpt><trkpt lat="45.23242097528674" lon="8.494364924183357"><ele>111.33333333333334</ele><time>2026-04-04T08:29:41.999Z</time></trkpt><trkpt lat="45.23263437402934" lon="8.494286111448906"><ele>112.0</ele><time>2026-04-04T08:29:42.999Z</time></trkpt><trkpt lat="45.23285363795071" lon="8.494234830800591"><ele>112.0</ele><time>2026-04-04T08:29:43.999Z</time></trkpt><trkpt lat="45.23307223778631" lon="8.494187383891678"><ele>112.0</ele><time>2026-04-04T08:29:44.999Z</time></trkpt><trkpt lat="45.23329410873191" lon="8.494169208970709"><ele>112.0</ele><time>2026-04-04T08:29:45.999Z</time></trkpt><trkpt lat="45.23351419972218" lon="8.494174376241952"><ele>112.0</ele><time>2026-04-04T08:29:46.999Z</time></trkpt><trkpt lat="45.23372350931083" lon="8.494186268561892"><ele>112.0</ele><time>2026-04-04T08:29:48Z</time></trkpt><trkpt lat="45.2339227133116" lon="8.494147082566624"><ele>112.0</ele><time>2026-04-04T08:29:49Z</time></trkpt><trkpt lat="45.234118880372" lon="8.49403793529186"><ele>112.0</ele><time>2026-04-04T08:29:50Z</time></trkpt><trkpt lat="45.23431054718191" lon="8.49390065671852"><ele>112.0</ele><time>2026-04-04T08:29:51Z</time></trkpt><trkpt lat="45.23450563774328" lon="8.493766561756837"><ele>112.0</ele><time>2026-04-04T08:29:52Z</time></trkpt><trkpt lat="45.23471218553007" lon="8.493654492067956"><ele>112.66666666666667</ele><time>2026-04-04T08:29:53Z</time></trkpt><trkpt lat="45.234927097969035" lon="8.493581095410546"><ele>113.33333333333334</ele><time>2026-04-04T08:29:54Z</time></trkpt><trkpt lat="45.23514627363575" lon="8.493536397274692"><ele>114.0</ele><time>2026-04-04T08:29:55Z</time></trkpt><trkpt lat="45.235366518762575" lon="8.493536152021056"><ele>114.0</ele><time>2026-04-04T08:29:56Z</time></trkpt><trkpt lat="45.235587605940566" lon="8.493584517355504"><ele>114.0</ele><time>2026-04-04T08:29:57Z</time></trkpt><trkpt lat="45.23580253472999" lon="8.4936498757897"><ele>114.0</ele><time>2026-04-04T08:29:58Z</time></trkpt><trkpt lat="45.236002999941014" lon="8.493709326110285"><ele>114.0</ele><time>2026-04-04T08:29:59Z</time></trkpt><trkpt lat="45.2362124360643" lon="8.493755982034045"><ele>114.0</ele><time>2026-04-04T08:30:00Z</time></trkpt><trkpt lat="45.23643207764994" lon="8.493806033019714"><ele>114.0</ele><time>2026-04-04T08:30:01Z</time></trkpt><trkpt lat="45.23665656320371" lon="8.493849946101053"><ele>114.66666666666666</ele><time>2026-04-04T08:30:02Z</time></trkpt><trkpt lat="45.23686848925356" lon="8.493870381571416"><ele>115.33333333333333</ele><time>2026-04-04T08:30:03Z</time></trkpt><trkpt lat="45.23707675451313" lon="8.493886711449134"><ele>116.0</ele><time>2026-04-04T08:30:04Z</time></trkpt><trkpt lat="45.23729586550544" lon="8.493885952212377"><ele>115.5</ele><time>2026-04-04T08:30:05Z</time></trkpt><trkpt lat="45.23752253299772" lon="8.493870542717794"><ele>115.0</ele><time>2026-04-04T08:30:06Z</time></trkpt><trkpt lat="45.23775121106348" lon="8.49384516433763"><ele>115.0</ele><time>2026-04-04T08:30:07Z</time></trkpt><trkpt lat="45.23795914018968" lon="8.493819883018878"><ele>115.0</ele><time>2026-04-04T08:30:08Z</time></trkpt><trkpt lat="45.23814789084928" lon="8.493793935908517"><ele>115.0</ele><time>2026-04-04T08:30:09Z</time></trkpt><trkpt lat="45.238335327593084" lon="8.49374798494561"><ele>115.0</ele><time>2026-04-04T08:30:10Z</time></trkpt><trkpt lat="45.238528241131604" lon="8.49366405992744"><ele>115.0</ele><time>2026-04-04T08:30:11Z</time></trkpt><trkpt lat="45.238711953681616" lon="8.493520490361021"><ele>115.0</ele><time>2026-04-04T08:30:12Z</time></trkpt><trkpt lat="45.23887997001469" lon="8.493335079614065"><ele>115.0</ele><time>2026-04-04T08:30:13Z</time></trkpt><trkpt lat="45.239027444041334" lon="8.493119489205318"><ele>115.0</ele><time>2026-04-04T08:30:14Z</time></trkpt><trkpt lat="45.23915109703731" lon="8.492876657776309"><ele>115.0</ele><time>2026-04-04T08:30:15Z</time></trkpt><trkpt lat="45.23925552372266" lon="8.492602653907088"><ele>115.0</ele><time>2026-04-04T08:30:16Z</time></trkpt><trkpt lat="45.23935570089391" lon="8.49232689563936"><ele>115.0</ele><time>2026-04-04T08:30:17Z</time></trkpt><trkpt lat="45.23948654150047" lon="8.492085322835267"><ele>115.0</ele><time>2026-04-04T08:30:18Z</time></trkpt><trkpt lat="45.23964128013912" lon="8.49189718023727"><ele>115.0</ele><time>2026-04-04T08:30:19Z</time></trkpt><trkpt lat="45.239819718952205" lon="8.491741220686674"><ele>115.0</ele><time>2026-04-04T08:30:20Z</time></trkpt><trkpt lat="45.240015573325095" lon="8.491628318537828"><ele>115.0</ele><time>2026-04-04T08:30:21Z</time></trkpt><trkpt lat="45.240227046747464" lon="8.491560041393324"><ele>115.0</ele><time>2026-04-04T08:30:22Z</time></trkpt><trkpt lat="45.24044518254633" lon="8.491529054655011"><ele>115.0</ele><time>2026-04-04T08:30:23Z</time></trkpt><trkpt lat="45.24065379894712" lon="8.491524788926775"><ele>115.0</ele><time>2026-04-04T08:30:24Z</time></trkpt><trkpt lat="45.24085252572816" lon="8.491527407319708"><ele>115.0</ele><time>2026-04-04T08:30:25Z</time></trkpt><trkpt lat="45.24105552037271" lon="8.4915184645216"><ele>115.0</ele><time>2026-04-04T08:30:26Z</time></trkpt><trkpt lat="45.241267606084925" lon="8.491493700233276"><ele>115.0</ele><time>2026-04-04T08:30:27Z</time></trkpt><trkpt lat="45.24147999315867" lon="8.491476903410648"><ele>115.0</ele><time>2026-04-04T08:30:28Z</time></trkpt><trkpt lat="45.24167815478217" lon="8.491477964571311"><ele>115.0</ele><time>2026-04-04T08:30:29Z</time></trkpt><trkpt lat="45.24186187382736" lon="8.491506806029824"><ele>115.0</ele><time>2026-04-04T08:30:30Z</time></trkpt><trkpt lat="45.24204925356166" lon="8.49157509129774"><ele>115.0</ele><time>2026-04-04T08:30:31Z</time></trkpt><trkpt lat="45.242245238131055" lon="8.49167957561319"><ele>115.0</ele><time>2026-04-04T08:30:32Z</time></trkpt><trkpt lat="45.24244325241573" lon="8.49181266041068"><ele>115.0</ele><time>2026-04-04T08:30:33Z</time></trkpt><trkpt lat="45.242644318865125" lon="8.491952531034817"><ele>114.5</ele><time>2026-04-04T08:30:34Z</time></trkpt><trkpt lat="45.242855339982135" lon="8.492087956751256"><ele>114.0</ele><time>2026-04-04T08:30:35Z</time></trkpt><trkpt lat="45.24305374319596" lon="8.492227876866558"><ele>112.66666666666666</ele><time>2026-04-04T08:30:36Z</time></trkpt><trkpt lat="45.24322127379644" lon="8.49237360927265"><ele>111.33333333333333</ele><time>2026-04-04T08:30:37Z</time></trkpt><trkpt lat="45.24337688814648" lon="8.492493939131753"><ele>110.0</ele><time>2026-04-04T08:30:38Z</time></trkpt><trkpt lat="45.24353734918007" lon="8.492603283233718"><ele>110.0</ele><time>2026-04-04T08:30:39Z</time></trkpt><trkpt lat="45.24370361686711" lon="8.492718419374285"><ele>110.0</ele><time>2026-04-04T08:30:40Z</time></trkpt><trkpt lat="45.24387950345282" lon="8.492825920254067"><ele>110.0</ele><time>2026-04-04T08:30:41Z</time></trkpt><trkpt lat="45.24414610876771" lon="8.492614032411062"><ele>110.0</ele><time>2026-04-04T08:30:42Z</time></trkpt><trkpt lat="45.24429738905239" lon="8.492580939592148"><ele>110.0</ele><time>2026-04-04T08:30:43Z</time></trkpt><trkpt lat="45.24443299925313" lon="8.492506701185373"><ele>110.0</ele><time>2026-04-04T08:30:44Z</time></trkpt><trkpt lat="45.24455815887807" lon="8.492359558249326"><ele>110.0</ele><time>2026-04-04T08:30:45Z</time></trkpt><trkpt lat="45.244674741123916" lon="8.492164921628147"><ele>110.0</ele><time>2026-04-04T08:30:46Z</time></trkpt><trkpt lat="45.24478663750459" lon="8.491942658319584"><ele>110.0</ele><time>2026-04-04T08:30:47Z</time></trkpt><trkpt lat="45.2449001267599" lon="8.491711299483631"><ele>110.33333333333333</ele><time>2026-04-04T08:30:48Z</time></trkpt><trkpt lat="45.24502717211523" lon="8.491484664842783"><ele>110.66666666666666</ele><time>2026-04-04T08:30:49Z</time></trkpt><trkpt lat="45.24516764907858" lon="8.491271795542197"><ele>111.0</ele><time>2026-04-04T08:30:50Z</time></trkpt><trkpt lat="45.24531765538197" lon="8.491065878620908"><ele>111.0</ele><time>2026-04-04T08:30:51Z</time></trkpt><trkpt lat="45.24547698883554" lon="8.490864130317696"><ele>111.0</ele><time>2026-04-04T08:30:52Z</time></trkpt><trkpt lat="45.24564702685096" lon="8.490667852881383"><ele>111.0</ele><time>2026-04-04T08:30:53Z</time></trkpt><trkpt lat="45.24582425003038" lon="8.49047742636546"><ele>111.33333333333334</ele><time>2026-04-04T08:30:54Z</time></trkpt><trkpt lat="45.24599281248435" lon="8.490299429387955"><ele>111.66666666666667</ele><time>2026-04-04T08:30:55Z</time></trkpt><trkpt lat="45.246151749326316" lon="8.490124650303596"><ele>112.0</ele><time>2026-04-04T08:30:56Z</time></trkpt><trkpt lat="45.2463148334641" lon="8.489930944925797"><ele>112.0</ele><time>2026-04-04T08:30:57Z</time></trkpt><trkpt lat="45.24649122228049" lon="8.48973363678514"><ele>112.0</ele><time>2026-04-04T08:30:58Z</time></trkpt><trkpt lat="45.246681874643336" lon="8.489562563726262"><ele>111.5</ele><time>2026-04-04T08:30:59Z</time></trkpt><trkpt lat="45.246878318597425" lon="8.489395816693552"><ele>111.0</ele><time>2026-04-04T08:31:00Z</time></trkpt><trkpt lat="45.24708511607374" lon="8.489259001200134"><ele>111.33333333333334</ele><time>2026-04-04T08:31:01Z</time></trkpt><trkpt lat="45.24730021105268" lon="8.489159404473266"><ele>111.66666666666667</ele><time>2026-04-04T08:31:02Z</time></trkpt><trkpt lat="45.24750423186487" lon="8.489100694494658"><ele>112.0</ele><time>2026-04-04T08:31:03Z</time></trkpt><trkpt lat="45.24772116592614" lon="8.48905293300531"><ele>112.0</ele><time>2026-04-04T08:31:03.999Z</time></trkpt><trkpt lat="45.24794518117642" lon="8.489008254275888"><ele>112.0</ele><time>2026-04-04T08:31:04.999Z</time></trkpt><trkpt lat="45.24817309980495" lon="8.488954046445873"><ele>112.5</ele><time>2026-04-04T08:31:05.999Z</time></trkpt><trkpt lat="45.24840484177887" lon="8.488897630560402"><ele>113.0</ele><time>2026-04-04T08:31:06.999Z</time></trkpt><trkpt lat="45.24862001775056" lon="8.488848155765604"><ele>113.0</ele><time>2026-04-04T08:31:07.999Z</time></trkpt><trkpt lat="45.24883050377959" lon="8.488784964569474"><ele>113.0</ele><time>2026-04-04T08:31:08.999Z</time></trkpt><trkpt lat="45.249045102767184" lon="8.488709185499017"><ele>113.0</ele><time>2026-04-04T08:31:09.999Z</time></trkpt><trkpt lat="45.24926431362679" lon="8.488634264448486"><ele>112.0</ele><time>2026-04-04T08:31:10.999Z</time></trkpt><trkpt lat="45.24949070784721" lon="8.488559576031404"><ele>111.0</ele><time>2026-04-04T08:31:11.999Z</time></trkpt><trkpt lat="45.249721870961984" lon="8.488467628956778"><ele>111.33333333333334</ele><time>2026-04-04T08:31:12.999Z</time></trkpt><trkpt lat="45.249940161867414" lon="8.48836446906743"><ele>111.66666666666667</ele><time>2026-04-04T08:31:13.999Z</time></trkpt><trkpt lat="45.25014011227674" lon="8.488263429506453"><ele>112.0</ele><time>2026-04-04T08:31:14.999Z</time></trkpt><trkpt lat="45.25033521437783" lon="8.488155492344513"><ele>112.0</ele><time>2026-04-04T08:31:15.999Z</time></trkpt><trkpt lat="45.25052621033938" lon="8.488035617780604"><ele>112.0</ele><time>2026-04-04T08:31:16.999Z</time></trkpt><trkpt lat="45.25071577526512" lon="8.487903804323194"><ele>112.0</ele><time>2026-04-04T08:31:17.999Z</time></trkpt><trkpt lat="45.25090575598104" lon="8.487769176025534"><ele>112.0</ele><time>2026-04-04T08:31:18.999Z</time></trkpt><trkpt lat="45.25109189790305" lon="8.487649990016209"><ele>112.0</ele><time>2026-04-04T08:31:19.999Z</time></trkpt><trkpt lat="45.251285444382184" lon="8.487537608567546"><ele>112.0</ele><time>2026-04-04T08:31:20.999Z</time></trkpt><trkpt lat="45.25146366297019" lon="8.487432930331162"><ele>112.0</ele><time>2026-04-04T08:31:21.999Z</time></trkpt><trkpt lat="45.25164371094433" lon="8.487324503857113"><ele>112.0</ele><time>2026-04-04T08:31:22.999Z</time></trkpt><trkpt lat="45.251830582461274" lon="8.487217117864569"><ele>112.0</ele><time>2026-04-04T08:31:23.999Z</time></trkpt><trkpt lat="45.25202662743702" lon="8.48711659668783"><ele>112.0</ele><time>2026-04-04T08:31:24.999Z</time></trkpt><trkpt lat="45.25222999827254" lon="8.487030458668421"><ele>112.0</ele><time>2026-04-04T08:31:25.999Z</time></trkpt><trkpt lat="45.252434740222625" lon="8.4869547253434"><ele>112.0</ele><time>2026-04-04T08:31:26.999Z</time></trkpt><trkpt lat="45.25262723072446" lon="8.486886412496705"><ele>112.0</ele><time>2026-04-04T08:31:27.999Z</time></trkpt><trkpt lat="45.25282790521949" lon="8.486812601801633"><ele>112.0</ele><time>2026-04-04T08:31:28.999Z</time></trkpt><trkpt lat="45.25301703253331" lon="8.48675491265119"><ele>112.0</ele><time>2026-04-04T08:31:29.999Z</time></trkpt><trkpt lat="45.253166242360756" lon="8.486702055449033"><ele>112.0</ele><time>2026-04-04T08:31:30.999Z</time></trkpt><trkpt lat="45.253301133211146" lon="8.486620204008538"><ele>112.0</ele><time>2026-04-04T08:31:31.999Z</time></trkpt><trkpt lat="45.253432837120016" lon="8.48648824285672"><ele>112.0</ele><time>2026-04-04T08:31:32.999Z</time></trkpt><trkpt lat="45.25356121236859" lon="8.486316230880329"><ele>111.66666666666667</ele><time>2026-04-04T08:31:33.999Z</time></trkpt><trkpt lat="45.253688972960006" lon="8.486127256398625"><ele>111.33333333333334</ele><time>2026-04-04T08:31:34.999Z</time></trkpt><trkpt lat="45.2538135835282" lon="8.485923987175351"><ele>111.0</ele><time>2026-04-04T08:31:35.999Z</time></trkpt><trkpt lat="45.253932239685064" lon="8.485715488375785"><ele>111.33333333333334</ele><time>2026-04-04T08:31:36.999Z</time></trkpt><trkpt lat="45.25404996438361" lon="8.485495671329703"><ele>111.66666666666667</ele><time>2026-04-04T08:31:37.999Z</time></trkpt><trkpt lat="45.25417179893537" lon="8.485276089749222"><ele>112.0</ele><time>2026-04-04T08:31:38.999Z</time></trkpt><trkpt lat="45.254290136645224" lon="8.485047024653689"><ele>112.66666666666667</ele><time>2026-04-04T08:31:39.999Z</time></trkpt><trkpt lat="45.254399988632564" lon="8.484805000693123"><ele>113.33333333333334</ele><time>2026-04-04T08:31:40.999Z</time></trkpt><trkpt lat="45.25450927336318" lon="8.484562548395177"><ele>114.0</ele><time>2026-04-04T08:31:41.999Z</time></trkpt><trkpt lat="45.25461178788897" lon="8.48433015024605"><ele>114.0</ele><time>2026-04-04T08:31:42.999Z</time></trkpt><trkpt lat="45.254707180210886" lon="8.48410882929426"><ele>114.0</ele><time>2026-04-04T08:31:43.999Z</time></trkpt><trkpt lat="45.25479814348398" lon="8.483903462849996"><ele>114.0</ele><time>2026-04-04T08:31:44.999Z</time></trkpt><trkpt lat="45.25488862101276" lon="8.483705703682089"><ele>113.0</ele><time>2026-04-04T08:31:45.999Z</time></trkpt><trkpt lat="45.25498315217982" lon="8.483507940636619"><ele>112.0</ele><time>2026-04-04T08:31:46.999Z</time></trkpt><trkpt lat="45.25506941101816" lon="8.483322193583803"><ele>111.0</ele><time>2026-04-04T08:31:47.999Z</time></trkpt><trkpt lat="45.255153305229214" lon="8.483143584178716"><ele>111.0</ele><time>2026-04-04T08:31:48.999Z</time></trkpt><trkpt lat="45.25523446948606" lon="8.482983362226157"><ele>111.0</ele><time>2026-04-04T08:31:49.999Z</time></trkpt><trkpt lat="45.255314650297265" lon="8.48282856579989"><ele>111.0</ele><time>2026-04-04T08:31:50.999Z</time></trkpt><trkpt lat="45.255399040415476" lon="8.482663916021709"><ele>111.0</ele><time>2026-04-04T08:31:51.999Z</time></trkpt><trkpt lat="45.25548184811157" lon="8.482498979036986"><ele>111.19999999999999</ele><time>2026-04-04T08:31:52.999Z</time></trkpt><trkpt lat="45.25555946733368" lon="8.482361342126017"><ele>111.39999999999999</ele><time>2026-04-04T08:31:54Z</time></trkpt><trkpt lat="45.25563245513504" lon="8.482239976677144"><ele>111.6</ele><time>2026-04-04T08:31:55Z</time></trkpt><trkpt lat="45.25570043456319" lon="8.482131508275137"><ele>111.8</ele><time>2026-04-04T08:31:56Z</time></trkpt><trkpt lat="45.255774540104746" lon="8.482026836023705"><ele>112.0</ele><time>2026-04-04T08:31:57Z</time></trkpt><trkpt lat="45.25586269544169" lon="8.481926548480724"><ele>113.19999999999999</ele><time>2026-04-04T08:31:58Z</time></trkpt><trkpt lat="45.25595674884564" lon="8.481859241630646"><ele>114.39999999999999</ele><time>2026-04-04T08:31:59Z</time></trkpt><trkpt lat="45.25605822809904" lon="8.481813534179153"><ele>115.60000000000001</ele><time>2026-04-04T08:32:00Z</time></trkpt><trkpt lat="45.25616612333282" lon="8.48177903810146"><ele>116.80000000000001</ele><time>2026-04-04T08:32:01Z</time></trkpt><trkpt lat="45.256274335860795" lon="8.481756502776467"><ele>118.0</ele><time>2026-04-04T08:32:02Z</time></trkpt><trkpt lat="45.256381700280116" lon="8.481745019376458"><ele>118.60000000000001</ele><time>2026-04-04T08:32:03Z</time></trkpt><trkpt lat="45.25648789684115" lon="8.481743206975214"><ele>119.20000000000002</ele><time>2026-04-04T08:32:04Z</time></trkpt><trkpt lat="45.256593000356496" lon="8.481748057183449"><ele>119.8</ele><time>2026-04-04T08:32:05Z</time></trkpt><trkpt lat="45.25669663234018" lon="8.4817560266636"><ele>120.4</ele><time>2026-04-04T08:32:06Z</time></trkpt><trkpt lat="45.25679420458945" lon="8.48176309807207"><ele>121.0</ele><time>2026-04-04T08:32:07Z</time></trkpt><trkpt lat="45.25690167073452" lon="8.481770181166869"><ele>121.0</ele><time>2026-04-04T08:32:08Z</time></trkpt><trkpt lat="45.257023105445356" lon="8.481778636752864"><ele>121.0</ele><time>2026-04-04T08:32:09Z</time></trkpt><trkpt lat="45.257128797464375" lon="8.481786989518769"><ele>121.0</ele><time>2026-04-04T08:32:10Z</time></trkpt><trkpt lat="45.25724216388843" lon="8.481789934071845"><ele>121.0</ele><time>2026-04-04T08:32:11Z</time></trkpt><trkpt lat="45.25734719780937" lon="8.481790157022438"><ele>121.0</ele><time>2026-04-04T08:32:12Z</time></trkpt><trkpt lat="45.25744092284698" lon="8.481788033259638"><ele>120.8</ele><time>2026-04-04T08:32:13Z</time></trkpt><trkpt lat="45.25752284147434" lon="8.48178385396201"><ele>120.6</ele><time>2026-04-04T08:32:14Z</time></trkpt><trkpt lat="45.25759001824003" lon="8.481777262588714"><ele>120.4</ele><time>2026-04-04T08:32:15Z</time></trkpt><trkpt lat="45.25765206252655" lon="8.481795032600532"><ele>120.2</ele><time>2026-04-04T08:32:16Z</time></trkpt><trkpt lat="45.25775554978821" lon="8.481796927707428"><ele>120.0</ele><time>2026-04-04T08:32:18Z</time></trkpt><trkpt lat="45.25778139302526" lon="8.481497159334177"><ele>120.0</ele><time>2026-04-04T08:32:20Z</time></trkpt><trkpt lat="45.25775524360045" lon="8.481374172527167"><ele>120.0</ele><time>2026-04-04T08:32:21Z</time></trkpt><trkpt lat="45.25774548381273" lon="8.48122434374259"><ele>120.0</ele><time>2026-04-04T08:32:22Z</time></trkpt><trkpt lat="45.257756869805725" lon="8.481057203894546"><ele>120.0</ele><time>2026-04-04T08:32:23Z</time></trkpt><trkpt lat="45.25779020961523" lon="8.480867014140609"><ele>120.0</ele><time>2026-04-04T08:32:24Z</time></trkpt><trkpt lat="45.25783041527022" lon="8.48067252411604"><ele>120.0</ele><time>2026-04-04T08:32:25Z</time></trkpt><trkpt lat="45.25787137090839" lon="8.480459907648884"><ele>120.0</ele><time>2026-04-04T08:32:26Z</time></trkpt><trkpt lat="45.25791300596039" lon="8.480231693152719"><ele>120.0</ele><time>2026-04-04T08:32:27Z</time></trkpt><trkpt lat="45.257959144819544" lon="8.479985936886333"><ele>120.0</ele><time>2026-04-04T08:32:28Z</time></trkpt><trkpt lat="45.25801006708036" lon="8.479729193202656"><ele>120.0</ele><time>2026-04-04T08:32:29Z</time></trkpt><trkpt lat="45.25805890640149" lon="8.47946661046229"><ele>120.0</ele><time>2026-04-04T08:32:30Z</time></trkpt><trkpt lat="45.258103979934184" lon="8.479201838769846"><ele>120.0</ele><time>2026-04-04T08:32:31Z</time></trkpt><trkpt lat="45.258147389361376" lon="8.478960580964207"><ele>120.0</ele><time>2026-04-04T08:32:32Z</time></trkpt><trkpt lat="45.258193423587" lon="8.478718475893583"><ele>120.0</ele><time>2026-04-04T08:32:33Z</time></trkpt><trkpt lat="45.25824049455858" lon="8.478466215795438"><ele>120.0</ele><time>2026-04-04T08:32:34Z</time></trkpt><trkpt lat="45.258285545971674" lon="8.478223202112654"><ele>120.0</ele><time>2026-04-04T08:32:35Z</time></trkpt><trkpt lat="45.25833210924457" lon="8.477980821194262"><ele>119.66666666666666</ele><time>2026-04-04T08:32:36Z</time></trkpt><trkpt lat="45.258378011103986" lon="8.477729907077574"><ele>119.33333333333333</ele><time>2026-04-04T08:32:37Z</time></trkpt><trkpt lat="45.25842389837785" lon="8.477477237214165"><ele>119.0</ele><time>2026-04-04T08:32:38Z</time></trkpt><trkpt lat="45.25846869909205" lon="8.477237744786263"><ele>119.0</ele><time>2026-04-04T08:32:39Z</time></trkpt><trkpt lat="45.25851379476197" lon="8.476983539657239"><ele>119.0</ele><time>2026-04-04T08:32:40Z</time></trkpt><trkpt lat="45.25855998006535" lon="8.476721753251336"><ele>119.0</ele><time>2026-04-04T08:32:41Z</time></trkpt><trkpt lat="45.25860555044986" lon="8.47646992395004"><ele>119.0</ele><time>2026-04-04T08:32:42Z</time></trkpt><trkpt lat="45.25865084084129" lon="8.476227981886607"><ele>119.0</ele><time>2026-04-04T08:32:43Z</time></trkpt><trkpt lat="45.25869942504192" lon="8.475970443873937"><ele>119.0</ele><time>2026-04-04T08:32:44Z</time></trkpt><trkpt lat="45.25874663904885" lon="8.475712472604416"><ele>119.0</ele><time>2026-04-04T08:32:45Z</time></trkpt><trkpt lat="45.25879289339485" lon="8.475469371079388"><ele>119.0</ele><time>2026-04-04T08:32:46Z</time></trkpt><trkpt lat="45.258837916056834" lon="8.475219180577094"><ele>119.0</ele><time>2026-04-04T08:32:47Z</time></trkpt><trkpt lat="45.25888230973448" lon="8.474959274587789"><ele>118.33333333333333</ele><time>2026-04-04T08:32:48Z</time></trkpt><trkpt lat="45.25892951764861" lon="8.474697418090742"><ele>117.66666666666666</ele><time>2026-04-04T08:32:49Z</time></trkpt><trkpt lat="45.25897479650993" lon="8.474450003088268"><ele>117.0</ele><time>2026-04-04T08:32:50Z</time></trkpt><trkpt lat="45.259020353318675" lon="8.474204077685847"><ele>117.0</ele><time>2026-04-04T08:32:51Z</time></trkpt><trkpt lat="45.25906394466888" lon="8.47395967192457"><ele>117.0</ele><time>2026-04-04T08:32:52Z</time></trkpt><trkpt lat="45.25910476454564" lon="8.473724903499587"><ele>117.0</ele><time>2026-04-04T08:32:53Z</time></trkpt><trkpt lat="45.25914430091551" lon="8.473500332686527"><ele>117.33333333333334</ele><time>2026-04-04T08:32:54Z</time></trkpt><trkpt lat="45.2591834041857" lon="8.473288410027893"><ele>117.66666666666667</ele><time>2026-04-04T08:32:55Z</time></trkpt><trkpt lat="45.25921990302984" lon="8.47308706277905"><ele>118.0</ele><time>2026-04-04T08:32:56Z</time></trkpt><trkpt lat="45.25925490560508" lon="8.472878767835672"><ele>118.25</ele><time>2026-04-04T08:32:57Z</time></trkpt><trkpt lat="45.259287218844364" lon="8.472681757683251"><ele>118.5</ele><time>2026-04-04T08:32:58Z</time></trkpt><trkpt lat="45.25931993481459" lon="8.472477680828913"><ele>118.75</ele><time>2026-04-04T08:32:59Z</time></trkpt><trkpt lat="45.25935025179334" lon="8.472288034622162"><ele>119.0</ele><time>2026-04-04T08:33:00Z</time></trkpt><trkpt lat="45.25937294664481" lon="8.47213314018077"><ele>118.80000000000001</ele><time>2026-04-04T08:33:01Z</time></trkpt><trkpt lat="45.25939009778357" lon="8.472012051887393"><ele>118.60000000000001</ele><time>2026-04-04T08:33:02Z</time></trkpt><trkpt lat="45.25942078723421" lon="8.471876772173031"><ele>118.4</ele><time>2026-04-04T08:33:04Z</time></trkpt><trkpt lat="45.2594311900906" lon="8.4717679446767"><ele>118.2</ele><time>2026-04-04T08:33:38.999Z</time></trkpt><trkpt lat="45.2594466778155" lon="8.471591030796183"><ele>118.0</ele><time>2026-04-04T08:33:40.999Z</time></trkpt><trkpt lat="45.25945535773168" lon="8.471473136079018"><ele>118.0</ele><time>2026-04-04T08:33:41.999Z</time></trkpt><trkpt lat="45.25946171741504" lon="8.47133666475758"><ele>118.0</ele><time>2026-04-04T08:33:42.999Z</time></trkpt><trkpt lat="45.25946085076035" lon="8.471177893511875"><ele>118.0</ele><time>2026-04-04T08:33:43.999Z</time></trkpt><trkpt lat="45.25945003408136" lon="8.471005899939724"><ele>118.0</ele><time>2026-04-04T08:33:44.999Z</time></trkpt><trkpt lat="45.25944072845906" lon="8.470815933442887"><ele>118.0</ele><time>2026-04-04T08:33:45.999Z</time></trkpt><trkpt lat="45.25943180646471" lon="8.470609792776576"><ele>118.0</ele><time>2026-04-04T08:33:46.999Z</time></trkpt><trkpt lat="45.259421024700735" lon="8.470395574680216"><ele>118.0</ele><time>2026-04-04T08:33:47.999Z</time></trkpt><trkpt lat="45.25941185860303" lon="8.470194584147421"><ele>118.0</ele><time>2026-04-04T08:33:48.999Z</time></trkpt><trkpt lat="45.259404696173924" lon="8.470005731372298"><ele>118.0</ele><time>2026-04-04T08:33:49.999Z</time></trkpt><trkpt lat="45.259397026016295" lon="8.469827018681702"><ele>118.0</ele><time>2026-04-04T08:33:50.999Z</time></trkpt><trkpt lat="45.25938504962114" lon="8.46964040974058"><ele>118.0</ele><time>2026-04-04T08:33:51.999Z</time></trkpt><trkpt lat="45.2593705655928" lon="8.469439399151263"><ele>118.0</ele><time>2026-04-04T08:33:52.999Z</time></trkpt><trkpt lat="45.2593528700412" lon="8.469222187834665"><ele>118.33333333333334</ele><time>2026-04-04T08:33:53.999Z</time></trkpt><trkpt lat="45.259329885772885" lon="8.469000807689362"><ele>118.66666666666666</ele><time>2026-04-04T08:33:54.999Z</time></trkpt><trkpt lat="45.259296196555596" lon="8.468785711520244"><ele>119.0</ele><time>2026-04-04T08:33:55.999Z</time></trkpt><trkpt lat="45.25926380563051" lon="8.468559221142446"><ele>119.0</ele><time>2026-04-04T08:33:56.999Z</time></trkpt><trkpt lat="45.25923078601423" lon="8.46833509714779"><ele>119.0</ele><time>2026-04-04T08:33:57.999Z</time></trkpt><trkpt lat="45.25919604529324" lon="8.468108045556004"><ele>119.0</ele><time>2026-04-04T08:33:58.999Z</time></trkpt><trkpt lat="45.25916590563403" lon="8.467895928192183"><ele>119.33333333333333</ele><time>2026-04-04T08:34:00Z</time></trkpt><trkpt lat="45.259132119746646" lon="8.467678482466548"><ele>119.66666666666666</ele><time>2026-04-04T08:34:01Z</time></trkpt><trkpt lat="45.25909945567742" lon="8.467457202941821"><ele>120.0</ele><time>2026-04-04T08:34:02Z</time></trkpt><trkpt lat="45.25906572889239" lon="8.46723771007116"><ele>120.0</ele><time>2026-04-04T08:34:03Z</time></trkpt><trkpt lat="45.25903340519884" lon="8.467031070760116"><ele>120.0</ele><time>2026-04-04T08:34:04Z</time></trkpt><trkpt lat="45.258989886137854" lon="8.466824447441425"><ele>120.0</ele><time>2026-04-04T08:34:05Z</time></trkpt><trkpt lat="45.25892597738513" lon="8.46660905112393"><ele>120.0</ele><time>2026-04-04T08:34:06Z</time></trkpt><trkpt lat="45.25885394528515" lon="8.466419341024105"><ele>120.0</ele><time>2026-04-04T08:34:07Z</time></trkpt><trkpt lat="45.25877856593035" lon="8.46623327489564"><ele>120.0</ele><time>2026-04-04T08:34:08Z</time></trkpt><trkpt lat="45.25870656112165" lon="8.46603827377493"><ele>120.0</ele><time>2026-04-04T08:34:09Z</time></trkpt><trkpt lat="45.25863845730844" lon="8.465847684424787"><ele>120.0</ele><time>2026-04-04T08:34:10Z</time></trkpt><trkpt lat="45.2585715858582" lon="8.46566698450638"><ele>120.0</ele><time>2026-04-04T08:34:11Z</time></trkpt><trkpt lat="45.25850309664285" lon="8.465492406602786"><ele>120.0</ele><time>2026-04-04T08:34:12Z</time></trkpt><trkpt lat="45.25843782447505" lon="8.465324482898735"><ele>119.75</ele><time>2026-04-04T08:34:13Z</time></trkpt><trkpt lat="45.25837449036443" lon="8.465158455262618"><ele>119.5</ele><time>2026-04-04T08:34:14Z</time></trkpt><trkpt lat="45.25831197088838" lon="8.464996394094893"><ele>119.25</ele><time>2026-04-04T08:34:15Z</time></trkpt><trkpt lat="45.25825316439727" lon="8.464834943636408"><ele>119.0</ele><time>2026-04-04T08:34:16Z</time></trkpt><trkpt lat="45.25820624314834" lon="8.464673715250814"><ele>118.99999999999999</ele><time>2026-04-04T08:34:17Z</time></trkpt><trkpt lat="45.25816901865389" lon="8.464523847281258"><ele>119.0</ele><time>2026-04-04T08:34:18Z</time></trkpt><trkpt lat="45.25815484281755" lon="8.464417286901762"><ele>119.0</ele><time>2026-04-04T08:34:19Z</time></trkpt><trkpt lat="45.258156556848974" lon="8.464313346082568"><ele>119.0</ele><time>2026-04-04T08:34:20Z</time></trkpt><trkpt lat="45.2581820090644" lon="8.46421242297902"><ele>118.99999999999999</ele><time>2026-04-04T08:34:21Z</time></trkpt><trkpt lat="45.25824191235771" lon="8.464135892077813"><ele>119.0</ele><time>2026-04-04T08:34:22Z</time></trkpt><trkpt lat="45.25832644861562" lon="8.464082229274762"><ele>119.0</ele><time>2026-04-04T08:34:23Z</time></trkpt><trkpt lat="45.258435063505665" lon="8.464058618416102"><ele>119.0</ele><time>2026-04-04T08:34:24Z</time></trkpt><trkpt lat="45.25855301260404" lon="8.464058509995427"><ele>119.0</ele><time>2026-04-04T08:34:25Z</time></trkpt><trkpt lat="45.2586829954126" lon="8.464061571653694"><ele>119.0</ele><time>2026-04-04T08:34:26Z</time></trkpt><trkpt lat="45.25882387906914" lon="8.464061086565788"><ele>119.33333333333333</ele><time>2026-04-04T08:34:27Z</time></trkpt><trkpt lat="45.25896727477235" lon="8.464056105145584"><ele>119.66666666666666</ele><time>2026-04-04T08:34:28Z</time></trkpt><trkpt lat="45.25912008375939" lon="8.464050725837714"><ele>120.0</ele><time>2026-04-04T08:34:29Z</time></trkpt><trkpt lat="45.25927922900569" lon="8.464049793320427"><ele>120.0</ele><time>2026-04-04T08:34:30Z</time></trkpt><trkpt lat="45.259438154140106" lon="8.464048151364487"><ele>120.0</ele><time>2026-04-04T08:34:31Z</time></trkpt><trkpt lat="45.25959794899982" lon="8.46404538116519"><ele>120.0</ele><time>2026-04-04T08:34:32Z</time></trkpt><trkpt lat="45.259760083210224" lon="8.464042094969694"><ele>120.33333333333334</ele><time>2026-04-04T08:34:33Z</time></trkpt><trkpt lat="45.25992205522454" lon="8.464037072838273"><ele>120.66666666666667</ele><time>2026-04-04T08:34:34Z</time></trkpt><trkpt lat="45.26008326732387" lon="8.464032881384906"><ele>121.0</ele><time>2026-04-04T08:34:35Z</time></trkpt><trkpt lat="45.26024346566805" lon="8.464029828596583"><ele>121.0</ele><time>2026-04-04T08:34:36Z</time></trkpt><trkpt lat="45.26040294032516" lon="8.464029749561883"><ele>121.0</ele><time>2026-04-04T08:34:37Z</time></trkpt><trkpt lat="45.260559552518394" lon="8.464028615622986"><ele>121.0</ele><time>2026-04-04T08:34:38Z</time></trkpt><trkpt lat="45.2607156148613" lon="8.46402736875726"><ele>120.33333333333334</ele><time>2026-04-04T08:34:39Z</time></trkpt><trkpt lat="45.26087652200225" lon="8.464023808192591"><ele>119.66666666666666</ele><time>2026-04-04T08:34:40Z</time></trkpt><trkpt lat="45.26103314786784" lon="8.46401969747571"><ele>119.0</ele><time>2026-04-04T08:34:41Z</time></trkpt><trkpt lat="45.26119907791848" lon="8.464017250391462"><ele>119.0</ele><time>2026-04-04T08:34:42Z</time></trkpt><trkpt lat="45.2613713548965" lon="8.464015739326022"><ele>119.0</ele><time>2026-04-04T08:34:43Z</time></trkpt><trkpt lat="45.26154583769298" lon="8.46401343521857"><ele>119.0</ele><time>2026-04-04T08:34:44Z</time></trkpt><trkpt lat="45.26172327247314" lon="8.464009929995845"><ele>119.0</ele><time>2026-04-04T08:34:45Z</time></trkpt><trkpt lat="45.26189252337382" lon="8.46400576020686"><ele>119.0</ele><time>2026-04-04T08:34:46Z</time></trkpt><trkpt lat="45.26205845636618" lon="8.463999295253531"><ele>119.0</ele><time>2026-04-04T08:34:47Z</time></trkpt><trkpt lat="45.26221573304781" lon="8.4639943800224"><ele>118.66666666666666</ele><time>2026-04-04T08:34:48Z</time></trkpt><trkpt lat="45.26236827829719" lon="8.463988801107362"><ele>118.33333333333334</ele><time>2026-04-04T08:34:49Z</time></trkpt><trkpt lat="45.26252305712688" lon="8.463985893071033"><ele>118.0</ele><time>2026-04-04T08:34:50Z</time></trkpt><trkpt lat="45.2626877469736" lon="8.463982655189039"><ele>118.0</ele><time>2026-04-04T08:34:51Z</time></trkpt><trkpt lat="45.262860637528334" lon="8.463978543102192"><ele>118.0</ele><time>2026-04-04T08:34:52Z</time></trkpt><trkpt lat="45.263038268815784" lon="8.463972035503318"><ele>118.0</ele><time>2026-04-04T08:34:53Z</time></trkpt><trkpt lat="45.26322211833445" lon="8.463963960544119"><ele>118.66666666666667</ele><time>2026-04-04T08:34:54Z</time></trkpt><trkpt lat="45.26341151669467" lon="8.463960293124384"><ele>119.33333333333334</ele><time>2026-04-04T08:34:55Z</time></trkpt><trkpt lat="45.26360401439579" lon="8.463958752829093"><ele>120.0</ele><time>2026-04-04T08:34:56Z</time></trkpt><trkpt lat="45.26378718824793" lon="8.463953352716374"><ele>119.0</ele><time>2026-04-04T08:34:57Z</time></trkpt><trkpt lat="45.26396636471995" lon="8.463947490450938"><ele>118.0</ele><time>2026-04-04T08:34:58Z</time></trkpt><trkpt lat="45.264143179885565" lon="8.463941038967675"><ele>117.0</ele><time>2026-04-04T08:34:59Z</time></trkpt><trkpt lat="45.26432928166691" lon="8.463936520753238"><ele>117.0</ele><time>2026-04-04T08:35:00Z</time></trkpt><trkpt lat="45.264514904338945" lon="8.463931850365443"><ele>117.0</ele><time>2026-04-04T08:35:01Z</time></trkpt><trkpt lat="45.26470080305692" lon="8.463926879119388"><ele>117.0</ele><time>2026-04-04T08:35:02Z</time></trkpt><trkpt lat="45.26488565542035" lon="8.463920689528264"><ele>117.0</ele><time>2026-04-04T08:35:03Z</time></trkpt><trkpt lat="45.26507036994833" lon="8.463916928820082"><ele>117.0</ele><time>2026-04-04T08:35:04Z</time></trkpt><trkpt lat="45.26524281963617" lon="8.463912488871253"><ele>117.0</ele><time>2026-04-04T08:35:05Z</time></trkpt><trkpt lat="45.2654122775673" lon="8.463908555752242"><ele>117.0</ele><time>2026-04-04T08:35:06Z</time></trkpt><trkpt lat="45.265579714045806" lon="8.463904018732471"><ele>117.0</ele><time>2026-04-04T08:35:07Z</time></trkpt><trkpt lat="45.2657495385725" lon="8.463897691103657"><ele>117.0</ele><time>2026-04-04T08:35:08Z</time></trkpt><trkpt lat="45.26591698970458" lon="8.463891343513685"><ele>117.33333333333334</ele><time>2026-04-04T08:35:08.999Z</time></trkpt><trkpt lat="45.266086074191115" lon="8.463888023730943"><ele>117.66666666666667</ele><time>2026-04-04T08:35:09.999Z</time></trkpt><trkpt lat="45.26625684462129" lon="8.46388453767361"><ele>118.0</ele><time>2026-04-04T08:35:10.999Z</time></trkpt><trkpt lat="45.266426365242204" lon="8.463882064625881"><ele>118.0</ele><time>2026-04-04T08:35:11.999Z</time></trkpt><trkpt lat="45.266590621704374" lon="8.4638782587978"><ele>118.0</ele><time>2026-04-04T08:35:12.999Z</time></trkpt><trkpt lat="45.266764262184395" lon="8.463873704591563"><ele>118.0</ele><time>2026-04-04T08:35:13.999Z</time></trkpt><trkpt lat="45.266945609189406" lon="8.463869133378846"><ele>118.0</ele><time>2026-04-04T08:35:14.999Z</time></trkpt><trkpt lat="45.26713144222139" lon="8.463865963559028"><ele>118.0</ele><time>2026-04-04T08:35:15.999Z</time></trkpt><trkpt lat="45.26730061608956" lon="8.463860364620574"><ele>118.0</ele><time>2026-04-04T08:35:16.999Z</time></trkpt><trkpt lat="45.26747384696509" lon="8.46385607599341"><ele>117.66666666666667</ele><time>2026-04-04T08:35:17.999Z</time></trkpt><trkpt lat="45.267656575605905" lon="8.463850953473777"><ele>117.33333333333334</ele><time>2026-04-04T08:35:18.999Z</time></trkpt><trkpt lat="45.26784292173917" lon="8.463846716681841"><ele>117.0</ele><time>2026-04-04T08:35:19.999Z</time></trkpt><trkpt lat="45.26802638847617" lon="8.46384059503559"><ele>117.0</ele><time>2026-04-04T08:35:20.999Z</time></trkpt><trkpt lat="45.268195833515705" lon="8.463834718430201"><ele>117.0</ele><time>2026-04-04T08:35:21.999Z</time></trkpt><trkpt lat="45.2683717940606" lon="8.4638306001941"><ele>117.0</ele><time>2026-04-04T08:35:22.999Z</time></trkpt><trkpt lat="45.268554056493535" lon="8.463828796513043"><ele>117.0</ele><time>2026-04-04T08:35:23.999Z</time></trkpt><trkpt lat="45.26874148303112" lon="8.463820993799668"><ele>117.0</ele><time>2026-04-04T08:35:24.999Z</time></trkpt><trkpt lat="45.26892965304743" lon="8.463818056019207"><ele>117.0</ele><time>2026-04-04T08:35:25.999Z</time></trkpt><trkpt lat="45.26911547692868" lon="8.46381198532947"><ele>117.33333333333334</ele><time>2026-04-04T08:35:26.999Z</time></trkpt><trkpt lat="45.26928939291124" lon="8.463805001181125"><ele>117.66666666666667</ele><time>2026-04-04T08:35:27.999Z</time></trkpt><trkpt lat="45.26946789999043" lon="8.463802587790356"><ele>118.0</ele><time>2026-04-04T08:35:28.999Z</time></trkpt><trkpt lat="45.26965045563052" lon="8.463798393267943"><ele>118.75</ele><time>2026-04-04T08:35:29.999Z</time></trkpt><trkpt lat="45.26980298455535" lon="8.46379423271363"><ele>119.5</ele><time>2026-04-04T08:35:30.999Z</time></trkpt><trkpt lat="45.26995044443868" lon="8.463794196218428"><ele>120.25</ele><time>2026-04-04T08:35:31.999Z</time></trkpt><trkpt lat="45.2700917467963" lon="8.463792046242014"><ele>121.0</ele><time>2026-04-04T08:35:32.999Z</time></trkpt><trkpt lat="45.270233884441005" lon="8.463785034366001"><ele>120.5</ele><time>2026-04-04T08:35:33.999Z</time></trkpt><trkpt lat="45.27038006852003" lon="8.463779564363152"><ele>120.0</ele><time>2026-04-04T08:35:34.999Z</time></trkpt><trkpt lat="45.27052653349198" lon="8.463774981362652"><ele>119.5</ele><time>2026-04-04T08:35:35.999Z</time></trkpt><trkpt lat="45.27067702888456" lon="8.463771756188432"><ele>119.0</ele><time>2026-04-04T08:35:36.999Z</time></trkpt><trkpt lat="45.27082307279557" lon="8.463767745994302"><ele>118.75</ele><time>2026-04-04T08:35:37.999Z</time></trkpt><trkpt lat="45.27097587018815" lon="8.463763968841171"><ele>118.5</ele><time>2026-04-04T08:35:38.999Z</time></trkpt><trkpt lat="45.27112373771023" lon="8.463760458898875"><ele>118.25</ele><time>2026-04-04T08:35:39.999Z</time></trkpt><trkpt lat="45.27126725532336" lon="8.463756575058474"><ele>118.0</ele><time>2026-04-04T08:35:40.999Z</time></trkpt><trkpt lat="45.27142022304884" lon="8.463751990574291"><ele>118.33333333333334</ele><time>2026-04-04T08:35:41.999Z</time></trkpt><trkpt lat="45.27157649379345" lon="8.463747600995445"><ele>118.66666666666666</ele><time>2026-04-04T08:35:42.999Z</time></trkpt><trkpt lat="45.27173483855007" lon="8.463742679640617"><ele>119.0</ele><time>2026-04-04T08:35:43.999Z</time></trkpt><trkpt lat="45.27189527855271" lon="8.46373754721562"><ele>119.0</ele><time>2026-04-04T08:35:44.999Z</time></trkpt><trkpt lat="45.272055706782716" lon="8.463733138850145"><ele>119.0</ele><time>2026-04-04T08:35:45.999Z</time></trkpt><trkpt lat="45.27221734281979" lon="8.463728141008577"><ele>119.0</ele><time>2026-04-04T08:35:46.999Z</time></trkpt><trkpt lat="45.27237291546061" lon="8.463721379425744"><ele>118.5</ele><time>2026-04-04T08:35:47.999Z</time></trkpt><trkpt lat="45.27251707162542" lon="8.463716640026073"><ele>118.0</ele><time>2026-04-04T08:35:48.999Z</time></trkpt><trkpt lat="45.27266099128667" lon="8.463712865102892"><ele>117.5</ele><time>2026-04-04T08:35:49.999Z</time></trkpt><trkpt lat="45.27280000262689" lon="8.463707307714687"><ele>117.0</ele><time>2026-04-04T08:35:50.999Z</time></trkpt><trkpt lat="45.272947127723235" lon="8.463701905907827"><ele>117.0</ele><time>2026-04-04T08:35:51.999Z</time></trkpt><trkpt lat="45.27309413112155" lon="8.463698270951264"><ele>117.0</ele><time>2026-04-04T08:35:52.999Z</time></trkpt><trkpt lat="45.27324174353716" lon="8.463693730222221"><ele>117.0</ele><time>2026-04-04T08:35:53.999Z</time></trkpt><trkpt lat="45.27339225937877" lon="8.463687882853634"><ele>117.0</ele><time>2026-04-04T08:35:54.999Z</time></trkpt><trkpt lat="45.27354549484303" lon="8.463682102910376"><ele>116.66666666666666</ele><time>2026-04-04T08:35:55.999Z</time></trkpt><trkpt lat="45.27369092608864" lon="8.463676677658478"><ele>116.33333333333333</ele><time>2026-04-04T08:35:56.999Z</time></trkpt><trkpt lat="45.27384386534" lon="8.463671025424953"><ele>116.0</ele><time>2026-04-04T08:35:57.999Z</time></trkpt><trkpt lat="45.27400173548287" lon="8.46366560288092"><ele>116.66666666666666</ele><time>2026-04-04T08:35:58.999Z</time></trkpt><trkpt lat="45.27416664050756" lon="8.463659371650175"><ele>117.33333333333334</ele><time>2026-04-04T08:35:59.999Z</time></trkpt><trkpt lat="45.274339300394594" lon="8.463653701511673"><ele>118.0</ele><time>2026-04-04T08:36:00.999Z</time></trkpt><trkpt lat="45.27451665025098" lon="8.463647463909592"><ele>118.0</ele><time>2026-04-04T08:36:01.999Z</time></trkpt><trkpt lat="45.274701974836745" lon="8.463639835173648"><ele>118.0</ele><time>2026-04-04T08:36:02.999Z</time></trkpt><trkpt lat="45.27488962322543" lon="8.463631952996506"><ele>118.0</ele><time>2026-04-04T08:36:03.999Z</time></trkpt><trkpt lat="45.27507968798957" lon="8.463625530419273"><ele>118.0</ele><time>2026-04-04T08:36:05Z</time></trkpt><trkpt lat="45.27525094962753" lon="8.463619958328557"><ele>118.0</ele><time>2026-04-04T08:36:06Z</time></trkpt><trkpt lat="45.275425096377695" lon="8.463614329465045"><ele>118.0</ele><time>2026-04-04T08:36:07Z</time></trkpt><trkpt lat="45.275607031780744" lon="8.463606677401726"><ele>118.33333333333334</ele><time>2026-04-04T08:36:08Z</time></trkpt><trkpt lat="45.27579143940217" lon="8.463599874228823"><ele>118.66666666666666</ele><time>2026-04-04T08:36:09Z</time></trkpt><trkpt lat="45.275981378776116" lon="8.463591305073017"><ele>119.0</ele><time>2026-04-04T08:36:10Z</time></trkpt><trkpt lat="45.27616487924182" lon="8.46358387303762"><ele>119.0</ele><time>2026-04-04T08:36:11Z</time></trkpt><trkpt lat="45.27635244438594" lon="8.463578040422863"><ele>119.0</ele><time>2026-04-04T08:36:12Z</time></trkpt><trkpt lat="45.27653791603147" lon="8.463570398152376"><ele>119.0</ele><time>2026-04-04T08:36:13Z</time></trkpt><trkpt lat="45.27671351181613" lon="8.463563252932271"><ele>119.0</ele><time>2026-04-04T08:36:14Z</time></trkpt><trkpt lat="45.276886445580004" lon="8.463557347678966"><ele>119.0</ele><time>2026-04-04T08:36:15Z</time></trkpt><trkpt lat="45.27706542353146" lon="8.463552208285082"><ele>119.0</ele><time>2026-04-04T08:36:16Z</time></trkpt><trkpt lat="45.2772488904733" lon="8.463545581646688"><ele>118.33333333333333</ele><time>2026-04-04T08:36:17Z</time></trkpt><trkpt lat="45.27743465313697" lon="8.463537136055773"><ele>117.66666666666666</ele><time>2026-04-04T08:36:18Z</time></trkpt><trkpt lat="45.277622071611276" lon="8.4635305483809"><ele>117.0</ele><time>2026-04-04T08:36:19Z</time></trkpt><trkpt lat="45.27780638727636" lon="8.463523903152877"><ele>117.0</ele><time>2026-04-04T08:36:20Z</time></trkpt><trkpt lat="45.27799227584413" lon="8.463517373165535"><ele>117.0</ele><time>2026-04-04T08:36:21Z</time></trkpt><trkpt lat="45.278177414284805" lon="8.463512544252175"><ele>117.0</ele><time>2026-04-04T08:36:22Z</time></trkpt><trkpt lat="45.27835433751883" lon="8.463506407366483"><ele>117.33333333333334</ele><time>2026-04-04T08:36:23Z</time></trkpt><trkpt lat="45.27853677695052" lon="8.463499294530306"><ele>117.66666666666667</ele><time>2026-04-04T08:36:24Z</time></trkpt><trkpt lat="45.278722211165" lon="8.463492127081308"><ele>118.0</ele><time>2026-04-04T08:36:25Z</time></trkpt><trkpt lat="45.27890877513177" lon="8.463482955710518"><ele>118.66666666666667</ele><time>2026-04-04T08:36:26Z</time></trkpt><trkpt lat="45.2790883729993" lon="8.463476836450194"><ele>119.33333333333334</ele><time>2026-04-04T08:36:27Z</time></trkpt><trkpt lat="45.27927177710383" lon="8.463471309661308"><ele>120.0</ele><time>2026-04-04T08:36:28Z</time></trkpt><trkpt lat="45.27945707638117" lon="8.463461302548968"><ele>120.0</ele><time>2026-04-04T08:36:29Z</time></trkpt><trkpt lat="45.279643025082144" lon="8.463447153225642"><ele>120.0</ele><time>2026-04-04T08:36:30Z</time></trkpt><trkpt lat="45.27981850645095" lon="8.463429185368804"><ele>120.0</ele><time>2026-04-04T08:36:31Z</time></trkpt><trkpt lat="45.279991863028386" lon="8.463384759807393"><ele>119.0</ele><time>2026-04-04T08:36:32Z</time></trkpt><trkpt lat="45.280168453805715" lon="8.463319523859786"><ele>118.0</ele><time>2026-04-04T08:36:33Z</time></trkpt><trkpt lat="45.2803446270031" lon="8.463237268639777"><ele>117.0</ele><time>2026-04-04T08:36:34Z</time></trkpt><trkpt lat="45.280524779727166" lon="8.463140465501656"><ele>117.0</ele><time>2026-04-04T08:36:35Z</time></trkpt><trkpt lat="45.28070217188019" lon="8.463038217236306"><ele>117.0</ele><time>2026-04-04T08:36:36Z</time></trkpt><trkpt lat="45.28087142553185" lon="8.462934897679382"><ele>117.0</ele><time>2026-04-04T08:36:37Z</time></trkpt><trkpt lat="45.28103369244374" lon="8.462836439148175"><ele>117.0</ele><time>2026-04-04T08:36:38Z</time></trkpt><trkpt lat="45.28120092165465" lon="8.46272916375697"><ele>117.0</ele><time>2026-04-04T08:36:39Z</time></trkpt><trkpt lat="45.281368978254065" lon="8.462621800894391"><ele>117.0</ele><time>2026-04-04T08:36:40Z</time></trkpt><trkpt lat="45.28154172301217" lon="8.462510938720085"><ele>118.0</ele><time>2026-04-04T08:36:41Z</time></trkpt><trkpt lat="45.28170713347895" lon="8.462398330013349"><ele>119.0</ele><time>2026-04-04T08:36:42Z</time></trkpt><trkpt lat="45.281872102457406" lon="8.462282318123016"><ele>120.0</ele><time>2026-04-04T08:36:43Z</time></trkpt><trkpt lat="45.28202672968042" lon="8.46216578575453"><ele>120.0</ele><time>2026-04-04T08:36:44Z</time></trkpt><trkpt lat="45.282186087867025" lon="8.462046265356742"><ele>120.0</ele><time>2026-04-04T08:36:45Z</time></trkpt><trkpt lat="45.28235167912828" lon="8.461926171010845"><ele>120.0</ele><time>2026-04-04T08:36:46Z</time></trkpt><trkpt lat="45.28251710243871" lon="8.461799042986492"><ele>120.0</ele><time>2026-04-04T08:36:47Z</time></trkpt><trkpt lat="45.28267902911591" lon="8.461676288977332"><ele>120.0</ele><time>2026-04-04T08:36:48Z</time></trkpt><trkpt lat="45.28284524603587" lon="8.461545459854367"><ele>120.0</ele><time>2026-04-04T08:36:49Z</time></trkpt><trkpt lat="45.28300680507913" lon="8.461412249114522"><ele>120.33333333333334</ele><time>2026-04-04T08:36:50Z</time></trkpt><trkpt lat="45.28316112835642" lon="8.461277857037404"><ele>120.66666666666667</ele><time>2026-04-04T08:36:51Z</time></trkpt><trkpt lat="45.28331325002214" lon="8.461141493396783"><ele>121.0</ele><time>2026-04-04T08:36:52Z</time></trkpt><trkpt lat="45.28346877787989" lon="8.46099549744404"><ele>121.0</ele><time>2026-04-04T08:36:53Z</time></trkpt><trkpt lat="45.28361794999561" lon="8.460851678838"><ele>121.0</ele><time>2026-04-04T08:36:54Z</time></trkpt><trkpt lat="45.28376542048349" lon="8.460717018554327"><ele>121.0</ele><time>2026-04-04T08:36:55Z</time></trkpt><trkpt lat="45.283919507406544" lon="8.46057566743002"><ele>121.33333333333334</ele><time>2026-04-04T08:36:56Z</time></trkpt><trkpt lat="45.28407573860582" lon="8.460432412889174"><ele>121.66666666666666</ele><time>2026-04-04T08:36:57Z</time></trkpt><trkpt lat="45.28422578720343" lon="8.460287070087096"><ele>122.0</ele><time>2026-04-04T08:36:58Z</time></trkpt><trkpt lat="45.28436966700728" lon="8.460150325284445"><ele>122.0</ele><time>2026-04-04T08:36:59Z</time></trkpt><trkpt lat="45.284516992658716" lon="8.460012820073521"><ele>122.0</ele><time>2026-04-04T08:37:00Z</time></trkpt><trkpt lat="45.28466808858487" lon="8.459877042946344"><ele>122.0</ele><time>2026-04-04T08:37:01Z</time></trkpt><trkpt lat="45.28482431311963" lon="8.459732729553194"><ele>122.0</ele><time>2026-04-04T08:37:02Z</time></trkpt><trkpt lat="45.28498039744504" lon="8.459584817222272"><ele>122.0</ele><time>2026-04-04T08:37:03Z</time></trkpt><trkpt lat="45.285132037548514" lon="8.459441518690324"><ele>122.0</ele><time>2026-04-04T08:37:04Z</time></trkpt><trkpt lat="45.28528006922814" lon="8.459305803981305"><ele>122.0</ele><time>2026-04-04T08:37:05Z</time></trkpt><trkpt lat="45.285425063794655" lon="8.45917216351068"><ele>122.0</ele><time>2026-04-04T08:37:06Z</time></trkpt><trkpt lat="45.28557650157559" lon="8.459031893486523"><ele>122.0</ele><time>2026-04-04T08:37:07Z</time></trkpt><trkpt lat="45.28573167213622" lon="8.458886629009234"><ele>121.66666666666666</ele><time>2026-04-04T08:37:08Z</time></trkpt><trkpt lat="45.285889811348156" lon="8.4587359080996"><ele>121.33333333333334</ele><time>2026-04-04T08:37:09Z</time></trkpt><trkpt lat="45.286047040328015" lon="8.458590124754972"><ele>121.0</ele><time>2026-04-04T08:37:10Z</time></trkpt><trkpt lat="45.28620651490785" lon="8.458443993058221"><ele>121.0</ele><time>2026-04-04T08:37:11Z</time></trkpt><trkpt lat="45.28635922453902" lon="8.458298020937693"><ele>121.0</ele><time>2026-04-04T08:37:12Z</time></trkpt><trkpt lat="45.286505998223504" lon="8.458155718287458"><ele>121.0</ele><time>2026-04-04T08:37:13Z</time></trkpt><trkpt lat="45.286656045262134" lon="8.45800335536463"><ele>121.33333333333334</ele><time>2026-04-04T08:37:14Z</time></trkpt><trkpt lat="45.28680347754273" lon="8.457844091421553"><ele>121.66666666666666</ele><time>2026-04-04T08:37:15Z</time></trkpt><trkpt lat="45.28694728951903" lon="8.457677800631041"><ele>122.0</ele><time>2026-04-04T08:37:16Z</time></trkpt><trkpt lat="45.28708257529353" lon="8.457520301255528"><ele>122.0</ele><time>2026-04-04T08:37:17Z</time></trkpt><trkpt lat="45.287207506668494" lon="8.45737021364584"><ele>122.0</ele><time>2026-04-04T08:37:17.999Z</time></trkpt><trkpt lat="45.287334922572136" lon="8.457209810917906"><ele>122.0</ele><time>2026-04-04T08:37:18.999Z</time></trkpt><trkpt lat="45.287461711681864" lon="8.457044735287967"><ele>122.33333333333333</ele><time>2026-04-04T08:37:19.999Z</time></trkpt><trkpt lat="45.287589462487745" lon="8.456869109996044"><ele>122.66666666666666</ele><time>2026-04-04T08:37:20.999Z</time></trkpt><trkpt lat="45.28771848546201" lon="8.4566893026165"><ele>123.0</ele><time>2026-04-04T08:37:21.999Z</time></trkpt><trkpt lat="45.287840774482454" lon="8.456523204695749"><ele>123.0</ele><time>2026-04-04T08:37:22.999Z</time></trkpt><trkpt lat="45.28796843085615" lon="8.456348412714934"><ele>123.0</ele><time>2026-04-04T08:37:23.999Z</time></trkpt><trkpt lat="45.288099654833005" lon="8.456169250876703"><ele>123.0</ele><time>2026-04-04T08:37:24.999Z</time></trkpt><trkpt lat="45.28822910506453" lon="8.455996439828818"><ele>122.33333333333334</ele><time>2026-04-04T08:37:25.999Z</time></trkpt><trkpt lat="45.28834978696971" lon="8.455832791266994"><ele>121.66666666666667</ele><time>2026-04-04T08:37:26.999Z</time></trkpt><trkpt lat="45.28846327635687" lon="8.455672909343543"><ele>121.0</ele><time>2026-04-04T08:37:27.999Z</time></trkpt><trkpt lat="45.28857209565634" lon="8.45551789735746"><ele>121.0</ele><time>2026-04-04T08:37:28.999Z</time></trkpt><trkpt lat="45.28867770450674" lon="8.455374914258359"><ele>121.0</ele><time>2026-04-04T08:37:29.999Z</time></trkpt><trkpt lat="45.28877760901725" lon="8.45524022298006"><ele>121.0</ele><time>2026-04-04T08:37:30.999Z</time></trkpt><trkpt lat="45.28887177251139" lon="8.455110612965955"><ele>121.0</ele><time>2026-04-04T08:37:31.999Z</time></trkpt><trkpt lat="45.28896458952134" lon="8.454988029969698"><ele>121.0</ele><time>2026-04-04T08:37:32.999Z</time></trkpt><trkpt lat="45.28905231941707" lon="8.454870171840707"><ele>121.0</ele><time>2026-04-04T08:37:33.999Z</time></trkpt><trkpt lat="45.289139475299564" lon="8.454749322441758"><ele>121.0</ele><time>2026-04-04T08:37:34.999Z</time></trkpt><trkpt lat="45.28923203473077" lon="8.454626195972617"><ele>121.0</ele><time>2026-04-04T08:37:35.999Z</time></trkpt><trkpt lat="45.28932613505167" lon="8.454504031111368"><ele>120.75</ele><time>2026-04-04T08:37:36.999Z</time></trkpt><trkpt lat="45.28941900017206" lon="8.454392880260697"><ele>120.5</ele><time>2026-04-04T08:37:37.999Z</time></trkpt><trkpt lat="45.289516239599784" lon="8.454297839266257"><ele>120.25</ele><time>2026-04-04T08:37:38.999Z</time></trkpt><trkpt lat="45.28963521334068" lon="8.45419292759902"><ele>120.0</ele><time>2026-04-04T08:37:39.999Z</time></trkpt><trkpt lat="45.28972272663072" lon="8.454192843281085"><ele>120.25</ele><time>2026-04-04T08:37:40.999Z</time></trkpt><trkpt lat="45.289832937978616" lon="8.45414519616043"><ele>120.5</ele><time>2026-04-04T08:37:41.999Z</time></trkpt><trkpt lat="45.289987179777164" lon="8.454284634368792"><ele>120.75</ele><time>2026-04-04T08:37:42.999Z</time></trkpt><trkpt lat="45.29012746862895" lon="8.454294066924778"><ele>121.0</ele><time>2026-04-04T08:37:43.999Z</time></trkpt><trkpt lat="45.2902713495375" lon="8.454248991332358"><ele>121.0</ele><time>2026-04-04T08:37:44.999Z</time></trkpt><trkpt lat="45.29041729669874" lon="8.454181273904368"><ele>121.0</ele><time>2026-04-04T08:37:45.999Z</time></trkpt><trkpt lat="45.290568409886006" lon="8.454107517052485"><ele>121.0</ele><time>2026-04-04T08:37:46.999Z</time></trkpt><trkpt lat="45.29072457969262" lon="8.454026387655844"><ele>121.0</ele><time>2026-04-04T08:37:47.999Z</time></trkpt><trkpt lat="45.290879164895195" lon="8.453946567835226"><ele>121.0</ele><time>2026-04-04T08:37:48.999Z</time></trkpt><trkpt lat="45.291026453370506" lon="8.45387313437438"><ele>121.0</ele><time>2026-04-04T08:37:49.999Z</time></trkpt><trkpt lat="45.291182410019104" lon="8.453797235526086"><ele>121.0</ele><time>2026-04-04T08:37:50.999Z</time></trkpt><trkpt lat="45.29134435684374" lon="8.453716984641206"><ele>121.0</ele><time>2026-04-04T08:37:51.999Z</time></trkpt><trkpt lat="45.29151283791265" lon="8.453632633488322"><ele>121.0</ele><time>2026-04-04T08:37:52.999Z</time></trkpt><trkpt lat="45.29168619138978" lon="8.45354699361453"><ele>121.0</ele><time>2026-04-04T08:37:53.999Z</time></trkpt><trkpt lat="45.29185599447028" lon="8.453459986559201"><ele>121.0</ele><time>2026-04-04T08:37:54.999Z</time></trkpt><trkpt lat="45.29201213458188" lon="8.453378375424448"><ele>121.0</ele><time>2026-04-04T08:37:55.999Z</time></trkpt><trkpt lat="45.29217119663376" lon="8.453299336604783"><ele>121.0</ele><time>2026-04-04T08:37:56.999Z</time></trkpt><trkpt lat="45.29231358738411" lon="8.453228989595013"><ele>121.0</ele><time>2026-04-04T08:37:57.999Z</time></trkpt><trkpt lat="45.29244106398501" lon="8.453165078069166"><ele>121.0</ele><time>2026-04-04T08:37:58.999Z</time></trkpt><trkpt lat="45.29255733844214" lon="8.453107569979494"><ele>121.0</ele><time>2026-04-04T08:37:59.999Z</time></trkpt><trkpt lat="45.29265737694546" lon="8.453061381787357"><ele>121.0</ele><time>2026-04-04T08:38:00.999Z</time></trkpt><trkpt lat="45.29275337099441" lon="8.453038182050719"><ele>121.0</ele><time>2026-04-04T08:38:01.999Z</time></trkpt><trkpt lat="45.29284181604593" lon="8.453066670976016"><ele>121.0</ele><time>2026-04-04T08:38:02.999Z</time></trkpt><trkpt lat="45.29293133195178" lon="8.453135384341309"><ele>121.0</ele><time>2026-04-04T08:38:03.999Z</time></trkpt><trkpt lat="45.29300622162579" lon="8.453207766594424"><ele>121.0</ele><time>2026-04-04T08:38:04.999Z</time></trkpt><trkpt lat="45.29308430812979" lon="8.453230643126503"><ele>121.19999999999999</ele><time>2026-04-04T08:38:05.999Z</time></trkpt><trkpt lat="45.293159550849644" lon="8.453188545806507"><ele>121.39999999999999</ele><time>2026-04-04T08:38:06.999Z</time></trkpt><trkpt lat="45.29320916190833" lon="8.453103532512642"><ele>121.6</ele><time>2026-04-04T08:38:07.999Z</time></trkpt><trkpt lat="45.29323124538182" lon="8.45298122980479"><ele>121.8</ele><time>2026-04-04T08:38:08.999Z</time></trkpt><trkpt lat="45.29325177231528" lon="8.452843609445106"><ele>122.0</ele><time>2026-04-04T08:38:09.999Z</time></trkpt><trkpt lat="45.29331518716909" lon="8.452727605792507"><ele>122.75</ele><time>2026-04-04T08:38:11Z</time></trkpt><trkpt lat="45.293417135129616" lon="8.452646152917588"><ele>123.5</ele><time>2026-04-04T08:38:12Z</time></trkpt><trkpt lat="45.29354243768483" lon="8.452599115216898"><ele>124.25</ele><time>2026-04-04T08:38:13Z</time></trkpt><trkpt lat="45.29367975745155" lon="8.452543286162223"><ele>125.0</ele><time>2026-04-04T08:38:14Z</time></trkpt><trkpt lat="45.29381584631024" lon="8.452477516313417"><ele>124.33333333333333</ele><time>2026-04-04T08:38:15Z</time></trkpt><trkpt lat="45.29396460005694" lon="8.452401959221726"><ele>123.66666666666666</ele><time>2026-04-04T08:38:16Z</time></trkpt><trkpt lat="45.294123423181695" lon="8.452324831917668"><ele>123.0</ele><time>2026-04-04T08:38:17Z</time></trkpt><trkpt lat="45.29428967792123" lon="8.452242525994345"><ele>123.0</ele><time>2026-04-04T08:38:18Z</time></trkpt><trkpt lat="45.294457147143454" lon="8.452155612817608"><ele>123.0</ele><time>2026-04-04T08:38:19Z</time></trkpt><trkpt lat="45.294630939863076" lon="8.45206727729065"><ele>123.0</ele><time>2026-04-04T08:38:20Z</time></trkpt><trkpt lat="45.29480874940854" lon="8.45198024001801"><ele>123.33333333333334</ele><time>2026-04-04T08:38:21Z</time></trkpt><trkpt lat="45.294983680953855" lon="8.451895191568585"><ele>123.66666666666667</ele><time>2026-04-04T08:38:22Z</time></trkpt><trkpt lat="45.29515346181784" lon="8.451808187693713"><ele>124.0</ele><time>2026-04-04T08:38:23Z</time></trkpt><trkpt lat="45.29532241077737" lon="8.451721914244915"><ele>124.0</ele><time>2026-04-04T08:38:24Z</time></trkpt><trkpt lat="45.29548863590359" lon="8.451631047769085"><ele>124.0</ele><time>2026-04-04T08:38:25Z</time></trkpt><trkpt lat="45.29564855405265" lon="8.45153555182801"><ele>124.0</ele><time>2026-04-04T08:38:26Z</time></trkpt><trkpt lat="45.29580540548231" lon="8.451441038618647"><ele>123.33333333333334</ele><time>2026-04-04T08:38:27Z</time></trkpt><trkpt lat="45.295961030178795" lon="8.451342226337948"><ele>122.66666666666666</ele><time>2026-04-04T08:38:28Z</time></trkpt><trkpt lat="45.2961184093961" lon="8.451239692567265"><ele>122.0</ele><time>2026-04-04T08:38:29Z</time></trkpt><trkpt lat="45.296276093527666" lon="8.451135738995855"><ele>122.0</ele><time>2026-04-04T08:38:30Z</time></trkpt><trkpt lat="45.29643724903611" lon="8.451029908742333"><ele>122.0</ele><time>2026-04-04T08:38:31Z</time></trkpt><trkpt lat="45.29659917711332" lon="8.450926271110395"><ele>122.0</ele><time>2026-04-04T08:38:32Z</time></trkpt><trkpt lat="45.29675286946939" lon="8.450829424634778"><ele>122.0</ele><time>2026-04-04T08:38:33Z</time></trkpt><trkpt lat="45.296915303225354" lon="8.450735203515672"><ele>122.0</ele><time>2026-04-04T08:38:34Z</time></trkpt><trkpt lat="45.29708251272507" lon="8.450634799709624"><ele>122.0</ele><time>2026-04-04T08:38:35Z</time></trkpt><trkpt lat="45.297255747152285" lon="8.450525090133919"><ele>121.66666666666666</ele><time>2026-04-04T08:38:36Z</time></trkpt><trkpt lat="45.29742307209471" lon="8.450420799884427"><ele>121.33333333333334</ele><time>2026-04-04T08:38:37Z</time></trkpt><trkpt lat="45.29757922524842" lon="8.450320671618622"><ele>121.0</ele><time>2026-04-04T08:38:38Z</time></trkpt><trkpt lat="45.29774648511386" lon="8.45021358865163"><ele>121.0</ele><time>2026-04-04T08:38:39Z</time></trkpt><trkpt lat="45.29792070564547" lon="8.450103982065277"><ele>121.0</ele><time>2026-04-04T08:38:40Z</time></trkpt><trkpt lat="45.298095321733534" lon="8.449991585475848"><ele>121.0</ele><time>2026-04-04T08:38:41Z</time></trkpt><trkpt lat="45.29826767276904" lon="8.449881085320325"><ele>121.0</ele><time>2026-04-04T08:38:42Z</time></trkpt><trkpt lat="45.2984276590097" lon="8.449779112329388"><ele>121.0</ele><time>2026-04-04T08:38:43Z</time></trkpt><trkpt lat="45.298595559414316" lon="8.449669506494367"><ele>121.0</ele><time>2026-04-04T08:38:44Z</time></trkpt><trkpt lat="45.298768112990466" lon="8.449561114617016"><ele>121.33333333333334</ele><time>2026-04-04T08:38:45Z</time></trkpt><trkpt lat="45.298937353634145" lon="8.449451709210159"><ele>121.66666666666666</ele><time>2026-04-04T08:38:46Z</time></trkpt><trkpt lat="45.29910264528099" lon="8.449340500837776"><ele>122.0</ele><time>2026-04-04T08:38:47Z</time></trkpt><trkpt lat="45.2992651705352" lon="8.449238190017876"><ele>122.0</ele><time>2026-04-04T08:38:48Z</time></trkpt><trkpt lat="45.29943297238643" lon="8.449131455693667"><ele>122.0</ele><time>2026-04-04T08:38:49Z</time></trkpt><trkpt lat="45.29960481334813" lon="8.449023913165098"><ele>122.0</ele><time>2026-04-04T08:38:50Z</time></trkpt><trkpt lat="45.299762393371225" lon="8.448922338648334"><ele>122.0</ele><time>2026-04-04T08:38:51Z</time></trkpt><trkpt lat="45.29992554475111" lon="8.448819269177312"><ele>122.0</ele><time>2026-04-04T08:38:52Z</time></trkpt><trkpt lat="45.300091247756704" lon="8.448712119548086"><ele>122.0</ele><time>2026-04-04T08:38:53Z</time></trkpt><trkpt lat="45.30025869479737" lon="8.448603208021387"><ele>122.0</ele><time>2026-04-04T08:38:54Z</time></trkpt><trkpt lat="45.30042926396427" lon="8.448494229530684"><ele>122.0</ele><time>2026-04-04T08:38:55Z</time></trkpt><trkpt lat="45.30058837407586" lon="8.448393054012804"><ele>122.0</ele><time>2026-04-04T08:38:56Z</time></trkpt><trkpt lat="45.30075376933317" lon="8.448288655139768"><ele>122.0</ele><time>2026-04-04T08:38:57Z</time></trkpt><trkpt lat="45.30092422450247" lon="8.44817692801777"><ele>122.0</ele><time>2026-04-04T08:38:58Z</time></trkpt><trkpt lat="45.301079729138145" lon="8.448074241460759"><ele>122.0</ele><time>2026-04-04T08:38:59Z</time></trkpt><trkpt lat="45.30120936281169" lon="8.44799117634791"><ele>122.75</ele><time>2026-04-04T08:39:00Z</time></trkpt><trkpt lat="45.301323174133245" lon="8.447919551523457"><ele>123.5</ele><time>2026-04-04T08:39:01Z</time></trkpt><trkpt lat="45.301430052706735" lon="8.447856235730395"><ele>124.25</ele><time>2026-04-04T08:39:02Z</time></trkpt><trkpt lat="45.30152946622986" lon="8.447808337171107"><ele>125.0</ele><time>2026-04-04T08:39:03Z</time></trkpt><trkpt lat="45.301642514401365" lon="8.44776523436215"><ele>125.0</ele><time>2026-04-04T08:39:04Z</time></trkpt><trkpt lat="45.301721434421744" lon="8.447699810981824"><ele>125.0</ele><time>2026-04-04T08:39:05Z</time></trkpt><trkpt lat="45.30180106449965" lon="8.447628221881411"><ele>125.0</ele><time>2026-04-04T08:39:06Z</time></trkpt><trkpt lat="45.301879801089555" lon="8.447559925992609"><ele>125.0</ele><time>2026-04-04T08:39:07Z</time></trkpt><trkpt lat="45.3019575178581" lon="8.447500587748205"><ele>125.0</ele><time>2026-04-04T08:39:08Z</time></trkpt><trkpt lat="45.30203558134875" lon="8.447445547466955"><ele>125.0</ele><time>2026-04-04T08:39:09Z</time></trkpt><trkpt lat="45.30211817180578" lon="8.4473872390156"><ele>125.0</ele><time>2026-04-04T08:39:10Z</time></trkpt><trkpt lat="45.302191839494746" lon="8.447333833641395"><ele>125.0</ele><time>2026-04-04T08:39:11Z</time></trkpt><trkpt lat="45.30227088076733" lon="8.447282216368203"><ele>125.0</ele><time>2026-04-04T08:39:12Z</time></trkpt><trkpt lat="45.302351956246774" lon="8.44723253711406"><ele>125.0</ele><time>2026-04-04T08:39:13Z</time></trkpt><trkpt lat="45.302444820699534" lon="8.447180121430158"><ele>124.8</ele><time>2026-04-04T08:39:14Z</time></trkpt><trkpt lat="45.30253953829206" lon="8.447120885590904"><ele>124.6</ele><time>2026-04-04T08:39:15Z</time></trkpt><trkpt lat="45.30263086572579" lon="8.447062951414992"><ele>124.4</ele><time>2026-04-04T08:39:16Z</time></trkpt><trkpt lat="45.302739695876184" lon="8.446992677688685"><ele>124.2</ele><time>2026-04-04T08:39:17Z</time></trkpt><trkpt lat="45.30283421757227" lon="8.446926708501758"><ele>124.0</ele><time>2026-04-04T08:39:18Z</time></trkpt><trkpt lat="45.30293715940139" lon="8.446857783770572"><ele>124.0</ele><time>2026-04-04T08:39:19Z</time></trkpt><trkpt lat="45.30305037510993" lon="8.44677335084076"><ele>124.0</ele><time>2026-04-04T08:39:20Z</time></trkpt><trkpt lat="45.303146644165295" lon="8.446701545409441"><ele>124.0</ele><time>2026-04-04T08:39:21Z</time></trkpt><trkpt lat="45.30324619294689" lon="8.446626009998448"><ele>124.0</ele><time>2026-04-04T08:39:22Z</time></trkpt><trkpt lat="45.303357097748794" lon="8.446536746649484"><ele>124.5</ele><time>2026-04-04T08:39:22.999Z</time></trkpt><trkpt lat="45.30345329090726" lon="8.446456086635559"><ele>125.0</ele><time>2026-04-04T08:39:23.999Z</time></trkpt><trkpt lat="45.303549928808586" lon="8.446371170196826"><ele>125.5</ele><time>2026-04-04T08:39:24.999Z</time></trkpt><trkpt lat="45.30365635998477" lon="8.446279378039636"><ele>126.0</ele><time>2026-04-04T08:39:25.999Z</time></trkpt><trkpt lat="45.303752857020754" lon="8.446200711456209"><ele>126.19999999999999</ele><time>2026-04-04T08:39:26.999Z</time></trkpt><trkpt lat="45.30384371641051" lon="8.44612211325843"><ele>126.39999999999999</ele><time>2026-04-04T08:39:27.999Z</time></trkpt><trkpt lat="45.30393240835502" lon="8.446046943059391"><ele>126.6</ele><time>2026-04-04T08:39:28.999Z</time></trkpt><trkpt lat="45.30402425732331" lon="8.44596607106988"><ele>126.8</ele><time>2026-04-04T08:39:29.999Z</time></trkpt><trkpt lat="45.304106965539724" lon="8.445895858194225"><ele>127.0</ele><time>2026-04-04T08:39:30.999Z</time></trkpt><trkpt lat="45.30418510914344" lon="8.445831296911116"><ele>127.0</ele><time>2026-04-04T08:39:31.999Z</time></trkpt><trkpt lat="45.30427336337296" lon="8.44576108067219"><ele>126.99999999999999</ele><time>2026-04-04T08:39:32.999Z</time></trkpt><trkpt lat="45.30435159602434" lon="8.44569162971822"><ele>126.99999999999999</ele><time>2026-04-04T08:39:33.999Z</time></trkpt><trkpt lat="45.30443178396133" lon="8.445624435607355"><ele>127.0</ele><time>2026-04-04T08:39:34.999Z</time></trkpt><trkpt lat="45.304512757913486" lon="8.44555499708402"><ele>127.0</ele><time>2026-04-04T08:39:35.999Z</time></trkpt><trkpt lat="45.3045911956285" lon="8.44549108217916"><ele>127.0</ele><time>2026-04-04T08:39:36.999Z</time></trkpt><trkpt lat="45.30467590078124" lon="8.445419475638023"><ele>126.99999999999999</ele><time>2026-04-04T08:39:37.999Z</time></trkpt><trkpt lat="45.30477064111464" lon="8.445339039558467"><ele>126.99999999999999</ele><time>2026-04-04T08:39:38.999Z</time></trkpt><trkpt lat="45.30485959891394" lon="8.445264384735868"><ele>127.0</ele><time>2026-04-04T08:39:39.999Z</time></trkpt><trkpt lat="45.30494144444147" lon="8.445195223044061"><ele>127.0</ele><time>2026-04-04T08:39:40.999Z</time></trkpt><trkpt lat="45.30501099071934" lon="8.445137276432702"><ele>127.0</ele><time>2026-04-04T08:39:41.999Z</time></trkpt><trkpt lat="45.30509867210044" lon="8.445068197053965"><ele>126.99999999999999</ele><time>2026-04-04T08:39:43.999Z</time></trkpt><trkpt lat="45.305178774153" lon="8.44499870441592"><ele>126.99999999999999</ele><time>2026-04-04T08:39:45.999Z</time></trkpt><trkpt lat="45.30525184529856" lon="8.44494592517031"><ele>127.0</ele><time>2026-04-04T08:39:46.999Z</time></trkpt><trkpt lat="45.30533322126686" lon="8.44488105330861"><ele>127.0</ele><time>2026-04-04T08:39:47.999Z</time></trkpt><trkpt lat="45.305422676394265" lon="8.444800890516001"><ele>127.0</ele><time>2026-04-04T08:39:48.999Z</time></trkpt><trkpt lat="45.305526168125475" lon="8.444710039617924"><ele>127.0</ele><time>2026-04-04T08:39:49.999Z</time></trkpt><trkpt lat="45.305634670746194" lon="8.444612909323649"><ele>127.0</ele><time>2026-04-04T08:39:50.999Z</time></trkpt><trkpt lat="45.305742814476126" lon="8.444520898504804"><ele>127.0</ele><time>2026-04-04T08:39:51.999Z</time></trkpt><trkpt lat="45.30584597727483" lon="8.444428404541483"><ele>126.25</ele><time>2026-04-04T08:39:52.999Z</time></trkpt><trkpt lat="45.30596290652343" lon="8.444326657047014"><ele>125.5</ele><time>2026-04-04T08:39:53.999Z</time></trkpt><trkpt lat="45.306073380507335" lon="8.444229778049955"><ele>124.75</ele><time>2026-04-04T08:39:54.999Z</time></trkpt><trkpt lat="45.30618872758943" lon="8.444131826448233"><ele>124.0</ele><time>2026-04-04T08:39:55.999Z</time></trkpt><trkpt lat="45.306299265961755" lon="8.44403350971648"><ele>124.25</ele><time>2026-04-04T08:39:56.999Z</time></trkpt><trkpt lat="45.306413276645955" lon="8.44392901057327"><ele>124.5</ele><time>2026-04-04T08:39:57.999Z</time></trkpt><trkpt lat="45.30654215507024" lon="8.443820260286623"><ele>124.75</ele><time>2026-04-04T08:39:58.999Z</time></trkpt><trkpt lat="45.30667799520418" lon="8.443708852572762"><ele>125.0</ele><time>2026-04-04T08:39:59.999Z</time></trkpt><trkpt lat="45.30681768348857" lon="8.44359009283375"><ele>125.0</ele><time>2026-04-04T08:40:00.999Z</time></trkpt><trkpt lat="45.306962714267605" lon="8.443461416572013"><ele>125.0</ele><time>2026-04-04T08:40:01.999Z</time></trkpt><trkpt lat="45.30711524244022" lon="8.443330579568508"><ele>125.0</ele><time>2026-04-04T08:40:02.999Z</time></trkpt><trkpt lat="45.30725861664229" lon="8.44320890652333"><ele>125.33333333333333</ele><time>2026-04-04T08:40:03.999Z</time></trkpt><trkpt lat="45.30739225283974" lon="8.443095492093025"><ele>125.66666666666666</ele><time>2026-04-04T08:40:04.999Z</time></trkpt><trkpt lat="45.30751832569091" lon="8.442984867140883"><ele>126.0</ele><time>2026-04-04T08:40:05.999Z</time></trkpt><trkpt lat="45.30764572566749" lon="8.442878971977349"><ele>126.0</ele><time>2026-04-04T08:40:06.999Z</time></trkpt><trkpt lat="45.30777168957364" lon="8.44277036308156"><ele>126.0</ele><time>2026-04-04T08:40:07.999Z</time></trkpt><trkpt lat="45.307889075468076" lon="8.442667644052959"><ele>126.0</ele><time>2026-04-04T08:40:08.999Z</time></trkpt><trkpt lat="45.30800566044694" lon="8.442564332553886"><ele>126.0</ele><time>2026-04-04T08:40:09.999Z</time></trkpt><trkpt lat="45.3081155245659" lon="8.44246940045206"><ele>125.75</ele><time>2026-04-04T08:40:10.999Z</time></trkpt><trkpt lat="45.30822275114244" lon="8.442374692341335"><ele>125.5</ele><time>2026-04-04T08:40:11.999Z</time></trkpt><trkpt lat="45.30832594245384" lon="8.442285663858572"><ele>125.25</ele><time>2026-04-04T08:40:12.999Z</time></trkpt><trkpt lat="45.30842468477246" lon="8.442199320292058"><ele>125.0</ele><time>2026-04-04T08:40:13.999Z</time></trkpt><trkpt lat="45.30852121958373" lon="8.442115023594665"><ele>124.5</ele><time>2026-04-04T08:40:14.999Z</time></trkpt><trkpt lat="45.30862178530781" lon="8.442029621228565"><ele>124.0</ele><time>2026-04-04T08:40:15.999Z</time></trkpt><trkpt lat="45.30873004965591" lon="8.441942779024513"><ele>123.5</ele><time>2026-04-04T08:40:17Z</time></trkpt><trkpt lat="45.30884236816028" lon="8.44185255807429"><ele>123.0</ele><time>2026-04-04T08:40:18Z</time></trkpt><trkpt lat="45.308953255872005" lon="8.441762066535002"><ele>123.0</ele><time>2026-04-04T08:40:19Z</time></trkpt><trkpt lat="45.309058213273836" lon="8.441672008805723"><ele>123.0</ele><time>2026-04-04T08:40:20Z</time></trkpt><trkpt lat="45.309164502692376" lon="8.441580006105767"><ele>123.0</ele><time>2026-04-04T08:40:21Z</time></trkpt><trkpt lat="45.30927115598031" lon="8.441487806012107"><ele>123.0</ele><time>2026-04-04T08:40:22Z</time></trkpt><trkpt lat="45.30937175715587" lon="8.441403095974572"><ele>123.0</ele><time>2026-04-04T08:40:23Z</time></trkpt><trkpt lat="45.309469136067115" lon="8.44131976352729"><ele>123.0</ele><time>2026-04-04T08:40:24Z</time></trkpt><trkpt lat="45.309568255817055" lon="8.441237485610323"><ele>123.0</ele><time>2026-04-04T08:40:25Z</time></trkpt><trkpt lat="45.30966493397062" lon="8.44115546907813"><ele>123.0</ele><time>2026-04-04T08:40:26Z</time></trkpt><trkpt lat="45.309760079803205" lon="8.44107423278224"><ele>123.5</ele><time>2026-04-04T08:40:27Z</time></trkpt><trkpt lat="45.309859110357976" lon="8.440990199585038"><ele>124.0</ele><time>2026-04-04T08:40:28Z</time></trkpt><trkpt lat="45.30996530993538" lon="8.44089636048339"><ele>124.5</ele><time>2026-04-04T08:40:29Z</time></trkpt><trkpt lat="45.310080031862384" lon="8.44079574728118"><ele>125.0</ele><time>2026-04-04T08:40:30Z</time></trkpt><trkpt lat="45.31018686722626" lon="8.44070260189651"><ele>125.0</ele><time>2026-04-04T08:40:31Z</time></trkpt><trkpt lat="45.31030070727174" lon="8.440598544919002"><ele>125.0</ele><time>2026-04-04T08:40:32Z</time></trkpt><trkpt lat="45.31040410198263" lon="8.440492930339136"><ele>125.0</ele><time>2026-04-04T08:40:33Z</time></trkpt><trkpt lat="45.31050033503648" lon="8.44038859741257"><ele>125.0</ele><time>2026-04-04T08:40:34Z</time></trkpt><trkpt lat="45.310590311907774" lon="8.440282443049021"><ele>124.5</ele><time>2026-04-04T08:40:35Z</time></trkpt><trkpt lat="45.310678667000225" lon="8.440175864651357"><ele>124.0</ele><time>2026-04-04T08:40:36Z</time></trkpt><trkpt lat="45.31076536569363" lon="8.440072063564303"><ele>123.5</ele><time>2026-04-04T08:40:37Z</time></trkpt><trkpt lat="45.31086060881407" lon="8.439956267302465"><ele>123.0</ele><time>2026-04-04T08:40:38Z</time></trkpt><trkpt lat="45.31094532586723" lon="8.439847581974021"><ele>123.0</ele><time>2026-04-04T08:40:39Z</time></trkpt><trkpt lat="45.31103527788704" lon="8.439731590256732"><ele>123.0</ele><time>2026-04-04T08:40:40Z</time></trkpt><trkpt lat="45.31112820796982" lon="8.439617352310172"><ele>123.0</ele><time>2026-04-04T08:40:41Z</time></trkpt><trkpt lat="45.31121335772361" lon="8.43950693553422"><ele>123.0</ele><time>2026-04-04T08:40:42Z</time></trkpt><trkpt lat="45.311298279164035" lon="8.439395547320823"><ele>123.80000000000001</ele><time>2026-04-04T08:40:43Z</time></trkpt><trkpt lat="45.31137900694675" lon="8.43929315861579"><ele>124.60000000000001</ele><time>2026-04-04T08:40:44Z</time></trkpt><trkpt lat="45.311460311159195" lon="8.43919232057628"><ele>125.39999999999999</ele><time>2026-04-04T08:40:45Z</time></trkpt><trkpt lat="45.31154228455463" lon="8.43909115883432"><ele>126.19999999999999</ele><time>2026-04-04T08:40:46Z</time></trkpt><trkpt lat="45.31162235355012" lon="8.438988328030039"><ele>127.0</ele><time>2026-04-04T08:40:47Z</time></trkpt><trkpt lat="45.31170092812479" lon="8.438884477388013"><ele>127.00000000000001</ele><time>2026-04-04T08:40:48Z</time></trkpt><trkpt lat="45.311777305698904" lon="8.43879123447798"><ele>127.0</ele><time>2026-04-04T08:40:49Z</time></trkpt><trkpt lat="45.31184857546422" lon="8.438701953679198"><ele>127.0</ele><time>2026-04-04T08:40:50Z</time></trkpt><trkpt lat="45.31191335114345" lon="8.438621468651261"><ele>127.0</ele><time>2026-04-04T08:40:51Z</time></trkpt><trkpt lat="45.311977586260426" lon="8.438541137189011"><ele>127.00000000000001</ele><time>2026-04-04T08:40:52Z</time></trkpt><trkpt lat="45.31203732094732" lon="8.438463867326728"><ele>127.0</ele><time>2026-04-04T08:40:53Z</time></trkpt><trkpt lat="45.312095945423465" lon="8.438392203593041"><ele>127.00000000000001</ele><time>2026-04-04T08:40:54Z</time></trkpt><trkpt lat="45.31215369968885" lon="8.438321949931465"><ele>127.0</ele><time>2026-04-04T08:40:55Z</time></trkpt><trkpt lat="45.312208545298624" lon="8.438252121403766"><ele>127.0</ele><time>2026-04-04T08:40:56Z</time></trkpt><trkpt lat="45.31226591015353" lon="8.438179297550501"><ele>127.0</ele><time>2026-04-04T08:40:57Z</time></trkpt><trkpt lat="45.31232771753876" lon="8.438102444349092"><ele>127.00000000000001</ele><time>2026-04-04T08:40:58Z</time></trkpt><trkpt lat="45.3123900195597" lon="8.438025079173219"><ele>127.0</ele><time>2026-04-04T08:40:59Z</time></trkpt><trkpt lat="45.31245799681745" lon="8.43794366814124"><ele>126.6</ele><time>2026-04-04T08:41:00Z</time></trkpt><trkpt lat="45.31252837979931" lon="8.437857424499665"><ele>126.19999999999999</ele><time>2026-04-04T08:41:01Z</time></trkpt><trkpt lat="45.312599845149364" lon="8.43776873114086"><ele>125.8</ele><time>2026-04-04T08:41:02Z</time></trkpt><trkpt lat="45.31267125647218" lon="8.437676286698366"><ele>125.4</ele><time>2026-04-04T08:41:03Z</time></trkpt><trkpt lat="45.31274601061048" lon="8.43758168480521"><ele>125.0</ele><time>2026-04-04T08:41:04Z</time></trkpt><trkpt lat="45.31281482298876" lon="8.437495532379929"><ele>125.0</ele><time>2026-04-04T08:41:05Z</time></trkpt><trkpt lat="45.31289177702559" lon="8.437400651015524"><ele>125.0</ele><time>2026-04-04T08:41:06Z</time></trkpt><trkpt lat="45.31297241789488" lon="8.437294905371708"><ele>125.0</ele><time>2026-04-04T08:41:07Z</time></trkpt><trkpt lat="45.31304621175759" lon="8.437201693482322"><ele>125.0</ele><time>2026-04-04T08:41:08Z</time></trkpt><trkpt lat="45.31311997351169" lon="8.437107554376144"><ele>125.0</ele><time>2026-04-04T08:41:09Z</time></trkpt><trkpt lat="45.3131972489058" lon="8.43701323142405"><ele>124.8</ele><time>2026-04-04T08:41:10Z</time></trkpt><trkpt lat="45.31327603201265" lon="8.436913776529806"><ele>124.6</ele><time>2026-04-04T08:41:11Z</time></trkpt><trkpt lat="45.31334890529264" lon="8.43682172948742"><ele>124.4</ele><time>2026-04-04T08:41:12Z</time></trkpt><trkpt lat="45.313418706860176" lon="8.436730782356676"><ele>124.2</ele><time>2026-04-04T08:41:13Z</time></trkpt><trkpt lat="45.31349090512011" lon="8.43663958966192"><ele>124.0</ele><time>2026-04-04T08:41:14Z</time></trkpt><trkpt lat="45.313563352550396" lon="8.436546065440943"><ele>124.0</ele><time>2026-04-04T08:41:15Z</time></trkpt><trkpt lat="45.31363378874584" lon="8.436454355687232"><ele>124.0</ele><time>2026-04-04T08:41:16Z</time></trkpt><trkpt lat="45.3137038419089" lon="8.436363626711593"><ele>124.0</ele><time>2026-04-04T08:41:17Z</time></trkpt><trkpt lat="45.31377899325124" lon="8.436269228477624"><ele>124.0</ele><time>2026-04-04T08:41:18Z</time></trkpt><trkpt lat="45.313865630879484" lon="8.436163686424075"><ele>124.0</ele><time>2026-04-04T08:41:19Z</time></trkpt><trkpt lat="45.31394317056493" lon="8.436067376110325"><ele>123.80000000000001</ele><time>2026-04-04T08:41:20Z</time></trkpt><trkpt lat="45.314017892336146" lon="8.435972297411054"><ele>123.60000000000001</ele><time>2026-04-04T08:41:21Z</time></trkpt><trkpt lat="45.31409652428941" lon="8.43587565658843"><ele>123.4</ele><time>2026-04-04T08:41:22Z</time></trkpt><trkpt lat="45.314169632894675" lon="8.43578645170763"><ele>123.2</ele><time>2026-04-04T08:41:23Z</time></trkpt><trkpt lat="45.31423921739066" lon="8.435693505285412"><ele>123.0</ele><time>2026-04-04T08:41:24Z</time></trkpt><trkpt lat="45.3143101472207" lon="8.435600833036553"><ele>123.0</ele><time>2026-04-04T08:41:25Z</time></trkpt><trkpt lat="45.31437606846177" lon="8.43551245954828"><ele>123.0</ele><time>2026-04-04T08:41:26Z</time></trkpt><trkpt lat="45.314440218887796" lon="8.435427034383672"><ele>123.0</ele><time>2026-04-04T08:41:27Z</time></trkpt><trkpt lat="45.314505437233834" lon="8.435343224593044"><ele>123.0</ele><time>2026-04-04T08:41:28Z</time></trkpt><trkpt lat="45.31457330346257" lon="8.435255237153658"><ele>123.0</ele><time>2026-04-04T08:41:29Z</time></trkpt><trkpt lat="45.31463631957802" lon="8.4351709024906"><ele>123.0</ele><time>2026-04-04T08:41:30Z</time></trkpt><trkpt lat="45.31469933064012" lon="8.435089661708233"><ele>123.2</ele><time>2026-04-04T08:41:31Z</time></trkpt><trkpt lat="45.31476350281349" lon="8.435005213626388"><ele>123.4</ele><time>2026-04-04T08:41:31.999Z</time></trkpt><trkpt lat="45.3148267950745" lon="8.434921600734457"><ele>123.60000000000001</ele><time>2026-04-04T08:41:32.999Z</time></trkpt><trkpt lat="45.31488437626624" lon="8.434845193198118"><ele>123.80000000000001</ele><time>2026-04-04T08:41:33.999Z</time></trkpt><trkpt lat="45.31495061099899" lon="8.434753923614482"><ele>124.0</ele><time>2026-04-04T08:41:35.999Z</time></trkpt><trkpt lat="45.315026811778615" lon="8.434633141349368"><ele>124.2</ele><time>2026-04-04T08:41:38.999Z</time></trkpt><trkpt lat="45.315077538329014" lon="8.43456121143466"><ele>124.4</ele><time>2026-04-04T08:41:39.999Z</time></trkpt><trkpt lat="45.31514080617329" lon="8.434477317567334"><ele>124.6</ele><time>2026-04-04T08:41:40.999Z</time></trkpt><trkpt lat="45.3152168496729" lon="8.434378104458931"><ele>124.8</ele><time>2026-04-04T08:41:41.999Z</time></trkpt><trkpt lat="45.31529735573137" lon="8.434268474858154"><ele>125.0</ele><time>2026-04-04T08:41:42.999Z</time></trkpt><trkpt lat="45.31538838290102" lon="8.434144433010697"><ele>125.0</ele><time>2026-04-04T08:41:43.999Z</time></trkpt><trkpt lat="45.31548135525144" lon="8.434013659014475"><ele>125.0</ele><time>2026-04-04T08:41:44.999Z</time></trkpt><trkpt lat="45.31557391741071" lon="8.433885802300665"><ele>125.0</ele><time>2026-04-04T08:41:45.999Z</time></trkpt><trkpt lat="45.31567340751571" lon="8.433750903546267"><ele>125.0</ele><time>2026-04-04T08:41:46.999Z</time></trkpt><trkpt lat="45.31577452987125" lon="8.433610907546864"><ele>125.25</ele><time>2026-04-04T08:41:47.999Z</time></trkpt><trkpt lat="45.31587302981126" lon="8.433472398854674"><ele>125.5</ele><time>2026-04-04T08:41:48.999Z</time></trkpt><trkpt lat="45.315964994362695" lon="8.433347541725576"><ele>125.75</ele><time>2026-04-04T08:41:49.999Z</time></trkpt><trkpt lat="45.31605313734934" lon="8.433228266787696"><ele>126.0</ele><time>2026-04-04T08:41:50.999Z</time></trkpt><trkpt lat="45.31614164718357" lon="8.433106900390035"><ele>126.0</ele><time>2026-04-04T08:41:51.999Z</time></trkpt><trkpt lat="45.31622401715184" lon="8.432995194354541"><ele>126.0</ele><time>2026-04-04T08:41:52.999Z</time></trkpt><trkpt lat="45.31630178912383" lon="8.432887864891674"><ele>126.0</ele><time>2026-04-04T08:41:53.999Z</time></trkpt><trkpt lat="45.31637651611728" lon="8.432785814050849"><ele>126.0</ele><time>2026-04-04T08:41:54.999Z</time></trkpt><trkpt lat="45.31644649909484" lon="8.432690716188795"><ele>126.0</ele><time>2026-04-04T08:41:55.999Z</time></trkpt><trkpt lat="45.316517113824325" lon="8.432596263204564"><ele>125.8</ele><time>2026-04-04T08:41:56.999Z</time></trkpt><trkpt lat="45.31658449314925" lon="8.432504751881677"><ele>125.6</ele><time>2026-04-04T08:41:57.999Z</time></trkpt><trkpt lat="45.31665191144599" lon="8.432416859153978"><ele>125.4</ele><time>2026-04-04T08:41:58.999Z</time></trkpt><trkpt lat="45.31671683349591" lon="8.43232776199479"><ele>125.2</ele><time>2026-04-04T08:41:59.999Z</time></trkpt><trkpt lat="45.31678041624241" lon="8.432237498687913"><ele>125.0</ele><time>2026-04-04T08:42:00.999Z</time></trkpt><trkpt lat="45.31684359000664" lon="8.432148214987338"><ele>125.2</ele><time>2026-04-04T08:42:01.999Z</time></trkpt><trkpt lat="45.316905083908914" lon="8.43206070951405"><ele>125.4</ele><time>2026-04-04T08:42:02.999Z</time></trkpt><trkpt lat="45.31696868309799" lon="8.431972837044267"><ele>125.6</ele><time>2026-04-04T08:42:03.999Z</time></trkpt><trkpt lat="45.31703390627155" lon="8.431884650674377"><ele>125.8</ele><time>2026-04-04T08:42:04.999Z</time></trkpt><trkpt lat="45.317108487768884" lon="8.431785741308598"><ele>126.0</ele><time>2026-04-04T08:42:05.999Z</time></trkpt><trkpt lat="45.317174390091516" lon="8.431696744913333"><ele>126.16666666666667</ele><time>2026-04-04T08:42:06.999Z</time></trkpt><trkpt lat="45.31723614292383" lon="8.431618277043686"><ele>126.33333333333334</ele><time>2026-04-04T08:42:07.999Z</time></trkpt><trkpt lat="45.317272992454996" lon="8.431520533323965"><ele>126.5</ele><time>2026-04-04T08:42:08.999Z</time></trkpt><trkpt lat="45.31736792683572" lon="8.43145515568959"><ele>126.66666666666667</ele><time>2026-04-04T08:42:10.999Z</time></trkpt><trkpt lat="45.31742119153775" lon="8.431392833238158"><ele>126.83333333333334</ele><time>2026-04-04T08:42:13.999Z</time></trkpt><trkpt lat="45.31746804694295" lon="8.431326139767128"><ele>127.0</ele><time>2026-04-04T08:42:15.999Z</time></trkpt><trkpt lat="45.317552667405025" lon="8.431270441284857"><ele>127.0</ele><time>2026-04-04T08:42:20.999Z</time></trkpt><trkpt lat="45.31764255757842" lon="8.431399736430057"><ele>126.99999999999999</ele><time>2026-04-04T08:42:21.999Z</time></trkpt><trkpt lat="45.31770660218292" lon="8.431481205423093"><ele>126.99999999999999</ele><time>2026-04-04T08:42:23Z</time></trkpt><trkpt lat="45.317778602701765" lon="8.431579039727177"><ele>127.0</ele><time>2026-04-04T08:42:24Z</time></trkpt><trkpt lat="45.31786052707861" lon="8.431690580429132"><ele>127.0</ele><time>2026-04-04T08:42:25Z</time></trkpt><trkpt lat="45.31794495156942" lon="8.431806874848343"><ele>127.0</ele><time>2026-04-04T08:42:26Z</time></trkpt><trkpt lat="45.31804312429627" lon="8.431938500479072"><ele>127.0</ele><time>2026-04-04T08:42:27Z</time></trkpt><trkpt lat="45.318143171605506" lon="8.43207590224991"><ele>127.0</ele><time>2026-04-04T08:42:28Z</time></trkpt><trkpt lat="45.31824542733239" lon="8.43221647793546"><ele>127.0</ele><time>2026-04-04T08:42:29Z</time></trkpt><trkpt lat="45.318353219764475" lon="8.432368314185926"><ele>127.0</ele><time>2026-04-04T08:42:30Z</time></trkpt><trkpt lat="45.31846292968437" lon="8.432518304348845"><ele>127.0</ele><time>2026-04-04T08:42:31Z</time></trkpt><trkpt lat="45.31856625319449" lon="8.43267135859738"><ele>127.0</ele><time>2026-04-04T08:42:32Z</time></trkpt><trkpt lat="45.31866261074521" lon="8.432809113969517"><ele>127.0</ele><time>2026-04-04T08:42:33Z</time></trkpt><trkpt lat="45.31875447112883" lon="8.43292987317333"><ele>127.0</ele><time>2026-04-04T08:42:34Z</time></trkpt><trkpt lat="45.31885151757982" lon="8.433059612886755"><ele>127.0</ele><time>2026-04-04T08:42:35Z</time></trkpt><trkpt lat="45.31894802666066" lon="8.433187841370685"><ele>127.0</ele><time>2026-04-04T08:42:36Z</time></trkpt><trkpt lat="45.31904366157676" lon="8.433309421642376"><ele>127.0</ele><time>2026-04-04T08:42:37Z</time></trkpt><trkpt lat="45.31912230402428" lon="8.433407605884957"><ele>127.0</ele><time>2026-04-04T08:42:38Z</time></trkpt><trkpt lat="45.319193437900736" lon="8.433496898862813"><ele>126.99999999999999</ele><time>2026-04-04T08:42:39Z</time></trkpt><trkpt lat="45.31927471764796" lon="8.433584120530437"><ele>126.99999999999999</ele><time>2026-04-04T08:42:40Z</time></trkpt><trkpt lat="45.31937185941468" lon="8.433676732390675"><ele>127.0</ele><time>2026-04-04T08:42:41Z</time></trkpt><trkpt lat="45.319483058423316" lon="8.433782792210728"><ele>127.0</ele><time>2026-04-04T08:42:42Z</time></trkpt><trkpt lat="45.31959366870907" lon="8.433903402506935"><ele>127.75</ele><time>2026-04-04T08:42:43Z</time></trkpt><trkpt lat="45.319707744294966" lon="8.43403144947873"><ele>128.5</ele><time>2026-04-04T08:42:44Z</time></trkpt><trkpt lat="45.31982287251761" lon="8.434165460702513"><ele>129.25</ele><time>2026-04-04T08:42:45Z</time></trkpt><trkpt lat="45.31994287397467" lon="8.434298562908884"><ele>130.0</ele><time>2026-04-04T08:42:46Z</time></trkpt><trkpt lat="45.32005292184488" lon="8.43441848624659"><ele>128.0</ele><time>2026-04-04T08:42:47Z</time></trkpt><trkpt lat="45.320171605140025" lon="8.434539978925047"><ele>126.0</ele><time>2026-04-04T08:42:48Z</time></trkpt><trkpt lat="45.32030186332673" lon="8.434653721438268"><ele>124.0</ele><time>2026-04-04T08:42:49Z</time></trkpt><trkpt lat="45.320443844576474" lon="8.434755612610875"><ele>124.0</ele><time>2026-04-04T08:42:50Z</time></trkpt><trkpt lat="45.32059371930366" lon="8.434843214606577"><ele>124.0</ele><time>2026-04-04T08:42:51Z</time></trkpt><trkpt lat="45.32075265228577" lon="8.4349191637824"><ele>124.0</ele><time>2026-04-04T08:42:52Z</time></trkpt><trkpt lat="45.32091905546445" lon="8.434986874463712"><ele>124.0</ele><time>2026-04-04T08:42:53Z</time></trkpt><trkpt lat="45.32108201258648" lon="8.435042340226111"><ele>124.0</ele><time>2026-04-04T08:42:54Z</time></trkpt><trkpt lat="45.321242705240984" lon="8.435088031063984"><ele>124.0</ele><time>2026-04-04T08:42:55Z</time></trkpt><trkpt lat="45.32141788561374" lon="8.435126800881765"><ele>125.0</ele><time>2026-04-04T08:42:56Z</time></trkpt><trkpt lat="45.32160045008091" lon="8.435147427923464"><ele>126.0</ele><time>2026-04-04T08:42:57Z</time></trkpt><trkpt lat="45.32177743734572" lon="8.435155159367872"><ele>127.0</ele><time>2026-04-04T08:42:58Z</time></trkpt><trkpt lat="45.321951587559674" lon="8.435146484349698"><ele>127.0</ele><time>2026-04-04T08:42:59Z</time></trkpt><trkpt lat="45.32213913351712" lon="8.435131487010953"><ele>127.0</ele><time>2026-04-04T08:43:00Z</time></trkpt><trkpt lat="45.32232632006601" lon="8.43512493162961"><ele>127.0</ele><time>2026-04-04T08:43:01Z</time></trkpt><trkpt lat="45.32249734849811" lon="8.435119260926074"><ele>126.66666666666667</ele><time>2026-04-04T08:43:02Z</time></trkpt><trkpt lat="45.3226756876011" lon="8.43510914734844"><ele>126.33333333333334</ele><time>2026-04-04T08:43:03Z</time></trkpt><trkpt lat="45.322847300414985" lon="8.43509674964976"><ele>126.0</ele><time>2026-04-04T08:43:04Z</time></trkpt><trkpt lat="45.32300967293485" lon="8.435088012348746"><ele>125.33333333333334</ele><time>2026-04-04T08:43:05Z</time></trkpt><trkpt lat="45.323176816303715" lon="8.43507857064413"><ele>124.66666666666667</ele><time>2026-04-04T08:43:06Z</time></trkpt><trkpt lat="45.32334832212517" lon="8.435067886607436"><ele>124.0</ele><time>2026-04-04T08:43:07Z</time></trkpt><trkpt lat="45.323523253068274" lon="8.435058154073834"><ele>124.0</ele><time>2026-04-04T08:43:08Z</time></trkpt><trkpt lat="45.323684319973395" lon="8.43504665325391"><ele>124.0</ele><time>2026-04-04T08:43:09Z</time></trkpt><trkpt lat="45.323837480645224" lon="8.435033439288407"><ele>124.0</ele><time>2026-04-04T08:43:10Z</time></trkpt><trkpt lat="45.32398375360971" lon="8.435021188876531"><ele>124.0</ele><time>2026-04-04T08:43:11Z</time></trkpt><trkpt lat="45.32413433661296" lon="8.435007195858464"><ele>124.0</ele><time>2026-04-04T08:43:12Z</time></trkpt><trkpt lat="45.32428608368958" lon="8.434990594544562"><ele>124.0</ele><time>2026-04-04T08:43:13Z</time></trkpt><trkpt lat="45.32443081479126" lon="8.43497623429688"><ele>124.0</ele><time>2026-04-04T08:43:14Z</time></trkpt><trkpt lat="45.32458363427189" lon="8.4349721296827"><ele>124.75</ele><time>2026-04-04T08:43:15Z</time></trkpt><trkpt lat="45.32474530803348" lon="8.434966127884127"><ele>125.5</ele><time>2026-04-04T08:43:16Z</time></trkpt><trkpt lat="45.324901421056495" lon="8.43495533474803"><ele>126.25</ele><time>2026-04-04T08:43:17Z</time></trkpt><trkpt lat="45.32502876827914" lon="8.434947910947509"><ele>127.0</ele><time>2026-04-04T08:43:18Z</time></trkpt><trkpt lat="45.325136279784644" lon="8.43494431370687"><ele>127.0</ele><time>2026-04-04T08:43:19Z</time></trkpt><trkpt lat="45.32521247519085" lon="8.4349382234044"><ele>126.99999999999999</ele><time>2026-04-04T08:43:20Z</time></trkpt><trkpt lat="45.32531914735921" lon="8.434983901684307"><ele>126.99999999999999</ele><time>2026-04-04T08:43:22Z</time></trkpt><trkpt lat="45.325375170149734" lon="8.435197684134907"><ele>127.0</ele><time>2026-04-04T08:43:24Z</time></trkpt><trkpt lat="45.32539130158505" lon="8.435330337662725"><ele>127.0</ele><time>2026-04-04T08:43:25Z</time></trkpt><trkpt lat="45.32539925088171" lon="8.435468218852971"><ele>126.75</ele><time>2026-04-04T08:43:26Z</time></trkpt><trkpt lat="45.32541303455113" lon="8.435630323382789"><ele>126.5</ele><time>2026-04-04T08:43:27Z</time></trkpt><trkpt lat="45.325429648275986" lon="8.435790455562126"><ele>126.25</ele><time>2026-04-04T08:43:28Z</time></trkpt><trkpt lat="45.32544425122195" lon="8.435947378408468"><ele>126.0</ele><time>2026-04-04T08:43:29Z</time></trkpt><trkpt lat="45.325463497388675" lon="8.436130325748577"><ele>125.25</ele><time>2026-04-04T08:43:30Z</time></trkpt><trkpt lat="45.32548725657701" lon="8.436320029451384"><ele>124.5</ele><time>2026-04-04T08:43:31Z</time></trkpt><trkpt lat="45.32550837561095" lon="8.436528270884185"><ele>123.75</ele><time>2026-04-04T08:43:32Z</time></trkpt><trkpt lat="45.32552958386327" lon="8.436749163035795"><ele>123.0</ele><time>2026-04-04T08:43:33Z</time></trkpt><trkpt lat="45.32555687987943" lon="8.436970461337191"><ele>121.33333333333334</ele><time>2026-04-04T08:43:34Z</time></trkpt><trkpt lat="45.32558308643872" lon="8.437197577373409"><ele>119.66666666666667</ele><time>2026-04-04T08:43:35Z</time></trkpt><trkpt lat="45.325609052142234" lon="8.43742499290195"><ele>118.0</ele><time>2026-04-04T08:43:35.999Z</time></trkpt><trkpt lat="45.32563319527716" lon="8.437643179688434"><ele>118.0</ele><time>2026-04-04T08:43:36.999Z</time></trkpt><trkpt lat="45.325657397548056" lon="8.437858378464231"><ele>118.0</ele><time>2026-04-04T08:43:37.999Z</time></trkpt><trkpt lat="45.32568036237986" lon="8.438065294810103"><ele>118.0</ele><time>2026-04-04T08:43:38.999Z</time></trkpt><trkpt lat="45.325702217957414" lon="8.438264272749201"><ele>118.0</ele><time>2026-04-04T08:43:39.999Z</time></trkpt><trkpt lat="45.32572336006609" lon="8.438465964353371"><ele>117.75</ele><time>2026-04-04T08:43:40.999Z</time></trkpt><trkpt lat="45.325747621011494" lon="8.438666868388736"><ele>117.5</ele><time>2026-04-04T08:43:41.999Z</time></trkpt><trkpt lat="45.32577151182828" lon="8.438866537762364"><ele>117.25</ele><time>2026-04-04T08:43:42.999Z</time></trkpt><trkpt lat="45.32579314732919" lon="8.439070258570776"><ele>117.0</ele><time>2026-04-04T08:43:43.999Z</time></trkpt><trkpt lat="45.325814804920896" lon="8.439279200733147"><ele>118.0</ele><time>2026-04-04T08:43:44.999Z</time></trkpt><trkpt lat="45.3258345599544" lon="8.43949434496381"><ele>119.0</ele><time>2026-04-04T08:43:45.999Z</time></trkpt><trkpt lat="45.32585668292811" lon="8.439714423049777"><ele>120.0</ele><time>2026-04-04T08:43:46.999Z</time></trkpt><trkpt lat="45.32587927192341" lon="8.439935022259379"><ele>120.66666666666666</ele><time>2026-04-04T08:43:47.999Z</time></trkpt><trkpt lat="45.325903186955344" lon="8.440157317709462"><ele>121.33333333333333</ele><time>2026-04-04T08:43:48.999Z</time></trkpt><trkpt lat="45.325926540022934" lon="8.440370297787199"><ele>122.0</ele><time>2026-04-04T08:43:49.999Z</time></trkpt><trkpt lat="45.32595033475384" lon="8.440586680037836"><ele>122.0</ele><time>2026-04-04T08:43:50.999Z</time></trkpt><trkpt lat="45.32597341161033" lon="8.440799556094365"><ele>122.0</ele><time>2026-04-04T08:43:51.999Z</time></trkpt><trkpt lat="45.32599554496141" lon="8.441015865738134"><ele>122.0</ele><time>2026-04-04T08:43:52.999Z</time></trkpt><trkpt lat="45.326017685659494" lon="8.441223370919083"><ele>122.0</ele><time>2026-04-04T08:43:53.999Z</time></trkpt><trkpt lat="45.3260402872156" lon="8.441424874801694"><ele>122.0</ele><time>2026-04-04T08:43:54.999Z</time></trkpt><trkpt lat="45.32606044946042" lon="8.441613537563057"><ele>122.0</ele><time>2026-04-04T08:43:55.999Z</time></trkpt><trkpt lat="45.32607955452884" lon="8.441789374472684"><ele>122.0</ele><time>2026-04-04T08:43:56.999Z</time></trkpt><trkpt lat="45.326096172172754" lon="8.441944432637314"><ele>122.0</ele><time>2026-04-04T08:43:57.999Z</time></trkpt><trkpt lat="45.32610791159778" lon="8.442065171413338"><ele>121.99999999999999</ele><time>2026-04-04T08:43:58.999Z</time></trkpt><trkpt lat="45.32609339550842" lon="8.442213167576016"><ele>121.99999999999999</ele><time>2026-04-04T08:44:00.999Z</time></trkpt><trkpt lat="45.325982004989115" lon="8.442169864533874"><ele>122.0</ele><time>2026-04-04T08:44:02.999Z</time></trkpt><trkpt lat="45.325909887329104" lon="8.442156574396247"><ele>122.0</ele><time>2026-04-04T08:44:03.999Z</time></trkpt><trkpt lat="45.32584038621376" lon="8.442120768529216"><ele>121.99999999999999</ele><time>2026-04-04T08:44:04.999Z</time></trkpt><trkpt lat="45.32576897985028" lon="8.442083289419045"><ele>122.0</ele><time>2026-04-04T08:44:05.999Z</time></trkpt><trkpt lat="45.325691025480936" lon="8.44204774313941"><ele>122.0</ele><time>2026-04-04T08:44:06.999Z</time></trkpt><trkpt lat="45.32560631741322" lon="8.442020340572489"><ele>122.0</ele><time>2026-04-04T08:44:07.999Z</time></trkpt><trkpt lat="45.32550994808503" lon="8.442002502758502"><ele>121.99999999999999</ele><time>2026-04-04T08:44:08.999Z</time></trkpt><trkpt lat="45.32541372291412" lon="8.441966305411583"><ele>122.0</ele><time>2026-04-04T08:44:09.999Z</time></trkpt><trkpt lat="45.32531416228562" lon="8.44197895624153"><ele>122.39999999999999</ele><time>2026-04-04T08:44:10.999Z</time></trkpt><trkpt lat="45.325217949078294" lon="8.441962125465832"><ele>122.79999999999998</ele><time>2026-04-04T08:44:11.999Z</time></trkpt><trkpt lat="45.32512161008794" lon="8.44194122787152"><ele>123.2</ele><time>2026-04-04T08:44:12.999Z</time></trkpt><trkpt lat="45.325020655346734" lon="8.441919247791544"><ele>123.6</ele><time>2026-04-04T08:44:13.999Z</time></trkpt><trkpt lat="45.32492847175957" lon="8.441878203391369"><ele>124.0</ele><time>2026-04-04T08:44:14.999Z</time></trkpt><trkpt lat="45.32484016515438" lon="8.44185843048668"><ele>124.00000000000001</ele><time>2026-04-04T08:44:15.999Z</time></trkpt><trkpt lat="45.324754471556595" lon="8.441845739794816"><ele>124.0</ele><time>2026-04-04T08:44:16.999Z</time></trkpt><trkpt lat="45.324667705604845" lon="8.441854091815626"><ele>124.0</ele><time>2026-04-04T08:44:17.999Z</time></trkpt><trkpt lat="45.32458299789302" lon="8.4418783327729"><ele>124.0</ele><time>2026-04-04T08:44:18.999Z</time></trkpt><trkpt lat="45.32450623057592" lon="8.441908330421045"><ele>124.00000000000001</ele><time>2026-04-04T08:44:19.999Z</time></trkpt><trkpt lat="45.32443356055642" lon="8.441932266326262"><ele>124.0</ele><time>2026-04-04T08:44:20.999Z</time></trkpt><trkpt lat="45.324361299053834" lon="8.44194489856972"><ele>124.16666666666667</ele><time>2026-04-04T08:44:21.999Z</time></trkpt><trkpt lat="45.324291693908194" lon="8.441958002977042"><ele>124.33333333333334</ele><time>2026-04-04T08:44:22.999Z</time></trkpt><trkpt lat="45.32422676241501" lon="8.441970227490241"><ele>124.5</ele><time>2026-04-04T08:44:23.999Z</time></trkpt><trkpt lat="45.324106703876865" lon="8.44199283063703"><ele>124.66666666666666</ele><time>2026-04-04T08:44:25.999Z</time></trkpt><trkpt lat="45.324038415286545" lon="8.442005939845581"><ele>124.83333333333333</ele><time>2026-04-04T08:44:26.999Z</time></trkpt><trkpt lat="45.32396640037548" lon="8.442023211365207"><ele>125.0</ele><time>2026-04-04T08:44:27.999Z</time></trkpt><trkpt lat="45.323896351006816" lon="8.44205633274068"><ele>125.16666666666666</ele><time>2026-04-04T08:44:29Z</time></trkpt><trkpt lat="45.32382203613178" lon="8.442069687574095"><ele>125.33333333333333</ele><time>2026-04-04T08:44:30Z</time></trkpt><trkpt lat="45.32374798931561" lon="8.44208737277527"><ele>125.5</ele><time>2026-04-04T08:44:31Z</time></trkpt><trkpt lat="45.32367282781761" lon="8.442107424344712"><ele>125.66666666666666</ele><time>2026-04-04T08:44:32Z</time></trkpt><trkpt lat="45.32359799557219" lon="8.442123481344048"><ele>125.83333333333333</ele><time>2026-04-04T08:44:33Z</time></trkpt><trkpt lat="45.323524991904215" lon="8.44214372782941"><ele>126.0</ele><time>2026-04-04T08:44:34Z</time></trkpt><trkpt lat="45.3234519556798" lon="8.442162843406184"><ele>125.66666666666667</ele><time>2026-04-04T08:44:35Z</time></trkpt><trkpt lat="45.32337661691878" lon="8.442156188252344"><ele>125.33333333333334</ele><time>2026-04-04T08:44:36Z</time></trkpt><trkpt lat="45.32330307272525" lon="8.442172171743698"><ele>125.0</ele><time>2026-04-04T08:44:37Z</time></trkpt><trkpt lat="45.323226956943905" lon="8.44218871414108"><ele>124.66666666666667</ele><time>2026-04-04T08:44:38Z</time></trkpt><trkpt lat="45.323145413280216" lon="8.44220643616941"><ele>124.33333333333334</ele><time>2026-04-04T08:44:39Z</time></trkpt><trkpt lat="45.32306389428857" lon="8.442224152829992"><ele>124.0</ele><time>2026-04-04T08:44:40Z</time></trkpt><trkpt lat="45.32299022332084" lon="8.44223885481585"><ele>124.00000000000001</ele><time>2026-04-04T08:44:41Z</time></trkpt><trkpt lat="45.322916185932726" lon="8.442252843832906"><ele>124.0</ele><time>2026-04-04T08:44:42Z</time></trkpt><trkpt lat="45.32284592304796" lon="8.442283470740646"><ele>124.0</ele><time>2026-04-04T08:44:43Z</time></trkpt><trkpt lat="45.32277230370674" lon="8.442292633336999"><ele>124.0</ele><time>2026-04-04T08:44:44Z</time></trkpt><trkpt lat="45.322698327418536" lon="8.442303859119361"><ele>124.00000000000001</ele><time>2026-04-04T08:44:45Z</time></trkpt><trkpt lat="45.322614811401685" lon="8.44230462048312"><ele>124.0</ele><time>2026-04-04T08:44:46Z</time></trkpt><trkpt lat="45.32253214439425" lon="8.442297215844325"><ele>124.00000000000001</ele><time>2026-04-04T08:44:47Z</time></trkpt><trkpt lat="45.3224542415415" lon="8.442286011830507"><ele>124.0</ele><time>2026-04-04T08:44:48Z</time></trkpt><trkpt lat="45.32237891284257" lon="8.442277731737459"><ele>124.0</ele><time>2026-04-04T08:44:49Z</time></trkpt><trkpt lat="45.32230490781322" lon="8.44227385094554"><ele>124.0</ele><time>2026-04-04T08:44:50Z</time></trkpt><trkpt lat="45.322235792010794" lon="8.442272108214121"><ele>124.00000000000001</ele><time>2026-04-04T08:44:51Z</time></trkpt><trkpt lat="45.322171707563335" lon="8.442270917919526"><ele>124.0</ele><time>2026-04-04T08:44:52Z</time></trkpt><trkpt lat="45.32204647624919" lon="8.442270178714216"><ele>123.85714285714286</ele><time>2026-04-04T08:44:54Z</time></trkpt><trkpt lat="45.321978132085455" lon="8.442272013474254"><ele>123.71428571428572</ele><time>2026-04-04T08:44:55Z</time></trkpt><trkpt lat="45.32191114174059" lon="8.442276447997356"><ele>123.57142857142858</ele><time>2026-04-04T08:44:56Z</time></trkpt><trkpt lat="45.32183724045337" lon="8.44228665478934"><ele>123.42857142857144</ele><time>2026-04-04T08:44:57Z</time></trkpt><trkpt lat="45.32175765681248" lon="8.442302647530035"><ele>123.28571428571429</ele><time>2026-04-04T08:44:58Z</time></trkpt><trkpt lat="45.321678909840145" lon="8.44231894473593"><ele>123.14285714285717</ele><time>2026-04-04T08:44:59Z</time></trkpt><trkpt lat="45.32160402914351" lon="8.442335168314862"><ele>123.00000000000001</ele><time>2026-04-04T08:45:00Z</time></trkpt><trkpt lat="45.321531360441874" lon="8.442355605356497"><ele>123.00000000000001</ele><time>2026-04-04T08:45:01Z</time></trkpt><trkpt lat="45.32146132101004" lon="8.44237566529223"><ele>123.0</ele><time>2026-04-04T08:45:02Z</time></trkpt><trkpt lat="45.32138914946992" lon="8.442390607020299"><ele>123.00000000000001</ele><time>2026-04-04T08:45:03Z</time></trkpt><trkpt lat="45.32131600065525" lon="8.442404987590898"><ele>123.00000000000001</ele><time>2026-04-04T08:45:04Z</time></trkpt><trkpt lat="45.32124458809844" lon="8.442419800912763"><ele>123.0</ele><time>2026-04-04T08:45:05Z</time></trkpt><trkpt lat="45.32117228431101" lon="8.442435646654271"><ele>123.00000000000001</ele><time>2026-04-04T08:45:06Z</time></trkpt><trkpt lat="45.32110043581058" lon="8.442428460164876"><ele>123.00000000000001</ele><time>2026-04-04T08:45:07Z</time></trkpt><trkpt lat="45.3210343039193" lon="8.442462518591306"><ele>123.00000000000001</ele><time>2026-04-04T08:45:08Z</time></trkpt><trkpt lat="45.32096558611584" lon="8.442466077624674"><ele>123.0</ele><time>2026-04-04T08:45:09Z</time></trkpt><trkpt lat="45.320893879107196" lon="8.442481575627257"><ele>123.00000000000001</ele><time>2026-04-04T08:45:10Z</time></trkpt><trkpt lat="45.320826444797746" lon="8.442498742183338"><ele>123.00000000000001</ele><time>2026-04-04T08:45:11Z</time></trkpt><trkpt lat="45.32075918284219" lon="8.442519199037577"><ele>123.0</ele><time>2026-04-04T08:45:12Z</time></trkpt><trkpt lat="45.32069197002453" lon="8.442547493560847"><ele>123.00000000000001</ele><time>2026-04-04T08:45:13Z</time></trkpt><trkpt lat="45.3206166148248" lon="8.442551443076054"><ele>123.00000000000001</ele><time>2026-04-04T08:45:14Z</time></trkpt><trkpt lat="45.32054938377921" lon="8.442580799210752"><ele>123.0</ele><time>2026-04-04T08:45:15Z</time></trkpt><trkpt lat="45.32048911323483" lon="8.442636102129997"><ele>123.0</ele><time>2026-04-04T08:45:16Z</time></trkpt><trkpt lat="45.320425459159075" lon="8.442665415182406"><ele>123.0</ele><time>2026-04-04T08:45:17Z</time></trkpt><trkpt lat="45.320361964772744" lon="8.442698344119625"><ele>123.0</ele><time>2026-04-04T08:45:18Z</time></trkpt><trkpt lat="45.3202452907444" lon="8.442751406298193"><ele>123.0</ele><time>2026-04-04T08:45:20Z</time></trkpt><trkpt lat="45.32013359873458" lon="8.44280714889334"><ele>123.0</ele><time>2026-04-04T08:45:22Z</time></trkpt><trkpt lat="45.320033991787405" lon="8.44284942691288"><ele>123.00000000000001</ele><time>2026-04-04T08:45:24Z</time></trkpt><trkpt lat="45.319953129880794" lon="8.442886236906217"><ele>123.0</ele><time>2026-04-04T08:45:26Z</time></trkpt><trkpt lat="45.319884663687006" lon="8.442907890195915"><ele>123.00000000000001</ele><time>2026-04-04T08:45:28Z</time></trkpt><trkpt lat="45.31980325750218" lon="8.442943382710835"><ele>123.00000000000001</ele><time>2026-04-04T08:45:31Z</time></trkpt><trkpt lat="45.31973951076115" lon="8.442966883334575"><ele>123.0</ele><time>2026-04-04T08:45:34Z</time></trkpt><trkpt lat="45.31966461128876" lon="8.442977601007376"><ele>123.00000000000001</ele><time>2026-04-04T08:45:36Z</time></trkpt><trkpt lat="45.319602129069814" lon="8.443013278327237"><ele>123.00000000000001</ele><time>2026-04-04T08:54:06.999Z</time></trkpt><trkpt lat="45.319537090928385" lon="8.443036981274574"><ele>122.83333333333333</ele><time>2026-04-04T08:54:12.999Z</time></trkpt><trkpt lat="45.31947389956147" lon="8.443091603395247"><ele>122.66666666666666</ele><time>2026-04-04T09:00:52Z</time></trkpt><trkpt lat="45.3195611586883" lon="8.44304445965367"><ele>122.5</ele><time>2026-04-04T09:01:00.999Z</time></trkpt><trkpt lat="45.31962524423128" lon="8.443034477952535"><ele>122.33333333333333</ele><time>2026-04-04T09:01:01.999Z</time></trkpt><trkpt lat="45.31968993913934" lon="8.443022285217355"><ele>122.16666666666666</ele><time>2026-04-04T09:01:02.999Z</time></trkpt><trkpt lat="45.319765207167784" lon="8.44300333942184"><ele>122.0</ele><time>2026-04-04T09:01:03.999Z</time></trkpt><trkpt lat="45.31984469866867" lon="8.442975606819495"><ele>122.19999999999999</ele><time>2026-04-04T09:01:04.999Z</time></trkpt><trkpt lat="45.31992853582404" lon="8.442939673766272"><ele>122.39999999999999</ele><time>2026-04-04T09:01:05.999Z</time></trkpt><trkpt lat="45.32002174978602" lon="8.442900537608471"><ele>122.60000000000001</ele><time>2026-04-04T09:01:06.999Z</time></trkpt><trkpt lat="45.32011789262498" lon="8.442861029311562"><ele>122.80000000000001</ele><time>2026-04-04T09:01:07.999Z</time></trkpt><trkpt lat="45.320222921979415" lon="8.442824843310891"><ele>123.0</ele><time>2026-04-04T09:01:08.999Z</time></trkpt><trkpt lat="45.320312297011185" lon="8.442775452288712"><ele>123.0</ele><time>2026-04-04T09:01:09.999Z</time></trkpt><trkpt lat="45.32040667875692" lon="8.442735837516638"><ele>123.00000000000001</ele><time>2026-04-04T09:01:10.999Z</time></trkpt><trkpt lat="45.32049746972821" lon="8.44269120707594"><ele>123.00000000000001</ele><time>2026-04-04T09:01:11.999Z</time></trkpt><trkpt lat="45.32058280696663" lon="8.442647573560857"><ele>123.0</ele><time>2026-04-04T09:01:12.999Z</time></trkpt><trkpt lat="45.320662613014456" lon="8.442604572416494"><ele>123.0</ele><time>2026-04-04T09:01:13.999Z</time></trkpt><trkpt lat="45.32074195074706" lon="8.442582247062367"><ele>123.0</ele><time>2026-04-04T09:01:15.001Z</time></trkpt><trkpt lat="45.32082065616391" lon="8.442567224309627"><ele>123.0</ele><time>2026-04-04T09:01:16.001Z</time></trkpt><trkpt lat="45.320896170522275" lon="8.442552635066484"><ele>123.0</ele><time>2026-04-04T09:01:17.001Z</time></trkpt><trkpt lat="45.32096576099933" lon="8.442539324216034"><ele>123.0</ele><time>2026-04-04T09:01:18.001Z</time></trkpt><trkpt lat="45.32103430691664" lon="8.442527453999904"><ele>123.0</ele><time>2026-04-04T09:01:19.001Z</time></trkpt><trkpt lat="45.32109968207025" lon="8.442514613843635"><ele>123.0</ele><time>2026-04-04T09:01:20.001Z</time></trkpt><trkpt lat="45.32122251664394" lon="8.442489651482699"><ele>123.0</ele><time>2026-04-04T09:01:22.001Z</time></trkpt><trkpt lat="45.32128467772129" lon="8.442469939328323"><ele>123.0</ele><time>2026-04-04T09:01:23.001Z</time></trkpt><trkpt lat="45.32135887652639" lon="8.442439384325091"><ele>123.0</ele><time>2026-04-04T09:01:24.001Z</time></trkpt><trkpt lat="45.321452476909066" lon="8.442414665472072"><ele>123.0</ele><time>2026-04-04T09:01:25.001Z</time></trkpt><trkpt lat="45.32156051761985" lon="8.44239672836224"><ele>123.0</ele><time>2026-04-04T09:01:26.001Z</time></trkpt><trkpt lat="45.32166026194584" lon="8.442374644286351"><ele>123.0</ele><time>2026-04-04T09:01:27.001Z</time></trkpt><trkpt lat="45.32174908227366" lon="8.44235556763925"><ele>123.0</ele><time>2026-04-04T09:01:28.001Z</time></trkpt><trkpt lat="45.32183549422417" lon="8.442345099237619"><ele>123.00000000000001</ele><time>2026-04-04T09:01:29.001Z</time></trkpt><trkpt lat="45.32192239410984" lon="8.442335884397908"><ele>123.00000000000001</ele><time>2026-04-04T09:01:30.001Z</time></trkpt><trkpt lat="45.322023043657275" lon="8.442323670952677"><ele>123.0</ele><time>2026-04-04T09:01:31.001Z</time></trkpt><trkpt lat="45.32213869132333" lon="8.442318867907192"><ele>123.0</ele><time>2026-04-04T09:01:32.001Z</time></trkpt><trkpt lat="45.322261098117934" lon="8.442316875066995"><ele>123.25</ele><time>2026-04-04T09:01:33.001Z</time></trkpt><trkpt lat="45.32237481752695" lon="8.442325967037588"><ele>123.5</ele><time>2026-04-04T09:01:34.001Z</time></trkpt><trkpt lat="45.322482054141076" lon="8.44234018331767"><ele>123.75</ele><time>2026-04-04T09:01:35.001Z</time></trkpt><trkpt lat="45.32260135178565" lon="8.44235046265372"><ele>124.0</ele><time>2026-04-04T09:01:36.001Z</time></trkpt><trkpt lat="45.32271502307298" lon="8.44234845400155"><ele>124.0</ele><time>2026-04-04T09:01:37.001Z</time></trkpt><trkpt lat="45.322834066968504" lon="8.442332323018611"><ele>124.0</ele><time>2026-04-04T09:01:38.001Z</time></trkpt><trkpt lat="45.32294944318391" lon="8.44231166802299"><ele>124.0</ele><time>2026-04-04T09:01:39.001Z</time></trkpt><trkpt lat="45.323057868955374" lon="8.442296845512413"><ele>124.0</ele><time>2026-04-04T09:01:40.001Z</time></trkpt><trkpt lat="45.32316176390183" lon="8.442277482228883"><ele>123.75</ele><time>2026-04-04T09:01:41.001Z</time></trkpt><trkpt lat="45.32326532953033" lon="8.442249174484822"><ele>123.5</ele><time>2026-04-04T09:01:42.001Z</time></trkpt><trkpt lat="45.32337423315864" lon="8.442222705377002"><ele>123.25</ele><time>2026-04-04T09:01:43.001Z</time></trkpt><trkpt lat="45.32349159040145" lon="8.44219379693771"><ele>123.0</ele><time>2026-04-04T09:01:44Z</time></trkpt><trkpt lat="45.32361589631311" lon="8.44215804905888"><ele>123.0</ele><time>2026-04-04T09:01:45Z</time></trkpt><trkpt lat="45.32373606056101" lon="8.442134332318204"><ele>123.00000000000001</ele><time>2026-04-04T09:01:46Z</time></trkpt><trkpt lat="45.32384472979561" lon="8.442110357688813"><ele>123.00000000000001</ele><time>2026-04-04T09:01:47Z</time></trkpt><trkpt lat="45.32394435063306" lon="8.442088488804774"><ele>123.0</ele><time>2026-04-04T09:01:48Z</time></trkpt><trkpt lat="45.324034983532336" lon="8.44206911236138"><ele>123.0</ele><time>2026-04-04T09:01:49Z</time></trkpt><trkpt lat="45.3241137090372" lon="8.442051222704176"><ele>123.2857142857143</ele><time>2026-04-04T09:01:50Z</time></trkpt><trkpt lat="45.32418719756334" lon="8.44203410761987"><ele>123.57142857142858</ele><time>2026-04-04T09:01:51Z</time></trkpt><trkpt lat="45.324260503762325" lon="8.442014286792329"><ele>123.85714285714286</ele><time>2026-04-04T09:01:52Z</time></trkpt><trkpt lat="45.32433069524986" lon="8.44200049833525"><ele>124.14285714285715</ele><time>2026-04-04T09:01:53Z</time></trkpt><trkpt lat="45.3243987921204" lon="8.441986978047787"><ele>124.42857142857144</ele><time>2026-04-04T09:01:54Z</time></trkpt><trkpt lat="45.324468277155006" lon="8.441968896899136"><ele>124.71428571428571</ele><time>2026-04-04T09:01:55Z</time></trkpt><trkpt lat="45.324551324454205" lon="8.441947560696224"><ele>125.0</ele><time>2026-04-04T09:01:56Z</time></trkpt><trkpt lat="45.324643559551056" lon="8.441921941875083"><ele>124.8</ele><time>2026-04-04T09:01:57Z</time></trkpt><trkpt lat="45.32474458608452" lon="8.441908794890988"><ele>124.6</ele><time>2026-04-04T09:01:58Z</time></trkpt><trkpt lat="45.324850276338985" lon="8.441912106447688"><ele>124.4</ele><time>2026-04-04T09:01:59Z</time></trkpt><trkpt lat="45.32496373643458" lon="8.441933390660743"><ele>124.2</ele><time>2026-04-04T09:02:00Z</time></trkpt><trkpt lat="45.325059700179594" lon="8.441962017668324"><ele>124.0</ele><time>2026-04-04T09:02:01Z</time></trkpt><trkpt lat="45.32513108451776" lon="8.441984310302448"><ele>124.00000000000001</ele><time>2026-04-04T09:02:02Z</time></trkpt><trkpt lat="45.3252299401419" lon="8.441998229676203"><ele>124.0</ele><time>2026-04-04T09:02:04Z</time></trkpt><trkpt lat="45.32529884969263" lon="8.441982099548431"><ele>124.0</ele><time>2026-04-04T09:02:07Z</time></trkpt><trkpt lat="45.3252144544959" lon="8.442103664983128"><ele>124.0</ele><time>2026-04-04T09:02:14Z</time></trkpt><trkpt lat="45.325139038755964" lon="8.442118712680177"><ele>124.00000000000001</ele><time>2026-04-04T09:02:15Z</time></trkpt><trkpt lat="45.32506412879009" lon="8.44212923666311"><ele>124.0</ele><time>2026-04-04T09:02:16Z</time></trkpt><trkpt lat="45.32498493111799" lon="8.442136682603458"><ele>123.83333333333334</ele><time>2026-04-04T09:02:17Z</time></trkpt><trkpt lat="45.32488934372613" lon="8.442141908094445"><ele>123.66666666666667</ele><time>2026-04-04T09:02:18Z</time></trkpt><trkpt lat="45.32479476133779" lon="8.442147184775184"><ele>123.5</ele><time>2026-04-04T09:02:19Z</time></trkpt><trkpt lat="45.32470805322178" lon="8.442152022155177"><ele>123.33333333333334</ele><time>2026-04-04T09:02:20Z</time></trkpt><trkpt lat="45.32462957678149" lon="8.442156400297407"><ele>123.16666666666667</ele><time>2026-04-04T09:02:21Z</time></trkpt><trkpt lat="45.324556638168595" lon="8.442160469488107"><ele>123.0</ele><time>2026-04-04T09:02:22Z</time></trkpt><trkpt lat="45.324481681454934" lon="8.441963661832936"><ele>123.0</ele><time>2026-04-04T09:02:23Z</time></trkpt><trkpt lat="45.32441901341281" lon="8.441991583280954"><ele>123.00000000000001</ele><time>2026-04-04T09:02:24Z</time></trkpt><trkpt lat="45.3243666560509" lon="8.442171068447589"><ele>123.00000000000001</ele><time>2026-04-04T09:02:25Z</time></trkpt><trkpt lat="45.324256697509156" lon="8.44218471227871"><ele>123.0</ele><time>2026-04-04T09:02:27Z</time></trkpt><trkpt lat="45.32420991415329" lon="8.442265858464285"><ele>123.0</ele><time>2026-04-04T09:02:28Z</time></trkpt><trkpt lat="45.324160083562326" lon="8.442338620448766"><ele>123.0</ele><time>2026-04-04T09:02:29Z</time></trkpt><trkpt lat="45.32410728038013" lon="8.442409403760747"><ele>123.0</ele><time>2026-04-04T09:02:30Z</time></trkpt><trkpt lat="45.32404698832355" lon="8.442471508219418"><ele>123.0</ele><time>2026-04-04T09:02:31Z</time></trkpt><trkpt lat="45.32398449344621" lon="8.442527919743789"><ele>123.0</ele><time>2026-04-04T09:02:32Z</time></trkpt><trkpt lat="45.323903068040636" lon="8.44258230360689"><ele>123.0</ele><time>2026-04-04T09:02:33Z</time></trkpt><trkpt lat="45.32381236873848" lon="8.442636816583747"><ele>123.0</ele><time>2026-04-04T09:02:34Z</time></trkpt><trkpt lat="45.32371293627008" lon="8.442699901840534"><ele>123.0</ele><time>2026-04-04T09:02:35Z</time></trkpt><trkpt lat="45.323623093568976" lon="8.442766556898857"><ele>123.0</ele><time>2026-04-04T09:02:36Z</time></trkpt><trkpt lat="45.32354935482853" lon="8.442836365593433"><ele>123.0</ele><time>2026-04-04T09:02:37Z</time></trkpt><trkpt lat="45.323486773555906" lon="8.442898545508015"><ele>123.0</ele><time>2026-04-04T09:02:38Z</time></trkpt><trkpt lat="45.32343460297939" lon="8.442954144576138"><ele>123.0</ele><time>2026-04-04T09:02:39Z</time></trkpt><trkpt lat="45.32335463321992" lon="8.443058238363175"><ele>123.0</ele><time>2026-04-04T09:02:41Z</time></trkpt><trkpt lat="45.32324090493571" lon="8.443157900966217"><ele>123.0</ele><time>2026-04-04T09:02:43Z</time></trkpt><trkpt lat="45.32316521346107" lon="8.443210286943279"><ele>123.0</ele><time>2026-04-04T09:02:44Z</time></trkpt><trkpt lat="45.323088932837884" lon="8.443257925572086"><ele>123.0</ele><time>2026-04-04T09:02:45Z</time></trkpt><trkpt lat="45.32301657176951" lon="8.44330733348021"><ele>123.0</ele><time>2026-04-04T09:02:46Z</time></trkpt><trkpt lat="45.32294585460924" lon="8.443358063199796"><ele>123.0</ele><time>2026-04-04T09:02:47Z</time></trkpt><trkpt lat="45.32287508970277" lon="8.443403489141915"><ele>123.0</ele><time>2026-04-04T09:02:48Z</time></trkpt><trkpt lat="45.322806675705415" lon="8.443448779066149"><ele>123.00000000000001</ele><time>2026-04-04T09:02:49Z</time></trkpt><trkpt lat="45.32273993269779" lon="8.443493435883381"><ele>123.0</ele><time>2026-04-04T09:02:50Z</time></trkpt><trkpt lat="45.322671225311" lon="8.443540728052811"><ele>123.00000000000001</ele><time>2026-04-04T09:02:51Z</time></trkpt><trkpt lat="45.32260140931864" lon="8.443587405473219"><ele>123.00000000000001</ele><time>2026-04-04T09:02:52Z</time></trkpt><trkpt lat="45.322534258250705" lon="8.443633312731741"><ele>123.0</ele><time>2026-04-04T09:02:53Z</time></trkpt><trkpt lat="45.32247462317343" lon="8.443673486788054"><ele>123.00000000000001</ele><time>2026-04-04T09:02:54Z</time></trkpt><trkpt lat="45.32241220213873" lon="8.443712037054295"><ele>123.00000000000001</ele><time>2026-04-04T09:02:56Z</time></trkpt><trkpt lat="45.322491024236285" lon="8.44367614352671"><ele>123.0</ele><time>2026-04-04T09:03:45.999Z</time></trkpt><trkpt lat="45.322602103620234" lon="8.44360025839656"><ele>123.0</ele><time>2026-04-04T09:03:47.999Z</time></trkpt><trkpt lat="45.32266798308934" lon="8.443555419189225"><ele>123.0</ele><time>2026-04-04T09:03:48.999Z</time></trkpt><trkpt lat="45.32273827667746" lon="8.44350775630705"><ele>123.0</ele><time>2026-04-04T09:03:49.999Z</time></trkpt><trkpt lat="45.322814159711584" lon="8.44345436308043"><ele>123.0</ele><time>2026-04-04T09:03:50.999Z</time></trkpt><trkpt lat="45.322888501652656" lon="8.443402449056439"><ele>123.0</ele><time>2026-04-04T09:03:51.999Z</time></trkpt><trkpt lat="45.322956433942224" lon="8.443357781397959"><ele>123.00000000000001</ele><time>2026-04-04T09:03:52.999Z</time></trkpt><trkpt lat="45.32301855453827" lon="8.443316939534089"><ele>123.0</ele><time>2026-04-04T09:03:53.999Z</time></trkpt><trkpt lat="45.32307806394065" lon="8.443277162801367"><ele>123.00000000000001</ele><time>2026-04-04T09:03:54.999Z</time></trkpt><trkpt lat="45.32313772189031" lon="8.443235796585197"><ele>123.00000000000001</ele><time>2026-04-04T09:03:55.999Z</time></trkpt><trkpt lat="45.32320069395833" lon="8.443195854190847"><ele>123.0</ele><time>2026-04-04T09:03:56.999Z</time></trkpt><trkpt lat="45.32326704926696" lon="8.44315096787713"><ele>123.00000000000001</ele><time>2026-04-04T09:03:57.999Z</time></trkpt><trkpt lat="45.32332376475986" lon="8.443106509248109"><ele>123.00000000000001</ele><time>2026-04-04T09:03:58.999Z</time></trkpt><trkpt lat="45.32337720651348" lon="8.44305208045169"><ele>123.0</ele><time>2026-04-04T09:03:59.999Z</time></trkpt><trkpt lat="45.3234297290171" lon="8.442991045844972"><ele>123.0</ele><time>2026-04-04T09:04:00.999Z</time></trkpt><trkpt lat="45.323485799480935" lon="8.442928093106548"><ele>123.0</ele><time>2026-04-04T09:04:01.999Z</time></trkpt><trkpt lat="45.3235473171642" lon="8.442861570340451"><ele>123.0</ele><time>2026-04-04T09:04:02.999Z</time></trkpt><trkpt lat="45.323615529128205" lon="8.442794902202678"><ele>123.0</ele><time>2026-04-04T09:04:03.999Z</time></trkpt><trkpt lat="45.32369016851316" lon="8.442731251144847"><ele>123.0</ele><time>2026-04-04T09:04:04.999Z</time></trkpt><trkpt lat="45.323768291660805" lon="8.442674139329768"><ele>123.00000000000001</ele><time>2026-04-04T09:04:05.999Z</time></trkpt><trkpt lat="45.3238473824578" lon="8.442621871253431"><ele>123.0</ele><time>2026-04-04T09:04:06.999Z</time></trkpt><trkpt lat="45.32392193707695" lon="8.442576316948394"><ele>123.00000000000001</ele><time>2026-04-04T09:04:07.999Z</time></trkpt><trkpt lat="45.32398827053455" lon="8.442538693896712"><ele>123.00000000000001</ele><time>2026-04-04T09:04:08.999Z</time></trkpt><trkpt lat="45.32404803314486" lon="8.442484389009508"><ele>123.0</ele><time>2026-04-04T09:04:09.999Z</time></trkpt><trkpt lat="45.32410120426156" lon="8.442421593215405"><ele>123.00000000000001</ele><time>2026-04-04T09:04:10.999Z</time></trkpt><trkpt lat="45.32415024792046" lon="8.442356034648743"><ele>123.00000000000001</ele><time>2026-04-04T09:04:11.999Z</time></trkpt><trkpt lat="45.32423279213936" lon="8.442222992182991"><ele>123.4</ele><time>2026-04-04T09:04:13.999Z</time></trkpt><trkpt lat="45.324310135608556" lon="8.442109311288581"><ele>123.80000000000001</ele><time>2026-04-04T09:04:15.999Z</time></trkpt><trkpt lat="45.324392806984356" lon="8.442030719681508"><ele>124.2</ele><time>2026-04-04T09:04:17.999Z</time></trkpt><trkpt lat="45.324453774036996" lon="8.44200223203213"><ele>124.6</ele><time>2026-04-04T09:04:18.999Z</time></trkpt><trkpt lat="45.324517372431565" lon="8.441970557930345"><ele>125.0</ele><time>2026-04-04T09:04:19.999Z</time></trkpt><trkpt lat="45.324633803082996" lon="8.441943009422554"><ele>124.8</ele><time>2026-04-04T09:04:21.999Z</time></trkpt><trkpt lat="45.32475283180927" lon="8.44193068368914"><ele>124.6</ele><time>2026-04-04T09:04:23.999Z</time></trkpt><trkpt lat="45.32487455829836" lon="8.441941957970684"><ele>124.4</ele><time>2026-04-04T09:04:25.999Z</time></trkpt><trkpt lat="45.32499319382026" lon="8.44196765334893"><ele>124.2</ele><time>2026-04-04T09:04:27.999Z</time></trkpt><trkpt lat="45.325057523303386" lon="8.441979775396353"><ele>124.0</ele><time>2026-04-04T09:04:28.999Z</time></trkpt><trkpt lat="45.32511970383037" lon="8.44199442668613"><ele>124.0</ele><time>2026-04-04T09:04:29.999Z</time></trkpt><trkpt lat="45.32518348712863" lon="8.442008676613995"><ele>124.00000000000001</ele><time>2026-04-04T09:04:30.999Z</time></trkpt><trkpt lat="45.32524709431952" lon="8.442013108089595"><ele>124.0</ele><time>2026-04-04T09:04:31.999Z</time></trkpt><trkpt lat="45.32530828380399" lon="8.442034429548402"><ele>124.0</ele><time>2026-04-04T09:04:32.999Z</time></trkpt><trkpt lat="45.32537291224407" lon="8.442040528116314"><ele>124.00000000000001</ele><time>2026-04-04T09:04:33.999Z</time></trkpt><trkpt lat="45.32544809301231" lon="8.442031970015414"><ele>124.0</ele><time>2026-04-04T09:04:34.999Z</time></trkpt><trkpt lat="45.325547193003196" lon="8.442047851499066"><ele>124.0</ele><time>2026-04-04T09:04:35.999Z</time></trkpt><trkpt lat="45.32564112133783" lon="8.442078327956137"><ele>123.66666666666667</ele><time>2026-04-04T09:04:36.999Z</time></trkpt><trkpt lat="45.32571833577482" lon="8.442114644036527"><ele>123.33333333333334</ele><time>2026-04-04T09:04:37.999Z</time></trkpt><trkpt lat="45.32579888038818" lon="8.442159266631922"><ele>123.0</ele><time>2026-04-04T09:04:38.999Z</time></trkpt><trkpt lat="45.32587789730894" lon="8.442195774796279"><ele>122.66666666666666</ele><time>2026-04-04T09:04:39.999Z</time></trkpt><trkpt lat="45.32598258321631" lon="8.442245355350009"><ele>122.33333333333333</ele><time>2026-04-04T09:04:41.999Z</time></trkpt><trkpt lat="45.3260537928578" lon="8.44228143398958"><ele>122.0</ele><time>2026-04-04T09:04:43.999Z</time></trkpt><trkpt lat="45.326123391584574" lon="8.442322761412278"><ele>122.0</ele><time>2026-04-04T09:05:06.998Z</time></trkpt><trkpt lat="45.32615228667749" lon="8.442479954771818"><ele>121.99999999999999</ele><time>2026-04-04T09:05:08.998Z</time></trkpt><trkpt lat="45.326156832508076" lon="8.442599793605234"><ele>121.99999999999999</ele><time>2026-04-04T09:05:09.998Z</time></trkpt><trkpt lat="45.32616903004942" lon="8.442739089147128"><ele>122.0</ele><time>2026-04-04T09:05:10.998Z</time></trkpt><trkpt lat="45.326188365424784" lon="8.442898215245865"><ele>122.0</ele><time>2026-04-04T09:05:11.998Z</time></trkpt><trkpt lat="45.32620875166531" lon="8.443075792557847"><ele>122.0</ele><time>2026-04-04T09:05:12.998Z</time></trkpt><trkpt lat="45.326229511740124" lon="8.44327520598543"><ele>122.0</ele><time>2026-04-04T09:05:13.998Z</time></trkpt><trkpt lat="45.3262506971239" lon="8.443483616995309"><ele>122.0</ele><time>2026-04-04T09:05:14.998Z</time></trkpt><trkpt lat="45.326275427321114" lon="8.443706306466334"><ele>122.0</ele><time>2026-04-04T09:05:15.998Z</time></trkpt><trkpt lat="45.32630244449122" lon="8.443934888527247"><ele>122.0</ele><time>2026-04-04T09:05:16.998Z</time></trkpt><trkpt lat="45.32632927741262" lon="8.44417487367244"><ele>122.0</ele><time>2026-04-04T09:05:17.998Z</time></trkpt><trkpt lat="45.326357420586476" lon="8.444422633067687"><ele>122.0</ele><time>2026-04-04T09:05:18.998Z</time></trkpt><trkpt lat="45.3263841829052" lon="8.44468289418384"><ele>122.25</ele><time>2026-04-04T09:05:19.998Z</time></trkpt><trkpt lat="45.32640776452726" lon="8.444912238153881"><ele>122.5</ele><time>2026-04-04T09:05:20.998Z</time></trkpt><trkpt lat="45.32642816819105" lon="8.445104858927117"><ele>122.75</ele><time>2026-04-04T09:05:21.998Z</time></trkpt><trkpt lat="45.32644638359778" lon="8.445281280065844"><ele>123.0</ele><time>2026-04-04T09:05:22.998Z</time></trkpt><trkpt lat="45.32646594780289" lon="8.44545459244266"><ele>123.0</ele><time>2026-04-04T09:05:23.998Z</time></trkpt><trkpt lat="45.326483601452516" lon="8.445622094200631"><ele>123.0</ele><time>2026-04-04T09:05:24.998Z</time></trkpt><trkpt lat="45.326502541838856" lon="8.44578581908577"><ele>123.0</ele><time>2026-04-04T09:05:25.998Z</time></trkpt><trkpt lat="45.326523611170806" lon="8.4459428518274"><ele>123.0</ele><time>2026-04-04T09:05:27Z</time></trkpt><trkpt lat="45.32655060519099" lon="8.446090117371744"><ele>123.0</ele><time>2026-04-04T09:05:28Z</time></trkpt><trkpt lat="45.32658688589317" lon="8.446230306496473"><ele>123.00000000000001</ele><time>2026-04-04T09:05:29Z</time></trkpt><trkpt lat="45.326641735120184" lon="8.446355283552975"><ele>123.00000000000001</ele><time>2026-04-04T09:05:30Z</time></trkpt><trkpt lat="45.326698017876296" lon="8.446475202356728"><ele>123.0</ele><time>2026-04-04T09:05:31Z</time></trkpt><trkpt lat="45.32676394681517" lon="8.446590277331698"><ele>123.0</ele><time>2026-04-04T09:05:32Z</time></trkpt><trkpt lat="45.326837959240336" lon="8.44669440860027"><ele>123.0</ele><time>2026-04-04T09:05:33Z</time></trkpt><trkpt lat="45.32691874542521" lon="8.446786078720535"><ele>123.00000000000001</ele><time>2026-04-04T09:05:34Z</time></trkpt><trkpt lat="45.32700739717001" lon="8.44685941548232"><ele>123.00000000000001</ele><time>2026-04-04T09:05:35Z</time></trkpt><trkpt lat="45.32709687810015" lon="8.446923722867925"><ele>123.0</ele><time>2026-04-04T09:05:36Z</time></trkpt><trkpt lat="45.32718547000885" lon="8.446975389232373"><ele>123.0</ele><time>2026-04-04T09:05:37Z</time></trkpt><trkpt lat="45.32728099540612" lon="8.447020229055608"><ele>123.0</ele><time>2026-04-04T09:05:38Z</time></trkpt><trkpt lat="45.32738542383042" lon="8.44706210048044"><ele>123.00000000000001</ele><time>2026-04-04T09:05:39Z</time></trkpt><trkpt lat="45.327493502431295" lon="8.447104214560063"><ele>123.00000000000001</ele><time>2026-04-04T09:05:40Z</time></trkpt><trkpt lat="45.32760086379958" lon="8.44714997007345"><ele>123.0</ele><time>2026-04-04T09:05:41Z</time></trkpt><trkpt lat="45.32770976860067" lon="8.447192313209698"><ele>123.0</ele><time>2026-04-04T09:05:42Z</time></trkpt><trkpt lat="45.32781995789457" lon="8.447235671646524"><ele>123.25</ele><time>2026-04-04T09:05:43Z</time></trkpt><trkpt lat="45.32793362780433" lon="8.4472801638881"><ele>123.5</ele><time>2026-04-04T09:05:44Z</time></trkpt><trkpt lat="45.328048650426624" lon="8.447324324650495"><ele>123.75</ele><time>2026-04-04T09:05:45Z</time></trkpt><trkpt lat="45.32816485674429" lon="8.447369882107061"><ele>124.0</ele><time>2026-04-04T09:05:46Z</time></trkpt><trkpt lat="45.32827865120662" lon="8.447414684692447"><ele>124.0</ele><time>2026-04-04T09:05:47Z</time></trkpt><trkpt lat="45.32839184535565" lon="8.447459299151395"><ele>124.0</ele><time>2026-04-04T09:05:48Z</time></trkpt><trkpt lat="45.328506009809686" lon="8.447505609314524"><ele>124.0</ele><time>2026-04-04T09:05:48.999Z</time></trkpt><trkpt lat="45.32861989507219" lon="8.447549682700641"><ele>124.0</ele><time>2026-04-04T09:05:49.999Z</time></trkpt><trkpt lat="45.32873274961893" lon="8.447592615338412"><ele>124.0</ele><time>2026-04-04T09:05:50.999Z</time></trkpt><trkpt lat="45.32884475676891" lon="8.447635180144433"><ele>124.0</ele><time>2026-04-04T09:05:51.999Z</time></trkpt><trkpt lat="45.328954828072376" lon="8.447680194036641"><ele>124.0</ele><time>2026-04-04T09:05:52.999Z</time></trkpt><trkpt lat="45.32906605755755" lon="8.447724183590077"><ele>124.0</ele><time>2026-04-04T09:05:53.999Z</time></trkpt><trkpt lat="45.329177837501774" lon="8.44776782029368"><ele>123.75</ele><time>2026-04-04T09:05:54.999Z</time></trkpt><trkpt lat="45.32929225577646" lon="8.447812515882596"><ele>123.5</ele><time>2026-04-04T09:05:55.999Z</time></trkpt><trkpt lat="45.32940777442201" lon="8.447859567125766"><ele>123.25</ele><time>2026-04-04T09:05:56.999Z</time></trkpt><trkpt lat="45.32952414726641" lon="8.447906484551813"><ele>123.0</ele><time>2026-04-04T09:05:57.999Z</time></trkpt><trkpt lat="45.329641150263626" lon="8.447951378866568"><ele>122.25</ele><time>2026-04-04T09:05:58.999Z</time></trkpt><trkpt lat="45.329760183241575" lon="8.44799742238723"><ele>121.5</ele><time>2026-04-04T09:05:59.999Z</time></trkpt><trkpt lat="45.329880854733396" lon="8.44804752900633"><ele>120.75</ele><time>2026-04-04T09:06:00.999Z</time></trkpt><trkpt lat="45.33000308168229" lon="8.448098376078143"><ele>120.0</ele><time>2026-04-04T09:06:01.999Z</time></trkpt><trkpt lat="45.33012871257305" lon="8.448148520567532"><ele>120.0</ele><time>2026-04-04T09:06:02.999Z</time></trkpt><trkpt lat="45.330255711572285" lon="8.448196835966723"><ele>120.0</ele><time>2026-04-04T09:06:03.999Z</time></trkpt><trkpt lat="45.33038578657138" lon="8.448246471177686"><ele>120.0</ele><time>2026-04-04T09:06:04.999Z</time></trkpt><trkpt lat="45.33051933304858" lon="8.44829796663412"><ele>120.0</ele><time>2026-04-04T09:06:05.999Z</time></trkpt><trkpt lat="45.33065500019949" lon="8.448349674138196"><ele>120.5</ele><time>2026-04-04T09:06:06.999Z</time></trkpt><trkpt lat="45.33079305300333" lon="8.44840497779035"><ele>121.0</ele><time>2026-04-04T09:06:07.999Z</time></trkpt><trkpt lat="45.33093214008335" lon="8.448460842808425"><ele>121.5</ele><time>2026-04-04T09:06:08.999Z</time></trkpt><trkpt lat="45.3310730536727" lon="8.44851614759841"><ele>122.0</ele><time>2026-04-04T09:06:09.999Z</time></trkpt><trkpt lat="45.331215528910334" lon="8.44857106076229"><ele>122.0</ele><time>2026-04-04T09:06:10.999Z</time></trkpt><trkpt lat="45.331359413522925" lon="8.448625789091226"><ele>122.0</ele><time>2026-04-04T09:06:11.999Z</time></trkpt><trkpt lat="45.33150247146149" lon="8.448682080999044"><ele>122.0</ele><time>2026-04-04T09:06:12.999Z</time></trkpt><trkpt lat="45.33164426110906" lon="8.448739289853393"><ele>122.0</ele><time>2026-04-04T09:06:13.999Z</time></trkpt><trkpt lat="45.33178865814569" lon="8.448795834528468"><ele>122.5</ele><time>2026-04-04T09:06:14.999Z</time></trkpt><trkpt lat="45.331933352624354" lon="8.44885162503319"><ele>123.0</ele><time>2026-04-04T09:06:15.999Z</time></trkpt><trkpt lat="45.33207286460979" lon="8.448905595057157"><ele>123.5</ele><time>2026-04-04T09:06:16.999Z</time></trkpt><trkpt lat="45.33221294585246" lon="8.448960655771504"><ele>124.0</ele><time>2026-04-04T09:06:17.999Z</time></trkpt><trkpt lat="45.3323547972006" lon="8.449016566610752"><ele>124.0</ele><time>2026-04-04T09:06:18.999Z</time></trkpt><trkpt lat="45.332494678878874" lon="8.449071186162353"><ele>124.0</ele><time>2026-04-04T09:06:19.999Z</time></trkpt><trkpt lat="45.332631178957705" lon="8.449125599639935"><ele>124.0</ele><time>2026-04-04T09:06:20.999Z</time></trkpt><trkpt lat="45.33277681627392" lon="8.449183327220338"><ele>124.0</ele><time>2026-04-04T09:06:21.999Z</time></trkpt><trkpt lat="45.33293106608774" lon="8.44924552034817"><ele>124.0</ele><time>2026-04-04T09:06:22.999Z</time></trkpt><trkpt lat="45.33309342465946" lon="8.449306815887702"><ele>124.0</ele><time>2026-04-04T09:06:23.999Z</time></trkpt><trkpt lat="45.3332527501737" lon="8.449369424606903"><ele>124.0</ele><time>2026-04-04T09:06:24.999Z</time></trkpt><trkpt lat="45.33340134016303" lon="8.449428634348571"><ele>124.0</ele><time>2026-04-04T09:06:25.999Z</time></trkpt><trkpt lat="45.33355765403323" lon="8.449489844911621"><ele>124.0</ele><time>2026-04-04T09:06:26.999Z</time></trkpt><trkpt lat="45.33372253661493" lon="8.449554144875613"><ele>124.0</ele><time>2026-04-04T09:06:27.999Z</time></trkpt><trkpt lat="45.3338814226737" lon="8.449615949094978"><ele>124.33333333333334</ele><time>2026-04-04T09:06:28.999Z</time></trkpt><trkpt lat="45.33403387494564" lon="8.449673930793336"><ele>124.66666666666666</ele><time>2026-04-04T09:06:29.999Z</time></trkpt><trkpt lat="45.3341958989793" lon="8.449737354362957"><ele>125.0</ele><time>2026-04-04T09:06:30.999Z</time></trkpt><trkpt lat="45.3343633973428" lon="8.449803113809642"><ele>125.0</ele><time>2026-04-04T09:06:31.999Z</time></trkpt><trkpt lat="45.33452161218342" lon="8.449864544836387"><ele>125.0</ele><time>2026-04-04T09:06:32.999Z</time></trkpt><trkpt lat="45.33467428809284" lon="8.449922179680435"><ele>125.0</ele><time>2026-04-04T09:06:33.999Z</time></trkpt><trkpt lat="45.33483598809404" lon="8.449984410308783"><ele>124.33333333333333</ele><time>2026-04-04T09:06:34.999Z</time></trkpt><trkpt lat="45.33500088116257" lon="8.450047863866914"><ele>123.66666666666666</ele><time>2026-04-04T09:06:35.999Z</time></trkpt><trkpt lat="45.335151663041565" lon="8.450105168810717"><ele>123.0</ele><time>2026-04-04T09:06:36.999Z</time></trkpt><trkpt lat="45.33529816182046" lon="8.450161218315413"><ele>123.0</ele><time>2026-04-04T09:06:37.999Z</time></trkpt><trkpt lat="45.33544094395392" lon="8.450216886972601"><ele>123.0</ele><time>2026-04-04T09:06:38.999Z</time></trkpt><trkpt lat="45.33557404524426" lon="8.450270893787463"><ele>123.0</ele><time>2026-04-04T09:06:39.999Z</time></trkpt><trkpt lat="45.335700351654424" lon="8.450320240984034"><ele>123.0</ele><time>2026-04-04T09:06:40.999Z</time></trkpt><trkpt lat="45.3358109910957" lon="8.450364278262827"><ele>123.0</ele><time>2026-04-04T09:06:41.999Z</time></trkpt><trkpt lat="45.33590915089581" lon="8.450405278576447"><ele>123.00000000000001</ele><time>2026-04-04T09:06:42.999Z</time></trkpt><trkpt lat="45.33599287234166" lon="8.450447678865531"><ele>123.00000000000001</ele><time>2026-04-04T09:06:43.999Z</time></trkpt><trkpt lat="45.33606099795226" lon="8.450502334569913"><ele>123.0</ele><time>2026-04-04T09:06:44.999Z</time></trkpt><trkpt lat="45.33615231248646" lon="8.45053666204525"><ele>123.0</ele><time>2026-04-04T09:06:46.999Z</time></trkpt><trkpt lat="45.336138422326655" lon="8.450741796283396"><ele>123.0</ele><time>2026-04-04T09:06:47.999Z</time></trkpt><trkpt lat="45.336121659571916" lon="8.450857737312727"><ele>123.00000000000001</ele><time>2026-04-04T09:06:48.999Z</time></trkpt><trkpt lat="45.33607917575331" lon="8.450971981012012"><ele>123.00000000000001</ele><time>2026-04-04T09:06:49.999Z</time></trkpt><trkpt lat="45.336007425111156" lon="8.451089657633966"><ele>123.0</ele><time>2026-04-04T09:06:50.999Z</time></trkpt><trkpt lat="45.33592191615857" lon="8.451217132589715"><ele>123.0</ele><time>2026-04-04T09:06:51.999Z</time></trkpt><trkpt lat="45.33583471946991" lon="8.451348589429498"><ele>122.66666666666666</ele><time>2026-04-04T09:06:52.999Z</time></trkpt><trkpt lat="45.33573642228125" lon="8.451499332751697"><ele>122.33333333333333</ele><time>2026-04-04T09:06:53.999Z</time></trkpt><trkpt lat="45.33563368958103" lon="8.451662059970412"><ele>122.0</ele><time>2026-04-04T09:06:54.999Z</time></trkpt><trkpt lat="45.33552861437668" lon="8.451827352184047"><ele>122.0</ele><time>2026-04-04T09:06:55.999Z</time></trkpt><trkpt lat="45.33541716972635" lon="8.452002566507948"><ele>122.0</ele><time>2026-04-04T09:06:56.999Z</time></trkpt><trkpt lat="45.33530311052116" lon="8.452186249050845"><ele>122.0</ele><time>2026-04-04T09:06:57.999Z</time></trkpt><trkpt lat="45.335185540164666" lon="8.45237267229959"><ele>122.0</ele><time>2026-04-04T09:06:58.999Z</time></trkpt><trkpt lat="45.3350623649086" lon="8.452566148432345"><ele>122.0</ele><time>2026-04-04T09:06:59.999Z</time></trkpt><trkpt lat="45.334935263864224" lon="8.452766151142189"><ele>122.0</ele><time>2026-04-04T09:07:00.998Z</time></trkpt><trkpt lat="45.33481442773097" lon="8.452956569319136"><ele>121.66666666666666</ele><time>2026-04-04T09:07:01.998Z</time></trkpt><trkpt lat="45.334689376425395" lon="8.453151589665215"><ele>121.33333333333334</ele><time>2026-04-04T09:07:02.998Z</time></trkpt><trkpt lat="45.3345681409878" lon="8.453346410844414"><ele>121.0</ele><time>2026-04-04T09:07:03.998Z</time></trkpt><trkpt lat="45.334451072371415" lon="8.45353236937952"><ele>121.0</ele><time>2026-04-04T09:07:04.998Z</time></trkpt><trkpt lat="45.334340434455285" lon="8.453707714114724"><ele>121.0</ele><time>2026-04-04T09:07:05.998Z</time></trkpt><trkpt lat="45.334227290039045" lon="8.453886357180362"><ele>121.0</ele><time>2026-04-04T09:07:06.998Z</time></trkpt><trkpt lat="45.3341073638503" lon="8.454075472364467"><ele>121.33333333333334</ele><time>2026-04-04T09:07:07.998Z</time></trkpt><trkpt lat="45.33398496578873" lon="8.454268793788996"><ele>121.66666666666666</ele><time>2026-04-04T09:07:08.998Z</time></trkpt><trkpt lat="45.33386356854646" lon="8.454464069011033"><ele>122.0</ele><time>2026-04-04T09:07:09.998Z</time></trkpt><trkpt lat="45.33375110592157" lon="8.45464289691519"><ele>122.0</ele><time>2026-04-04T09:07:10.998Z</time></trkpt><trkpt lat="45.33363181971272" lon="8.45483094444123"><ele>122.0</ele><time>2026-04-04T09:07:11.998Z</time></trkpt><trkpt lat="45.33351166853651" lon="8.45502123837143"><ele>122.0</ele><time>2026-04-04T09:07:12.998Z</time></trkpt><trkpt lat="45.333393987276175" lon="8.455212844919112"><ele>122.0</ele><time>2026-04-04T09:07:13.998Z</time></trkpt><trkpt lat="45.33327275091588" lon="8.455402453121884"><ele>122.0</ele><time>2026-04-04T09:07:14.998Z</time></trkpt><trkpt lat="45.333152961620584" lon="8.455588143556104"><ele>122.0</ele><time>2026-04-04T09:07:15.998Z</time></trkpt><trkpt lat="45.333033649412506" lon="8.455779362211125"><ele>122.0</ele><time>2026-04-04T09:07:16.998Z</time></trkpt><trkpt lat="45.33291170772531" lon="8.455971109201155"><ele>122.0</ele><time>2026-04-04T09:07:17.998Z</time></trkpt><trkpt lat="45.33279833935713" lon="8.456151351813714"><ele>122.0</ele><time>2026-04-04T09:07:18.998Z</time></trkpt><trkpt lat="45.33268147943325" lon="8.456337443362504"><ele>122.33333333333333</ele><time>2026-04-04T09:07:19.998Z</time></trkpt><trkpt lat="45.332563008762136" lon="8.456527046173052"><ele>122.66666666666666</ele><time>2026-04-04T09:07:20.998Z</time></trkpt><trkpt lat="45.332441077575545" lon="8.456716350631549"><ele>123.0</ele><time>2026-04-04T09:07:21.998Z</time></trkpt><trkpt lat="45.332316498460486" lon="8.456912663800718"><ele>122.66666666666666</ele><time>2026-04-04T09:07:22.998Z</time></trkpt><trkpt lat="45.332198001234836" lon="8.457100726845015"><ele>122.33333333333333</ele><time>2026-04-04T09:07:23.998Z</time></trkpt><trkpt lat="45.33208366802314" lon="8.457284874984323"><ele>122.0</ele><time>2026-04-04T09:07:24.998Z</time></trkpt><trkpt lat="45.331963838553875" lon="8.457477075324014"><ele>121.66666666666666</ele><time>2026-04-04T09:07:25.998Z</time></trkpt><trkpt lat="45.331840510405975" lon="8.4576723596753"><ele>121.33333333333334</ele><time>2026-04-04T09:07:26.998Z</time></trkpt><trkpt lat="45.33171789763512" lon="8.457867021011607"><ele>121.0</ele><time>2026-04-04T09:07:27.998Z</time></trkpt><trkpt lat="45.331605190386625" lon="8.458046576794622"><ele>121.0</ele><time>2026-04-04T09:07:28.998Z</time></trkpt><trkpt lat="45.331502285167886" lon="8.458210905537594"><ele>121.0</ele><time>2026-04-04T09:07:29.998Z</time></trkpt><trkpt lat="45.331383798366424" lon="8.458365289677188"><ele>121.0</ele><time>2026-04-04T09:07:30.998Z</time></trkpt><trkpt lat="45.3312713837524" lon="8.458542311824289"><ele>121.0</ele><time>2026-04-04T09:07:31.998Z</time></trkpt><trkpt lat="45.33115630308272" lon="8.458723577037487"><ele>121.0</ele><time>2026-04-04T09:07:33Z</time></trkpt><trkpt lat="45.331039601575185" lon="8.458907474439528"><ele>121.0</ele><time>2026-04-04T09:07:34Z</time></trkpt><trkpt lat="45.330930209427414" lon="8.459079854073929"><ele>121.0</ele><time>2026-04-04T09:07:35Z</time></trkpt><trkpt lat="45.330816798329046" lon="8.459258566366914"><ele>121.0</ele><time>2026-04-04T09:07:36Z</time></trkpt><trkpt lat="45.330697553230195" lon="8.459446472007889"><ele>121.0</ele><time>2026-04-04T09:07:37Z</time></trkpt><trkpt lat="45.33057382558996" lon="8.459641881534083"><ele>120.66666666666667</ele><time>2026-04-04T09:07:38Z</time></trkpt><trkpt lat="45.33044963118774" lon="8.459838053451913"><ele>120.33333333333334</ele><time>2026-04-04T09:07:39Z</time></trkpt><trkpt lat="45.3303485808984" lon="8.460031670487389"><ele>120.0</ele><time>2026-04-04T09:07:40Z</time></trkpt><trkpt lat="45.33022892020395" lon="8.46022004383307"><ele>120.0</ele><time>2026-04-04T09:07:41Z</time></trkpt><trkpt lat="45.33010447987391" lon="8.46041500635116"><ele>120.0</ele><time>2026-04-04T09:07:42Z</time></trkpt><trkpt lat="45.32997949014506" lon="8.460612195649212"><ele>120.0</ele><time>2026-04-04T09:07:43Z</time></trkpt><trkpt lat="45.32985642070414" lon="8.460806587522642"><ele>119.66666666666666</ele><time>2026-04-04T09:07:44Z</time></trkpt><trkpt lat="45.32973460334021" lon="8.46100018633957"><ele>119.33333333333333</ele><time>2026-04-04T09:07:45Z</time></trkpt><trkpt lat="45.32962406657842" lon="8.461176691778755"><ele>119.0</ele><time>2026-04-04T09:07:46Z</time></trkpt><trkpt lat="45.329493674211" lon="8.461348039721793"><ele>119.0</ele><time>2026-04-04T09:07:47Z</time></trkpt><trkpt lat="45.32937136689812" lon="8.461541230795346"><ele>119.0</ele><time>2026-04-04T09:07:48Z</time></trkpt><trkpt lat="45.329244855482344" lon="8.461741062519256"><ele>119.0</ele><time>2026-04-04T09:07:48.999Z</time></trkpt><trkpt lat="45.32912344645325" lon="8.46193283476007"><ele>119.0</ele><time>2026-04-04T09:07:49.999Z</time></trkpt><trkpt lat="45.329008446642504" lon="8.462114483372815"><ele>119.0</ele><time>2026-04-04T09:07:50.999Z</time></trkpt><trkpt lat="45.32888719417601" lon="8.462306334683916"><ele>119.0</ele><time>2026-04-04T09:07:51.999Z</time></trkpt><trkpt lat="45.32876269262563" lon="8.462503080223872"><ele>119.0</ele><time>2026-04-04T09:07:52.999Z</time></trkpt><trkpt lat="45.328638132794" lon="8.462699917661073"><ele>119.0</ele><time>2026-04-04T09:07:53.999Z</time></trkpt><trkpt lat="45.32851566665895" lon="8.462893449476606"><ele>119.0</ele><time>2026-04-04T09:07:54.999Z</time></trkpt><trkpt lat="45.32839646252228" lon="8.46309380040475"><ele>119.0</ele><time>2026-04-04T09:07:55.999Z</time></trkpt><trkpt lat="45.328283490967465" lon="8.463301324240847"><ele>119.0</ele><time>2026-04-04T09:07:56.999Z</time></trkpt><trkpt lat="45.32819534803952" lon="8.4634977567912"><ele>119.0</ele><time>2026-04-04T09:07:57.999Z</time></trkpt><trkpt lat="45.32812637089053" lon="8.46367173796825"><ele>118.75</ele><time>2026-04-04T09:07:58.999Z</time></trkpt><trkpt lat="45.32808067349945" lon="8.463829490764256"><ele>118.5</ele><time>2026-04-04T09:07:59.999Z</time></trkpt><trkpt lat="45.32802619683195" lon="8.463963128007292"><ele>118.25</ele><time>2026-04-04T09:08:00.999Z</time></trkpt><trkpt lat="45.32797008863015" lon="8.464105454949953"><ele>118.0</ele><time>2026-04-04T09:08:01.999Z</time></trkpt><trkpt lat="45.32789253446262" lon="8.464256155134345"><ele>118.66666666666667</ele><time>2026-04-04T09:08:02.999Z</time></trkpt><trkpt lat="45.32782180997353" lon="8.464430725160602"><ele>119.33333333333334</ele><time>2026-04-04T09:08:03.999Z</time></trkpt><trkpt lat="45.32774665455976" lon="8.46461764626022"><ele>120.0</ele><time>2026-04-04T09:08:04.999Z</time></trkpt><trkpt lat="45.327668769651524" lon="8.464813411463062"><ele>120.33333333333334</ele><time>2026-04-04T09:08:05.999Z</time></trkpt><trkpt lat="45.32758978314542" lon="8.465011945827156"><ele>120.66666666666667</ele><time>2026-04-04T09:08:06.999Z</time></trkpt><trkpt lat="45.32750660366655" lon="8.465221019028032"><ele>121.0</ele><time>2026-04-04T09:08:07.999Z</time></trkpt><trkpt lat="45.327421303757305" lon="8.465435422057915"><ele>120.66666666666667</ele><time>2026-04-04T09:08:08.999Z</time></trkpt><trkpt lat="45.32733089792141" lon="8.465662658793503"><ele>120.33333333333334</ele><time>2026-04-04T09:08:09.999Z</time></trkpt><trkpt lat="45.32723904825501" lon="8.46589352489153"><ele>120.0</ele><time>2026-04-04T09:08:10.999Z</time></trkpt><trkpt lat="45.32714659003346" lon="8.466125921325794"><ele>120.66666666666666</ele><time>2026-04-04T09:08:11.999Z</time></trkpt><trkpt lat="45.32705666285913" lon="8.46635195512877"><ele>121.33333333333333</ele><time>2026-04-04T09:08:12.999Z</time></trkpt><trkpt lat="45.32697347391056" lon="8.466561052086336"><ele>122.0</ele><time>2026-04-04T09:08:13.999Z</time></trkpt><trkpt lat="45.326890982545606" lon="8.466768569054048"><ele>122.0</ele><time>2026-04-04T09:08:14.999Z</time></trkpt><trkpt lat="45.32681397083317" lon="8.466962506411223"><ele>122.0</ele><time>2026-04-04T09:08:15.999Z</time></trkpt><trkpt lat="45.32674052507058" lon="8.467147463806713"><ele>122.0</ele><time>2026-04-04T09:08:16.999Z</time></trkpt><trkpt lat="45.32666595385516" lon="8.467335255616295"><ele>121.0</ele><time>2026-04-04T09:08:17.999Z</time></trkpt><trkpt lat="45.32658535873162" lon="8.46753821709208"><ele>120.0</ele><time>2026-04-04T09:08:18.999Z</time></trkpt><trkpt lat="45.3265013316094" lon="8.467749821507345"><ele>119.0</ele><time>2026-04-04T09:08:19.999Z</time></trkpt><trkpt lat="45.326414342074145" lon="8.467968886151239"><ele>120.0</ele><time>2026-04-04T09:08:20.999Z</time></trkpt><trkpt lat="45.32633744929774" lon="8.468209026550992"><ele>121.0</ele><time>2026-04-04T09:08:21.999Z</time></trkpt><trkpt lat="45.32624285147224" lon="8.468444513275221"><ele>122.0</ele><time>2026-04-04T09:08:22.999Z</time></trkpt><trkpt lat="45.326155617927036" lon="8.468662188976733"><ele>121.0</ele><time>2026-04-04T09:08:23.999Z</time></trkpt><trkpt lat="45.32606771369355" lon="8.468882811835718"><ele>120.0</ele><time>2026-04-04T09:08:24.999Z</time></trkpt><trkpt lat="45.32597790935674" lon="8.469111947290449"><ele>119.0</ele><time>2026-04-04T09:08:25.999Z</time></trkpt><trkpt lat="45.325886264225836" lon="8.469342606417928"><ele>119.0</ele><time>2026-04-04T09:08:26.999Z</time></trkpt><trkpt lat="45.32579873255089" lon="8.469562153365219"><ele>119.0</ele><time>2026-04-04T09:08:27.999Z</time></trkpt><trkpt lat="45.32571501828318" lon="8.469775259132946"><ele>119.0</ele><time>2026-04-04T09:08:28.999Z</time></trkpt><trkpt lat="45.32561839415371" lon="8.469971225919963"><ele>118.66666666666666</ele><time>2026-04-04T09:08:29.999Z</time></trkpt><trkpt lat="45.3255501181658" lon="8.470191011197468"><ele>118.33333333333334</ele><time>2026-04-04T09:08:30.999Z</time></trkpt><trkpt lat="45.32545187228901" lon="8.470389849242947"><ele>118.0</ele><time>2026-04-04T09:08:31.999Z</time></trkpt><trkpt lat="45.32537476732709" lon="8.47058372852759"><ele>118.0</ele><time>2026-04-04T09:08:32.999Z</time></trkpt><trkpt lat="45.325315306839485" lon="8.470781257045498"><ele>118.0</ele><time>2026-04-04T09:08:33.999Z</time></trkpt><trkpt lat="45.32524946310957" lon="8.470946665474827"><ele>118.0</ele><time>2026-04-04T09:08:34.999Z</time></trkpt><trkpt lat="45.325175074541605" lon="8.471121849031476"><ele>118.0</ele><time>2026-04-04T09:08:35.999Z</time></trkpt><trkpt lat="45.325101578394225" lon="8.471306728430871"><ele>118.0</ele><time>2026-04-04T09:08:36.999Z</time></trkpt><trkpt lat="45.325024565479346" lon="8.471499780227877"><ele>118.0</ele><time>2026-04-04T09:08:37.999Z</time></trkpt><trkpt lat="45.32494530069181" lon="8.471699982007316"><ele>118.0</ele><time>2026-04-04T09:08:38.999Z</time></trkpt><trkpt lat="45.324865026101506" lon="8.471905905763032"><ele>118.33333333333334</ele><time>2026-04-04T09:08:39.999Z</time></trkpt><trkpt lat="45.324783725243655" lon="8.472113303859986"><ele>118.66666666666666</ele><time>2026-04-04T09:08:40.999Z</time></trkpt><trkpt lat="45.32469951516417" lon="8.472327795472859"><ele>119.0</ele><time>2026-04-04T09:08:41.999Z</time></trkpt><trkpt lat="45.32461450890257" lon="8.472543417805557"><ele>119.0</ele><time>2026-04-04T09:08:42.999Z</time></trkpt><trkpt lat="45.324516111349766" lon="8.472744558787424"><ele>119.0</ele><time>2026-04-04T09:08:43.999Z</time></trkpt><trkpt lat="45.32443642948904" lon="8.47294436601745"><ele>119.0</ele><time>2026-04-04T09:08:44.999Z</time></trkpt><trkpt lat="45.324353626015366" lon="8.473152000719681"><ele>118.33333333333333</ele><time>2026-04-04T09:08:45.999Z</time></trkpt><trkpt lat="45.32426715956034" lon="8.47336882069093"><ele>117.66666666666666</ele><time>2026-04-04T09:08:46.999Z</time></trkpt><trkpt lat="45.324186708184214" lon="8.473570557562178"><ele>117.0</ele><time>2026-04-04T09:08:47.999Z</time></trkpt><trkpt lat="45.3241118154686" lon="8.473758294271805"><ele>117.0</ele><time>2026-04-04T09:08:48.999Z</time></trkpt><trkpt lat="45.324035715159" lon="8.47394869631963"><ele>117.0</ele><time>2026-04-04T09:08:49.999Z</time></trkpt><trkpt lat="45.323959882155826" lon="8.474138429653234"><ele>117.0</ele><time>2026-04-04T09:08:50.999Z</time></trkpt><trkpt lat="45.323891949454584" lon="8.474308396617758"><ele>117.0</ele><time>2026-04-04T09:08:51.999Z</time></trkpt><trkpt lat="45.32383306898132" lon="8.474455714518982"><ele>117.0</ele><time>2026-04-04T09:08:52.999Z</time></trkpt><trkpt lat="45.323781303366985" lon="8.474587256805581"><ele>116.99999999999999</ele><time>2026-04-04T09:08:53.999Z</time></trkpt><trkpt lat="45.323751941251686" lon="8.474710668561865"><ele>116.99999999999999</ele><time>2026-04-04T09:08:54.999Z</time></trkpt><trkpt lat="45.32371438875245" lon="8.474796769886648"><ele>117.0</ele><time>2026-04-04T09:08:55.999Z</time></trkpt><trkpt lat="45.32366126246089" lon="8.474887746592946"><ele>117.0</ele><time>2026-04-04T09:08:57.999Z</time></trkpt><trkpt lat="45.32355104533859" lon="8.474974124936553"><ele>117.39999999999999</ele><time>2026-04-04T09:09:28.998Z</time></trkpt><trkpt lat="45.32349735834604" lon="8.47505199132781"><ele>117.79999999999998</ele><time>2026-04-04T09:09:29.998Z</time></trkpt><trkpt lat="45.32342712965484" lon="8.475155835871696"><ele>118.2</ele><time>2026-04-04T09:09:30.998Z</time></trkpt><trkpt lat="45.3234418313122" lon="8.475340035412687"><ele>118.6</ele><time>2026-04-04T09:09:31.998Z</time></trkpt><trkpt lat="45.3234129346027" lon="8.475500947342738"><ele>119.0</ele><time>2026-04-04T09:09:32.998Z</time></trkpt><trkpt lat="45.32334752615786" lon="8.475659942303992"><ele>119.33333333333333</ele><time>2026-04-04T09:09:33.998Z</time></trkpt><trkpt lat="45.32327554500088" lon="8.475838785797741"><ele>119.66666666666666</ele><time>2026-04-04T09:09:34.998Z</time></trkpt><trkpt lat="45.3232005721488" lon="8.476028616691856"><ele>120.0</ele><time>2026-04-04T09:09:35.998Z</time></trkpt><trkpt lat="45.32312313066877" lon="8.476224697917962"><ele>119.33333333333334</ele><time>2026-04-04T09:09:36.998Z</time></trkpt><trkpt lat="45.32304394361819" lon="8.476423073407997"><ele>118.66666666666667</ele><time>2026-04-04T09:09:37.998Z</time></trkpt><trkpt lat="45.322959836022136" lon="8.476630300259407"><ele>118.0</ele><time>2026-04-04T09:09:39Z</time></trkpt><trkpt lat="45.322873978765216" lon="8.476841837936998"><ele>118.0</ele><time>2026-04-04T09:09:40Z</time></trkpt><trkpt lat="45.322804492036646" lon="8.47701304148793"><ele>118.00000000000001</ele><time>2026-04-04T09:09:41Z</time></trkpt><trkpt lat="45.32276676532979" lon="8.477106834457267"><ele>118.00000000000001</ele><time>2026-04-04T09:09:42Z</time></trkpt><trkpt lat="45.32267674605642" lon="8.477029786749194"><ele>118.0</ele><time>2026-04-04T09:09:46Z</time></trkpt><trkpt lat="45.322597035143914" lon="8.476976672100644"><ele>118.0</ele><time>2026-04-04T09:09:47Z</time></trkpt><trkpt lat="45.32252853240824" lon="8.476881995764154"><ele>118.0</ele><time>2026-04-04T09:09:48Z</time></trkpt><trkpt lat="45.32242341767548" lon="8.476819196366506"><ele>118.0</ele><time>2026-04-04T09:09:49Z</time></trkpt><trkpt lat="45.322299726208065" lon="8.476806603490983"><ele>118.0</ele><time>2026-04-04T09:09:50Z</time></trkpt><trkpt lat="45.322170615669634" lon="8.476798106794663"><ele>118.0</ele><time>2026-04-04T09:09:51Z</time></trkpt><trkpt lat="45.32202812543527" lon="8.476775624107708"><ele>118.0</ele><time>2026-04-04T09:09:52Z</time></trkpt><trkpt lat="45.32187690944782" lon="8.476747083002056"><ele>118.0</ele><time>2026-04-04T09:09:53Z</time></trkpt><trkpt lat="45.32171504628721" lon="8.47671569831326"><ele>118.0</ele><time>2026-04-04T09:09:53.999Z</time></trkpt><trkpt lat="45.32155506066294" lon="8.476682877941165"><ele>118.0</ele><time>2026-04-04T09:09:54.999Z</time></trkpt><trkpt lat="45.32138663359001" lon="8.476649922380814"><ele>118.0</ele><time>2026-04-04T09:09:55.999Z</time></trkpt><trkpt lat="45.321214360063365" lon="8.476618132958563"><ele>118.0</ele><time>2026-04-04T09:09:56.999Z</time></trkpt><trkpt lat="45.321036196707084" lon="8.476587015112623"><ele>118.0</ele><time>2026-04-04T09:09:57.999Z</time></trkpt><trkpt lat="45.32085616448687" lon="8.476555570859556"><ele>118.0</ele><time>2026-04-04T09:09:58.999Z</time></trkpt><trkpt lat="45.32067551634361" lon="8.476524019005037"><ele>118.0</ele><time>2026-04-04T09:09:59.999Z</time></trkpt><trkpt lat="45.32050632892092" lon="8.476496172934981"><ele>117.5</ele><time>2026-04-04T09:10:00.999Z</time></trkpt><trkpt lat="45.3203557291862" lon="8.476472506625715"><ele>117.0</ele><time>2026-04-04T09:10:01.999Z</time></trkpt><trkpt lat="45.32021921503759" lon="8.476451053841101"><ele>116.5</ele><time>2026-04-04T09:10:02.999Z</time></trkpt><trkpt lat="45.320092504734745" lon="8.47643114167894"><ele>116.0</ele><time>2026-04-04T09:10:03.999Z</time></trkpt><trkpt lat="45.31997282710039" lon="8.47641233470982"><ele>116.0</ele><time>2026-04-04T09:10:04.999Z</time></trkpt><trkpt lat="45.319865357124094" lon="8.476396116721597"><ele>116.0</ele><time>2026-04-04T09:10:05.999Z</time></trkpt><trkpt lat="45.319764607587466" lon="8.476381621342025"><ele>116.0</ele><time>2026-04-04T09:10:06.999Z</time></trkpt><trkpt lat="45.31966821291822" lon="8.476368283682287"><ele>116.0</ele><time>2026-04-04T09:10:07.999Z</time></trkpt><trkpt lat="45.31958153517769" lon="8.47635629057011"><ele>116.0</ele><time>2026-04-04T09:10:08.999Z</time></trkpt><trkpt lat="45.31951390635907" lon="8.476348726342312"><ele>116.0</ele><time>2026-04-04T09:10:09.999Z</time></trkpt><trkpt lat="45.31943233806079" lon="8.476345551179561"><ele>116.0</ele><time>2026-04-04T09:10:11.999Z</time></trkpt><trkpt lat="45.319354418901156" lon="8.476354741066633"><ele>116.0</ele><time>2026-04-04T09:10:21.999Z</time></trkpt><trkpt lat="45.31948566902067" lon="8.476343903067706"><ele>116.0</ele><time>2026-04-04T09:10:29.999Z</time></trkpt><trkpt lat="45.31959100910775" lon="8.476349975398863"><ele>116.0</ele><time>2026-04-04T09:10:30.999Z</time></trkpt><trkpt lat="45.319697989733854" lon="8.476366890211724"><ele>116.0</ele><time>2026-04-04T09:10:31.999Z</time></trkpt><trkpt lat="45.31981624865064" lon="8.476388765893613"><ele>116.0</ele><time>2026-04-04T09:10:32.999Z</time></trkpt><trkpt lat="45.31993561005389" lon="8.476469270626394"><ele>116.0</ele><time>2026-04-04T09:10:33.999Z</time></trkpt><trkpt lat="45.32007401918797" lon="8.47648903244566"><ele>116.0</ele><time>2026-04-04T09:10:34.999Z</time></trkpt><trkpt lat="45.32021722247054" lon="8.476509603147752"><ele>116.0</ele><time>2026-04-04T09:10:35.999Z</time></trkpt><trkpt lat="45.320367255452446" lon="8.476533806334873"><ele>116.0</ele><time>2026-04-04T09:10:36.999Z</time></trkpt><trkpt lat="45.320527703061394" lon="8.476558075161831"><ele>116.0</ele><time>2026-04-04T09:10:37.999Z</time></trkpt><trkpt lat="45.32069224467455" lon="8.47658529889679"><ele>116.66666666666666</ele><time>2026-04-04T09:10:38.999Z</time></trkpt><trkpt lat="45.320861998493086" lon="8.47661623989419"><ele>117.33333333333334</ele><time>2026-04-04T09:10:39.999Z</time></trkpt><trkpt lat="45.321036098345814" lon="8.4766470964839"><ele>118.0</ele><time>2026-04-04T09:10:40.999Z</time></trkpt><trkpt lat="45.32121883014692" lon="8.476679206654019"><ele>118.0</ele><time>2026-04-04T09:10:41.999Z</time></trkpt><trkpt lat="45.32139635975954" lon="8.476713385608308"><ele>118.0</ele><time>2026-04-04T09:10:42.999Z</time></trkpt><trkpt lat="45.32157586799507" lon="8.476749043944068"><ele>118.0</ele><time>2026-04-04T09:10:43.999Z</time></trkpt><trkpt lat="45.32176100614485" lon="8.476782390176275"><ele>118.0</ele><time>2026-04-04T09:10:44.999Z</time></trkpt><trkpt lat="45.32193290182319" lon="8.476817443048134"><ele>118.0</ele><time>2026-04-04T09:10:45.999Z</time></trkpt><trkpt lat="45.32209114099117" lon="8.476848406231575"><ele>118.0</ele><time>2026-04-04T09:10:46.999Z</time></trkpt><trkpt lat="45.32223524329069" lon="8.47686265229235"><ele>118.0</ele><time>2026-04-04T09:10:47.999Z</time></trkpt><trkpt lat="45.32234480376007" lon="8.476872969101928"><ele>118.00000000000001</ele><time>2026-04-04T09:10:48.999Z</time></trkpt><trkpt lat="45.32243002066075" lon="8.476886409381628"><ele>118.00000000000001</ele><time>2026-04-04T09:10:49.999Z</time></trkpt><trkpt lat="45.32250207992825" lon="8.476918225162063"><ele>118.0</ele><time>2026-04-04T09:10:50.999Z</time></trkpt><trkpt lat="45.322575765328715" lon="8.476987919185081"><ele>118.0</ele><time>2026-04-04T09:10:51.999Z</time></trkpt><trkpt lat="45.3226490631448" lon="8.477067413968875"><ele>118.4</ele><time>2026-04-04T09:10:52.999Z</time></trkpt><trkpt lat="45.32271272119817" lon="8.477135973941644"><ele>118.80000000000001</ele><time>2026-04-04T09:10:54.999Z</time></trkpt><trkpt lat="45.32277904963726" lon="8.477185427594698"><ele>119.2</ele><time>2026-04-04T09:10:58.999Z</time></trkpt><trkpt lat="45.32268138909525" lon="8.477363957700748"><ele>119.6</ele><time>2026-04-04T09:10:59.999Z</time></trkpt><trkpt lat="45.322637438778" lon="8.477458121893958"><ele>120.0</ele><time>2026-04-04T09:11:00.999Z</time></trkpt><trkpt lat="45.322589625960326" lon="8.477582892373974"><ele>120.0</ele><time>2026-04-04T09:11:01.999Z</time></trkpt><trkpt lat="45.32253638179532" lon="8.477717088778315"><ele>120.0</ele><time>2026-04-04T09:11:02.999Z</time></trkpt><trkpt lat="45.32247472180381" lon="8.477865974790628"><ele>120.0</ele><time>2026-04-04T09:11:03.999Z</time></trkpt><trkpt lat="45.32241105279497" lon="8.478023823389892"><ele>120.0</ele><time>2026-04-04T09:11:04.999Z</time></trkpt><trkpt lat="45.322342697226674" lon="8.47820078693659"><ele>119.66666666666666</ele><time>2026-04-04T09:11:05.999Z</time></trkpt><trkpt lat="45.32226931160243" lon="8.478388403658196"><ele>119.33333333333333</ele><time>2026-04-04T09:11:06.999Z</time></trkpt><trkpt lat="45.32219005087247" lon="8.478588086963173"><ele>119.0</ele><time>2026-04-04T09:11:07.999Z</time></trkpt><trkpt lat="45.32211231748882" lon="8.478779451603204"><ele>118.66666666666666</ele><time>2026-04-04T09:11:08.999Z</time></trkpt><trkpt lat="45.322031314948546" lon="8.478985136817789"><ele>118.33333333333334</ele><time>2026-04-04T09:11:09.999Z</time></trkpt><trkpt lat="45.321947925470916" lon="8.47919384382987"><ele>118.0</ele><time>2026-04-04T09:11:10.998Z</time></trkpt><trkpt lat="45.321861908845115" lon="8.479405577526123"><ele>117.66666666666667</ele><time>2026-04-04T09:11:11.998Z</time></trkpt><trkpt lat="45.32177237515579" lon="8.47962716926282"><ele>117.33333333333334</ele><time>2026-04-04T09:11:12.998Z</time></trkpt><trkpt lat="45.321682032956865" lon="8.479850971357331"><ele>117.0</ele><time>2026-04-04T09:11:13.998Z</time></trkpt><trkpt lat="45.321593702141556" lon="8.480076936732035"><ele>117.0</ele><time>2026-04-04T09:11:14.998Z</time></trkpt><trkpt lat="45.32150980638716" lon="8.48028967303575"><ele>117.0</ele><time>2026-04-04T09:11:15.998Z</time></trkpt><trkpt lat="45.3214249988177" lon="8.480499123784613"><ele>117.0</ele><time>2026-04-04T09:11:16.998Z</time></trkpt><trkpt lat="45.32133779715195" lon="8.480718140257185"><ele>117.33333333333334</ele><time>2026-04-04T09:11:17.998Z</time></trkpt><trkpt lat="45.32124992832992" lon="8.480944769050947"><ele>117.66666666666667</ele><time>2026-04-04T09:11:18.998Z</time></trkpt><trkpt lat="45.321144476901125" lon="8.481160920031185"><ele>118.0</ele><time>2026-04-04T09:11:19.998Z</time></trkpt><trkpt lat="45.32105256895951" lon="8.481390353194058"><ele>118.0</ele><time>2026-04-04T09:11:20.998Z</time></trkpt><trkpt lat="45.32097948830476" lon="8.481615833045025"><ele>118.0</ele><time>2026-04-04T09:11:21.998Z</time></trkpt><trkpt lat="45.32089559838742" lon="8.48181890523676"><ele>118.0</ele><time>2026-04-04T09:11:22.998Z</time></trkpt><trkpt lat="45.32080824068303" lon="8.482038153940895"><ele>118.0</ele><time>2026-04-04T09:11:23.998Z</time></trkpt><trkpt lat="45.320720659921356" lon="8.482260749178685"><ele>118.0</ele><time>2026-04-04T09:11:24.998Z</time></trkpt><trkpt lat="45.32063304446392" lon="8.482484102547543"><ele>118.0</ele><time>2026-04-04T09:11:25.998Z</time></trkpt><trkpt lat="45.32054235427069" lon="8.482708707477347"><ele>117.66666666666667</ele><time>2026-04-04T09:11:26.998Z</time></trkpt><trkpt lat="45.32045871174623" lon="8.482919070397811"><ele>117.33333333333334</ele><time>2026-04-04T09:11:27.998Z</time></trkpt><trkpt lat="45.32037908062673" lon="8.483118815766412"><ele>117.0</ele><time>2026-04-04T09:11:28.998Z</time></trkpt><trkpt lat="45.32029638342572" lon="8.483324523474176"><ele>117.0</ele><time>2026-04-04T09:11:29.998Z</time></trkpt><trkpt lat="45.320214165994294" lon="8.48352654905997"><ele>117.0</ele><time>2026-04-04T09:11:30.998Z</time></trkpt><trkpt lat="45.32013184141645" lon="8.483731941433014"><ele>117.0</ele><time>2026-04-04T09:11:31.998Z</time></trkpt><trkpt lat="45.32004520841912" lon="8.483946404764922"><ele>117.33333333333334</ele><time>2026-04-04T09:11:32.998Z</time></trkpt><trkpt lat="45.31995960012122" lon="8.484160224349788"><ele>117.66666666666667</ele><time>2026-04-04T09:11:33.998Z</time></trkpt><trkpt lat="45.319877996108275" lon="8.484363148198037"><ele>118.0</ele><time>2026-04-04T09:11:34.998Z</time></trkpt><trkpt lat="45.31979164110676" lon="8.484577830533633"><ele>117.66666666666667</ele><time>2026-04-04T09:11:35.998Z</time></trkpt><trkpt lat="45.31970490332305" lon="8.484793482969087"><ele>117.33333333333334</ele><time>2026-04-04T09:11:36.998Z</time></trkpt><trkpt lat="45.31961375308496" lon="8.485018918071669"><ele>117.0</ele><time>2026-04-04T09:11:37.998Z</time></trkpt><trkpt lat="45.319522631964475" lon="8.485246864828252"><ele>116.66666666666666</ele><time>2026-04-04T09:11:38.998Z</time></trkpt><trkpt lat="45.31943734204796" lon="8.485458713780956"><ele>116.33333333333333</ele><time>2026-04-04T09:11:39.998Z</time></trkpt><trkpt lat="45.31935668431446" lon="8.485662138207019"><ele>116.0</ele><time>2026-04-04T09:11:40.998Z</time></trkpt><trkpt lat="45.3192758240234" lon="8.485866614427636"><ele>116.0</ele><time>2026-04-04T09:11:41.998Z</time></trkpt><trkpt lat="45.31919469354931" lon="8.48607094255582"><ele>116.0</ele><time>2026-04-04T09:11:42.998Z</time></trkpt><trkpt lat="45.319113563020196" lon="8.486269962776959"><ele>116.0</ele><time>2026-04-04T09:11:43.998Z</time></trkpt><trkpt lat="45.3190286865682" lon="8.486480654812604"><ele>116.0</ele><time>2026-04-04T09:11:45Z</time></trkpt><trkpt lat="45.31892681802227" lon="8.48668889034269"><ele>116.0</ele><time>2026-04-04T09:11:46Z</time></trkpt><trkpt lat="45.31883803139844" lon="8.486909175590565"><ele>116.0</ele><time>2026-04-04T09:11:47Z</time></trkpt><trkpt lat="45.318748998127425" lon="8.487130072791723"><ele>116.33333333333333</ele><time>2026-04-04T09:11:48Z</time></trkpt><trkpt lat="45.31865853367356" lon="8.487354521008667"><ele>116.66666666666666</ele><time>2026-04-04T09:11:49Z</time></trkpt><trkpt lat="45.318567211163405" lon="8.487581098683561"><ele>117.0</ele><time>2026-04-04T09:11:50Z</time></trkpt><trkpt lat="45.318481908657255" lon="8.487792739059676"><ele>117.0</ele><time>2026-04-04T09:11:51Z</time></trkpt><trkpt lat="45.31839794947231" lon="8.488001046772936"><ele>117.0</ele><time>2026-04-04T09:11:52Z</time></trkpt><trkpt lat="45.31831136881919" lon="8.488215859463864"><ele>117.0</ele><time>2026-04-04T09:11:53Z</time></trkpt><trkpt lat="45.31822447132977" lon="8.48843145764672"><ele>117.0</ele><time>2026-04-04T09:11:54Z</time></trkpt><trkpt lat="45.31814040101985" lon="8.488640041139545"><ele>117.0</ele><time>2026-04-04T09:11:55Z</time></trkpt><trkpt lat="45.31805709508845" lon="8.48884672856499"><ele>117.0</ele><time>2026-04-04T09:11:56Z</time></trkpt><trkpt lat="45.31797559147807" lon="8.48904894445939"><ele>117.0</ele><time>2026-04-04T09:11:57Z</time></trkpt><trkpt lat="45.31789728042586" lon="8.489243401254667"><ele>117.0</ele><time>2026-04-04T09:11:58Z</time></trkpt><trkpt lat="45.31782100074111" lon="8.48943351923172"><ele>117.0</ele><time>2026-04-04T09:11:59Z</time></trkpt><trkpt lat="45.31774322554734" lon="8.489627364545795"><ele>117.0</ele><time>2026-04-04T09:12:00Z</time></trkpt><trkpt lat="45.317669859483715" lon="8.489810220408241"><ele>117.0</ele><time>2026-04-04T09:12:00.999Z</time></trkpt><trkpt lat="45.317589703121406" lon="8.49001000055971"><ele>117.0</ele><time>2026-04-04T09:12:01.999Z</time></trkpt><trkpt lat="45.3175060278754" lon="8.49021855068421"><ele>117.0</ele><time>2026-04-04T09:12:02.999Z</time></trkpt><trkpt lat="45.317421704657136" lon="8.490428715933195"><ele>117.0</ele><time>2026-04-04T09:12:03.999Z</time></trkpt><trkpt lat="45.317337036708174" lon="8.490639740241885"><ele>117.0</ele><time>2026-04-04T09:12:04.999Z</time></trkpt><trkpt lat="45.31725188581399" lon="8.490851968619008"><ele>117.0</ele><time>2026-04-04T09:12:05.999Z</time></trkpt><trkpt lat="45.31716834092285" lon="8.491060392790114"><ele>117.0</ele><time>2026-04-04T09:12:06.999Z</time></trkpt><trkpt lat="45.31708500138474" lon="8.491269197600646"><ele>117.0</ele><time>2026-04-04T09:12:07.999Z</time></trkpt><trkpt lat="45.31700469145128" lon="8.491470412027796"><ele>117.0</ele><time>2026-04-04T09:12:08.999Z</time></trkpt><trkpt lat="45.316931788225176" lon="8.491653069148544"><ele>117.0</ele><time>2026-04-04T09:12:09.999Z</time></trkpt><trkpt lat="45.31685534797044" lon="8.491844587704895"><ele>117.0</ele><time>2026-04-04T09:12:10.999Z</time></trkpt><trkpt lat="45.3167739360581" lon="8.492048562800601"><ele>117.0</ele><time>2026-04-04T09:12:11.999Z</time></trkpt><trkpt lat="45.31668918900905" lon="8.49226056218668"><ele>117.0</ele><time>2026-04-04T09:12:12.999Z</time></trkpt><trkpt lat="45.31660116604419" lon="8.492479744166433"><ele>117.0</ele><time>2026-04-04T09:12:13.999Z</time></trkpt><trkpt lat="45.316520849859536" lon="8.492680186637811"><ele>117.0</ele><time>2026-04-04T09:12:14.999Z</time></trkpt><trkpt lat="45.31644492511059" lon="8.492869669300617"><ele>117.0</ele><time>2026-04-04T09:12:15.999Z</time></trkpt><trkpt lat="45.31637353090329" lon="8.493047845436516"><ele>117.0</ele><time>2026-04-04T09:12:16.999Z</time></trkpt><trkpt lat="45.31630444993245" lon="8.49322024851951"><ele>117.0</ele><time>2026-04-04T09:12:17.999Z</time></trkpt><trkpt lat="45.316232912586564" lon="8.49339878183834"><ele>116.66666666666666</ele><time>2026-04-04T09:12:18.999Z</time></trkpt><trkpt lat="45.31615832733223" lon="8.493584921892435"><ele>116.33333333333333</ele><time>2026-04-04T09:12:19.999Z</time></trkpt><trkpt lat="45.31608264909587" lon="8.493773787774979"><ele>116.0</ele><time>2026-04-04T09:12:20.999Z</time></trkpt><trkpt lat="45.316009503478405" lon="8.493955638248215"><ele>116.0</ele><time>2026-04-04T09:12:21.999Z</time></trkpt><trkpt lat="45.3159390287038" lon="8.494130848615164"><ele>116.0</ele><time>2026-04-04T09:12:22.999Z</time></trkpt><trkpt lat="45.31586686061516" lon="8.49431026878343"><ele>116.0</ele><time>2026-04-04T09:12:23.999Z</time></trkpt><trkpt lat="45.31579552916212" lon="8.494487608883313"><ele>116.0</ele><time>2026-04-04T09:12:24.999Z</time></trkpt><trkpt lat="45.3157326209616" lon="8.494644007727365"><ele>116.25</ele><time>2026-04-04T09:12:25.999Z</time></trkpt><trkpt lat="45.31567267882061" lon="8.494793031182716"><ele>116.5</ele><time>2026-04-04T09:12:26.999Z</time></trkpt><trkpt lat="45.31561241626288" lon="8.494943491150885"><ele>116.75</ele><time>2026-04-04T09:12:27.999Z</time></trkpt><trkpt lat="45.315551897908996" lon="8.495094690531074"><ele>117.0</ele><time>2026-04-04T09:12:28.999Z</time></trkpt><trkpt lat="45.31548973712528" lon="8.495250392029341"><ele>117.25</ele><time>2026-04-04T09:12:29.999Z</time></trkpt><trkpt lat="45.315444678541404" lon="8.495428556254472"><ele>117.5</ele><time>2026-04-04T09:12:30.999Z</time></trkpt><trkpt lat="45.31537607004945" lon="8.495597559717824"><ele>117.75</ele><time>2026-04-04T09:12:31.999Z</time></trkpt><trkpt lat="45.31530347291771" lon="8.49577708186144"><ele>118.0</ele><time>2026-04-04T09:12:32.999Z</time></trkpt><trkpt lat="45.315226021530556" lon="8.495969767500592"><ele>118.0</ele><time>2026-04-04T09:12:33.999Z</time></trkpt><trkpt lat="45.31512638555576" lon="8.496157671904763"><ele>118.0</ele><time>2026-04-04T09:12:34.999Z</time></trkpt><trkpt lat="45.31504177777865" lon="8.496369104537989"><ele>118.0</ele><time>2026-04-04T09:12:35.999Z</time></trkpt><trkpt lat="45.31495335395916" lon="8.496590073394701"><ele>118.0</ele><time>2026-04-04T09:12:36.999Z</time></trkpt><trkpt lat="45.31486810398986" lon="8.496803110879656"><ele>118.0</ele><time>2026-04-04T09:12:37.999Z</time></trkpt><trkpt lat="45.314787966253625" lon="8.497002091446543"><ele>118.0</ele><time>2026-04-04T09:12:38.999Z</time></trkpt><trkpt lat="45.31470461529587" lon="8.497208911392628"><ele>117.33333333333334</ele><time>2026-04-04T09:12:39.999Z</time></trkpt><trkpt lat="45.31462010168752" lon="8.497418616232892"><ele>116.66666666666666</ele><time>2026-04-04T09:12:40.999Z</time></trkpt><trkpt lat="45.31453554443541" lon="8.497628429406696"><ele>116.0</ele><time>2026-04-04T09:12:41.999Z</time></trkpt><trkpt lat="45.314448661416534" lon="8.497844489973353"><ele>115.66666666666666</ele><time>2026-04-04T09:12:42.999Z</time></trkpt><trkpt lat="45.31436087776465" lon="8.498063518671168"><ele>115.33333333333334</ele><time>2026-04-04T09:12:43.999Z</time></trkpt><trkpt lat="45.31427044210289" lon="8.498289164412167"><ele>115.0</ele><time>2026-04-04T09:12:44.999Z</time></trkpt><trkpt lat="45.31417751810124" lon="8.498521018700817"><ele>115.0</ele><time>2026-04-04T09:12:45.999Z</time></trkpt><trkpt lat="45.314084761863725" lon="8.498752454515849"><ele>115.0</ele><time>2026-04-04T09:12:46.999Z</time></trkpt><trkpt lat="45.31399635970289" lon="8.49897302648088"><ele>115.0</ele><time>2026-04-04T09:12:47.999Z</time></trkpt><trkpt lat="45.3139098264162" lon="8.499188935380593"><ele>115.33333333333334</ele><time>2026-04-04T09:12:48.999Z</time></trkpt><trkpt lat="45.31382296502979" lon="8.499405662894103"><ele>115.66666666666666</ele><time>2026-04-04T09:12:49.999Z</time></trkpt><trkpt lat="45.3137335474122" lon="8.499628768441767"><ele>116.0</ele><time>2026-04-04T09:12:50.999Z</time></trkpt><trkpt lat="45.313641284459095" lon="8.499858973478512"><ele>116.0</ele><time>2026-04-04T09:12:51.999Z</time></trkpt><trkpt lat="45.313553848365764" lon="8.500077135062327"><ele>116.0</ele><time>2026-04-04T09:12:52.999Z</time></trkpt><trkpt lat="45.31346934891645" lon="8.500288281574681"><ele>116.0</ele><time>2026-04-04T09:12:53.999Z</time></trkpt><trkpt lat="45.31337986080442" lon="8.500512289097339"><ele>116.0</ele><time>2026-04-04T09:12:54.999Z</time></trkpt><trkpt lat="45.31328709159678" lon="8.500744563201598"><ele>116.0</ele><time>2026-04-04T09:12:55.999Z</time></trkpt><trkpt lat="45.313194284725334" lon="8.500976931673573"><ele>116.0</ele><time>2026-04-04T09:12:56.999Z</time></trkpt><trkpt lat="45.31310163122421" lon="8.501208916140282"><ele>116.0</ele><time>2026-04-04T09:12:57.999Z</time></trkpt><trkpt lat="45.31301378448448" lon="8.50142886535943"><ele>116.0</ele><time>2026-04-04T09:12:58.999Z</time></trkpt><trkpt lat="45.31292465164644" lon="8.501652035205872"><ele>116.0</ele><time>2026-04-04T09:12:59.999Z</time></trkpt><trkpt lat="45.31283240866039" lon="8.501882992004804"><ele>116.33333333333333</ele><time>2026-04-04T09:13:00.999Z</time></trkpt><trkpt lat="45.3127402687977" lon="8.502113690500796"><ele>116.66666666666666</ele><time>2026-04-04T09:13:01.999Z</time></trkpt><trkpt lat="45.31264646955605" lon="8.502348543850054"><ele>117.0</ele><time>2026-04-04T09:13:02.999Z</time></trkpt><trkpt lat="45.31255579271668" lon="8.502575579106345"><ele>117.0</ele><time>2026-04-04T09:13:03.999Z</time></trkpt><trkpt lat="45.31248102752115" lon="8.50280914500757"><ele>117.0</ele><time>2026-04-04T09:13:04.999Z</time></trkpt><trkpt lat="45.31238989068342" lon="8.503033402513937"><ele>117.0</ele><time>2026-04-04T09:13:05.999Z</time></trkpt><trkpt lat="45.31230447651238" lon="8.503242366399174"><ele>116.33333333333334</ele><time>2026-04-04T09:13:06.999Z</time></trkpt><trkpt lat="45.31222271558085" lon="8.503441657303473"><ele>115.66666666666667</ele><time>2026-04-04T09:13:07.999Z</time></trkpt><trkpt lat="45.312145123197816" lon="8.503630730200987"><ele>115.0</ele><time>2026-04-04T09:13:08.999Z</time></trkpt><trkpt lat="45.31207295039512" lon="8.503822223408218"><ele>114.66666666666667</ele><time>2026-04-04T09:13:09.999Z</time></trkpt><trkpt lat="45.31198057147928" lon="8.504010214117429"><ele>114.33333333333334</ele><time>2026-04-04T09:13:10.999Z</time></trkpt><trkpt lat="45.31189739326688" lon="8.504217209718858"><ele>114.0</ele><time>2026-04-04T09:13:11.999Z</time></trkpt><trkpt lat="45.31182446892228" lon="8.504444420025425"><ele>114.33333333333334</ele><time>2026-04-04T09:13:12.999Z</time></trkpt><trkpt lat="45.31173630603408" lon="8.504664936038798"><ele>114.66666666666667</ele><time>2026-04-04T09:13:13.999Z</time></trkpt><trkpt lat="45.31162996753103" lon="8.50488272004146"><ele>115.0</ele><time>2026-04-04T09:13:14.999Z</time></trkpt><trkpt lat="45.31153658043114" lon="8.505115121301348"><ele>115.0</ele><time>2026-04-04T09:13:15.999Z</time></trkpt><trkpt lat="45.311445565467565" lon="8.505341619271197"><ele>115.0</ele><time>2026-04-04T09:13:16.999Z</time></trkpt><trkpt lat="45.31135994863673" lon="8.505554683551948"><ele>115.0</ele><time>2026-04-04T09:13:17.999Z</time></trkpt><trkpt lat="45.311272713109794" lon="8.505771776204078"><ele>115.0</ele><time>2026-04-04T09:13:18.999Z</time></trkpt><trkpt lat="45.31118489084465" lon="8.505990328922076"><ele>115.0</ele><time>2026-04-04T09:13:19.998Z</time></trkpt><trkpt lat="45.311097500121484" lon="8.506207807619903"><ele>115.0</ele><time>2026-04-04T09:13:20.998Z</time></trkpt><trkpt lat="45.31100860818947" lon="8.506429022388415"><ele>115.0</ele><time>2026-04-04T09:13:21.998Z</time></trkpt><trkpt lat="45.31091504180101" lon="8.506661869831158"><ele>115.0</ele><time>2026-04-04T09:13:22.998Z</time></trkpt><trkpt lat="45.31082156940462" lon="8.506894483386766"><ele>115.0</ele><time>2026-04-04T09:13:23.998Z</time></trkpt><trkpt lat="45.31073442192415" lon="8.50711135686759"><ele>115.0</ele><time>2026-04-04T09:13:24.998Z</time></trkpt><trkpt lat="45.3106443250407" lon="8.507335570068534"><ele>115.0</ele><time>2026-04-04T09:13:25.998Z</time></trkpt><trkpt lat="45.31055316306296" lon="8.50756243395126"><ele>115.0</ele><time>2026-04-04T09:13:26.998Z</time></trkpt><trkpt lat="45.31046182778329" lon="8.507789729100237"><ele>114.33333333333334</ele><time>2026-04-04T09:13:27.998Z</time></trkpt><trkpt lat="45.31037321399832" lon="8.50801025155559"><ele>113.66666666666666</ele><time>2026-04-04T09:13:28.998Z</time></trkpt><trkpt lat="45.310287669983026" lon="8.508223134686594"><ele>113.0</ele><time>2026-04-04T09:13:29.998Z</time></trkpt><trkpt lat="45.3102092882938" lon="8.508418193710654"><ele>113.0</ele><time>2026-04-04T09:13:30.998Z</time></trkpt><trkpt lat="45.310132125029185" lon="8.508610220685375"><ele>113.0</ele><time>2026-04-04T09:13:31.998Z</time></trkpt><trkpt lat="45.31005825644049" lon="8.508794048574643"><ele>113.0</ele><time>2026-04-04T09:13:32.998Z</time></trkpt><trkpt lat="45.309984076403026" lon="8.508978651561078"><ele>113.33333333333333</ele><time>2026-04-04T09:13:33.998Z</time></trkpt><trkpt lat="45.309907666689185" lon="8.509168724087061"><ele>113.66666666666666</ele><time>2026-04-04T09:13:34.998Z</time></trkpt><trkpt lat="45.3098308955813" lon="8.509360044933237"><ele>114.0</ele><time>2026-04-04T09:13:35.998Z</time></trkpt><trkpt lat="45.30975221548885" lon="8.509556370482905"><ele>114.0</ele><time>2026-04-04T09:13:36.998Z</time></trkpt><trkpt lat="45.309668818542654" lon="8.509761135973418"><ele>114.0</ele><time>2026-04-04T09:13:37.998Z</time></trkpt><trkpt lat="45.309583420497916" lon="8.50997390213048"><ele>114.0</ele><time>2026-04-04T09:13:38.998Z</time></trkpt><trkpt lat="45.30949465640011" lon="8.510195067479788"><ele>113.33333333333334</ele><time>2026-04-04T09:13:39.998Z</time></trkpt><trkpt lat="45.309404746777176" lon="8.510419560657876"><ele>112.66666666666667</ele><time>2026-04-04T09:13:40.998Z</time></trkpt><trkpt lat="45.30931188394665" lon="8.510651427615137"><ele>112.0</ele><time>2026-04-04T09:13:41.998Z</time></trkpt><trkpt lat="45.309221078643645" lon="8.510878157149019"><ele>112.0</ele><time>2026-04-04T09:13:42.998Z</time></trkpt><trkpt lat="45.30912721285404" lon="8.511112528313339"><ele>112.0</ele><time>2026-04-04T09:13:43.998Z</time></trkpt><trkpt lat="45.30903640836701" lon="8.511338366587504"><ele>112.0</ele><time>2026-04-04T09:13:44.998Z</time></trkpt><trkpt lat="45.308950252843616" lon="8.511552207678326"><ele>112.66666666666667</ele><time>2026-04-04T09:13:45.998Z</time></trkpt><trkpt lat="45.3088618977784" lon="8.511769722441786"><ele>113.33333333333334</ele><time>2026-04-04T09:13:46.998Z</time></trkpt><trkpt lat="45.30877399974063" lon="8.511990466400936"><ele>114.0</ele><time>2026-04-04T09:13:47.998Z</time></trkpt><trkpt lat="45.30868486380662" lon="8.512214426005903"><ele>114.0</ele><time>2026-04-04T09:13:48.998Z</time></trkpt><trkpt lat="45.30859162299283" lon="8.51244560868443"><ele>114.0</ele><time>2026-04-04T09:13:49.998Z</time></trkpt><trkpt lat="45.30850070101403" lon="8.512671042079226"><ele>114.0</ele><time>2026-04-04T09:13:51Z</time></trkpt><trkpt lat="45.308409828347976" lon="8.512896353146141"><ele>114.33333333333334</ele><time>2026-04-04T09:13:52Z</time></trkpt><trkpt lat="45.30831690489214" lon="8.513126749022142"><ele>114.66666666666667</ele><time>2026-04-04T09:13:53Z</time></trkpt><trkpt lat="45.308224452413484" lon="8.513355977090525"><ele>115.0</ele><time>2026-04-04T09:13:54Z</time></trkpt><trkpt lat="45.30813140596783" lon="8.513586906835966"><ele>114.66666666666667</ele><time>2026-04-04T09:13:55Z</time></trkpt><trkpt lat="45.30803841221252" lon="8.51381775587161"><ele>114.33333333333334</ele><time>2026-04-04T09:13:56Z</time></trkpt><trkpt lat="45.307946992524684" lon="8.514044697312805"><ele>114.0</ele><time>2026-04-04T09:13:57Z</time></trkpt><trkpt lat="45.307858145900944" lon="8.514265251413129"><ele>114.0</ele><time>2026-04-04T09:13:58Z</time></trkpt><trkpt lat="45.30776779473302" lon="8.514489821048954"><ele>114.0</ele><time>2026-04-04T09:13:59Z</time></trkpt><trkpt lat="45.307676139494326" lon="8.514718003411033"><ele>114.0</ele><time>2026-04-04T09:14:00Z</time></trkpt><trkpt lat="45.30758337366047" lon="8.5149489506724"><ele>114.0</ele><time>2026-04-04T09:14:01Z</time></trkpt><trkpt lat="45.307490138742544" lon="8.515181065759446"><ele>114.0</ele><time>2026-04-04T09:14:02Z</time></trkpt><trkpt lat="45.3073967226235" lon="8.515413631963142"><ele>114.0</ele><time>2026-04-04T09:14:03Z</time></trkpt><trkpt lat="45.30730457167805" lon="8.515643048439282"><ele>114.0</ele><time>2026-04-04T09:14:04Z</time></trkpt><trkpt lat="45.307212734391996" lon="8.515871684017934"><ele>114.0</ele><time>2026-04-04T09:14:05Z</time></trkpt><trkpt lat="45.30711987105086" lon="8.516102874027917"><ele>114.0</ele><time>2026-04-04T09:14:06Z</time></trkpt><trkpt lat="45.3070328292276" lon="8.516319570979904"><ele>114.0</ele><time>2026-04-04T09:14:07Z</time></trkpt><trkpt lat="45.30694284364227" lon="8.516543596595675"><ele>114.0</ele><time>2026-04-04T09:14:07.999Z</time></trkpt><trkpt lat="45.306849779098144" lon="8.516775287496305"><ele>114.0</ele><time>2026-04-04T09:14:08.999Z</time></trkpt><trkpt lat="45.306756853087705" lon="8.517006633573805"><ele>114.33333333333334</ele><time>2026-04-04T09:14:09.999Z</time></trkpt><trkpt lat="45.30666438535957" lon="8.517236838616917"><ele>114.66666666666667</ele><time>2026-04-04T09:14:10.999Z</time></trkpt><trkpt lat="45.30657136648896" lon="8.517468415908944"><ele>115.0</ele><time>2026-04-04T09:14:11.999Z</time></trkpt><trkpt lat="45.306477733445824" lon="8.517701522144826"><ele>114.66666666666667</ele><time>2026-04-04T09:14:12.999Z</time></trkpt><trkpt lat="45.30638639749343" lon="8.517928909582041"><ele>114.33333333333334</ele><time>2026-04-04T09:14:13.999Z</time></trkpt><trkpt lat="45.306293099367615" lon="8.51816118208698"><ele>114.0</ele><time>2026-04-04T09:14:14.999Z</time></trkpt><trkpt lat="45.306201192888004" lon="8.518389989918655"><ele>114.0</ele><time>2026-04-04T09:14:15.999Z</time></trkpt><trkpt lat="45.306108031148156" lon="8.51862192283652"><ele>114.0</ele><time>2026-04-04T09:14:16.999Z</time></trkpt><trkpt lat="45.306015768765064" lon="8.518851616806993"><ele>114.0</ele><time>2026-04-04T09:14:17.999Z</time></trkpt><trkpt lat="45.305923804097816" lon="8.519080569382169"><ele>114.33333333333334</ele><time>2026-04-04T09:14:18.999Z</time></trkpt><trkpt lat="45.30583653353496" lon="8.51929783579221"><ele>114.66666666666667</ele><time>2026-04-04T09:14:19.999Z</time></trkpt><trkpt lat="45.305745658303806" lon="8.519523725819417"><ele>115.0</ele><time>2026-04-04T09:14:20.999Z</time></trkpt><trkpt lat="45.30565315836779" lon="8.519753248097452"><ele>115.0</ele><time>2026-04-04T09:14:21.999Z</time></trkpt><trkpt lat="45.305559300326856" lon="8.51998614016426"><ele>115.0</ele><time>2026-04-04T09:14:22.999Z</time></trkpt><trkpt lat="45.30546846790412" lon="8.520211524809836"><ele>115.0</ele><time>2026-04-04T09:14:23.999Z</time></trkpt><trkpt lat="45.305376542803074" lon="8.520439620588725"><ele>115.0</ele><time>2026-04-04T09:14:24.999Z</time></trkpt><trkpt lat="45.30528465242708" lon="8.520667630196696"><ele>115.0</ele><time>2026-04-04T09:14:25.999Z</time></trkpt><trkpt lat="45.30519874388502" lon="8.520880797118947"><ele>115.0</ele><time>2026-04-04T09:14:26.999Z</time></trkpt><trkpt lat="45.3051095975478" lon="8.521101997905888"><ele>114.66666666666667</ele><time>2026-04-04T09:14:27.999Z</time></trkpt><trkpt lat="45.3050176337193" lon="8.521329365206242"><ele>114.33333333333334</ele><time>2026-04-04T09:14:28.999Z</time></trkpt><trkpt lat="45.30492351018751" lon="8.521562083330622"><ele>114.0</ele><time>2026-04-04T09:14:29.999Z</time></trkpt><trkpt lat="45.3048307265786" lon="8.521791488534381"><ele>113.66666666666666</ele><time>2026-04-04T09:14:30.999Z</time></trkpt><trkpt lat="45.304743832097564" lon="8.522007982824215"><ele>113.33333333333333</ele><time>2026-04-04T09:14:31.999Z</time></trkpt><trkpt lat="45.304655618946924" lon="8.522229051505622"><ele>113.0</ele><time>2026-04-04T09:14:32.999Z</time></trkpt><trkpt lat="45.30456524915892" lon="8.52245552493351"><ele>112.66666666666666</ele><time>2026-04-04T09:14:33.999Z</time></trkpt><trkpt lat="45.3044738723284" lon="8.52268427694092"><ele>112.33333333333334</ele><time>2026-04-04T09:14:34.999Z</time></trkpt><trkpt lat="45.304383290604406" lon="8.522911005090132"><ele>112.0</ele><time>2026-04-04T09:14:35.999Z</time></trkpt><trkpt lat="45.30429700114218" lon="8.523127023515919"><ele>113.0</ele><time>2026-04-04T09:14:36.999Z</time></trkpt><trkpt lat="45.3042142376901" lon="8.523334490280325"><ele>114.0</ele><time>2026-04-04T09:14:37.999Z</time></trkpt><trkpt lat="45.3041315231949" lon="8.523541834301193"><ele>115.0</ele><time>2026-04-04T09:14:38.999Z</time></trkpt><trkpt lat="45.30404733692327" lon="8.523752607514718"><ele>115.33333333333334</ele><time>2026-04-04T09:14:39.999Z</time></trkpt><trkpt lat="45.30396425008568" lon="8.523960462532804"><ele>115.66666666666666</ele><time>2026-04-04T09:14:40.999Z</time></trkpt><trkpt lat="45.303883033567644" lon="8.524163638608824"><ele>116.0</ele><time>2026-04-04T09:14:41.999Z</time></trkpt><trkpt lat="45.30380202190447" lon="8.52436630224227"><ele>117.66666666666666</ele><time>2026-04-04T09:14:42.999Z</time></trkpt><trkpt lat="45.303720721154185" lon="8.524569689053594"><ele>119.33333333333334</ele><time>2026-04-04T09:14:43.999Z</time></trkpt><trkpt lat="45.30364018255767" lon="8.52477116922417"><ele>121.0</ele><time>2026-04-04T09:14:44.999Z</time></trkpt><trkpt lat="45.3035610500685" lon="8.524968185430653"><ele>121.0</ele><time>2026-04-04T09:14:45.999Z</time></trkpt><trkpt lat="45.30348228866372" lon="8.525163876121928"><ele>121.0</ele><time>2026-04-04T09:14:46.999Z</time></trkpt><trkpt lat="45.30340405386506" lon="8.525358258420118"><ele>121.0</ele><time>2026-04-04T09:14:47.999Z</time></trkpt><trkpt lat="45.30332244141048" lon="8.525562186737213"><ele>120.66666666666667</ele><time>2026-04-04T09:14:48.999Z</time></trkpt><trkpt lat="45.3032386646913" lon="8.5257716577046"><ele>120.33333333333334</ele><time>2026-04-04T09:14:49.999Z</time></trkpt><trkpt lat="45.30315640172899" lon="8.525977343391643"><ele>120.0</ele><time>2026-04-04T09:14:50.999Z</time></trkpt><trkpt lat="45.30307403228584" lon="8.526183302448576"><ele>120.0</ele><time>2026-04-04T09:14:51.999Z</time></trkpt><trkpt lat="45.302995268907935" lon="8.526391224148282"><ele>120.0</ele><time>2026-04-04T09:14:52.999Z</time></trkpt><trkpt lat="45.30291595355439" lon="8.526601412234024"><ele>120.0</ele><time>2026-04-04T09:14:53.999Z</time></trkpt><trkpt lat="45.30283735421105" lon="8.526819615492455"><ele>120.0</ele><time>2026-04-04T09:14:54.999Z</time></trkpt><trkpt lat="45.30277200852875" lon="8.527039523764087"><ele>120.0</ele><time>2026-04-04T09:14:55.999Z</time></trkpt><trkpt lat="45.30272299831347" lon="8.527260503924053"><ele>120.0</ele><time>2026-04-04T09:14:56.999Z</time></trkpt><trkpt lat="45.302690418497434" lon="8.527497985109164"><ele>120.0</ele><time>2026-04-04T09:14:57.999Z</time></trkpt><trkpt lat="45.30262979501132" lon="8.527729607621115"><ele>120.0</ele><time>2026-04-04T09:14:58.999Z</time></trkpt><trkpt lat="45.30258741858174" lon="8.527958874678651"><ele>120.0</ele><time>2026-04-04T09:14:59.999Z</time></trkpt><trkpt lat="45.30254606291531" lon="8.528172364135484"><ele>120.0</ele><time>2026-04-04T09:15:00.999Z</time></trkpt><trkpt lat="45.30250505528336" lon="8.528371160928344"><ele>120.0</ele><time>2026-04-04T09:15:01.999Z</time></trkpt><trkpt lat="45.302466326294386" lon="8.528578219098618"><ele>120.0</ele><time>2026-04-04T09:15:02.999Z</time></trkpt><trkpt lat="45.30242405761108" lon="8.528788605039527"><ele>120.0</ele><time>2026-04-04T09:15:03.999Z</time></trkpt><trkpt lat="45.302383790957975" lon="8.52899003339361"><ele>120.0</ele><time>2026-04-04T09:15:04.999Z</time></trkpt><trkpt lat="45.30234594209795" lon="8.529190433337856"><ele>120.0</ele><time>2026-04-04T09:15:05.999Z</time></trkpt><trkpt lat="45.30231144550943" lon="8.529385094216318"><ele>120.0</ele><time>2026-04-04T09:15:06.999Z</time></trkpt><trkpt lat="45.30228212418087" lon="8.52958018251092"><ele>120.0</ele><time>2026-04-04T09:15:07.999Z</time></trkpt><trkpt lat="45.302251014047926" lon="8.52978430619461"><ele>120.0</ele><time>2026-04-04T09:15:08.999Z</time></trkpt><trkpt lat="45.30221984469828" lon="8.52998353990799"><ele>120.0</ele><time>2026-04-04T09:15:09.999Z</time></trkpt><trkpt lat="45.30219409973114" lon="8.530179559793922"><ele>120.0</ele><time>2026-04-04T09:15:10.999Z</time></trkpt><trkpt lat="45.30216894445634" lon="8.530368000234814"><ele>120.25</ele><time>2026-04-04T09:15:11.999Z</time></trkpt><trkpt lat="45.30214403038248" lon="8.530549289598161"><ele>120.5</ele><time>2026-04-04T09:15:12.999Z</time></trkpt><trkpt lat="45.302117805144526" lon="8.530725035472804"><ele>120.75</ele><time>2026-04-04T09:15:13.999Z</time></trkpt><trkpt lat="45.30209108250588" lon="8.530892007789578"><ele>121.0</ele><time>2026-04-04T09:15:14.999Z</time></trkpt><trkpt lat="45.302062644855766" lon="8.531043771363276"><ele>121.0</ele><time>2026-04-04T09:15:15.999Z</time></trkpt><trkpt lat="45.302034864325215" lon="8.5311834745286"><ele>121.0</ele><time>2026-04-04T09:15:16.999Z</time></trkpt><trkpt lat="45.30201129449059" lon="8.531299481268059"><ele>121.0</ele><time>2026-04-04T09:15:17.999Z</time></trkpt><trkpt lat="45.301970905203625" lon="8.531400030666207"><ele>121.0</ele><time>2026-04-04T09:15:18.999Z</time></trkpt><trkpt lat="45.30193621354816" lon="8.531526444939255"><ele>121.0</ele><time>2026-04-04T09:15:19.999Z</time></trkpt><trkpt lat="45.301907864944205" lon="8.531678883652145"><ele>121.19999999999999</ele><time>2026-04-04T09:15:20.999Z</time></trkpt><trkpt lat="45.301860867451694" lon="8.531837235700614"><ele>121.39999999999999</ele><time>2026-04-04T09:15:21.999Z</time></trkpt><trkpt lat="45.301828143712186" lon="8.531967441659337"><ele>121.6</ele><time>2026-04-04T09:15:22.999Z</time></trkpt><trkpt lat="45.30180306441163" lon="8.532059782769736"><ele>121.8</ele><time>2026-04-04T09:15:23.999Z</time></trkpt><trkpt lat="45.3017729307471" lon="8.532150079859719"><ele>122.0</ele><time>2026-04-04T09:15:26.998Z</time></trkpt><trkpt lat="45.30170504062662" lon="8.532249447117506"><ele>122.0</ele><time>2026-04-04T09:16:33.999Z</time></trkpt><trkpt lat="45.301534978134804" lon="8.53231636639258"><ele>122.0</ele><time>2026-04-04T09:16:35.999Z</time></trkpt><trkpt lat="45.30142754327558" lon="8.532310415893717"><ele>122.0</ele><time>2026-04-04T09:16:36.999Z</time></trkpt><trkpt lat="45.30131477951832" lon="8.532308639909699"><ele>122.0</ele><time>2026-04-04T09:16:37.999Z</time></trkpt><trkpt lat="45.30119769560124" lon="8.532298952829635"><ele>122.0</ele><time>2026-04-04T09:16:38.999Z</time></trkpt><trkpt lat="45.30109310999999" lon="8.532265928292297"><ele>122.0</ele><time>2026-04-04T09:16:39.999Z</time></trkpt><trkpt lat="45.30097935486479" lon="8.532223419308938"><ele>122.0</ele><time>2026-04-04T09:16:40.999Z</time></trkpt><trkpt lat="45.30086100934941" lon="8.532182457582348"><ele>122.0</ele><time>2026-04-04T09:16:41.999Z</time></trkpt><trkpt lat="45.300754542870685" lon="8.532130515902006"><ele>122.0</ele><time>2026-04-04T09:16:42.999Z</time></trkpt><trkpt lat="45.3006474267881" lon="8.53209147895612"><ele>122.0</ele><time>2026-04-04T09:16:43.999Z</time></trkpt><trkpt lat="45.30052319448872" lon="8.532067941391974"><ele>122.0</ele><time>2026-04-04T09:16:44.999Z</time></trkpt><trkpt lat="45.30038488838015" lon="8.532062247865836"><ele>122.0</ele><time>2026-04-04T09:16:45.999Z</time></trkpt><trkpt lat="45.300242026112265" lon="8.532052627201972"><ele>121.8</ele><time>2026-04-04T09:16:46.999Z</time></trkpt><trkpt lat="45.30013405039198" lon="8.532042523567757"><ele>121.6</ele><time>2026-04-04T09:16:47.999Z</time></trkpt><trkpt lat="45.30003574434479" lon="8.53203223565288"><ele>121.39999999999999</ele><time>2026-04-04T09:16:48.999Z</time></trkpt><trkpt lat="45.299933850524475" lon="8.53202573019448"><ele>121.19999999999999</ele><time>2026-04-04T09:16:49.999Z</time></trkpt><trkpt lat="45.29982095514887" lon="8.532017353745497"><ele>121.0</ele><time>2026-04-04T09:16:50.999Z</time></trkpt><trkpt lat="45.29971599089207" lon="8.532010091659552"><ele>120.33333333333334</ele><time>2026-04-04T09:16:51.999Z</time></trkpt><trkpt lat="45.299614597762655" lon="8.532003856004001"><ele>119.66666666666667</ele><time>2026-04-04T09:16:52.999Z</time></trkpt><trkpt lat="45.29953077455551" lon="8.532004471015396"><ele>119.0</ele><time>2026-04-04T09:16:53.999Z</time></trkpt><trkpt lat="45.299437212101736" lon="8.532001407676521"><ele>118.33333333333334</ele><time>2026-04-04T09:16:54.999Z</time></trkpt><trkpt lat="45.29935333408306" lon="8.53200106477744"><ele>117.66666666666667</ele><time>2026-04-04T09:16:55.999Z</time></trkpt><trkpt lat="45.29927045775774" lon="8.53199286394367"><ele>117.0</ele><time>2026-04-04T09:16:56.999Z</time></trkpt><trkpt lat="45.29917388692061" lon="8.531995764759172"><ele>117.0</ele><time>2026-04-04T09:16:57.999Z</time></trkpt><trkpt lat="45.29907453855746" lon="8.532030169868776"><ele>116.99999999999999</ele><time>2026-04-04T09:16:58.999Z</time></trkpt><trkpt lat="45.29899023029782" lon="8.532080181506261"><ele>116.99999999999999</ele><time>2026-04-04T09:16:59.999Z</time></trkpt><trkpt lat="45.2989112054923" lon="8.532151071269219"><ele>117.0</ele><time>2026-04-04T09:17:00.999Z</time></trkpt><trkpt lat="45.29884601142378" lon="8.532240064780433"><ele>117.0</ele><time>2026-04-04T09:17:01.999Z</time></trkpt><trkpt lat="45.298800140410115" lon="8.532348340012852"><ele>117.33333333333333</ele><time>2026-04-04T09:17:02.999Z</time></trkpt><trkpt lat="45.298766038315854" lon="8.532459300829984"><ele>117.66666666666666</ele><time>2026-04-04T09:17:03.999Z</time></trkpt><trkpt lat="45.298751604990265" lon="8.532584539878151"><ele>118.0</ele><time>2026-04-04T09:17:04.999Z</time></trkpt><trkpt lat="45.2987465800011" lon="8.532703372141828"><ele>118.33333333333333</ele><time>2026-04-04T09:17:05.999Z</time></trkpt><trkpt lat="45.29873965729535" lon="8.532829654740617"><ele>118.66666666666666</ele><time>2026-04-04T09:17:06.999Z</time></trkpt><trkpt lat="45.29871845273422" lon="8.53294633773995"><ele>119.0</ele><time>2026-04-04T09:17:07.999Z</time></trkpt><trkpt lat="45.2987080041098" lon="8.533089876591475"><ele>119.2</ele><time>2026-04-04T09:17:08.999Z</time></trkpt><trkpt lat="45.29870490699863" lon="8.533223868605724"><ele>119.4</ele><time>2026-04-04T09:17:09.999Z</time></trkpt><trkpt lat="45.298705737042276" lon="8.533367622795508"><ele>119.6</ele><time>2026-04-04T09:17:10.999Z</time></trkpt><trkpt lat="45.298702782403026" lon="8.533507787083858"><ele>119.8</ele><time>2026-04-04T09:17:11.999Z</time></trkpt><trkpt lat="45.29869887541849" lon="8.533648067296673"><ele>120.0</ele><time>2026-04-04T09:17:12.999Z</time></trkpt><trkpt lat="45.29869403476196" lon="8.533793470913116"><ele>120.0</ele><time>2026-04-04T09:17:13.999Z</time></trkpt><trkpt lat="45.29867353246009" lon="8.533938778809558"><ele>120.0</ele><time>2026-04-04T09:17:14.999Z</time></trkpt><trkpt lat="45.29865305366264" lon="8.534100478614377"><ele>120.0</ele><time>2026-04-04T09:17:15.999Z</time></trkpt><trkpt lat="45.29863331424937" lon="8.534261334193447"><ele>120.0</ele><time>2026-04-04T09:17:16.999Z</time></trkpt><trkpt lat="45.29861333296965" lon="8.534416632556765"><ele>120.0</ele><time>2026-04-04T09:17:17.999Z</time></trkpt><trkpt lat="45.29859778560533" lon="8.534579233879953"><ele>120.0</ele><time>2026-04-04T09:17:18.999Z</time></trkpt><trkpt lat="45.298573646484975" lon="8.534762312144807"><ele>120.0</ele><time>2026-04-04T09:17:19.999Z</time></trkpt><trkpt lat="45.29855095057659" lon="8.534919145437808"><ele>120.0</ele><time>2026-04-04T09:17:20.999Z</time></trkpt><trkpt lat="45.29853711427226" lon="8.5350522944423"><ele>120.0</ele><time>2026-04-04T09:17:21.999Z</time></trkpt><trkpt lat="45.29852969011056" lon="8.535164479569076"><ele>120.0</ele><time>2026-04-04T09:17:22.999Z</time></trkpt><trkpt lat="45.2985198208467" lon="8.535309156174762"><ele>119.5</ele><time>2026-04-04T09:17:23.999Z</time></trkpt><trkpt lat="45.29848119575852" lon="8.535469031844025"><ele>119.0</ele><time>2026-04-04T09:17:24.999Z</time></trkpt><trkpt lat="45.298469771069996" lon="8.53565401866866"><ele>118.5</ele><time>2026-04-04T09:17:25.999Z</time></trkpt><trkpt lat="45.29846140719619" lon="8.535816783966883"><ele>118.0</ele><time>2026-04-04T09:17:26.999Z</time></trkpt><trkpt lat="45.29845656606257" lon="8.53594828935084"><ele>118.0</ele><time>2026-04-04T09:17:27.999Z</time></trkpt><trkpt lat="45.29845304378689" lon="8.536051342347415"><ele>118.00000000000001</ele><time>2026-04-04T09:17:28.999Z</time></trkpt><trkpt lat="45.29842714453031" lon="8.536199241098434"><ele>118.00000000000001</ele><time>2026-04-04T09:17:30.998Z</time></trkpt><trkpt lat="45.2984062717995" lon="8.536295977365372"><ele>118.0</ele><time>2026-04-04T09:17:31.998Z</time></trkpt><trkpt lat="45.29835779096155" lon="8.536400588710922"><ele>118.0</ele><time>2026-04-04T09:17:32.998Z</time></trkpt><trkpt lat="45.29829498791814" lon="8.536540247341764"><ele>118.16666666666667</ele><time>2026-04-04T09:17:33.998Z</time></trkpt><trkpt lat="45.29823982677899" lon="8.536656401229424"><ele>118.33333333333334</ele><time>2026-04-04T09:17:34.998Z</time></trkpt><trkpt lat="45.29818996958387" lon="8.536748256319104"><ele>118.5</ele><time>2026-04-04T09:17:35.998Z</time></trkpt><trkpt lat="45.298139536589176" lon="8.53685076820213"><ele>118.66666666666666</ele><time>2026-04-04T09:17:37.998Z</time></trkpt><trkpt lat="45.29807558161801" lon="8.536892332765799"><ele>118.83333333333333</ele><time>2026-04-04T09:17:41.998Z</time></trkpt><trkpt lat="45.29800923760333" lon="8.536941904283259"><ele>119.0</ele><time>2026-04-04T09:18:47.999Z</time></trkpt><trkpt lat="45.29788397508654" lon="8.536910795648696"><ele>118.0</ele><time>2026-04-04T09:18:49.999Z</time></trkpt><trkpt lat="45.29778445829104" lon="8.53684383129518"><ele>117.0</ele><time>2026-04-04T09:18:50.999Z</time></trkpt><trkpt lat="45.29770158910532" lon="8.536694091766487"><ele>116.0</ele><time>2026-04-04T09:18:51.999Z</time></trkpt><trkpt lat="45.29759319224218" lon="8.536589234339063"><ele>115.0</ele><time>2026-04-04T09:18:52.999Z</time></trkpt><trkpt lat="45.29746945808995" lon="8.536462050709396"><ele>115.0</ele><time>2026-04-04T09:18:53.999Z</time></trkpt><trkpt lat="45.2973441501389" lon="8.536329042459379"><ele>115.0</ele><time>2026-04-04T09:18:54.999Z</time></trkpt><trkpt lat="45.29722061863235" lon="8.536199491874967"><ele>115.0</ele><time>2026-04-04T09:18:55.999Z</time></trkpt><trkpt lat="45.29710745292023" lon="8.536084718276612"><ele>115.0</ele><time>2026-04-04T09:18:56.999Z</time></trkpt><trkpt lat="45.29700292012985" lon="8.535981153370734"><ele>114.6</ele><time>2026-04-04T09:18:57.999Z</time></trkpt><trkpt lat="45.29691031397017" lon="8.535901911080344"><ele>114.2</ele><time>2026-04-04T09:18:58.999Z</time></trkpt><trkpt lat="45.29682161236815" lon="8.535847147968928"><ele>113.80000000000001</ele><time>2026-04-04T09:18:59.999Z</time></trkpt><trkpt lat="45.29672190624854" lon="8.53580892705692"><ele>113.4</ele><time>2026-04-04T09:19:00.999Z</time></trkpt><trkpt lat="45.29658664396896" lon="8.535806111654976"><ele>113.0</ele><time>2026-04-04T09:19:01.999Z</time></trkpt><trkpt lat="45.296445241575235" lon="8.535881797050777"><ele>113.0</ele><time>2026-04-04T09:19:02.999Z</time></trkpt><trkpt lat="45.29631103162005" lon="8.536004854014427"><ele>113.0</ele><time>2026-04-04T09:19:03.999Z</time></trkpt><trkpt lat="45.296176240690485" lon="8.536163873669155"><ele>113.0</ele><time>2026-04-04T09:19:04.999Z</time></trkpt><trkpt lat="45.29603454732025" lon="8.536348132243292"><ele>112.33333333333333</ele><time>2026-04-04T09:19:05.999Z</time></trkpt><trkpt lat="45.29589520706603" lon="8.536549386430453"><ele>111.66666666666666</ele><time>2026-04-04T09:19:06.999Z</time></trkpt><trkpt lat="45.29577436224848" lon="8.536763592236833"><ele>111.0</ele><time>2026-04-04T09:19:07.999Z</time></trkpt><trkpt lat="45.295682725251964" lon="8.537022634749786"><ele>111.0</ele><time>2026-04-04T09:19:08.999Z</time></trkpt><trkpt lat="45.29561223665873" lon="8.53728370781534"><ele>111.0</ele><time>2026-04-04T09:19:09.999Z</time></trkpt><trkpt lat="45.295541917188004" lon="8.537558135497951"><ele>111.0</ele><time>2026-04-04T09:19:10.999Z</time></trkpt><trkpt lat="45.29546882533648" lon="8.537838578694036"><ele>111.66666666666666</ele><time>2026-04-04T09:19:11.999Z</time></trkpt><trkpt lat="45.29539019187721" lon="8.538099955821268"><ele>112.33333333333333</ele><time>2026-04-04T09:19:12.999Z</time></trkpt><trkpt lat="45.29532122449198" lon="8.538298680288268"><ele>113.0</ele><time>2026-04-04T09:19:13.999Z</time></trkpt><trkpt lat="45.29523558093343" lon="8.538460624355263"><ele>113.0</ele><time>2026-04-04T09:19:14.999Z</time></trkpt><trkpt lat="45.29513293485471" lon="8.538589104517651"><ele>113.0</ele><time>2026-04-04T09:19:15.999Z</time></trkpt><trkpt lat="45.295005633273554" lon="8.538675934059276"><ele>113.0</ele><time>2026-04-04T09:19:16.999Z</time></trkpt><trkpt lat="45.29486519526915" lon="8.538767111316051"><ele>113.0</ele><time>2026-04-04T09:19:17.999Z</time></trkpt><trkpt lat="45.29470999975943" lon="8.538856990334768"><ele>113.66666666666666</ele><time>2026-04-04T09:19:18.999Z</time></trkpt><trkpt lat="45.29453780951115" lon="8.538939239413075"><ele>114.33333333333334</ele><time>2026-04-04T09:19:19.999Z</time></trkpt><trkpt lat="45.294346875750314" lon="8.539019194823421"><ele>115.0</ele><time>2026-04-04T09:19:20.999Z</time></trkpt><trkpt lat="45.294152629731755" lon="8.539092399088094"><ele>115.0</ele><time>2026-04-04T09:19:21.999Z</time></trkpt><trkpt lat="45.29395184148603" lon="8.539166538173712"><ele>115.0</ele><time>2026-04-04T09:19:22.999Z</time></trkpt><trkpt lat="45.29375066399528" lon="8.539243036906974"><ele>115.0</ele><time>2026-04-04T09:19:23.999Z</time></trkpt><trkpt lat="45.29357714370924" lon="8.539292414280649"><ele>115.33333333333334</ele><time>2026-04-04T09:19:24.999Z</time></trkpt><trkpt lat="45.293411649537475" lon="8.539313514817263"><ele>115.66666666666666</ele><time>2026-04-04T09:19:25.999Z</time></trkpt><trkpt lat="45.293241413414236" lon="8.539293507802428"><ele>116.0</ele><time>2026-04-04T09:19:26.999Z</time></trkpt><trkpt lat="45.29305730971664" lon="8.539236850341979"><ele>115.0</ele><time>2026-04-04T09:19:27.999Z</time></trkpt><trkpt lat="45.2928655010322" lon="8.539167266626743"><ele>114.0</ele><time>2026-04-04T09:19:28.999Z</time></trkpt><trkpt lat="45.29267179658725" lon="8.539075201812496"><ele>113.0</ele><time>2026-04-04T09:19:29.999Z</time></trkpt><trkpt lat="45.292477817995454" lon="8.53896019672562"><ele>113.0</ele><time>2026-04-04T09:19:30.999Z</time></trkpt><trkpt lat="45.2922784871397" lon="8.538838718998115"><ele>113.0</ele><time>2026-04-04T09:19:31.999Z</time></trkpt><trkpt lat="45.29207077745845" lon="8.538732669663696"><ele>113.0</ele><time>2026-04-04T09:19:32.998Z</time></trkpt><trkpt lat="45.29186708135948" lon="8.538614047652938"><ele>112.66666666666666</ele><time>2026-04-04T09:19:33.998Z</time></trkpt><trkpt lat="45.29168948466305" lon="8.538487693474218"><ele>112.33333333333334</ele><time>2026-04-04T09:19:34.998Z</time></trkpt><trkpt lat="45.29151602703581" lon="8.53839138070536"><ele>112.0</ele><time>2026-04-04T09:19:35.998Z</time></trkpt><trkpt lat="45.29135896787707" lon="8.538311044370532"><ele>112.0</ele><time>2026-04-04T09:19:36.998Z</time></trkpt><trkpt lat="45.29120162181062" lon="8.538262846683208"><ele>112.0</ele><time>2026-04-04T09:19:37.998Z</time></trkpt><trkpt lat="45.2910224229168" lon="8.538251003481651"><ele>112.0</ele><time>2026-04-04T09:19:38.998Z</time></trkpt><trkpt lat="45.29083565003489" lon="8.538254756566241"><ele>112.0</ele><time>2026-04-04T09:19:39.998Z</time></trkpt><trkpt lat="45.29067536638446" lon="8.538261757244692"><ele>112.0</ele><time>2026-04-04T09:19:40.998Z</time></trkpt><trkpt lat="45.29052162413196" lon="8.53826940077634"><ele>112.0</ele><time>2026-04-04T09:19:41.998Z</time></trkpt><trkpt lat="45.29037550424499" lon="8.538276665348707"><ele>112.0</ele><time>2026-04-04T09:19:42.998Z</time></trkpt><trkpt lat="45.290259806668935" lon="8.53828061906736"><ele>111.99999999999999</ele><time>2026-04-04T09:19:43.998Z</time></trkpt><trkpt lat="45.29017104844041" lon="8.538283182910078"><ele>111.99999999999999</ele><time>2026-04-04T09:19:44.998Z</time></trkpt><trkpt lat="45.29007943294639" lon="8.53828582928745"><ele>112.0</ele><time>2026-04-04T09:19:45.998Z</time></trkpt><trkpt lat="45.289975399835036" lon="8.538288834355814"><ele>112.0</ele><time>2026-04-04T09:19:46.998Z</time></trkpt><trkpt lat="45.28985208486897" lon="8.538292396393953"><ele>112.75</ele><time>2026-04-04T09:19:47.998Z</time></trkpt><trkpt lat="45.289714716587746" lon="8.538296364372314"><ele>113.5</ele><time>2026-04-04T09:19:48.998Z</time></trkpt><trkpt lat="45.28956190027402" lon="8.53830077857754"><ele>114.25</ele><time>2026-04-04T09:19:49.998Z</time></trkpt><trkpt lat="45.28940356527915" lon="8.538305352193255"><ele>115.0</ele><time>2026-04-04T09:19:50.998Z</time></trkpt><trkpt lat="45.289250895592325" lon="8.53831706867133"><ele>115.0</ele><time>2026-04-04T09:19:51.998Z</time></trkpt><trkpt lat="45.289111213723196" lon="8.53834576016932"><ele>115.0</ele><time>2026-04-04T09:19:52.998Z</time></trkpt><trkpt lat="45.28896488097676" lon="8.538428171612509"><ele>115.0</ele><time>2026-04-04T09:19:53.998Z</time></trkpt><trkpt lat="45.2888205181282" lon="8.53854078542745"><ele>115.0</ele><time>2026-04-04T09:19:54.998Z</time></trkpt><trkpt lat="45.28866888095129" lon="8.538668072482034"><ele>115.0</ele><time>2026-04-04T09:19:55.998Z</time></trkpt><trkpt lat="45.288507171374874" lon="8.538801799128088"><ele>115.0</ele><time>2026-04-04T09:19:56.998Z</time></trkpt><trkpt lat="45.28833689353542" lon="8.538947158754697"><ele>115.0</ele><time>2026-04-04T09:19:57.998Z</time></trkpt><trkpt lat="45.28816920530323" lon="8.539099953475974"><ele>115.0</ele><time>2026-04-04T09:19:58.998Z</time></trkpt><trkpt lat="45.28800377227083" lon="8.539291109089284"><ele>115.0</ele><time>2026-04-04T09:19:59.998Z</time></trkpt><trkpt lat="45.287849084782394" lon="8.539497448710225"><ele>115.33333333333334</ele><time>2026-04-04T09:20:00.998Z</time></trkpt><trkpt lat="45.287704316599566" lon="8.539694995764032"><ele>115.66666666666666</ele><time>2026-04-04T09:20:01.998Z</time></trkpt><trkpt lat="45.28756535955307" lon="8.539883510955589"><ele>116.0</ele><time>2026-04-04T09:20:02.998Z</time></trkpt><trkpt lat="45.287419271871286" lon="8.540076714850027"><ele>116.0</ele><time>2026-04-04T09:20:03.998Z</time></trkpt><trkpt lat="45.28728079241801" lon="8.540226992607062"><ele>116.0</ele><time>2026-04-04T09:20:04.998Z</time></trkpt><trkpt lat="45.2871189980253" lon="8.54034064130204"><ele>116.0</ele><time>2026-04-04T09:20:05.998Z</time></trkpt><trkpt lat="45.286933387980284" lon="8.540413885107755"><ele>116.0</ele><time>2026-04-04T09:20:06.999Z</time></trkpt><trkpt lat="45.2867414593574" lon="8.54050264056469"><ele>116.0</ele><time>2026-04-04T09:20:07.999Z</time></trkpt><trkpt lat="45.286557873686334" lon="8.540648012429472"><ele>116.0</ele><time>2026-04-04T09:20:08.999Z</time></trkpt><trkpt lat="45.286395797906444" lon="8.540760129393862"><ele>116.0</ele><time>2026-04-04T09:20:09.999Z</time></trkpt><trkpt lat="45.286223445478605" lon="8.540806019587373"><ele>116.0</ele><time>2026-04-04T09:20:10.999Z</time></trkpt><trkpt lat="45.286029644761804" lon="8.540826791732538"><ele>116.0</ele><time>2026-04-04T09:20:11.999Z</time></trkpt><trkpt lat="45.28582738722764" lon="8.540846307220335"><ele>116.0</ele><time>2026-04-04T09:20:12.999Z</time></trkpt><trkpt lat="45.28561701537584" lon="8.540861632319455"><ele>116.0</ele><time>2026-04-04T09:20:13.999Z</time></trkpt><trkpt lat="45.285400734436905" lon="8.540874675565464"><ele>116.0</ele><time>2026-04-04T09:20:14.999Z</time></trkpt><trkpt lat="45.28517908746501" lon="8.54088599799028"><ele>115.5</ele><time>2026-04-04T09:20:15.999Z</time></trkpt><trkpt lat="45.28500124529206" lon="8.540892475057461"><ele>115.0</ele><time>2026-04-04T09:20:16.999Z</time></trkpt><trkpt lat="45.2848619966507" lon="8.540904519086782"><ele>114.5</ele><time>2026-04-04T09:20:17.999Z</time></trkpt><trkpt lat="45.284762988701935" lon="8.54092662414753"><ele>114.0</ele><time>2026-04-04T09:20:18.999Z</time></trkpt><trkpt lat="45.28469881563575" lon="8.540957293582457"><ele>114.6</ele><time>2026-04-04T09:20:19.999Z</time></trkpt><trkpt lat="45.28462458767223" lon="8.541093808849785"><ele>115.2</ele><time>2026-04-04T09:20:21.999Z</time></trkpt><trkpt lat="45.28458606849591" lon="8.541216592038603"><ele>115.79999999999998</ele><time>2026-04-04T09:20:22.999Z</time></trkpt><trkpt lat="45.28458353188279" lon="8.541385494085377"><ele>116.39999999999999</ele><time>2026-04-04T09:20:23.999Z</time></trkpt><trkpt lat="45.28456646950687" lon="8.54154394871389"><ele>117.0</ele><time>2026-04-04T09:20:24.999Z</time></trkpt><trkpt lat="45.284540010164406" lon="8.541647665610242"><ele>117.0</ele><time>2026-04-04T09:20:25.999Z</time></trkpt><trkpt lat="45.28446827782091" lon="8.541715169805029"><ele>117.0</ele><time>2026-04-04T09:20:26.999Z</time></trkpt><trkpt lat="45.28435772706371" lon="8.541767187078925"><ele>117.0</ele><time>2026-04-04T09:20:27.999Z</time></trkpt><trkpt lat="45.2842215258088" lon="8.541822628344184"><ele>117.0</ele><time>2026-04-04T09:20:28.999Z</time></trkpt><trkpt lat="45.28407074749085" lon="8.541869723050935"><ele>116.66666666666666</ele><time>2026-04-04T09:20:29.999Z</time></trkpt><trkpt lat="45.28389992059267" lon="8.541919142846176"><ele>116.33333333333333</ele><time>2026-04-04T09:20:30.999Z</time></trkpt><trkpt lat="45.28373537687318" lon="8.541961438279312"><ele>116.0</ele><time>2026-04-04T09:20:31.999Z</time></trkpt><trkpt lat="45.28355125820843" lon="8.542007763457667"><ele>115.66666666666666</ele><time>2026-04-04T09:20:32.999Z</time></trkpt><trkpt lat="45.28336455926294" lon="8.542056314130704"><ele>115.33333333333334</ele><time>2026-04-04T09:20:33.999Z</time></trkpt><trkpt lat="45.283172542078916" lon="8.542106163047624"><ele>115.0</ele><time>2026-04-04T09:20:34.999Z</time></trkpt><trkpt lat="45.28297526175751" lon="8.542156978614633"><ele>115.0</ele><time>2026-04-04T09:20:35.999Z</time></trkpt><trkpt lat="45.28277030307865" lon="8.542209772100598"><ele>115.0</ele><time>2026-04-04T09:20:36.999Z</time></trkpt><trkpt lat="45.28255908585683" lon="8.542263272043222"><ele>115.0</ele><time>2026-04-04T09:20:37.999Z</time></trkpt><trkpt lat="45.282345143047564" lon="8.542314865292749"><ele>115.0</ele><time>2026-04-04T09:20:38.999Z</time></trkpt><trkpt lat="45.282174626757275" lon="8.542355986042804"><ele>115.0</ele><time>2026-04-04T09:20:39.999Z</time></trkpt><trkpt lat="45.28203330226376" lon="8.542392873767898"><ele>115.0</ele><time>2026-04-04T09:20:40.999Z</time></trkpt><trkpt lat="45.281916103798594" lon="8.542446090509785"><ele>115.0</ele><time>2026-04-04T09:20:41.999Z</time></trkpt><trkpt lat="45.281827410342565" lon="8.542546755968724"><ele>115.0</ele><time>2026-04-04T09:20:42.999Z</time></trkpt><trkpt lat="45.2817907701558" lon="8.54270716507747"><ele>115.0</ele><time>2026-04-04T09:20:43.999Z</time></trkpt><trkpt lat="45.281801416142955" lon="8.542889564568718"><ele>115.0</ele><time>2026-04-04T09:20:44.999Z</time></trkpt><trkpt lat="45.28178366444029" lon="8.54308502094294"><ele>115.0</ele><time>2026-04-04T09:20:45.999Z</time></trkpt><trkpt lat="45.28175185780739" lon="8.543281133181097"><ele>115.0</ele><time>2026-04-04T09:20:46.999Z</time></trkpt><trkpt lat="45.281685193919834" lon="8.543462967261089"><ele>115.0</ele><time>2026-04-04T09:20:47.999Z</time></trkpt><trkpt lat="45.28158215254005" lon="8.543664505819502"><ele>115.0</ele><time>2026-04-04T09:20:48.999Z</time></trkpt><trkpt lat="45.281461440802055" lon="8.543905437447446"><ele>115.0</ele><time>2026-04-04T09:20:49.999Z</time></trkpt><trkpt lat="45.281331779412405" lon="8.544166242718294"><ele>115.0</ele><time>2026-04-04T09:20:50.999Z</time></trkpt><trkpt lat="45.281188987313435" lon="8.544438754608086"><ele>115.5</ele><time>2026-04-04T09:20:51.999Z</time></trkpt><trkpt lat="45.28103848590518" lon="8.544698356714983"><ele>116.0</ele><time>2026-04-04T09:20:52.999Z</time></trkpt><trkpt lat="45.28088167180779" lon="8.544952019670722"><ele>116.0</ele><time>2026-04-04T09:20:53.999Z</time></trkpt><trkpt lat="45.280741266798685" lon="8.545181849077874"><ele>116.0</ele><time>2026-04-04T09:20:54.999Z</time></trkpt><trkpt lat="45.28061111873121" lon="8.545404143617528"><ele>116.0</ele><time>2026-04-04T09:20:55.999Z</time></trkpt><trkpt lat="45.28049810345838" lon="8.54562657514315"><ele>115.66666666666666</ele><time>2026-04-04T09:20:56.999Z</time></trkpt><trkpt lat="45.28041314492758" lon="8.545872971625746"><ele>115.33333333333334</ele><time>2026-04-04T09:20:57.999Z</time></trkpt><trkpt lat="45.28033783913408" lon="8.546127543891574"><ele>115.0</ele><time>2026-04-04T09:20:58.999Z</time></trkpt><trkpt lat="45.28027300397192" lon="8.54633799974594"><ele>114.75</ele><time>2026-04-04T09:20:59.999Z</time></trkpt><trkpt lat="45.28019652445607" lon="8.546489177881528"><ele>114.5</ele><time>2026-04-04T09:21:00.999Z</time></trkpt><trkpt lat="45.28009295426845" lon="8.546605900908164"><ele>114.25</ele><time>2026-04-04T09:21:01.999Z</time></trkpt><trkpt lat="45.27995739549409" lon="8.546678138273865"><ele>114.0</ele><time>2026-04-04T09:21:02.999Z</time></trkpt><trkpt lat="45.279802329590545" lon="8.546760052281813"><ele>114.66666666666666</ele><time>2026-04-04T09:21:03.999Z</time></trkpt><trkpt lat="45.27963252468482" lon="8.546845072071903"><ele>115.33333333333333</ele><time>2026-04-04T09:21:04.999Z</time></trkpt><trkpt lat="45.27944824318599" lon="8.546930305624182"><ele>116.0</ele><time>2026-04-04T09:21:05.999Z</time></trkpt><trkpt lat="45.279246531925104" lon="8.547020738556155"><ele>115.33333333333333</ele><time>2026-04-04T09:21:06.999Z</time></trkpt><trkpt lat="45.279048351033694" lon="8.547109588711459"><ele>114.66666666666666</ele><time>2026-04-04T09:21:07.999Z</time></trkpt><trkpt lat="45.27884049961763" lon="8.547197788493099"><ele>114.0</ele><time>2026-04-04T09:21:08.999Z</time></trkpt><trkpt lat="45.278625084448535" lon="8.547288294531901"><ele>113.5</ele><time>2026-04-04T09:21:09.999Z</time></trkpt><trkpt lat="45.27840265785139" lon="8.547382753863484"><ele>113.0</ele><time>2026-04-04T09:21:10.999Z</time></trkpt><trkpt lat="45.27817816625219" lon="8.547476790751281"><ele>113.33333333333333</ele><time>2026-04-04T09:21:11.999Z</time></trkpt><trkpt lat="45.27797500118808" lon="8.547560048708116"><ele>113.66666666666666</ele><time>2026-04-04T09:21:12.999Z</time></trkpt><trkpt lat="45.27777266150804" lon="8.547641681363976"><ele>114.0</ele><time>2026-04-04T09:21:13.999Z</time></trkpt><trkpt lat="45.27756967200447" lon="8.547723568521508"><ele>114.0</ele><time>2026-04-04T09:21:14.999Z</time></trkpt><trkpt lat="45.2773663546547" lon="8.54780558791216"><ele>114.0</ele><time>2026-04-04T09:21:15.999Z</time></trkpt><trkpt lat="45.27716022813529" lon="8.547888740517646"><ele>114.0</ele><time>2026-04-04T09:21:16.999Z</time></trkpt><trkpt lat="45.276956447168814" lon="8.547970883838317"><ele>113.66666666666666</ele><time>2026-04-04T09:21:17.999Z</time></trkpt><trkpt lat="45.276764102681234" lon="8.548047558619501"><ele>113.33333333333333</ele><time>2026-04-04T09:21:18.999Z</time></trkpt><trkpt lat="45.276599085755144" lon="8.54811333976713"><ele>113.0</ele><time>2026-04-04T09:21:19.999Z</time></trkpt><trkpt lat="45.27642912156978" lon="8.548188153215554"><ele>112.0</ele><time>2026-04-04T09:21:20.999Z</time></trkpt><trkpt lat="45.27626371116867" lon="8.548309452839861"><ele>111.0</ele><time>2026-04-04T09:21:21.999Z</time></trkpt><trkpt lat="45.27611351970119" lon="8.548479153746964"><ele>110.0</ele><time>2026-04-04T09:21:22.999Z</time></trkpt><trkpt lat="45.27596409434884" lon="8.548653780008884"><ele>110.0</ele><time>2026-04-04T09:21:23.999Z</time></trkpt><trkpt lat="45.27581012753634" lon="8.548824853291812"><ele>110.0</ele><time>2026-04-04T09:21:24.999Z</time></trkpt><trkpt lat="45.27564773291731" lon="8.549003881275887"><ele>110.0</ele><time>2026-04-04T09:21:25.999Z</time></trkpt><trkpt lat="45.27547795457616" lon="8.549187107394697"><ele>110.0</ele><time>2026-04-04T09:21:26.999Z</time></trkpt><trkpt lat="45.27529730824938" lon="8.549357412068076"><ele>110.0</ele><time>2026-04-04T09:21:27.999Z</time></trkpt><trkpt lat="45.275098331908424" lon="8.549505277181934"><ele>110.0</ele><time>2026-04-04T09:21:28.999Z</time></trkpt><trkpt lat="45.27489148048283" lon="8.549639812507799"><ele>111.0</ele><time>2026-04-04T09:21:29.999Z</time></trkpt><trkpt lat="45.27468363165151" lon="8.549768168679105"><ele>112.0</ele><time>2026-04-04T09:21:30.999Z</time></trkpt><trkpt lat="45.27449008592414" lon="8.54987084646418"><ele>113.0</ele><time>2026-04-04T09:21:31.999Z</time></trkpt><trkpt lat="45.27428051433026" lon="8.549946192690468"><ele>113.0</ele><time>2026-04-04T09:21:32.999Z</time></trkpt><trkpt lat="45.27405986966711" lon="8.549984294521455"><ele>113.0</ele><time>2026-04-04T09:21:33.999Z</time></trkpt><trkpt lat="45.27383601101306" lon="8.549995422927259"><ele>113.0</ele><time>2026-04-04T09:21:34.999Z</time></trkpt><trkpt lat="45.273629590072865" lon="8.549988196164211"><ele>114.5</ele><time>2026-04-04T09:21:35.999Z</time></trkpt><trkpt lat="45.2734023014049" lon="8.549970966151191"><ele>116.0</ele><time>2026-04-04T09:21:36.999Z</time></trkpt><trkpt lat="45.27317594180361" lon="8.549955748975448"><ele>115.5</ele><time>2026-04-04T09:21:37.999Z</time></trkpt><trkpt lat="45.2729464349707" lon="8.54994961822647"><ele>115.0</ele><time>2026-04-04T09:21:38.999Z</time></trkpt><trkpt lat="45.27271658092651" lon="8.549943478202106"><ele>115.0</ele><time>2026-04-04T09:21:39.999Z</time></trkpt><trkpt lat="45.27249895257189" lon="8.549962930344025"><ele>115.0</ele><time>2026-04-04T09:21:40.998Z</time></trkpt><trkpt lat="45.272272247313936" lon="8.550025803721372"><ele>115.0</ele><time>2026-04-04T09:21:41.998Z</time></trkpt><trkpt lat="45.27204895119169" lon="8.550104841994933"><ele>114.33333333333334</ele><time>2026-04-04T09:21:42.998Z</time></trkpt><trkpt lat="45.27183776559882" lon="8.550153471684059"><ele>113.66666666666666</ele><time>2026-04-04T09:21:43.998Z</time></trkpt><trkpt lat="45.27165207908041" lon="8.55020329744974"><ele>113.0</ele><time>2026-04-04T09:21:44.998Z</time></trkpt><trkpt lat="45.27144971627294" lon="8.550305130804256"><ele>112.0</ele><time>2026-04-04T09:21:45.998Z</time></trkpt><trkpt lat="45.271257053521055" lon="8.550434231289062"><ele>111.0</ele><time>2026-04-04T09:21:46.998Z</time></trkpt><trkpt lat="45.27104834224119" lon="8.550526794307306"><ele>110.0</ele><time>2026-04-04T09:21:47.998Z</time></trkpt><trkpt lat="45.2708291247029" lon="8.55062727576241"><ele>111.0</ele><time>2026-04-04T09:21:48.998Z</time></trkpt><trkpt lat="45.27060392325505" lon="8.550729863510007"><ele>112.0</ele><time>2026-04-04T09:21:49.998Z</time></trkpt><trkpt lat="45.27038893070993" lon="8.55079930976403"><ele>112.0</ele><time>2026-04-04T09:21:50.998Z</time></trkpt><trkpt lat="45.27016820596604" lon="8.550829804511155"><ele>112.0</ele><time>2026-04-04T09:21:51.998Z</time></trkpt><trkpt lat="45.26994171144167" lon="8.550855654781781"><ele>112.0</ele><time>2026-04-04T09:21:52.998Z</time></trkpt><trkpt lat="45.26971012457177" lon="8.550886184570007"><ele>111.66666666666667</ele><time>2026-04-04T09:21:53.998Z</time></trkpt><trkpt lat="45.269502187034185" lon="8.550914188153723"><ele>111.33333333333334</ele><time>2026-04-04T09:21:54.998Z</time></trkpt><trkpt lat="45.26933317011852" lon="8.550936573414754"><ele>111.0</ele><time>2026-04-04T09:21:55.998Z</time></trkpt><trkpt lat="45.26917560876584" lon="8.550928648379223"><ele>111.0</ele><time>2026-04-04T09:21:56.998Z</time></trkpt><trkpt lat="45.269009399919895" lon="8.550847798825037"><ele>111.0</ele><time>2026-04-04T09:21:57.998Z</time></trkpt><trkpt lat="45.26883912351549" lon="8.550714796582369"><ele>111.0</ele><time>2026-04-04T09:21:58.998Z</time></trkpt><trkpt lat="45.268672586172436" lon="8.550562305145563"><ele>111.0</ele><time>2026-04-04T09:21:59.998Z</time></trkpt><trkpt lat="45.268504283695904" lon="8.550401847982167"><ele>111.0</ele><time>2026-04-04T09:22:00.998Z</time></trkpt><trkpt lat="45.268316614269295" lon="8.550255025677702"><ele>111.0</ele><time>2026-04-04T09:22:01.998Z</time></trkpt><trkpt lat="45.2681453203946" lon="8.550063673883814"><ele>111.0</ele><time>2026-04-04T09:22:02.998Z</time></trkpt><trkpt lat="45.26795877008451" lon="8.549888546681064"><ele>111.0</ele><time>2026-04-04T09:22:03.998Z</time></trkpt><trkpt lat="45.26780312463903" lon="8.54974280881513"><ele>111.0</ele><time>2026-04-04T09:22:04.998Z</time></trkpt><trkpt lat="45.26767903717986" lon="8.549629657674519"><ele>111.0</ele><time>2026-04-04T09:22:05.998Z</time></trkpt><trkpt lat="45.2675536529218" lon="8.549541713369578"><ele>111.0</ele><time>2026-04-04T09:22:06.998Z</time></trkpt><trkpt lat="45.267414261977144" lon="8.549500095136832"><ele>111.0</ele><time>2026-04-04T09:22:07.998Z</time></trkpt><trkpt lat="45.26725456390239" lon="8.54954411751826"><ele>111.0</ele><time>2026-04-04T09:22:08.998Z</time></trkpt><trkpt lat="45.26710425528043" lon="8.549646454261781"><ele>111.66666666666666</ele><time>2026-04-04T09:22:09.998Z</time></trkpt><trkpt lat="45.266947154485344" lon="8.54976362078091"><ele>112.33333333333333</ele><time>2026-04-04T09:22:10.998Z</time></trkpt><trkpt lat="45.26679387836769" lon="8.549877934839616"><ele>113.0</ele><time>2026-04-04T09:22:11.998Z</time></trkpt><trkpt lat="45.26663271807902" lon="8.550017518759843"><ele>112.33333333333333</ele><time>2026-04-04T09:22:13Z</time></trkpt><trkpt lat="45.26644315702809" lon="8.550105967919512"><ele>111.66666666666666</ele><time>2026-04-04T09:22:14Z</time></trkpt><trkpt lat="45.26625121418643" lon="8.55019783434943"><ele>111.0</ele><time>2026-04-04T09:22:15Z</time></trkpt><trkpt lat="45.26605525657002" lon="8.550300823453775"><ele>111.0</ele><time>2026-04-04T09:22:16Z</time></trkpt><trkpt lat="45.26585401140593" lon="8.550403948760916"><ele>111.0</ele><time>2026-04-04T09:22:17Z</time></trkpt><trkpt lat="45.26564584437969" lon="8.550501403129134"><ele>111.0</ele><time>2026-04-04T09:22:18Z</time></trkpt><trkpt lat="45.26543750501663" lon="8.550604630689815"><ele>111.0</ele><time>2026-04-04T09:22:19Z</time></trkpt><trkpt lat="45.26524654339716" lon="8.5507008960181"><ele>111.0</ele><time>2026-04-04T09:22:20Z</time></trkpt><trkpt lat="45.26505700904036" lon="8.550792603369235"><ele>111.0</ele><time>2026-04-04T09:22:21Z</time></trkpt><trkpt lat="45.2648543183791" lon="8.550885568076987"><ele>110.0</ele><time>2026-04-04T09:22:22Z</time></trkpt><trkpt lat="45.2646446516225" lon="8.55097404785106"><ele>109.0</ele><time>2026-04-04T09:22:23Z</time></trkpt><trkpt lat="45.26443032671065" lon="8.551070624076544"><ele>108.0</ele><time>2026-04-04T09:22:24Z</time></trkpt><trkpt lat="45.264217112426095" lon="8.551190967804486"><ele>108.66666666666666</ele><time>2026-04-04T09:22:25Z</time></trkpt><trkpt lat="45.26401075671709" lon="8.551327022482567"><ele>109.33333333333333</ele><time>2026-04-04T09:22:26Z</time></trkpt><trkpt lat="45.26382053058851" lon="8.551470401896703"><ele>110.0</ele><time>2026-04-04T09:22:27Z</time></trkpt><trkpt lat="45.26362844346382" lon="8.551629671811673"><ele>110.0</ele><time>2026-04-04T09:22:28Z</time></trkpt><trkpt lat="45.26343299167057" lon="8.551794816585806"><ele>110.0</ele><time>2026-04-04T09:22:29Z</time></trkpt><trkpt lat="45.26324723283325" lon="8.55194130296109"><ele>110.0</ele><time>2026-04-04T09:22:29.999Z</time></trkpt><trkpt lat="45.263078302398746" lon="8.55207429852661"><ele>110.33333333333333</ele><time>2026-04-04T09:22:30.999Z</time></trkpt><trkpt lat="45.26291733178094" lon="8.5521997494646"><ele>110.66666666666666</ele><time>2026-04-04T09:22:31.999Z</time></trkpt><trkpt lat="45.262774132731025" lon="8.552307757735322"><ele>111.0</ele><time>2026-04-04T09:22:32.999Z</time></trkpt><trkpt lat="45.26264441448416" lon="8.552405588198006"><ele>111.0</ele><time>2026-04-04T09:22:33.999Z</time></trkpt><trkpt lat="45.26253773720772" lon="8.552491062396292"><ele>111.0</ele><time>2026-04-04T09:22:34.999Z</time></trkpt><trkpt lat="45.26245078048638" lon="8.552565179079291"><ele>111.0</ele><time>2026-04-04T09:22:35.999Z</time></trkpt><trkpt lat="45.262388619683264" lon="8.552625686339281"><ele>111.0</ele><time>2026-04-04T09:22:36.999Z</time></trkpt><trkpt lat="45.26233370883144" lon="8.552689856683289"><ele>111.0</ele><time>2026-04-04T09:22:38.999Z</time></trkpt><trkpt lat="45.26228577977175" lon="8.552756840180688"><ele>111.0</ele><time>2026-04-04T09:22:48.999Z</time></trkpt><trkpt lat="45.26221571089273" lon="8.5528771466716"><ele>110.8</ele><time>2026-04-04T09:23:39.999Z</time></trkpt><trkpt lat="45.26216440740419" lon="8.55297134768528"><ele>110.6</ele><time>2026-04-04T09:23:40.999Z</time></trkpt><trkpt lat="45.26209217180079" lon="8.553079388693035"><ele>110.4</ele><time>2026-04-04T09:23:41.999Z</time></trkpt><trkpt lat="45.261991166084826" lon="8.553180193513702"><ele>110.2</ele><time>2026-04-04T09:23:42.999Z</time></trkpt><trkpt lat="45.2619009171913" lon="8.553316023613016"><ele>110.0</ele><time>2026-04-04T09:23:43.999Z</time></trkpt><trkpt lat="45.26179546012075" lon="8.553461847324618"><ele>110.0</ele><time>2026-04-04T09:23:44.999Z</time></trkpt><trkpt lat="45.26167897104928" lon="8.553613153211588"><ele>110.0</ele><time>2026-04-04T09:23:45.999Z</time></trkpt><trkpt lat="45.26156817864915" lon="8.553786348173476"><ele>110.0</ele><time>2026-04-04T09:23:46.999Z</time></trkpt><trkpt lat="45.26142507564321" lon="8.553918594522084"><ele>110.0</ele><time>2026-04-04T09:23:47.999Z</time></trkpt><trkpt lat="45.26127418557277" lon="8.554034401129801"><ele>110.0</ele><time>2026-04-04T09:23:48.999Z</time></trkpt><trkpt lat="45.261111426161854" lon="8.554162556542408"><ele>110.0</ele><time>2026-04-04T09:23:49.999Z</time></trkpt><trkpt lat="45.260953791981876" lon="8.554308220855226"><ele>110.0</ele><time>2026-04-04T09:23:50.999Z</time></trkpt><trkpt lat="45.26079865436585" lon="8.55446756302309"><ele>110.0</ele><time>2026-04-04T09:23:51.999Z</time></trkpt><trkpt lat="45.2606503336834" lon="8.554619353957705"><ele>110.0</ele><time>2026-04-04T09:23:52.999Z</time></trkpt><trkpt lat="45.26049646422449" lon="8.554753426117761"><ele>110.33333333333333</ele><time>2026-04-04T09:23:53.998Z</time></trkpt><trkpt lat="45.26032635027769" lon="8.55487066057191"><ele>110.66666666666666</ele><time>2026-04-04T09:23:54.998Z</time></trkpt><trkpt lat="45.26013814938322" lon="8.554959541044898"><ele>111.0</ele><time>2026-04-04T09:23:55.998Z</time></trkpt><trkpt lat="45.25996672522383" lon="8.555107609041354"><ele>111.0</ele><time>2026-04-04T09:23:56.998Z</time></trkpt><trkpt lat="45.259802958011726" lon="8.555259439555437"><ele>111.0</ele><time>2026-04-04T09:23:57.998Z</time></trkpt><trkpt lat="45.259645735331425" lon="8.555404102461797"><ele>111.0</ele><time>2026-04-04T09:23:58.998Z</time></trkpt><trkpt lat="45.25948095260748" lon="8.555554394652152"><ele>111.0</ele><time>2026-04-04T09:23:59.998Z</time></trkpt><trkpt lat="45.25932059302508" lon="8.555699657008208"><ele>111.0</ele><time>2026-04-04T09:24:00.998Z</time></trkpt><trkpt lat="45.25916795512902" lon="8.5558372281993"><ele>111.0</ele><time>2026-04-04T09:24:01.998Z</time></trkpt><trkpt lat="45.25900690894804" lon="8.555982377583748"><ele>110.33333333333334</ele><time>2026-04-04T09:24:02.998Z</time></trkpt><trkpt lat="45.25884924600808" lon="8.55612452702099"><ele>109.66666666666667</ele><time>2026-04-04T09:24:03.998Z</time></trkpt><trkpt lat="45.258680287950995" lon="8.556277032400061"><ele>109.0</ele><time>2026-04-04T09:24:04.998Z</time></trkpt><trkpt lat="45.25851229597084" lon="8.556428665706202"><ele>109.0</ele><time>2026-04-04T09:24:05.998Z</time></trkpt><trkpt lat="45.25835707956935" lon="8.556570322224573"><ele>109.0</ele><time>2026-04-04T09:24:06.998Z</time></trkpt><trkpt lat="45.25821957158111" lon="8.556700198157035"><ele>109.0</ele><time>2026-04-04T09:24:07.998Z</time></trkpt><trkpt lat="45.25808581083108" lon="8.55682653478763"><ele>109.2</ele><time>2026-04-04T09:24:08.998Z</time></trkpt><trkpt lat="45.25798010419966" lon="8.556961590971513"><ele>109.4</ele><time>2026-04-04T09:24:09.998Z</time></trkpt><trkpt lat="45.25788283171692" lon="8.55705783864307"><ele>109.6</ele><time>2026-04-04T09:24:10.998Z</time></trkpt><trkpt lat="45.257792417165014" lon="8.557118829767715"><ele>109.8</ele><time>2026-04-04T09:24:11.998Z</time></trkpt><trkpt lat="45.25773132562571" lon="8.557206490464399"><ele>110.0</ele><time>2026-04-04T09:24:12.998Z</time></trkpt><trkpt lat="45.257698714920565" lon="8.557358025453864"><ele>110.0</ele><time>2026-04-04T09:24:13.998Z</time></trkpt><trkpt lat="45.257714260503704" lon="8.557538865477696"><ele>110.0</ele><time>2026-04-04T09:24:14.998Z</time></trkpt><trkpt lat="45.25774878992369" lon="8.557731431525983"><ele>110.0</ele><time>2026-04-04T09:24:15.998Z</time></trkpt><trkpt lat="45.25778994089681" lon="8.557917529160529"><ele>110.0</ele><time>2026-04-04T09:24:16.998Z</time></trkpt><trkpt lat="45.257825001425815" lon="8.558117615121255"><ele>109.75</ele><time>2026-04-04T09:24:17.999Z</time></trkpt><trkpt lat="45.257840572202824" lon="8.5583351933146"><ele>109.5</ele><time>2026-04-04T09:24:18.999Z</time></trkpt><trkpt lat="45.257834624531014" lon="8.558522253679163"><ele>109.25</ele><time>2026-04-04T09:24:19.999Z</time></trkpt><trkpt lat="45.257819584189924" lon="8.55868715698896"><ele>109.0</ele><time>2026-04-04T09:24:20.999Z</time></trkpt><trkpt lat="45.25780514651129" lon="8.558819053907937"><ele>109.0</ele><time>2026-04-04T09:24:21.999Z</time></trkpt><trkpt lat="45.25779246327322" lon="8.558933844871804"><ele>109.0</ele><time>2026-04-04T09:24:22.999Z</time></trkpt><trkpt lat="45.25778103482759" lon="8.559037279166622"><ele>109.0</ele><time>2026-04-04T09:24:23.999Z</time></trkpt><trkpt lat="45.25777065268374" lon="8.559131797796477"><ele>109.0</ele><time>2026-04-04T09:24:24.999Z</time></trkpt><trkpt lat="45.257753322071046" lon="8.55929042838412"><ele>109.0</ele><time>2026-04-04T09:24:26.999Z</time></trkpt><trkpt lat="45.25773635909193" lon="8.559450428662549"><ele>109.16666666666667</ele><time>2026-04-04T09:24:28.999Z</time></trkpt><trkpt lat="45.257725506124316" lon="8.559563407404594"><ele>109.33333333333334</ele><time>2026-04-04T09:24:30.999Z</time></trkpt><trkpt lat="45.25771727669835" lon="8.559655141855501"><ele>109.5</ele><time>2026-04-04T09:24:32.999Z</time></trkpt><trkpt lat="45.2577049151653" lon="8.559796607557745"><ele>109.66666666666666</ele><time>2026-04-04T09:24:35.999Z</time></trkpt><trkpt lat="45.25769851006184" lon="8.55990546991158"><ele>109.83333333333333</ele><time>2026-04-04T09:24:37.999Z</time></trkpt><trkpt lat="45.25764410993886" lon="8.559995143280139"><ele>110.0</ele><time>2026-04-04T09:24:39.999Z</time></trkpt><trkpt lat="45.257561965107925" lon="8.56001064017504"><ele>110.0</ele><time>2026-04-04T09:24:41.999Z</time></trkpt><trkpt lat="45.257485633569175" lon="8.560024173880299"><ele>110.0</ele><time>2026-04-04T09:24:43.999Z</time></trkpt><trkpt lat="45.25739896831036" lon="8.560082249716778"><ele>110.0</ele><time>2026-04-04T09:24:45.999Z</time></trkpt><trkpt lat="45.25730842552064" lon="8.560208334465035"><ele>110.0</ele><time>2026-04-04T09:24:47.999Z</time></trkpt><trkpt lat="45.25727867237616" lon="8.560330360803857"><ele>110.0</ele><time>2026-04-04T09:24:48.999Z</time></trkpt><trkpt lat="45.257239778167765" lon="8.560484072286696"><ele>109.75</ele><time>2026-04-04T09:24:49.999Z</time></trkpt><trkpt lat="45.257198066445014" lon="8.56064375327471"><ele>109.5</ele><time>2026-04-04T09:24:50.999Z</time></trkpt><trkpt lat="45.25715168332131" lon="8.560816060594075"><ele>109.25</ele><time>2026-04-04T09:24:51.999Z</time></trkpt><trkpt lat="45.257097672465896" lon="8.5609986308785"><ele>109.0</ele><time>2026-04-04T09:24:52.999Z</time></trkpt><trkpt lat="45.25703175062027" lon="8.561205689620413"><ele>108.66666666666667</ele><time>2026-04-04T09:24:53.999Z</time></trkpt><trkpt lat="45.25690866599431" lon="8.56138111244201"><ele>108.33333333333334</ele><time>2026-04-04T09:24:54.999Z</time></trkpt><trkpt lat="45.25676888022432" lon="8.561564067363529"><ele>108.0</ele><time>2026-04-04T09:24:55.999Z</time></trkpt><trkpt lat="45.256624593793944" lon="8.56175036280832"><ele>108.0</ele><time>2026-04-04T09:24:56.999Z</time></trkpt><trkpt lat="45.25648134856929" lon="8.561943941645973"><ele>108.0</ele><time>2026-04-04T09:24:57.999Z</time></trkpt><trkpt lat="45.25633923803829" lon="8.562147898647522"><ele>108.0</ele><time>2026-04-04T09:24:58.999Z</time></trkpt><trkpt lat="45.25619839194285" lon="8.562373657706784"><ele>108.0</ele><time>2026-04-04T09:24:59.999Z</time></trkpt><trkpt lat="45.256058773790414" lon="8.562615426432219"><ele>108.0</ele><time>2026-04-04T09:25:00.999Z</time></trkpt><trkpt lat="45.255916645694555" lon="8.562864043730418"><ele>108.0</ele><time>2026-04-04T09:25:01.999Z</time></trkpt><trkpt lat="45.25577221189329" lon="8.563118119675707"><ele>108.0</ele><time>2026-04-04T09:25:02.999Z</time></trkpt><trkpt lat="45.255628795546194" lon="8.563346449033627"><ele>108.0</ele><time>2026-04-04T09:25:03.999Z</time></trkpt><trkpt lat="45.2555142480964" lon="8.563591214066967"><ele>108.0</ele><time>2026-04-04T09:25:04.999Z</time></trkpt><trkpt lat="45.25542281677298" lon="8.563877863542098"><ele>108.0</ele><time>2026-04-04T09:25:05.999Z</time></trkpt><trkpt lat="45.25536580875328" lon="8.564191579857019"><ele>108.0</ele><time>2026-04-04T09:25:06.999Z</time></trkpt><trkpt lat="45.25527311759589" lon="8.564480303505459"><ele>108.5</ele><time>2026-04-04T09:25:07.999Z</time></trkpt><trkpt lat="45.25515360718739" lon="8.564758871095876"><ele>109.0</ele><time>2026-04-04T09:25:08.999Z</time></trkpt><trkpt lat="45.25502012329971" lon="8.565020810985937"><ele>109.0</ele><time>2026-04-04T09:25:09.999Z</time></trkpt><trkpt lat="45.25488648989776" lon="8.5652629540151"><ele>109.0</ele><time>2026-04-04T09:25:10.999Z</time></trkpt><trkpt lat="45.254745469957975" lon="8.565502048368819"><ele>109.0</ele><time>2026-04-04T09:25:11.999Z</time></trkpt><trkpt lat="45.2545876975593" lon="8.565737682324134"><ele>108.5</ele><time>2026-04-04T09:25:12.999Z</time></trkpt><trkpt lat="45.25439940567928" lon="8.565941234804445"><ele>108.0</ele><time>2026-04-04T09:25:13.999Z</time></trkpt><trkpt lat="45.25422564420653" lon="8.566129577159852"><ele>108.0</ele><time>2026-04-04T09:25:14.999Z</time></trkpt><trkpt lat="45.25404249924252" lon="8.566303686635543"><ele>108.0</ele><time>2026-04-04T09:25:15.999Z</time></trkpt><trkpt lat="45.253848270024214" lon="8.56648222931713"><ele>108.0</ele><time>2026-04-04T09:25:16.999Z</time></trkpt><trkpt lat="45.25365856733082" lon="8.56659141792858"><ele>108.0</ele><time>2026-04-04T09:25:17.999Z</time></trkpt><trkpt lat="45.25348699023244" lon="8.566674155375548"><ele>108.0</ele><time>2026-04-04T09:25:18.999Z</time></trkpt><trkpt lat="45.25335041937947" lon="8.566746652309318"><ele>108.0</ele><time>2026-04-04T09:25:19.999Z</time></trkpt><trkpt lat="45.253247020893234" lon="8.566820047756325"><ele>108.00000000000001</ele><time>2026-04-04T09:25:20.999Z</time></trkpt><trkpt lat="45.25315226412791" lon="8.566880652102409"><ele>108.00000000000001</ele><time>2026-04-04T09:25:21.999Z</time></trkpt><trkpt lat="45.253095713351556" lon="8.56698190149979"><ele>108.0</ele><time>2026-04-04T09:25:22.999Z</time></trkpt><trkpt lat="45.25310323582728" lon="8.567132751044436"><ele>108.0</ele><time>2026-04-04T09:25:23.999Z</time></trkpt><trkpt lat="45.253115449214306" lon="8.567278215337964"><ele>108.5</ele><time>2026-04-04T09:25:24.999Z</time></trkpt><trkpt lat="45.253125120601794" lon="8.56743603710522"><ele>109.0</ele><time>2026-04-04T09:25:25.999Z</time></trkpt><trkpt lat="45.253133074508476" lon="8.56761693903642"><ele>109.5</ele><time>2026-04-04T09:25:26.999Z</time></trkpt><trkpt lat="45.25314138000924" lon="8.567794627154155"><ele>110.0</ele><time>2026-04-04T09:25:27.999Z</time></trkpt><trkpt lat="45.25314847717931" lon="8.567946464167687"><ele>109.99999999999999</ele><time>2026-04-04T09:25:28.999Z</time></trkpt><trkpt lat="45.25315455210818" lon="8.568076431741659"><ele>110.0</ele><time>2026-04-04T09:25:29.999Z</time></trkpt><trkpt lat="45.25315994240641" lon="8.568191751712117"><ele>110.0</ele><time>2026-04-04T09:25:30.999Z</time></trkpt><trkpt lat="45.25316508573691" lon="8.568301788181556"><ele>110.0</ele><time>2026-04-04T09:25:31.999Z</time></trkpt><trkpt lat="45.25316963989109" lon="8.568424164497515"><ele>109.99999999999999</ele><time>2026-04-04T09:25:32.999Z</time></trkpt><trkpt lat="45.253171954134196" lon="8.568562320479014"><ele>110.0</ele><time>2026-04-04T09:25:33.999Z</time></trkpt><trkpt lat="45.253167009044475" lon="8.568729322258397"><ele>110.0</ele><time>2026-04-04T09:25:34.999Z</time></trkpt><trkpt lat="45.25318009101233" lon="8.568924867034227"><ele>110.0</ele><time>2026-04-04T09:25:35.999Z</time></trkpt><trkpt lat="45.25316617306403" lon="8.56913110422593"><ele>110.0</ele><time>2026-04-04T09:25:36.999Z</time></trkpt><trkpt lat="45.253144256667156" lon="8.569355462106564"><ele>110.0</ele><time>2026-04-04T09:25:37.999Z</time></trkpt><trkpt lat="45.25310268634644" lon="8.569594227733067"><ele>109.66666666666666</ele><time>2026-04-04T09:25:38.999Z</time></trkpt><trkpt lat="45.25304694166911" lon="8.569844953069671"><ele>109.33333333333334</ele><time>2026-04-04T09:25:39.999Z</time></trkpt><trkpt lat="45.252986940005414" lon="8.570100579619202"><ele>109.0</ele><time>2026-04-04T09:25:40.999Z</time></trkpt><trkpt lat="45.252924654583154" lon="8.570362714449889"><ele>109.0</ele><time>2026-04-04T09:25:41.999Z</time></trkpt><trkpt lat="45.25286293776469" lon="8.570633439444839"><ele>109.0</ele><time>2026-04-04T09:25:42.999Z</time></trkpt><trkpt lat="45.25278570205013" lon="8.570906449453782"><ele>109.0</ele><time>2026-04-04T09:25:43.999Z</time></trkpt><trkpt lat="45.25270869826482" lon="8.571189690953311"><ele>109.66666666666667</ele><time>2026-04-04T09:25:44.999Z</time></trkpt><trkpt lat="45.25262282206508" lon="8.57147230369455"><ele>110.33333333333334</ele><time>2026-04-04T09:25:45.999Z</time></trkpt><trkpt lat="45.25253718155234" lon="8.571735515225864"><ele>111.0</ele><time>2026-04-04T09:25:46.999Z</time></trkpt><trkpt lat="45.25244664886009" lon="8.572001382935385"><ele>110.66666666666666</ele><time>2026-04-04T09:25:47.999Z</time></trkpt><trkpt lat="45.25235605040889" lon="8.572252461631589"><ele>110.33333333333333</ele><time>2026-04-04T09:25:48.999Z</time></trkpt><trkpt lat="45.252284019361625" lon="8.572457983999266"><ele>110.0</ele><time>2026-04-04T09:25:49.999Z</time></trkpt><trkpt lat="45.25223760329845" lon="8.572645113725395"><ele>110.0</ele><time>2026-04-04T09:25:50.999Z</time></trkpt><trkpt lat="45.25222319496209" lon="8.572873573954622"><ele>110.0</ele><time>2026-04-04T09:25:51.999Z</time></trkpt><trkpt lat="45.25220004879696" lon="8.57312028677917"><ele>110.0</ele><time>2026-04-04T09:25:52.999Z</time></trkpt><trkpt lat="45.252152202180895" lon="8.573380465379474"><ele>110.0</ele><time>2026-04-04T09:25:53.999Z</time></trkpt><trkpt lat="45.252106094331296" lon="8.573598078921854"><ele>110.0</ele><time>2026-04-04T09:25:54.998Z</time></trkpt><trkpt lat="45.25206599383232" lon="8.573797694310967"><ele>110.0</ele><time>2026-04-04T09:25:55.998Z</time></trkpt><trkpt lat="45.25202553619559" lon="8.57399560514614"><ele>110.66666666666666</ele><time>2026-04-04T09:25:56.998Z</time></trkpt><trkpt lat="45.25195909577099" lon="8.57419961025423"><ele>111.33333333333334</ele><time>2026-04-04T09:25:57.998Z</time></trkpt><trkpt lat="45.2519009663202" lon="8.574420933582285"><ele>112.0</ele><time>2026-04-04T09:25:58.998Z</time></trkpt><trkpt lat="45.25183989397927" lon="8.574662423553436"><ele>112.0</ele><time>2026-04-04T09:25:59.998Z</time></trkpt><trkpt lat="45.25178762264356" lon="8.574921646346626"><ele>112.0</ele><time>2026-04-04T09:26:00.998Z</time></trkpt><trkpt lat="45.25171856562487" lon="8.575180069662968"><ele>112.0</ele><time>2026-04-04T09:26:01.998Z</time></trkpt><trkpt lat="45.25164092398672" lon="8.57543269325562"><ele>112.0</ele><time>2026-04-04T09:26:02.998Z</time></trkpt><trkpt lat="45.25154302368242" lon="8.575690794376493"><ele>112.0</ele><time>2026-04-04T09:26:03.998Z</time></trkpt><trkpt lat="45.25144178558182" lon="8.575955510323437"><ele>112.0</ele><time>2026-04-04T09:26:04.998Z</time></trkpt><trkpt lat="45.251344302638316" lon="8.576200575081389"><ele>112.66666666666667</ele><time>2026-04-04T09:26:05.998Z</time></trkpt><trkpt lat="45.25126971584292" lon="8.576402908544114"><ele>113.33333333333334</ele><time>2026-04-04T09:26:06.998Z</time></trkpt><trkpt lat="45.25119222076097" lon="8.576577699339703"><ele>114.0</ele><time>2026-04-04T09:26:07.998Z</time></trkpt><trkpt lat="45.2511401209334" lon="8.576790608202058"><ele>114.0</ele><time>2026-04-04T09:26:08.998Z</time></trkpt><trkpt lat="45.25110067566212" lon="8.577023653186771"><ele>114.0</ele><time>2026-04-04T09:26:09.998Z</time></trkpt><trkpt lat="45.251062442821656" lon="8.57725282360012"><ele>114.0</ele><time>2026-04-04T09:26:10.998Z</time></trkpt><trkpt lat="45.25104100956108" lon="8.57742758453003"><ele>114.0</ele><time>2026-04-04T09:26:11.998Z</time></trkpt><trkpt lat="45.25100444786706" lon="8.577555243478109"><ele>114.0</ele><time>2026-04-04T09:26:12.998Z</time></trkpt><trkpt lat="45.25096845471475" lon="8.577632029850466"><ele>114.0</ele><time>2026-04-04T09:26:13.998Z</time></trkpt><trkpt lat="45.250930128422326" lon="8.577745547864463"><ele>114.0</ele><time>2026-04-04T09:26:15.998Z</time></trkpt><trkpt lat="45.25088160178176" lon="8.577872919511606"><ele>114.0</ele><time>2026-04-04T09:26:18.998Z</time></trkpt><trkpt lat="45.250699631044434" lon="8.577796179352761"><ele>114.0</ele><time>2026-04-04T09:26:19.998Z</time></trkpt><trkpt lat="45.25059963610503" lon="8.577749043222502"><ele>114.0</ele><time>2026-04-04T09:26:20.998Z</time></trkpt><trkpt lat="45.25048486970082" lon="8.57768169720532"><ele>114.0</ele><time>2026-04-04T09:26:21.998Z</time></trkpt><trkpt lat="45.2503533436487" lon="8.57761124737967"><ele>114.0</ele><time>2026-04-04T09:26:23Z</time></trkpt><trkpt lat="45.25020824680788" lon="8.577535196580712"><ele>114.0</ele><time>2026-04-04T09:26:24Z</time></trkpt><trkpt lat="45.250088715934645" lon="8.577480563597334"><ele>114.0</ele><time>2026-04-04T09:26:25Z</time></trkpt><trkpt lat="45.24994724519651" lon="8.577445673629407"><ele>114.0</ele><time>2026-04-04T09:26:26Z</time></trkpt><trkpt lat="45.249793485919035" lon="8.577426213059262"><ele>114.0</ele><time>2026-04-04T09:26:27Z</time></trkpt><trkpt lat="45.24966065616651" lon="8.577412062305774"><ele>113.25</ele><time>2026-04-04T09:26:28Z</time></trkpt><trkpt lat="45.24955540127869" lon="8.577416506819514"><ele>112.5</ele><time>2026-04-04T09:26:29Z</time></trkpt><trkpt lat="45.24945386702225" lon="8.577472079779682"><ele>111.75</ele><time>2026-04-04T09:26:30Z</time></trkpt><trkpt lat="45.24935899795964" lon="8.577593207979959"><ele>111.0</ele><time>2026-04-04T09:26:31Z</time></trkpt><trkpt lat="45.24926969413149" lon="8.577748116527342"><ele>111.25</ele><time>2026-04-04T09:26:32Z</time></trkpt><trkpt lat="45.24917821978994" lon="8.577892884665275"><ele>111.5</ele><time>2026-04-04T09:26:33Z</time></trkpt><trkpt lat="45.24910337190501" lon="8.578039782399138"><ele>111.75</ele><time>2026-04-04T09:26:34Z</time></trkpt><trkpt lat="45.24904066606009" lon="8.578234876667988"><ele>112.0</ele><time>2026-04-04T09:26:35Z</time></trkpt><trkpt lat="45.248987930084226" lon="8.578450346427033"><ele>111.66666666666667</ele><time>2026-04-04T09:26:36Z</time></trkpt><trkpt lat="45.24893317184163" lon="8.578682008865131"><ele>111.33333333333334</ele><time>2026-04-04T09:26:37Z</time></trkpt><trkpt lat="45.2488730436427" lon="8.578912003540673"><ele>111.0</ele><time>2026-04-04T09:26:38Z</time></trkpt><trkpt lat="45.24880619067507" lon="8.579155640143158"><ele>111.0</ele><time>2026-04-04T09:26:39Z</time></trkpt><trkpt lat="45.24873595558653" lon="8.579365603895182"><ele>111.0</ele><time>2026-04-04T09:26:40Z</time></trkpt><trkpt lat="45.248674903573686" lon="8.579531738982377"><ele>111.0</ele><time>2026-04-04T09:26:41Z</time></trkpt><trkpt lat="45.248621866836366" lon="8.579662951622606"><ele>111.0</ele><time>2026-04-04T09:26:42Z</time></trkpt><trkpt lat="45.2485717500567" lon="8.57978050935262"><ele>111.19999999999999</ele><time>2026-04-04T09:26:43Z</time></trkpt><trkpt lat="45.24849445247307" lon="8.579909433067312"><ele>111.39999999999999</ele><time>2026-04-04T09:26:43.999Z</time></trkpt><trkpt lat="45.24844163348572" lon="8.58004850172141"><ele>111.6</ele><time>2026-04-04T09:26:44.999Z</time></trkpt><trkpt lat="45.24840131941829" lon="8.580156217158052"><ele>111.8</ele><time>2026-04-04T09:26:45.999Z</time></trkpt><trkpt lat="45.24839184938476" lon="8.580270348381728"><ele>112.0</ele><time>2026-04-04T09:26:46.999Z</time></trkpt><trkpt lat="45.248441468821056" lon="8.580399553459765"><ele>112.0</ele><time>2026-04-04T09:26:47.999Z</time></trkpt><trkpt lat="45.24851858899099" lon="8.580518384552763"><ele>111.99999999999999</ele><time>2026-04-04T09:26:48.999Z</time></trkpt><trkpt lat="45.24857961181542" lon="8.580601403546503"><ele>111.99999999999999</ele><time>2026-04-04T09:26:49.999Z</time></trkpt><trkpt lat="45.248622629205144" lon="8.580707325142292"><ele>112.0</ele><time>2026-04-04T09:26:53.999Z</time></trkpt><trkpt lat="45.24860520218242" lon="8.58079538660639"><ele>112.0</ele><time>2026-04-04T09:26:54.999Z</time></trkpt><trkpt lat="45.24851625676881" lon="8.580879804104388"><ele>112.0</ele><time>2026-04-04T09:26:55.999Z</time></trkpt><trkpt lat="45.2484446151152" lon="8.580973431009465"><ele>112.0</ele><time>2026-04-04T09:26:56.999Z</time></trkpt><trkpt lat="45.24836122983207" lon="8.5810956312025"><ele>112.0</ele><time>2026-04-04T09:26:57.999Z</time></trkpt><trkpt lat="45.24827503777282" lon="8.581235341204037"><ele>112.0</ele><time>2026-04-04T09:26:58.999Z</time></trkpt><trkpt lat="45.24818459924592" lon="8.581384176842487"><ele>112.25</ele><time>2026-04-04T09:26:59.999Z</time></trkpt><trkpt lat="45.248108999714866" lon="8.581524323118405"><ele>112.5</ele><time>2026-04-04T09:27:00.999Z</time></trkpt><trkpt lat="45.24804192276116" lon="8.581673307737985"><ele>112.75</ele><time>2026-04-04T09:27:01.999Z</time></trkpt><trkpt lat="45.247979657363885" lon="8.581836285361566"><ele>113.0</ele><time>2026-04-04T09:27:02.999Z</time></trkpt><trkpt lat="45.24792033769097" lon="8.582019872480663"><ele>113.0</ele><time>2026-04-04T09:27:03.999Z</time></trkpt><trkpt lat="45.24786173685221" lon="8.582218620541108"><ele>113.0</ele><time>2026-04-04T09:27:04.999Z</time></trkpt><trkpt lat="45.24783116965078" lon="8.582447246998308"><ele>113.0</ele><time>2026-04-04T09:27:05.999Z</time></trkpt><trkpt lat="45.24780952021373" lon="8.582677373673032"><ele>112.80000000000001</ele><time>2026-04-04T09:27:06.999Z</time></trkpt><trkpt lat="45.24780207710873" lon="8.582892932696758"><ele>112.60000000000001</ele><time>2026-04-04T09:27:07.999Z</time></trkpt><trkpt lat="45.24778505432556" lon="8.583040888526382"><ele>112.39999999999999</ele><time>2026-04-04T09:27:08.999Z</time></trkpt><trkpt lat="45.24777876154271" lon="8.5831389721872"><ele>112.19999999999999</ele><time>2026-04-04T09:27:09.999Z</time></trkpt><trkpt lat="45.247755210667805" lon="8.583248798840978"><ele>112.0</ele><time>2026-04-04T09:27:13.999Z</time></trkpt><trkpt lat="45.24761471115563" lon="8.583285423308295"><ele>112.0</ele><time>2026-04-04T09:27:15.999Z</time></trkpt><trkpt lat="45.24752012753275" lon="8.583291196386943"><ele>112.0</ele><time>2026-04-04T09:27:16.999Z</time></trkpt><trkpt lat="45.24739978805635" lon="8.583300480079192"><ele>112.0</ele><time>2026-04-04T09:27:17.999Z</time></trkpt><trkpt lat="45.24726695655464" lon="8.58330860321555"><ele>112.0</ele><time>2026-04-04T09:27:18.999Z</time></trkpt><trkpt lat="45.247116774678084" lon="8.583323759520248"><ele>112.33333333333334</ele><time>2026-04-04T09:27:19.999Z</time></trkpt><trkpt lat="45.246969005674465" lon="8.583330559035158"><ele>112.66666666666666</ele><time>2026-04-04T09:27:20.999Z</time></trkpt><trkpt lat="45.246807837250806" lon="8.583336758539671"><ele>113.0</ele><time>2026-04-04T09:27:21.999Z</time></trkpt><trkpt lat="45.2466334969407" lon="8.58334569889933"><ele>113.0</ele><time>2026-04-04T09:27:22.999Z</time></trkpt><trkpt lat="45.24646298611052" lon="8.58335135582587"><ele>113.0</ele><time>2026-04-04T09:27:23.999Z</time></trkpt><trkpt lat="45.24631106410736" lon="8.583358478644842"><ele>113.0</ele><time>2026-04-04T09:27:24.999Z</time></trkpt><trkpt lat="45.24615675477597" lon="8.583368234846374"><ele>113.33333333333333</ele><time>2026-04-04T09:27:25.999Z</time></trkpt><trkpt lat="45.245989518189326" lon="8.583366724544788"><ele>113.66666666666666</ele><time>2026-04-04T09:27:26.999Z</time></trkpt><trkpt lat="45.24581804916851" lon="8.58333393248157"><ele>114.0</ele><time>2026-04-04T09:27:27.999Z</time></trkpt><trkpt lat="45.245635663028686" lon="8.583271707030367"><ele>113.66666666666666</ele><time>2026-04-04T09:27:28.999Z</time></trkpt><trkpt lat="45.24545297693218" lon="8.58320170007774"><ele>113.33333333333333</ele><time>2026-04-04T09:27:29.999Z</time></trkpt><trkpt lat="45.24526447013229" lon="8.583130748452554"><ele>113.0</ele><time>2026-04-04T09:27:30.999Z</time></trkpt><trkpt lat="45.2451075391977" lon="8.583078422442076"><ele>113.0</ele><time>2026-04-04T09:27:31.999Z</time></trkpt><trkpt lat="45.244977112272935" lon="8.583041287260615"><ele>113.0</ele><time>2026-04-04T09:27:32.999Z</time></trkpt><trkpt lat="45.244882034418595" lon="8.583012467257403"><ele>113.0</ele><time>2026-04-04T09:27:33.999Z</time></trkpt><trkpt lat="45.24477731612707" lon="8.582949200193932"><ele>113.0</ele><time>2026-04-04T09:27:34.999Z</time></trkpt><trkpt lat="45.2446608544712" lon="8.582837038753214"><ele>112.66666666666666</ele><time>2026-04-04T09:27:35.999Z</time></trkpt><trkpt lat="45.2445287816918" lon="8.582720560970863"><ele>112.33333333333334</ele><time>2026-04-04T09:27:36.999Z</time></trkpt><trkpt lat="45.24438740760894" lon="8.582611197319618"><ele>112.0</ele><time>2026-04-04T09:27:37.999Z</time></trkpt><trkpt lat="45.24423408754149" lon="8.582488585139346"><ele>112.0</ele><time>2026-04-04T09:27:38.999Z</time></trkpt><trkpt lat="45.24408133385162" lon="8.582354684176291"><ele>112.0</ele><time>2026-04-04T09:27:39.999Z</time></trkpt><trkpt lat="45.2439220525151" lon="8.58221038406172"><ele>112.0</ele><time>2026-04-04T09:27:40.999Z</time></trkpt><trkpt lat="45.24374994699812" lon="8.582082495695717"><ele>111.0</ele><time>2026-04-04T09:27:41.999Z</time></trkpt><trkpt lat="45.243561860458804" lon="8.581979579374432"><ele>110.0</ele><time>2026-04-04T09:27:42.999Z</time></trkpt><trkpt lat="45.24336376257858" lon="8.581887352234569"><ele>109.0</ele><time>2026-04-04T09:27:43.999Z</time></trkpt><trkpt lat="45.243156426655396" lon="8.581794396051418"><ele>109.0</ele><time>2026-04-04T09:27:44.999Z</time></trkpt><trkpt lat="45.24294382747769" lon="8.581703797848213"><ele>109.0</ele><time>2026-04-04T09:27:45.999Z</time></trkpt><trkpt lat="45.242736334511676" lon="8.581614795592193"><ele>109.0</ele><time>2026-04-04T09:27:46.999Z</time></trkpt><trkpt lat="45.24254331291624" lon="8.581529289770241"><ele>109.0</ele><time>2026-04-04T09:27:47.999Z</time></trkpt><trkpt lat="45.24234607464694" lon="8.581441856269628"><ele>109.0</ele><time>2026-04-04T09:27:48.999Z</time></trkpt><trkpt lat="45.242140878531906" lon="8.581353810066412"><ele>109.0</ele><time>2026-04-04T09:27:49.999Z</time></trkpt><trkpt lat="45.24195507973214" lon="8.581280561532662"><ele>109.33333333333334</ele><time>2026-04-04T09:27:50.999Z</time></trkpt><trkpt lat="45.24176423002445" lon="8.581245564486414"><ele>109.66666666666666</ele><time>2026-04-04T09:27:51.999Z</time></trkpt><trkpt lat="45.2415637989366" lon="8.581246702684838"><ele>110.0</ele><time>2026-04-04T09:27:52.999Z</time></trkpt><trkpt lat="45.241362355228155" lon="8.581265368675183"><ele>110.33333333333333</ele><time>2026-04-04T09:27:53.999Z</time></trkpt><trkpt lat="45.241154195582816" lon="8.581289868868636"><ele>110.66666666666666</ele><time>2026-04-04T09:27:54.999Z</time></trkpt><trkpt lat="45.24093733775107" lon="8.581304671256566"><ele>111.0</ele><time>2026-04-04T09:27:55.999Z</time></trkpt><trkpt lat="45.240722736077714" lon="8.581289190622954"><ele>110.66666666666666</ele><time>2026-04-04T09:27:56.999Z</time></trkpt><trkpt lat="45.24050798574626" lon="8.581261553197479"><ele>110.33333333333333</ele><time>2026-04-04T09:27:57.999Z</time></trkpt><trkpt lat="45.240296434458465" lon="8.581227312234013"><ele>110.0</ele><time>2026-04-04T09:27:58.999Z</time></trkpt><trkpt lat="45.240094754420554" lon="8.58117857618148"><ele>110.0</ele><time>2026-04-04T09:27:59.999Z</time></trkpt><trkpt lat="45.23988838311866" lon="8.581096287848986"><ele>110.0</ele><time>2026-04-04T09:28:00.999Z</time></trkpt><trkpt lat="45.239693435345586" lon="8.580951866982813"><ele>110.0</ele><time>2026-04-04T09:28:01.999Z</time></trkpt><trkpt lat="45.23948096136812" lon="8.580833803167096"><ele>109.33333333333333</ele><time>2026-04-04T09:28:02.999Z</time></trkpt><trkpt lat="45.23928626166068" lon="8.580691091674968"><ele>108.66666666666666</ele><time>2026-04-04T09:28:03.999Z</time></trkpt><trkpt lat="45.23909771683871" lon="8.58055281503753"><ele>108.0</ele><time>2026-04-04T09:28:04.999Z</time></trkpt><trkpt lat="45.23890620441299" lon="8.580401555606072"><ele>108.33333333333334</ele><time>2026-04-04T09:28:05.999Z</time></trkpt><trkpt lat="45.2387156457744" lon="8.580231968873175"><ele>108.66666666666667</ele><time>2026-04-04T09:28:06.999Z</time></trkpt><trkpt lat="45.23853644860428" lon="8.580064083342643"><ele>109.0</ele><time>2026-04-04T09:28:07.999Z</time></trkpt><trkpt lat="45.2383627801433" lon="8.5799055247189"><ele>109.0</ele><time>2026-04-04T09:28:08.998Z</time></trkpt><trkpt lat="45.2381900444397" lon="8.579751816375394"><ele>109.0</ele><time>2026-04-04T09:28:09.998Z</time></trkpt><trkpt lat="45.23802647703924" lon="8.579624881881847"><ele>109.0</ele><time>2026-04-04T09:28:10.998Z</time></trkpt><trkpt lat="45.23784784395944" lon="8.579528204697729"><ele>108.66666666666667</ele><time>2026-04-04T09:28:11.998Z</time></trkpt><trkpt lat="45.23764374856147" lon="8.579451653928297"><ele>108.33333333333334</ele><time>2026-04-04T09:28:12.998Z</time></trkpt><trkpt lat="45.23743456243723" lon="8.579381894532585"><ele>108.0</ele><time>2026-04-04T09:28:13.998Z</time></trkpt><trkpt lat="45.23721930146709" lon="8.579308241183227"><ele>108.0</ele><time>2026-04-04T09:28:14.998Z</time></trkpt><trkpt lat="45.236997184760824" lon="8.579228434177228"><ele>108.0</ele><time>2026-04-04T09:28:15.998Z</time></trkpt><trkpt lat="45.236778544198806" lon="8.579145859980885"><ele>108.0</ele><time>2026-04-04T09:28:16.998Z</time></trkpt><trkpt lat="45.23657867718691" lon="8.579065302830998"><ele>108.0</ele><time>2026-04-04T09:28:17.998Z</time></trkpt><trkpt lat="45.23639539124771" lon="8.578972059966167"><ele>108.0</ele><time>2026-04-04T09:28:18.998Z</time></trkpt><trkpt lat="45.23622402099904" lon="8.578811308693705"><ele>108.0</ele><time>2026-04-04T09:28:19.998Z</time></trkpt><trkpt lat="45.23605644909974" lon="8.57862765823158"><ele>108.0</ele><time>2026-04-04T09:28:20.998Z</time></trkpt><trkpt lat="45.23586996768962" lon="8.578438100593406"><ele>108.0</ele><time>2026-04-04T09:28:21.998Z</time></trkpt><trkpt lat="45.23570505041372" lon="8.578214731841214"><ele>108.0</ele><time>2026-04-04T09:28:22.998Z</time></trkpt><trkpt lat="45.23555741875047" lon="8.577985398763163"><ele>108.0</ele><time>2026-04-04T09:28:23.998Z</time></trkpt><trkpt lat="45.23544482896072" lon="8.57773711359486"><ele>108.0</ele><time>2026-04-04T09:28:24.998Z</time></trkpt><trkpt lat="45.2353065551043" lon="8.577503549705026"><ele>108.0</ele><time>2026-04-04T09:28:25.998Z</time></trkpt><trkpt lat="45.235212568588054" lon="8.577236675322762"><ele>108.0</ele><time>2026-04-04T09:28:26.998Z</time></trkpt><trkpt lat="45.23513597112578" lon="8.576974258637016"><ele>108.0</ele><time>2026-04-04T09:28:27.998Z</time></trkpt><trkpt lat="45.235071547536556" lon="8.576699191794573"><ele>107.75</ele><time>2026-04-04T09:28:29Z</time></trkpt><trkpt lat="45.23500481426549" lon="8.576499550997015"><ele>107.5</ele><time>2026-04-04T09:28:30Z</time></trkpt><trkpt lat="45.2349504557401" lon="8.576367464451302"><ele>107.25</ele><time>2026-04-04T09:28:31Z</time></trkpt><trkpt lat="45.23485416577892" lon="8.576256025984197"><ele>107.0</ele><time>2026-04-04T09:28:32Z</time></trkpt><trkpt lat="45.23473220524384" lon="8.576185468813694"><ele>107.33333333333333</ele><time>2026-04-04T09:28:33Z</time></trkpt><trkpt lat="45.234588185235005" lon="8.576185332393544"><ele>107.66666666666666</ele><time>2026-04-04T09:28:34Z</time></trkpt><trkpt lat="45.234446049213794" lon="8.57625062477174"><ele>108.0</ele><time>2026-04-04T09:28:35Z</time></trkpt><trkpt lat="45.23428783005467" lon="8.576352121260083"><ele>108.0</ele><time>2026-04-04T09:28:36Z</time></trkpt><trkpt lat="45.23411752030036" lon="8.576455557214482"><ele>108.0</ele><time>2026-04-04T09:28:37Z</time></trkpt><trkpt lat="45.233946273591506" lon="8.576550478662984"><ele>108.0</ele><time>2026-04-04T09:28:38Z</time></trkpt><trkpt lat="45.23375624054427" lon="8.576650630690358"><ele>108.33333333333334</ele><time>2026-04-04T09:28:39Z</time></trkpt><trkpt lat="45.23357403809656" lon="8.576744540369383"><ele>108.66666666666667</ele><time>2026-04-04T09:28:40Z</time></trkpt><trkpt lat="45.23338155673356" lon="8.576850224143325"><ele>109.0</ele><time>2026-04-04T09:28:41Z</time></trkpt><trkpt lat="45.233187817865684" lon="8.576956399270438"><ele>108.66666666666667</ele><time>2026-04-04T09:28:42Z</time></trkpt><trkpt lat="45.232985793368385" lon="8.577063386320612"><ele>108.33333333333334</ele><time>2026-04-04T09:28:43Z</time></trkpt><trkpt lat="45.23278589383569" lon="8.577170132824238"><ele>108.0</ele><time>2026-04-04T09:28:44Z</time></trkpt><trkpt lat="45.232580716790885" lon="8.577274318253956"><ele>108.0</ele><time>2026-04-04T09:28:45Z</time></trkpt><trkpt lat="45.23237286766048" lon="8.577381978207953"><ele>108.0</ele><time>2026-04-04T09:28:46Z</time></trkpt><trkpt lat="45.23216933750075" lon="8.577487762704946"><ele>108.0</ele><time>2026-04-04T09:28:47Z</time></trkpt><trkpt lat="45.23198101611572" lon="8.577582150453928"><ele>107.66666666666666</ele><time>2026-04-04T09:28:48Z</time></trkpt><trkpt lat="45.23177154465113" lon="8.577641175258504"><ele>107.33333333333333</ele><time>2026-04-04T09:28:49Z</time></trkpt><trkpt lat="45.23155877567251" lon="8.57772753874962"><ele>107.0</ele><time>2026-04-04T09:28:50Z</time></trkpt><trkpt lat="45.23133510060328" lon="8.577786724687215"><ele>107.0</ele><time>2026-04-04T09:28:51Z</time></trkpt><trkpt lat="45.23111330385842" lon="8.577846441555446"><ele>107.0</ele><time>2026-04-04T09:28:52Z</time></trkpt><trkpt lat="45.23090763927174" lon="8.577904372399587"><ele>107.0</ele><time>2026-04-04T09:28:53Z</time></trkpt><trkpt lat="45.23069833486261" lon="8.577960685322294"><ele>107.5</ele><time>2026-04-04T09:28:54Z</time></trkpt><trkpt lat="45.23047857442509" lon="8.578019290151838"><ele>108.0</ele><time>2026-04-04T09:28:55Z</time></trkpt><trkpt lat="45.23025305654828" lon="8.578078926825007"><ele>108.0</ele><time>2026-04-04T09:28:56Z</time></trkpt><trkpt lat="45.230038295529944" lon="8.57813688680094"><ele>108.0</ele><time>2026-04-04T09:28:57Z</time></trkpt><trkpt lat="45.2298324211166" lon="8.578189110817775"><ele>108.0</ele><time>2026-04-04T09:28:58Z</time></trkpt><trkpt lat="45.229635205812194" lon="8.578237600711137"><ele>108.0</ele><time>2026-04-04T09:28:59Z</time></trkpt><trkpt lat="45.22949134335444" lon="8.578274522808249"><ele>108.00000000000001</ele><time>2026-04-04T09:29:00Z</time></trkpt><trkpt lat="45.22937260684107" lon="8.578297527135236"><ele>108.00000000000001</ele><time>2026-04-04T09:29:00.999Z</time></trkpt><trkpt lat="45.22928214865605" lon="8.578289747983234"><ele>108.0</ele><time>2026-04-04T09:29:01.999Z</time></trkpt><trkpt lat="45.22920560766421" lon="8.578218828538862"><ele>108.0</ele><time>2026-04-04T09:29:02.999Z</time></trkpt><trkpt lat="45.22915462185632" lon="8.578063464840474"><ele>108.0</ele><time>2026-04-04T09:29:03.999Z</time></trkpt><trkpt lat="45.22908533902609" lon="8.577889683300008"><ele>108.0</ele><time>2026-04-04T09:29:04.999Z</time></trkpt><trkpt lat="45.229042863883386" lon="8.577693559658753"><ele>108.0</ele><time>2026-04-04T09:29:05.999Z</time></trkpt><trkpt lat="45.22897766090989" lon="8.577484640766434"><ele>108.0</ele><time>2026-04-04T09:29:06.999Z</time></trkpt><trkpt lat="45.228898378930275" lon="8.577273711459526"><ele>107.66666666666666</ele><time>2026-04-04T09:29:07.999Z</time></trkpt><trkpt lat="45.22878794499359" lon="8.577061261542916"><ele>107.33333333333333</ele><time>2026-04-04T09:29:08.999Z</time></trkpt><trkpt lat="45.22865213905436" lon="8.576852147046218"><ele>107.0</ele><time>2026-04-04T09:29:09.999Z</time></trkpt><trkpt lat="45.22851383506632" lon="8.576612742864514"><ele>106.5</ele><time>2026-04-04T09:29:10.999Z</time></trkpt><trkpt lat="45.228348364488895" lon="8.57638421761661"><ele>106.0</ele><time>2026-04-04T09:29:11.999Z</time></trkpt><trkpt lat="45.22819585201421" lon="8.576134580146595"><ele>106.66666666666667</ele><time>2026-04-04T09:29:12.999Z</time></trkpt><trkpt lat="45.22805526078447" lon="8.575910648346966"><ele>107.33333333333334</ele><time>2026-04-04T09:29:13.999Z</time></trkpt><trkpt lat="45.22791835485882" lon="8.575702383947595"><ele>108.0</ele><time>2026-04-04T09:29:14.999Z</time></trkpt><trkpt lat="45.22778799497348" lon="8.575507432539963"><ele>108.0</ele><time>2026-04-04T09:29:15.999Z</time></trkpt><trkpt lat="45.22766684235909" lon="8.57532441454866"><ele>108.0</ele><time>2026-04-04T09:29:16.999Z</time></trkpt><trkpt lat="45.2275546235098" lon="8.575153674124866"><ele>108.0</ele><time>2026-04-04T09:29:17.999Z</time></trkpt><trkpt lat="45.22744997408636" lon="8.574992737793272"><ele>108.0</ele><time>2026-04-04T09:29:18.999Z</time></trkpt><trkpt lat="45.22735800368669" lon="8.574811012056772"><ele>108.0</ele><time>2026-04-04T09:29:19.999Z</time></trkpt><trkpt lat="45.227224168410814" lon="8.574608717857888"><ele>108.0</ele><time>2026-04-04T09:29:20.999Z</time></trkpt><trkpt lat="45.22712511217471" lon="8.574392911283182"><ele>108.0</ele><time>2026-04-04T09:29:21.999Z</time></trkpt><trkpt lat="45.2270395012822" lon="8.574156035560277"><ele>108.0</ele><time>2026-04-04T09:29:22.999Z</time></trkpt><trkpt lat="45.226967128861126" lon="8.573893826550929"><ele>108.0</ele><time>2026-04-04T09:29:23.999Z</time></trkpt><trkpt lat="45.22691048387671" lon="8.573611296813423"><ele>108.33333333333334</ele><time>2026-04-04T09:29:24.999Z</time></trkpt><trkpt lat="45.226881269814015" lon="8.57332102038245"><ele>108.66666666666667</ele><time>2026-04-04T09:29:25.999Z</time></trkpt><trkpt lat="45.226822064929024" lon="8.573035884105671"><ele>109.0</ele><time>2026-04-04T09:29:26.999Z</time></trkpt><trkpt lat="45.22676495170242" lon="8.572736617965802"><ele>109.5</ele><time>2026-04-04T09:29:27.999Z</time></trkpt><trkpt lat="45.226708585937494" lon="8.572426961012365"><ele>110.0</ele><time>2026-04-04T09:29:28.999Z</time></trkpt><trkpt lat="45.226620178075315" lon="8.572132615695358"><ele>109.66666666666666</ele><time>2026-04-04T09:29:29.999Z</time></trkpt><trkpt lat="45.22653180894193" lon="8.571882656302549"><ele>109.33333333333334</ele><time>2026-04-04T09:29:30.999Z</time></trkpt><trkpt lat="45.226453701195936" lon="8.57167928713245"><ele>109.0</ele><time>2026-04-04T09:29:31.999Z</time></trkpt><trkpt lat="45.22639218328157" lon="8.571521370421994"><ele>109.2</ele><time>2026-04-04T09:29:32.999Z</time></trkpt><trkpt lat="45.22635552882548" lon="8.571400364236792"><ele>109.4</ele><time>2026-04-04T09:29:33.999Z</time></trkpt><trkpt lat="45.22634022260166" lon="8.571291558461034"><ele>109.6</ele><time>2026-04-04T09:29:34.999Z</time></trkpt><trkpt lat="45.22634706566732" lon="8.571177152611263"><ele>109.8</ele><time>2026-04-04T09:29:35.999Z</time></trkpt><trkpt lat="45.226387982124294" lon="8.571032744575643"><ele>110.0</ele><time>2026-04-04T09:29:36.999Z</time></trkpt><trkpt lat="45.22644937085482" lon="8.570879318045073"><ele>110.0</ele><time>2026-04-04T09:29:37.999Z</time></trkpt><trkpt lat="45.22650514026455" lon="8.57071851010199"><ele>110.0</ele><time>2026-04-04T09:29:38.999Z</time></trkpt><trkpt lat="45.226554705596406" lon="8.570588482379442"><ele>110.0</ele><time>2026-04-04T09:29:39.999Z</time></trkpt><trkpt lat="45.226580856873234" lon="8.57048062022627"><ele>110.0</ele><time>2026-04-04T09:29:40.999Z</time></trkpt><trkpt lat="45.22655781185144" lon="8.570291940680935"><ele>110.0</ele><time>2026-04-04T09:29:42.999Z</time></trkpt><trkpt lat="45.226472485139915" lon="8.570196022436283"><ele>110.0</ele><time>2026-04-04T09:29:43.999Z</time></trkpt><trkpt lat="45.22636545907259" lon="8.570121844547856"><ele>110.0</ele><time>2026-04-04T09:29:44.999Z</time></trkpt><trkpt lat="45.22624415772195" lon="8.570064293322018"><ele>110.0</ele><time>2026-04-04T09:29:45.999Z</time></trkpt><trkpt lat="45.22610288312794" lon="8.5700114086784"><ele>110.0</ele><time>2026-04-04T09:29:46.999Z</time></trkpt><trkpt lat="45.2259436462659" lon="8.569962484586707"><ele>110.0</ele><time>2026-04-04T09:29:47.999Z</time></trkpt><trkpt lat="45.22578371649214" lon="8.569899702778871"><ele>110.0</ele><time>2026-04-04T09:29:48.999Z</time></trkpt><trkpt lat="45.22563024826693" lon="8.569771827808903"><ele>110.0</ele><time>2026-04-04T09:29:49.999Z</time></trkpt><trkpt lat="45.22548832787279" lon="8.56961905151882"><ele>110.33333333333333</ele><time>2026-04-04T09:29:50.999Z</time></trkpt><trkpt lat="45.22534862983309" lon="8.569440228125627"><ele>110.66666666666666</ele><time>2026-04-04T09:29:51.999Z</time></trkpt><trkpt lat="45.2252113614675" lon="8.569257141157381"><ele>111.0</ele><time>2026-04-04T09:29:52.999Z</time></trkpt><trkpt lat="45.225063234544464" lon="8.569063341337392"><ele>111.0</ele><time>2026-04-04T09:29:53.999Z</time></trkpt><trkpt lat="45.22489644868153" lon="8.568889783732647"><ele>111.0</ele><time>2026-04-04T09:29:54.999Z</time></trkpt><trkpt lat="45.2247199249862" lon="8.568720962190124"><ele>111.0</ele><time>2026-04-04T09:29:55.999Z</time></trkpt><trkpt lat="45.22452617886019" lon="8.568562264430884"><ele>111.0</ele><time>2026-04-04T09:29:56.999Z</time></trkpt><trkpt lat="45.22432244086919" lon="8.568423038710236"><ele>111.0</ele><time>2026-04-04T09:29:57.999Z</time></trkpt><trkpt lat="45.22413854724888" lon="8.5682960409834"><ele>111.0</ele><time>2026-04-04T09:29:58.999Z</time></trkpt><trkpt lat="45.2239665818849" lon="8.568185419207024"><ele>111.0</ele><time>2026-04-04T09:29:59.999Z</time></trkpt><trkpt lat="45.223797894790565" lon="8.568077136279705"><ele>111.0</ele><time>2026-04-04T09:30:00.999Z</time></trkpt><trkpt lat="45.22363885312744" lon="8.567966146826306"><ele>111.0</ele><time>2026-04-04T09:30:01.999Z</time></trkpt><trkpt lat="45.2234876711082" lon="8.56786002640673"><ele>111.0</ele><time>2026-04-04T09:30:02.999Z</time></trkpt><trkpt lat="45.22334587558383" lon="8.567756926651816"><ele>111.0</ele><time>2026-04-04T09:30:03.999Z</time></trkpt><trkpt lat="45.22319861215338" lon="8.567631619880073"><ele>111.0</ele><time>2026-04-04T09:30:04.999Z</time></trkpt><trkpt lat="45.223049810442006" lon="8.567489643283324"><ele>110.33333333333334</ele><time>2026-04-04T09:30:05.999Z</time></trkpt><trkpt lat="45.2229110495222" lon="8.567359951793865"><ele>109.66666666666667</ele><time>2026-04-04T09:30:06.999Z</time></trkpt><trkpt lat="45.22278005379165" lon="8.567238504330307"><ele>109.0</ele><time>2026-04-04T09:30:07.999Z</time></trkpt><trkpt lat="45.22264753422375" lon="8.567106937836643"><ele>108.75</ele><time>2026-04-04T09:30:08.999Z</time></trkpt><trkpt lat="45.222530520829395" lon="8.566982662637047"><ele>108.5</ele><time>2026-04-04T09:30:09.999Z</time></trkpt><trkpt lat="45.222429741341074" lon="8.566872339762986"><ele>108.25</ele><time>2026-04-04T09:30:10.999Z</time></trkpt><trkpt lat="45.22234076265896" lon="8.56676612644397"><ele>108.0</ele><time>2026-04-04T09:30:11.999Z</time></trkpt><trkpt lat="45.22225121840744" lon="8.566654066066038"><ele>107.75</ele><time>2026-04-04T09:30:12.999Z</time></trkpt><trkpt lat="45.222159358258594" lon="8.566539733895059"><ele>107.5</ele><time>2026-04-04T09:30:13.999Z</time></trkpt><trkpt lat="45.22205922338596" lon="8.566403103014869"><ele>107.25</ele><time>2026-04-04T09:30:14.999Z</time></trkpt><trkpt lat="45.221961900929415" lon="8.566225973128791"><ele>107.0</ele><time>2026-04-04T09:30:15.999Z</time></trkpt><trkpt lat="45.221885234612266" lon="8.566021557177672"><ele>107.0</ele><time>2026-04-04T09:30:16.999Z</time></trkpt><trkpt lat="45.22180451092419" lon="8.56579828570434"><ele>107.0</ele><time>2026-04-04T09:30:17.999Z</time></trkpt><trkpt lat="45.22170708706054" lon="8.565573021072748"><ele>107.0</ele><time>2026-04-04T09:30:18.999Z</time></trkpt><trkpt lat="45.221597221993726" lon="8.565350483928336"><ele>106.66666666666666</ele><time>2026-04-04T09:30:19.999Z</time></trkpt><trkpt lat="45.2214926475436" lon="8.565137597413178"><ele>106.33333333333334</ele><time>2026-04-04T09:30:20.999Z</time></trkpt><trkpt lat="45.221406225920994" lon="8.564979845940323"><ele>106.0</ele><time>2026-04-04T09:30:21.999Z</time></trkpt><trkpt lat="45.221321175695685" lon="8.564820012105876"><ele>106.0</ele><time>2026-04-04T09:30:22.998Z</time></trkpt><trkpt lat="45.2211596519364" lon="8.564725181469566"><ele>106.0</ele><time>2026-04-04T09:30:23.998Z</time></trkpt><trkpt lat="45.22098614198353" lon="8.564685489572048"><ele>106.0</ele><time>2026-04-04T09:30:24.998Z</time></trkpt><trkpt lat="45.220802155964456" lon="8.56463137000904"><ele>106.0</ele><time>2026-04-04T09:30:25.998Z</time></trkpt><trkpt lat="45.22061347335743" lon="8.564572899768692"><ele>106.0</ele><time>2026-04-04T09:30:26.998Z</time></trkpt><trkpt lat="45.22041945419923" lon="8.56451150679016"><ele>106.0</ele><time>2026-04-04T09:30:27.998Z</time></trkpt><trkpt lat="45.220221343135584" lon="8.564454319788847"><ele>106.0</ele><time>2026-04-04T09:30:28.998Z</time></trkpt><trkpt lat="45.22001405257259" lon="8.56438683566434"><ele>106.0</ele><time>2026-04-04T09:30:29.998Z</time></trkpt><trkpt lat="45.21980333664723" lon="8.564295211481014"><ele>106.0</ele><time>2026-04-04T09:30:30.998Z</time></trkpt><trkpt lat="45.21959054998095" lon="8.56418709644764"><ele>106.33333333333334</ele><time>2026-04-04T09:30:31.998Z</time></trkpt><trkpt lat="45.21938160592603" lon="8.564083624530872"><ele>106.66666666666666</ele><time>2026-04-04T09:30:32.998Z</time></trkpt><trkpt lat="45.21919619799739" lon="8.563994250686036"><ele>107.0</ele><time>2026-04-04T09:30:33.998Z</time></trkpt><trkpt lat="45.21901227231214" lon="8.563913364842671"><ele>107.33333333333333</ele><time>2026-04-04T09:30:35Z</time></trkpt><trkpt lat="45.21881418152938" lon="8.563814751189987"><ele>107.66666666666666</ele><time>2026-04-04T09:30:36Z</time></trkpt><trkpt lat="45.21862305195406" lon="8.56368595132735"><ele>108.0</ele><time>2026-04-04T09:30:37Z</time></trkpt><trkpt lat="45.21843161226001" lon="8.56352527670116"><ele>107.0</ele><time>2026-04-04T09:30:38Z</time></trkpt><trkpt lat="45.21824932365583" lon="8.56333400793665"><ele>106.0</ele><time>2026-04-04T09:30:39Z</time></trkpt><trkpt lat="45.21806995021322" lon="8.563130301320994"><ele>106.0</ele><time>2026-04-04T09:30:40Z</time></trkpt><trkpt lat="45.217903169337845" lon="8.562930743050714"><ele>106.0</ele><time>2026-04-04T09:30:41Z</time></trkpt><trkpt lat="45.21775801167916" lon="8.562727321682436"><ele>106.0</ele><time>2026-04-04T09:30:42Z</time></trkpt><trkpt lat="45.21761952273841" lon="8.5624945895809"><ele>106.0</ele><time>2026-04-04T09:30:43Z</time></trkpt><trkpt lat="45.21749162132696" lon="8.562233900765907"><ele>106.0</ele><time>2026-04-04T09:30:44Z</time></trkpt><trkpt lat="45.21738956953367" lon="8.561979691467213"><ele>106.0</ele><time>2026-04-04T09:30:45Z</time></trkpt><trkpt lat="45.217305534653285" lon="8.56175119739303"><ele>106.75</ele><time>2026-04-04T09:30:46Z</time></trkpt><trkpt lat="45.21723468551194" lon="8.561549261511443"><ele>107.5</ele><time>2026-04-04T09:30:47Z</time></trkpt><trkpt lat="45.21717281258655" lon="8.561373916624444"><ele>108.25</ele><time>2026-04-04T09:30:48Z</time></trkpt><trkpt lat="45.217109051774706" lon="8.561200205825898"><ele>109.0</ele><time>2026-04-04T09:30:49Z</time></trkpt><trkpt lat="45.21705048772322" lon="8.561047480982506"><ele>109.25</ele><time>2026-04-04T09:30:50Z</time></trkpt><trkpt lat="45.216991181826124" lon="8.560923909781955"><ele>109.5</ele><time>2026-04-04T09:30:51Z</time></trkpt><trkpt lat="45.21690108359547" lon="8.560833869646519"><ele>109.75</ele><time>2026-04-04T09:30:52Z</time></trkpt><trkpt lat="45.21677834934263" lon="8.560755507976939"><ele>110.0</ele><time>2026-04-04T09:30:53Z</time></trkpt><trkpt lat="45.216640384466714" lon="8.560697561899058"><ele>110.0</ele><time>2026-04-04T09:30:54Z</time></trkpt><trkpt lat="45.21652276080419" lon="8.560658100860687"><ele>110.0</ele><time>2026-04-04T09:30:55Z</time></trkpt><trkpt lat="45.21642627821621" lon="8.5606392362025"><ele>110.0</ele><time>2026-04-04T09:30:56Z</time></trkpt><trkpt lat="45.21635167535555" lon="8.560646301413831"><ele>110.0</ele><time>2026-04-04T09:30:57Z</time></trkpt><trkpt lat="45.21629674266146" lon="8.56070480754037"><ele>110.0</ele><time>2026-04-04T09:30:58Z</time></trkpt><trkpt lat="45.21624988540626" lon="8.560820072880084"><ele>110.0</ele><time>2026-04-04T09:30:59Z</time></trkpt><trkpt lat="45.21620951707014" lon="8.560982327642018"><ele>110.0</ele><time>2026-04-04T09:31:00Z</time></trkpt><trkpt lat="45.21616732747286" lon="8.561108273269559"><ele>110.0</ele><time>2026-04-04T09:31:01Z</time></trkpt><trkpt lat="45.2161343721765" lon="8.561194769497128"><ele>110.0</ele><time>2026-04-04T09:31:02Z</time></trkpt><trkpt lat="45.21607286503386" lon="8.561263669644934"><ele>110.0</ele><time>2026-04-04T09:31:04Z</time></trkpt><trkpt lat="45.215991866645155" lon="8.561236459352255"><ele>109.75</ele><time>2026-04-04T09:31:05Z</time></trkpt><trkpt lat="45.21589321012429" lon="8.56117014079323"><ele>109.5</ele><time>2026-04-04T09:31:06Z</time></trkpt><trkpt lat="45.215776504756604" lon="8.561111397214326"><ele>109.25</ele><time>2026-04-04T09:31:07Z</time></trkpt><trkpt lat="45.21564990247124" lon="8.561058967891087"><ele>109.0</ele><time>2026-04-04T09:31:08Z</time></trkpt><trkpt lat="45.21550282618393" lon="8.561002295232019"><ele>109.0</ele><time>2026-04-04T09:31:09Z</time></trkpt><trkpt lat="45.215348947702495" lon="8.560940464278467"><ele>109.0</ele><time>2026-04-04T09:31:09.999Z</time></trkpt><trkpt lat="45.21518332456236" lon="8.56087554987459"><ele>109.0</ele><time>2026-04-04T09:31:10.999Z</time></trkpt><trkpt lat="45.215004377003524" lon="8.560801807598367"><ele>109.0</ele><time>2026-04-04T09:31:11.999Z</time></trkpt><trkpt lat="45.214821828950406" lon="8.560720823524308"><ele>109.0</ele><time>2026-04-04T09:31:12.999Z</time></trkpt><trkpt lat="45.21465942014248" lon="8.560649481614545"><ele>109.0</ele><time>2026-04-04T09:31:13.999Z</time></trkpt><trkpt lat="45.21450460981507" lon="8.560586618722212"><ele>108.33333333333334</ele><time>2026-04-04T09:31:14.999Z</time></trkpt><trkpt lat="45.21435297491007" lon="8.56052543850928"><ele>107.66666666666666</ele><time>2026-04-04T09:31:15.999Z</time></trkpt><trkpt lat="45.21419053910625" lon="8.560467369190668"><ele>107.0</ele><time>2026-04-04T09:31:16.999Z</time></trkpt><trkpt lat="45.21402066539857" lon="8.560402215763103"><ele>106.66666666666666</ele><time>2026-04-04T09:31:17.999Z</time></trkpt><trkpt lat="45.21384460931971" lon="8.56033527326312"><ele>106.33333333333334</ele><time>2026-04-04T09:31:18.999Z</time></trkpt><trkpt lat="45.21365236102181" lon="8.560280050501929"><ele>106.0</ele><time>2026-04-04T09:31:19.999Z</time></trkpt><trkpt lat="45.21346228185473" lon="8.560235415442005"><ele>106.0</ele><time>2026-04-04T09:31:20.999Z</time></trkpt><trkpt lat="45.213264383052774" lon="8.560197759200758"><ele>106.0</ele><time>2026-04-04T09:31:21.999Z</time></trkpt><trkpt lat="45.21306517682838" lon="8.560152377727322"><ele>106.0</ele><time>2026-04-04T09:31:22.999Z</time></trkpt><trkpt lat="45.212883424842296" lon="8.560108570640832"><ele>106.25</ele><time>2026-04-04T09:31:23.999Z</time></trkpt><trkpt lat="45.21272022034046" lon="8.560062360917927"><ele>106.5</ele><time>2026-04-04T09:31:24.999Z</time></trkpt><trkpt lat="45.21258876930733" lon="8.56002324827145"><ele>106.75</ele><time>2026-04-04T09:31:25.999Z</time></trkpt><trkpt lat="45.212474039639" lon="8.55998765464047"><ele>107.0</ele><time>2026-04-04T09:31:26.999Z</time></trkpt><trkpt lat="45.21239160188567" lon="8.559947862986657"><ele>107.0</ele><time>2026-04-04T09:31:27.999Z</time></trkpt><trkpt lat="45.212333980512604" lon="8.559882078041934"><ele>106.99999999999999</ele><time>2026-04-04T09:31:28.999Z</time></trkpt><trkpt lat="45.21229494664186" lon="8.559765690189964"><ele>106.99999999999999</ele><time>2026-04-04T09:31:30.999Z</time></trkpt><trkpt lat="45.21227911061704" lon="8.559660894642503"><ele>107.0</ele><time>2026-04-04T09:31:31.999Z</time></trkpt><trkpt lat="45.21224880055047" lon="8.559538088158112"><ele>107.0</ele><time>2026-04-04T09:31:32.999Z</time></trkpt><trkpt lat="45.21230455595943" lon="8.559348805974937"><ele>107.0</ele><time>2026-04-04T09:31:33.999Z</time></trkpt><trkpt lat="45.21232147550087" lon="8.55917046745037"><ele>107.0</ele><time>2026-04-04T09:31:34.999Z</time></trkpt><trkpt lat="45.212335034475196" lon="8.558963121738508"><ele>107.0</ele><time>2026-04-04T09:31:35.999Z</time></trkpt><trkpt lat="45.21234136482352" lon="8.558740174697133"><ele>107.0</ele><time>2026-04-04T09:31:36.999Z</time></trkpt><trkpt lat="45.21234654802287" lon="8.558497748612009"><ele>107.0</ele><time>2026-04-04T09:31:37.999Z</time></trkpt><trkpt lat="45.21235090604474" lon="8.558245318534139"><ele>107.0</ele><time>2026-04-04T09:31:38.999Z</time></trkpt><trkpt lat="45.21234889593214" lon="8.557978623910428"><ele>107.0</ele><time>2026-04-04T09:31:39.999Z</time></trkpt><trkpt lat="45.21234106473172" lon="8.557713739415373"><ele>107.0</ele><time>2026-04-04T09:31:40.999Z</time></trkpt><trkpt lat="45.2123247261557" lon="8.55743786505128"><ele>107.0</ele><time>2026-04-04T09:31:41.999Z</time></trkpt><trkpt lat="45.21230170188162" lon="8.55715380434556"><ele>107.0</ele><time>2026-04-04T09:31:42.999Z</time></trkpt><trkpt lat="45.21227160255951" lon="8.556863867616594"><ele>106.66666666666666</ele><time>2026-04-04T09:31:43.999Z</time></trkpt><trkpt lat="45.21223907737561" lon="8.556597930939176"><ele>106.33333333333334</ele><time>2026-04-04T09:31:44.999Z</time></trkpt><trkpt lat="45.2122043523987" lon="8.55634265170918"><ele>106.0</ele><time>2026-04-04T09:31:45.999Z</time></trkpt><trkpt lat="45.21216438125388" lon="8.556091691036736"><ele>106.0</ele><time>2026-04-04T09:31:46.999Z</time></trkpt><trkpt lat="45.2121146400307" lon="8.555835968076616"><ele>106.0</ele><time>2026-04-04T09:31:47.999Z</time></trkpt><trkpt lat="45.21206254987334" lon="8.555584237568999"><ele>106.0</ele><time>2026-04-04T09:31:48.999Z</time></trkpt><trkpt lat="45.21200425890886" lon="8.555332977619905"><ele>105.66666666666667</ele><time>2026-04-04T09:31:49.999Z</time></trkpt><trkpt lat="45.211941895590016" lon="8.555096773582816"><ele>105.33333333333334</ele><time>2026-04-04T09:31:50.999Z</time></trkpt><trkpt lat="45.211871893925355" lon="8.554853019666975"><ele>105.0</ele><time>2026-04-04T09:31:51.999Z</time></trkpt><trkpt lat="45.21179642304758" lon="8.554606374624372"><ele>105.0</ele><time>2026-04-04T09:31:52.999Z</time></trkpt><trkpt lat="45.21171890717697" lon="8.55435757473023"><ele>105.0</ele><time>2026-04-04T09:31:53.999Z</time></trkpt><trkpt lat="45.21163412929873" lon="8.554101578300806"><ele>105.0</ele><time>2026-04-04T09:31:54.999Z</time></trkpt><trkpt lat="45.21153860085169" lon="8.553844092284614"><ele>104.66666666666666</ele><time>2026-04-04T09:31:55.999Z</time></trkpt><trkpt lat="45.21143177717884" lon="8.553584713254246"><ele>104.33333333333333</ele><time>2026-04-04T09:31:56.999Z</time></trkpt><trkpt lat="45.21131501255493" lon="8.553318810845365"><ele>104.0</ele><time>2026-04-04T09:31:57.999Z</time></trkpt><trkpt lat="45.21119015867171" lon="8.553051179776881"><ele>104.0</ele><time>2026-04-04T09:31:58.999Z</time></trkpt><trkpt lat="45.21106815763924" lon="8.552805107325733"><ele>104.0</ele><time>2026-04-04T09:31:59.999Z</time></trkpt><trkpt lat="45.21094843627966" lon="8.55256802207739"><ele>104.0</ele><time>2026-04-04T09:32:00.999Z</time></trkpt><trkpt lat="45.210819561327085" lon="8.552320225211126"><ele>104.0</ele><time>2026-04-04T09:32:01.999Z</time></trkpt><trkpt lat="45.21069046459722" lon="8.552066845408156"><ele>104.0</ele><time>2026-04-04T09:32:02.999Z</time></trkpt><trkpt lat="45.210555907525325" lon="8.551805648568978"><ele>104.0</ele><time>2026-04-04T09:32:03.999Z</time></trkpt><trkpt lat="45.21042075817454" lon="8.55154736339704"><ele>104.33333333333333</ele><time>2026-04-04T09:32:04.999Z</time></trkpt><trkpt lat="45.21029830780453" lon="8.551310213277754"><ele>104.66666666666666</ele><time>2026-04-04T09:32:05.999Z</time></trkpt><trkpt lat="45.21017668521408" lon="8.551072558019346"><ele>105.0</ele><time>2026-04-04T09:32:06.999Z</time></trkpt><trkpt lat="45.21005186999815" lon="8.550827682862545"><ele>105.0</ele><time>2026-04-04T09:32:07.999Z</time></trkpt><trkpt lat="45.20992748665222" lon="8.550582293530104"><ele>105.0</ele><time>2026-04-04T09:32:08.999Z</time></trkpt><trkpt lat="45.2098038471074" lon="8.550342955992273"><ele>105.0</ele><time>2026-04-04T09:32:09.999Z</time></trkpt><trkpt lat="45.20968948856836" lon="8.550121559870009"><ele>105.0</ele><time>2026-04-04T09:32:10.999Z</time></trkpt><trkpt lat="45.20957283455764" lon="8.549893453053544"><ele>105.0</ele><time>2026-04-04T09:32:11.999Z</time></trkpt><trkpt lat="45.209450973596574" lon="8.549657907096499"><ele>105.0</ele><time>2026-04-04T09:32:12.999Z</time></trkpt><trkpt lat="45.209327707463" lon="8.549418653840487"><ele>105.0</ele><time>2026-04-04T09:32:13.999Z</time></trkpt><trkpt lat="45.209202475298724" lon="8.549176219768652"><ele>105.0</ele><time>2026-04-04T09:32:14.999Z</time></trkpt><trkpt lat="45.209076862001844" lon="8.548934960766712"><ele>105.0</ele><time>2026-04-04T09:32:15.999Z</time></trkpt><trkpt lat="45.2089510060921" lon="8.54869378621304"><ele>105.0</ele><time>2026-04-04T09:32:16.999Z</time></trkpt><trkpt lat="45.208825407298" lon="8.548451243114137"><ele>105.0</ele><time>2026-04-04T09:32:17.999Z</time></trkpt><trkpt lat="45.20870688479608" lon="8.548220694138573"><ele>105.0</ele><time>2026-04-04T09:32:18.999Z</time></trkpt><trkpt lat="45.20859470594044" lon="8.548003702133352"><ele>105.0</ele><time>2026-04-04T09:32:19.999Z</time></trkpt><trkpt lat="45.20847802573438" lon="8.54777746791715"><ele>105.0</ele><time>2026-04-04T09:32:20.999Z</time></trkpt><trkpt lat="45.2083578781126" lon="8.547546490865647"><ele>105.0</ele><time>2026-04-04T09:32:21.999Z</time></trkpt><trkpt lat="45.20823282806266" lon="8.547312377633178"><ele>105.0</ele><time>2026-04-04T09:32:22.999Z</time></trkpt><trkpt lat="45.20810487186212" lon="8.547077226799749"><ele>105.0</ele><time>2026-04-04T09:32:23.999Z</time></trkpt><trkpt lat="45.20797777094191" lon="8.546840735766787"><ele>105.0</ele><time>2026-04-04T09:32:24.999Z</time></trkpt><trkpt lat="45.20785011266361" lon="8.546596480442544"><ele>104.0</ele><time>2026-04-04T09:32:25.999Z</time></trkpt><trkpt lat="45.20773319095335" lon="8.546369490349718"><ele>103.0</ele><time>2026-04-04T09:32:26.999Z</time></trkpt><trkpt lat="45.2076229683428" lon="8.546150694614884"><ele>102.0</ele><time>2026-04-04T09:32:27.998Z</time></trkpt><trkpt lat="45.2075066775786" lon="8.545924424807312"><ele>101.66666666666666</ele><time>2026-04-04T09:32:28.998Z</time></trkpt><trkpt lat="45.20738589590771" lon="8.545691061995957"><ele>101.33333333333333</ele><time>2026-04-04T09:32:29.998Z</time></trkpt><trkpt lat="45.20726624977643" lon="8.54545175922081"><ele>101.0</ele><time>2026-04-04T09:32:30.998Z</time></trkpt><trkpt lat="45.20714112427762" lon="8.54521489182238"><ele>102.33333333333333</ele><time>2026-04-04T09:32:31.998Z</time></trkpt><trkpt lat="45.207023129211905" lon="8.544991403866453"><ele>103.66666666666666</ele><time>2026-04-04T09:32:32.998Z</time></trkpt><trkpt lat="45.20690711715351" lon="8.544769027493626"><ele>105.0</ele><time>2026-04-04T09:32:33.998Z</time></trkpt><trkpt lat="45.206788285283295" lon="8.544540239570452"><ele>105.0</ele><time>2026-04-04T09:32:34.998Z</time></trkpt><trkpt lat="45.206666789165176" lon="8.544305775616449"><ele>105.0</ele><time>2026-04-04T09:32:35.998Z</time></trkpt><trkpt lat="45.20654622253201" lon="8.544070077433473"><ele>105.0</ele><time>2026-04-04T09:32:36.998Z</time></trkpt><trkpt lat="45.206424734681526" lon="8.543827255606628"><ele>104.33333333333334</ele><time>2026-04-04T09:32:37.998Z</time></trkpt><trkpt lat="45.206312136475624" lon="8.54360234152453"><ele>103.66666666666667</ele><time>2026-04-04T09:32:38.998Z</time></trkpt><trkpt lat="45.20619948157086" lon="8.543381549392324"><ele>103.0</ele><time>2026-04-04T09:32:39.998Z</time></trkpt><trkpt lat="45.20607973776702" lon="8.543152067316383"><ele>103.0</ele><time>2026-04-04T09:32:41Z</time></trkpt><trkpt lat="45.20595714935296" lon="8.542915069112558"><ele>103.0</ele><time>2026-04-04T09:32:42Z</time></trkpt><trkpt lat="45.2058319528209" lon="8.542674181946792"><ele>103.0</ele><time>2026-04-04T09:32:43Z</time></trkpt><trkpt lat="45.20571837870035" lon="8.542453302470614"><ele>103.0</ele><time>2026-04-04T09:32:44Z</time></trkpt><trkpt lat="45.20561023588637" lon="8.542238399704152"><ele>103.0</ele><time>2026-04-04T09:32:45Z</time></trkpt><trkpt lat="45.20550969422271" lon="8.54200256808111"><ele>103.0</ele><time>2026-04-04T09:32:46Z</time></trkpt><trkpt lat="45.205414868268235" lon="8.541746569869602"><ele>103.33333333333334</ele><time>2026-04-04T09:32:47Z</time></trkpt><trkpt lat="45.20533027862535" lon="8.541477867531299"><ele>103.66666666666666</ele><time>2026-04-04T09:32:48Z</time></trkpt><trkpt lat="45.205253600172746" lon="8.541194114085428"><ele>104.0</ele><time>2026-04-04T09:32:49Z</time></trkpt><trkpt lat="45.205191792130655" lon="8.540914484382112"><ele>104.33333333333333</ele><time>2026-04-04T09:32:50Z</time></trkpt><trkpt lat="45.205145142409066" lon="8.540652463048536"><ele>104.66666666666666</ele><time>2026-04-04T09:32:51Z</time></trkpt><trkpt lat="45.20510603995171" lon="8.540375011413463"><ele>105.0</ele><time>2026-04-04T09:32:52Z</time></trkpt><trkpt lat="45.205077610103224" lon="8.540083130685321"><ele>105.33333333333334</ele><time>2026-04-04T09:32:53Z</time></trkpt><trkpt lat="45.20505780203806" lon="8.539771078213125"><ele>105.66666666666667</ele><time>2026-04-04T09:32:54Z</time></trkpt><trkpt lat="45.20505075714658" lon="8.53945154141309"><ele>106.0</ele><time>2026-04-04T09:32:55Z</time></trkpt><trkpt lat="45.20505789618311" lon="8.539120059252587"><ele>106.0</ele><time>2026-04-04T09:32:56Z</time></trkpt><trkpt lat="45.205078857320494" lon="8.53879231161243"><ele>106.0</ele><time>2026-04-04T09:32:57Z</time></trkpt><trkpt lat="45.2051086075204" lon="8.538484161340612"><ele>105.0</ele><time>2026-04-04T09:32:58Z</time></trkpt><trkpt lat="45.205143722311085" lon="8.538173460271944"><ele>104.0</ele><time>2026-04-04T09:32:59Z</time></trkpt><trkpt lat="45.20522369850234" lon="8.538013444962852"><ele>103.0</ele><time>2026-04-04T09:33:00Z</time></trkpt><trkpt lat="45.205300629744166" lon="8.537730227646103"><ele>103.0</ele><time>2026-04-04T09:33:01Z</time></trkpt><trkpt lat="45.205391861746314" lon="8.53744562672034"><ele>103.0</ele><time>2026-04-04T09:33:02Z</time></trkpt><trkpt lat="45.2054928966085" lon="8.537160210058282"><ele>103.0</ele><time>2026-04-04T09:33:03Z</time></trkpt><trkpt lat="45.20558544408116" lon="8.536894879606097"><ele>103.66666666666667</ele><time>2026-04-04T09:33:04Z</time></trkpt><trkpt lat="45.20568006505587" lon="8.536632599409453"><ele>104.33333333333334</ele><time>2026-04-04T09:33:05Z</time></trkpt><trkpt lat="45.20577121435626" lon="8.536369686556064"><ele>105.0</ele><time>2026-04-04T09:33:06Z</time></trkpt><trkpt lat="45.205865528661484" lon="8.536091934672454"><ele>105.0</ele><time>2026-04-04T09:33:07Z</time></trkpt><trkpt lat="45.20595963062239" lon="8.535808298560335"><ele>105.0</ele><time>2026-04-04T09:33:08Z</time></trkpt><trkpt lat="45.206060407004706" lon="8.535511283969687"><ele>104.66666666666666</ele><time>2026-04-04T09:33:09Z</time></trkpt><trkpt lat="45.20615285054939" lon="8.535227639084203"><ele>104.33333333333333</ele><time>2026-04-04T09:33:10Z</time></trkpt><trkpt lat="45.20623705344795" lon="8.534962956021499"><ele>104.0</ele><time>2026-04-04T09:33:11Z</time></trkpt><trkpt lat="45.20632933244407" lon="8.534690461069388"><ele>104.0</ele><time>2026-04-04T09:33:12Z</time></trkpt><trkpt lat="45.20642525484443" lon="8.534411726854165"><ele>104.0</ele><time>2026-04-04T09:33:13Z</time></trkpt><trkpt lat="45.20651810298984" lon="8.534127874406927"><ele>104.0</ele><time>2026-04-04T09:33:14Z</time></trkpt><trkpt lat="45.20661040659694" lon="8.533850227736979"><ele>104.0</ele><time>2026-04-04T09:33:15Z</time></trkpt><trkpt lat="45.206701632674346" lon="8.533565007979833"><ele>104.0</ele><time>2026-04-04T09:33:16Z</time></trkpt><trkpt lat="45.20679037355532" lon="8.533289856823494"><ele>104.0</ele><time>2026-04-04T09:33:17Z</time></trkpt><trkpt lat="45.206881051813646" lon="8.533023137602198"><ele>103.66666666666666</ele><time>2026-04-04T09:33:17.999Z</time></trkpt><trkpt lat="45.206972030142076" lon="8.532747460127522"><ele>103.33333333333334</ele><time>2026-04-04T09:33:18.999Z</time></trkpt><trkpt lat="45.20706312599758" lon="8.532458351142685"><ele>103.0</ele><time>2026-04-04T09:33:19.999Z</time></trkpt><trkpt lat="45.207157160551525" lon="8.532159100561"><ele>103.5</ele><time>2026-04-04T09:33:20.999Z</time></trkpt><trkpt lat="45.207255779471254" lon="8.531857860243072"><ele>104.0</ele><time>2026-04-04T09:33:21.999Z</time></trkpt><trkpt lat="45.207354611362106" lon="8.531555016337414"><ele>104.33333333333333</ele><time>2026-04-04T09:33:22.999Z</time></trkpt><trkpt lat="45.207451764077206" lon="8.531256860144504"><ele>104.66666666666666</ele><time>2026-04-04T09:33:23.999Z</time></trkpt><trkpt lat="45.20754540261346" lon="8.53098431050053"><ele>105.0</ele><time>2026-04-04T09:33:24.999Z</time></trkpt><trkpt lat="45.20764205074554" lon="8.530701317216124"><ele>104.0</ele><time>2026-04-04T09:33:25.999Z</time></trkpt><trkpt lat="45.20774389132524" lon="8.530414189577296"><ele>103.0</ele><time>2026-04-04T09:33:26.999Z</time></trkpt><trkpt lat="45.207841242006765" lon="8.530117973688347"><ele>103.0</ele><time>2026-04-04T09:33:27.999Z</time></trkpt><trkpt lat="45.20793690132534" lon="8.529829252175764"><ele>103.0</ele><time>2026-04-04T09:33:28.999Z</time></trkpt><trkpt lat="45.20802519469882" lon="8.529556277843923"><ele>103.0</ele><time>2026-04-04T09:33:29.999Z</time></trkpt><trkpt lat="45.208102587209964" lon="8.529301098380122"><ele>103.0</ele><time>2026-04-04T09:33:30.999Z</time></trkpt><trkpt lat="45.20818725609098" lon="8.529051159455845"><ele>103.0</ele><time>2026-04-04T09:33:31.999Z</time></trkpt><trkpt lat="45.208274385939816" lon="8.528788823693283"><ele>103.0</ele><time>2026-04-04T09:33:32.999Z</time></trkpt><trkpt lat="45.20836342946724" lon="8.528521050395147"><ele>103.33333333333334</ele><time>2026-04-04T09:33:33.999Z</time></trkpt><trkpt lat="45.20845172113201" lon="8.528245871157234"><ele>103.66666666666666</ele><time>2026-04-04T09:33:34.999Z</time></trkpt><trkpt lat="45.20854152605239" lon="8.527972001191891"><ele>104.0</ele><time>2026-04-04T09:33:35.999Z</time></trkpt><trkpt lat="45.20863143878107" lon="8.527690807061724"><ele>104.0</ele><time>2026-04-04T09:33:36.999Z</time></trkpt><trkpt lat="45.20872132221949" lon="8.527403696101327"><ele>104.0</ele><time>2026-04-04T09:33:37.999Z</time></trkpt><trkpt lat="45.208818613685644" lon="8.527118499707292"><ele>104.0</ele><time>2026-04-04T09:33:38.999Z</time></trkpt><trkpt lat="45.20891482840133" lon="8.526833149066814"><ele>104.33333333333333</ele><time>2026-04-04T09:33:39.999Z</time></trkpt><trkpt lat="45.20900324896419" lon="8.526570800978877"><ele>104.66666666666666</ele><time>2026-04-04T09:33:40.999Z</time></trkpt><trkpt lat="45.20908882600494" lon="8.526315827820397"><ele>105.0</ele><time>2026-04-04T09:33:41.999Z</time></trkpt><trkpt lat="45.20917333231881" lon="8.526048318739289"><ele>105.0</ele><time>2026-04-04T09:33:42.999Z</time></trkpt><trkpt lat="45.20926540892464" lon="8.525775538501106"><ele>105.0</ele><time>2026-04-04T09:33:43.999Z</time></trkpt><trkpt lat="45.20935913648132" lon="8.5254921705924"><ele>105.0</ele><time>2026-04-04T09:33:44.999Z</time></trkpt><trkpt lat="45.209454237743095" lon="8.525206683256295"><ele>104.66666666666666</ele><time>2026-04-04T09:33:45.999Z</time></trkpt><trkpt lat="45.20954548916085" lon="8.52491876202745"><ele>104.33333333333333</ele><time>2026-04-04T09:33:46.999Z</time></trkpt><trkpt lat="45.209636055859974" lon="8.524638120598711"><ele>104.0</ele><time>2026-04-04T09:33:47.999Z</time></trkpt><trkpt lat="45.20971882640628" lon="8.524383197464177"><ele>104.0</ele><time>2026-04-04T09:33:48.999Z</time></trkpt><trkpt lat="45.20980103858954" lon="8.52412996972157"><ele>104.0</ele><time>2026-04-04T09:33:49.999Z</time></trkpt><trkpt lat="45.20989234577644" lon="8.52385892862321"><ele>104.0</ele><time>2026-04-04T09:33:50.999Z</time></trkpt><trkpt lat="45.20998920440576" lon="8.523574188617953"><ele>103.5</ele><time>2026-04-04T09:33:51.999Z</time></trkpt><trkpt lat="45.21008387542742" lon="8.52328304400299"><ele>103.0</ele><time>2026-04-04T09:33:52.999Z</time></trkpt><trkpt lat="45.21017884831707" lon="8.522991497511514"><ele>103.33333333333334</ele><time>2026-04-04T09:33:53.999Z</time></trkpt><trkpt lat="45.21026591228207" lon="8.522732716016343"><ele>103.66666666666666</ele><time>2026-04-04T09:33:54.999Z</time></trkpt><trkpt lat="45.21035117681526" lon="8.522472356399224"><ele>104.0</ele><time>2026-04-04T09:33:55.999Z</time></trkpt><trkpt lat="45.21043726118518" lon="8.522207580817243"><ele>104.0</ele><time>2026-04-04T09:33:56.999Z</time></trkpt><trkpt lat="45.210529537472766" lon="8.521929985937726"><ele>104.0</ele><time>2026-04-04T09:33:57.999Z</time></trkpt><trkpt lat="45.21062334969072" lon="8.52165173565916"><ele>104.0</ele><time>2026-04-04T09:33:58.999Z</time></trkpt><trkpt lat="45.21070967457707" lon="8.52137310349151"><ele>103.66666666666666</ele><time>2026-04-04T09:33:59.999Z</time></trkpt><trkpt lat="45.21078808285414" lon="8.521123612443333"><ele>103.33333333333334</ele><time>2026-04-04T09:34:00.999Z</time></trkpt><trkpt lat="45.21086976669874" lon="8.520871846652208"><ele>103.0</ele><time>2026-04-04T09:34:01.999Z</time></trkpt><trkpt lat="45.2109595597727" lon="8.520606786330282"><ele>103.33333333333334</ele><time>2026-04-04T09:34:02.999Z</time></trkpt><trkpt lat="45.21105191454447" lon="8.520333616684127"><ele>103.66666666666666</ele><time>2026-04-04T09:34:03.999Z</time></trkpt><trkpt lat="45.21114357470901" lon="8.520054313567467"><ele>104.0</ele><time>2026-04-04T09:34:04.999Z</time></trkpt><trkpt lat="45.211238228587604" lon="8.519770150115015"><ele>104.5</ele><time>2026-04-04T09:34:05.999Z</time></trkpt><trkpt lat="45.211330925727374" lon="8.519486173538988"><ele>105.0</ele><time>2026-04-04T09:34:06.999Z</time></trkpt><trkpt lat="45.21142641561618" lon="8.519180061499183"><ele>105.0</ele><time>2026-04-04T09:34:07.999Z</time></trkpt><trkpt lat="45.21152729138997" lon="8.518865806429792"><ele>105.0</ele><time>2026-04-04T09:34:08.999Z</time></trkpt><trkpt lat="45.211621441009214" lon="8.518585289061184"><ele>105.0</ele><time>2026-04-04T09:34:09.999Z</time></trkpt><trkpt lat="45.211713306746454" lon="8.518318129641823"><ele>105.0</ele><time>2026-04-04T09:34:10.999Z</time></trkpt><trkpt lat="45.2118018226988" lon="8.518046598709834"><ele>105.0</ele><time>2026-04-04T09:34:11.999Z</time></trkpt><trkpt lat="45.2118915387264" lon="8.51776816051116"><ele>105.0</ele><time>2026-04-04T09:34:12.999Z</time></trkpt><trkpt lat="45.21198614464081" lon="8.517485696495706"><ele>105.0</ele><time>2026-04-04T09:34:13.999Z</time></trkpt><trkpt lat="45.21208435516495" lon="8.517187434069154"><ele>105.33333333333334</ele><time>2026-04-04T09:34:14.999Z</time></trkpt><trkpt lat="45.21217277785295" lon="8.516910367892226"><ele>105.66666666666667</ele><time>2026-04-04T09:34:15.999Z</time></trkpt><trkpt lat="45.21226056962847" lon="8.516639925075069"><ele>106.0</ele><time>2026-04-04T09:34:16.999Z</time></trkpt><trkpt lat="45.21235408899794" lon="8.516363915441977"><ele>106.33333333333334</ele><time>2026-04-04T09:34:17.999Z</time></trkpt><trkpt lat="45.212450916340266" lon="8.51607653196709"><ele>106.66666666666666</ele><time>2026-04-04T09:34:18.999Z</time></trkpt><trkpt lat="45.21254671494624" lon="8.515787426755901"><ele>107.0</ele><time>2026-04-04T09:34:19.999Z</time></trkpt><trkpt lat="45.21264065680651" lon="8.515495840159675"><ele>107.0</ele><time>2026-04-04T09:34:20.999Z</time></trkpt><trkpt lat="45.21272742751234" lon="8.515230193719981"><ele>107.0</ele><time>2026-04-04T09:34:21.999Z</time></trkpt><trkpt lat="45.21281656770993" lon="8.514954284379435"><ele>107.0</ele><time>2026-04-04T09:34:22.999Z</time></trkpt><trkpt lat="45.21290451903419" lon="8.514674970952685"><ele>107.0</ele><time>2026-04-04T09:34:23.999Z</time></trkpt><trkpt lat="45.21299945133848" lon="8.51438667975542"><ele>107.0</ele><time>2026-04-04T09:34:24.999Z</time></trkpt><trkpt lat="45.213098322543615" lon="8.514089305751313"><ele>106.66666666666666</ele><time>2026-04-04T09:34:25.999Z</time></trkpt><trkpt lat="45.213193301406136" lon="8.513805527047715"><ele>106.33333333333334</ele><time>2026-04-04T09:34:26.999Z</time></trkpt><trkpt lat="45.21327688285752" lon="8.513540474268975"><ele>106.0</ele><time>2026-04-04T09:34:27.999Z</time></trkpt><trkpt lat="45.21336058438405" lon="8.513275519985747"><ele>106.0</ele><time>2026-04-04T09:34:28.999Z</time></trkpt><trkpt lat="45.21345121631156" lon="8.51300119766631"><ele>106.0</ele><time>2026-04-04T09:34:29.999Z</time></trkpt><trkpt lat="45.21354663755802" lon="8.512714455088874"><ele>106.0</ele><time>2026-04-04T09:34:30.999Z</time></trkpt><trkpt lat="45.213642675562376" lon="8.512424905568805"><ele>106.33333333333334</ele><time>2026-04-04T09:34:31.999Z</time></trkpt><trkpt lat="45.21373485424916" lon="8.512145671747364"><ele>106.66666666666666</ele><time>2026-04-04T09:34:32.999Z</time></trkpt><trkpt lat="45.21382001635818" lon="8.51188642161031"><ele>107.0</ele><time>2026-04-04T09:34:33.999Z</time></trkpt><trkpt lat="45.21390794251938" lon="8.511621720091252"><ele>107.0</ele><time>2026-04-04T09:34:34.998Z</time></trkpt><trkpt lat="45.21399885951267" lon="8.511344822359286"><ele>107.0</ele><time>2026-04-04T09:34:35.998Z</time></trkpt><trkpt lat="45.214089644241675" lon="8.511065355855777"><ele>107.0</ele><time>2026-04-04T09:34:36.998Z</time></trkpt><trkpt lat="45.21418060007094" lon="8.510788645821192"><ele>106.66666666666666</ele><time>2026-04-04T09:34:37.998Z</time></trkpt><trkpt lat="45.21426527925359" lon="8.510531004834183"><ele>106.33333333333334</ele><time>2026-04-04T09:34:38.998Z</time></trkpt><trkpt lat="45.21434235442057" lon="8.5102917066549"><ele>106.0</ele><time>2026-04-04T09:34:39.998Z</time></trkpt><trkpt lat="45.21442152829031" lon="8.51004950229266"><ele>106.0</ele><time>2026-04-04T09:34:40.998Z</time></trkpt><trkpt lat="45.21450273624899" lon="8.509798455749046"><ele>106.0</ele><time>2026-04-04T09:34:41.998Z</time></trkpt><trkpt lat="45.214586812739384" lon="8.509531815495494"><ele>106.0</ele><time>2026-04-04T09:34:42.998Z</time></trkpt><trkpt lat="45.21467601468535" lon="8.509252340000108"><ele>106.0</ele><time>2026-04-04T09:34:43.998Z</time></trkpt><trkpt lat="45.21477239045434" lon="8.50897209496114"><ele>106.0</ele><time>2026-04-04T09:34:44.998Z</time></trkpt><trkpt lat="45.214871202785886" lon="8.508686846271845"><ele>106.0</ele><time>2026-04-04T09:34:45.998Z</time></trkpt><trkpt lat="45.21496052350911" lon="8.508419862363068"><ele>106.0</ele><time>2026-04-04T09:34:47Z</time></trkpt><trkpt lat="45.2150424086358" lon="8.50817056331391"><ele>106.0</ele><time>2026-04-04T09:34:48Z</time></trkpt><trkpt lat="45.21512575615224" lon="8.507915498977608"><ele>106.0</ele><time>2026-04-04T09:34:49Z</time></trkpt><trkpt lat="45.21521348899965" lon="8.507650854323224"><ele>106.33333333333334</ele><time>2026-04-04T09:34:50Z</time></trkpt><trkpt lat="45.21530357491998" lon="8.507372967354604"><ele>106.66666666666666</ele><time>2026-04-04T09:34:51Z</time></trkpt><trkpt lat="45.21539217263046" lon="8.50710946505027"><ele>107.0</ele><time>2026-04-04T09:34:52Z</time></trkpt><trkpt lat="45.21547220624227" lon="8.506866699047405"><ele>107.66666666666666</ele><time>2026-04-04T09:34:53Z</time></trkpt><trkpt lat="45.21554666499489" lon="8.506645104084205"><ele>108.33333333333334</ele><time>2026-04-04T09:34:54Z</time></trkpt><trkpt lat="45.215622825943456" lon="8.506436556108442"><ele>109.0</ele><time>2026-04-04T09:34:55Z</time></trkpt><trkpt lat="45.21568785316835" lon="8.506275732290316"><ele>109.4</ele><time>2026-04-04T09:34:56Z</time></trkpt><trkpt lat="45.215739080968056" lon="8.506163564176138"><ele>109.80000000000001</ele><time>2026-04-04T09:34:57Z</time></trkpt><trkpt lat="45.21576942807051" lon="8.506084296191426"><ele>110.19999999999999</ele><time>2026-04-04T09:34:58Z</time></trkpt><trkpt lat="45.21581220686638" lon="8.505989748361383"><ele>110.6</ele><time>2026-04-04T09:35:00Z</time></trkpt><trkpt lat="45.21563469056025" lon="8.505878914734561"><ele>111.0</ele><time>2026-04-04T09:35:01Z</time></trkpt><trkpt lat="45.21552850371964" lon="8.505830053156663"><ele>111.25</ele><time>2026-04-04T09:35:02Z</time></trkpt><trkpt lat="45.215414579049366" lon="8.505786080091914"><ele>111.5</ele><time>2026-04-04T09:35:03Z</time></trkpt><trkpt lat="45.21528414668852" lon="8.505747417583464"><ele>111.75</ele><time>2026-04-04T09:35:04Z</time></trkpt><trkpt lat="45.21516745003562" lon="8.50564769214071"><ele>112.0</ele><time>2026-04-04T09:35:05Z</time></trkpt><trkpt lat="45.21503642615437" lon="8.505543942009627"><ele>112.0</ele><time>2026-04-04T09:35:06Z</time></trkpt><trkpt lat="45.21488807517634" lon="8.505441327810619"><ele>112.0</ele><time>2026-04-04T09:35:07Z</time></trkpt><trkpt lat="45.21474079923689" lon="8.505328052829103"><ele>112.0</ele><time>2026-04-04T09:35:08Z</time></trkpt><trkpt lat="45.214586688141615" lon="8.505214708434824"><ele>111.66666666666667</ele><time>2026-04-04T09:35:09Z</time></trkpt><trkpt lat="45.214422420686326" lon="8.505099474792587"><ele>111.33333333333334</ele><time>2026-04-04T09:35:10Z</time></trkpt><trkpt lat="45.21425591931999" lon="8.504971933349719"><ele>111.0</ele><time>2026-04-04T09:35:11Z</time></trkpt><trkpt lat="45.21408569691817" lon="8.504829105007882"><ele>110.66666666666666</ele><time>2026-04-04T09:35:12Z</time></trkpt><trkpt lat="45.21390893081578" lon="8.504684243050631"><ele>110.33333333333333</ele><time>2026-04-04T09:35:13Z</time></trkpt><trkpt lat="45.21372763431989" lon="8.504535576195572"><ele>110.0</ele><time>2026-04-04T09:35:14Z</time></trkpt><trkpt lat="45.21355790859094" lon="8.504397317056323"><ele>110.0</ele><time>2026-04-04T09:35:15Z</time></trkpt><trkpt lat="45.213404392088464" lon="8.504268553582188"><ele>110.0</ele><time>2026-04-04T09:35:16Z</time></trkpt><trkpt lat="45.21325986705775" lon="8.50415159658986"><ele>110.0</ele><time>2026-04-04T09:35:17Z</time></trkpt><trkpt lat="45.21311878580062" lon="8.504036933542942"><ele>109.66666666666666</ele><time>2026-04-04T09:35:17.999Z</time></trkpt><trkpt lat="45.21297808732547" lon="8.503921630365292"><ele>109.33333333333334</ele><time>2026-04-04T09:35:18.999Z</time></trkpt><trkpt lat="45.21283842334531" lon="8.503807050228017"><ele>109.0</ele><time>2026-04-04T09:35:19.999Z</time></trkpt><trkpt lat="45.21268937959983" lon="8.503687656742922"><ele>109.0</ele><time>2026-04-04T09:35:20.999Z</time></trkpt><trkpt lat="45.21253976029457" lon="8.503562906969275"><ele>109.0</ele><time>2026-04-04T09:35:21.999Z</time></trkpt><trkpt lat="45.21239238975672" lon="8.50344049507946"><ele>109.0</ele><time>2026-04-04T09:35:22.999Z</time></trkpt><trkpt lat="45.212238099713424" lon="8.503315341747474"><ele>109.0</ele><time>2026-04-04T09:35:23.999Z</time></trkpt><trkpt lat="45.212085687686475" lon="8.503187201158054"><ele>109.0</ele><time>2026-04-04T09:35:24.999Z</time></trkpt><trkpt lat="45.211929527963804" lon="8.503058184598165"><ele>109.0</ele><time>2026-04-04T09:35:25.999Z</time></trkpt><trkpt lat="45.21176522754595" lon="8.502927913370062"><ele>109.0</ele><time>2026-04-04T09:35:26.999Z</time></trkpt><trkpt lat="45.21160668899548" lon="8.502793342200276"><ele>109.0</ele><time>2026-04-04T09:35:27.999Z</time></trkpt><trkpt lat="45.211457925825414" lon="8.502644102706316"><ele>109.0</ele><time>2026-04-04T09:35:28.999Z</time></trkpt><trkpt lat="45.21131449919721" lon="8.502479068559433"><ele>109.0</ele><time>2026-04-04T09:35:29.999Z</time></trkpt><trkpt lat="45.21117541446819" lon="8.502305569290817"><ele>109.0</ele><time>2026-04-04T09:35:30.999Z</time></trkpt><trkpt lat="45.21103547755197" lon="8.502125543132024"><ele>109.0</ele><time>2026-04-04T09:35:31.999Z</time></trkpt><trkpt lat="45.21089964919747" lon="8.501948487207468"><ele>109.0</ele><time>2026-04-04T09:35:32.999Z</time></trkpt><trkpt lat="45.21075858553488" lon="8.501773074283218"><ele>109.0</ele><time>2026-04-04T09:35:33.999Z</time></trkpt><trkpt lat="45.21061520437819" lon="8.501604445029308"><ele>109.0</ele><time>2026-04-04T09:35:34.999Z</time></trkpt><trkpt lat="45.210473523694276" lon="8.501443734689932"><ele>109.33333333333334</ele><time>2026-04-04T09:35:35.999Z</time></trkpt><trkpt lat="45.21032457835704" lon="8.501277144805819"><ele>109.66666666666666</ele><time>2026-04-04T09:35:36.999Z</time></trkpt><trkpt lat="45.210180961241974" lon="8.501118315493976"><ele>110.0</ele><time>2026-04-04T09:35:37.999Z</time></trkpt><trkpt lat="45.21003662045474" lon="8.500952631294096"><ele>109.66666666666666</ele><time>2026-04-04T09:35:38.999Z</time></trkpt><trkpt lat="45.209890483885886" lon="8.500783349286719"><ele>109.33333333333334</ele><time>2026-04-04T09:35:39.999Z</time></trkpt><trkpt lat="45.20974187807063" lon="8.500624794243215"><ele>109.0</ele><time>2026-04-04T09:35:40.999Z</time></trkpt><trkpt lat="45.20959177688067" lon="8.500486674171658"><ele>109.33333333333334</ele><time>2026-04-04T09:35:41.999Z</time></trkpt><trkpt lat="45.20941803438001" lon="8.500383076653709"><ele>109.66666666666666</ele><time>2026-04-04T09:35:42.999Z</time></trkpt><trkpt lat="45.20924378505835" lon="8.500311879136799"><ele>110.0</ele><time>2026-04-04T09:35:43.999Z</time></trkpt><trkpt lat="45.209062036529815" lon="8.500244717414644"><ele>110.0</ele><time>2026-04-04T09:35:44.999Z</time></trkpt><trkpt lat="45.20888115279104" lon="8.500165466107596"><ele>110.0</ele><time>2026-04-04T09:35:45.999Z</time></trkpt><trkpt lat="45.20871608397384" lon="8.500048068217064"><ele>110.0</ele><time>2026-04-04T09:35:46.999Z</time></trkpt><trkpt lat="45.20857572600676" lon="8.499868655115398"><ele>110.0</ele><time>2026-04-04T09:35:47.999Z</time></trkpt><trkpt lat="45.20842179126975" lon="8.499730658392359"><ele>110.0</ele><time>2026-04-04T09:35:48.999Z</time></trkpt><trkpt lat="45.20827600956889" lon="8.499582477798095"><ele>110.0</ele><time>2026-04-04T09:35:49.999Z</time></trkpt><trkpt lat="45.208113276158436" lon="8.499453051424064"><ele>110.33333333333333</ele><time>2026-04-04T09:35:50.999Z</time></trkpt><trkpt lat="45.20793083724743" lon="8.499346800180938"><ele>110.66666666666666</ele><time>2026-04-04T09:35:51.999Z</time></trkpt><trkpt lat="45.207733482182945" lon="8.49926650476728"><ele>111.0</ele><time>2026-04-04T09:35:52.999Z</time></trkpt><trkpt lat="45.207527687070765" lon="8.499199628094987"><ele>111.0</ele><time>2026-04-04T09:35:53.999Z</time></trkpt><trkpt lat="45.207319927050825" lon="8.49912937992491"><ele>111.0</ele><time>2026-04-04T09:35:54.999Z</time></trkpt><trkpt lat="45.20711920991067" lon="8.499056346888324"><ele>111.0</ele><time>2026-04-04T09:35:55.999Z</time></trkpt><trkpt lat="45.20693609095573" lon="8.498986319404455"><ele>111.0</ele><time>2026-04-04T09:35:56.999Z</time></trkpt><trkpt lat="45.20674867898358" lon="8.498915919816989"><ele>111.0</ele><time>2026-04-04T09:35:57.999Z</time></trkpt><trkpt lat="45.20654906570947" lon="8.498844961999954"><ele>111.0</ele><time>2026-04-04T09:35:58.999Z</time></trkpt><trkpt lat="45.20633882966237" lon="8.49876337838305"><ele>111.0</ele><time>2026-04-04T09:35:59.999Z</time></trkpt><trkpt lat="45.20612837563003" lon="8.498663338658545"><ele>111.0</ele><time>2026-04-04T09:36:00.999Z</time></trkpt><trkpt lat="45.20593314688496" lon="8.49854944161662"><ele>111.0</ele><time>2026-04-04T09:36:01.999Z</time></trkpt><trkpt lat="45.20575789468893" lon="8.498429843547855"><ele>110.66666666666666</ele><time>2026-04-04T09:36:02.999Z</time></trkpt><trkpt lat="45.20556587827704" lon="8.498295093373223"><ele>110.33333333333333</ele><time>2026-04-04T09:36:03.999Z</time></trkpt><trkpt lat="45.20536391495443" lon="8.498185424194231"><ele>110.0</ele><time>2026-04-04T09:36:04.999Z</time></trkpt><trkpt lat="45.205148204003464" lon="8.498100191282706"><ele>110.0</ele><time>2026-04-04T09:36:05.999Z</time></trkpt><trkpt lat="45.204932059315674" lon="8.498023793843556"><ele>110.0</ele><time>2026-04-04T09:36:06.999Z</time></trkpt><trkpt lat="45.204738542402865" lon="8.497946329352313"><ele>110.0</ele><time>2026-04-04T09:36:07.999Z</time></trkpt><trkpt lat="45.204550437633436" lon="8.497856213705592"><ele>109.33333333333333</ele><time>2026-04-04T09:36:08.999Z</time></trkpt><trkpt lat="45.20436199080547" lon="8.497758142880832"><ele>108.66666666666666</ele><time>2026-04-04T09:36:09.999Z</time></trkpt><trkpt lat="45.20417498037736" lon="8.497660401198154"><ele>108.0</ele><time>2026-04-04T09:36:10.999Z</time></trkpt><trkpt lat="45.203992389403204" lon="8.497565973573149"><ele>108.0</ele><time>2026-04-04T09:36:11.999Z</time></trkpt><trkpt lat="45.20381734203298" lon="8.497480848573522"><ele>108.0</ele><time>2026-04-04T09:36:12.999Z</time></trkpt><trkpt lat="45.20365029281672" lon="8.497408270472329"><ele>108.0</ele><time>2026-04-04T09:36:13.999Z</time></trkpt><trkpt lat="45.20347053237339" lon="8.497346690122422"><ele>108.0</ele><time>2026-04-04T09:36:14.999Z</time></trkpt><trkpt lat="45.203277190518854" lon="8.49730767531673"><ele>108.0</ele><time>2026-04-04T09:36:15.999Z</time></trkpt><trkpt lat="45.20307865668127" lon="8.497295370224773"><ele>108.0</ele><time>2026-04-04T09:36:16.999Z</time></trkpt><trkpt lat="45.20287687101698" lon="8.497304321341215"><ele>108.0</ele><time>2026-04-04T09:36:17.999Z</time></trkpt><trkpt lat="45.20266863007856" lon="8.49731388626802"><ele>108.0</ele><time>2026-04-04T09:36:18.999Z</time></trkpt><trkpt lat="45.20245710568914" lon="8.497314236541854"><ele>108.0</ele><time>2026-04-04T09:36:19.999Z</time></trkpt><trkpt lat="45.20225710893635" lon="8.49729960106935"><ele>107.66666666666666</ele><time>2026-04-04T09:36:20.999Z</time></trkpt><trkpt lat="45.20206836970665" lon="8.497243927240925"><ele>107.33333333333333</ele><time>2026-04-04T09:36:21.999Z</time></trkpt><trkpt lat="45.20187979450006" lon="8.497144647111355"><ele>107.0</ele><time>2026-04-04T09:36:22.999Z</time></trkpt><trkpt lat="45.20168879133048" lon="8.49703697959404"><ele>107.0</ele><time>2026-04-04T09:36:23.999Z</time></trkpt><trkpt lat="45.201492212649555" lon="8.496932815273821"><ele>107.0</ele><time>2026-04-04T09:36:24.999Z</time></trkpt><trkpt lat="45.20128774281084" lon="8.496847035004446"><ele>107.0</ele><time>2026-04-04T09:36:25.999Z</time></trkpt><trkpt lat="45.201076984841656" lon="8.496787615265902"><ele>107.0</ele><time>2026-04-04T09:36:26.999Z</time></trkpt><trkpt lat="45.200861571906636" lon="8.496752483103458"><ele>107.0</ele><time>2026-04-04T09:36:27.999Z</time></trkpt><trkpt lat="45.20065732007124" lon="8.496735711809391"><ele>107.0</ele><time>2026-04-04T09:36:28.999Z</time></trkpt><trkpt lat="45.20046870818199" lon="8.496719165819504"><ele>107.0</ele><time>2026-04-04T09:36:29.999Z</time></trkpt><trkpt lat="45.200276549667436" lon="8.4966989399918"><ele>107.0</ele><time>2026-04-04T09:36:30.999Z</time></trkpt><trkpt lat="45.20008018011763" lon="8.4966816621656"><ele>107.0</ele><time>2026-04-04T09:36:31.999Z</time></trkpt><trkpt lat="45.199903638898284" lon="8.496658517734549"><ele>106.66666666666666</ele><time>2026-04-04T09:36:32.998Z</time></trkpt><trkpt lat="45.1997346174804" lon="8.496629416020527"><ele>106.33333333333334</ele><time>2026-04-04T09:36:33.998Z</time></trkpt><trkpt lat="45.199553414102006" lon="8.496593506336126"><ele>106.0</ele><time>2026-04-04T09:36:34.998Z</time></trkpt><trkpt lat="45.19936476210098" lon="8.496549100570677"><ele>106.0</ele><time>2026-04-04T09:36:35.998Z</time></trkpt><trkpt lat="45.199182973659305" lon="8.49649478386706"><ele>106.0</ele><time>2026-04-04T09:36:36.998Z</time></trkpt><trkpt lat="45.199002961121195" lon="8.496439547750514"><ele>106.0</ele><time>2026-04-04T09:36:37.998Z</time></trkpt><trkpt lat="45.198821334529086" lon="8.49639189950522"><ele>106.33333333333334</ele><time>2026-04-04T09:36:38.998Z</time></trkpt><trkpt lat="45.19864236587898" lon="8.496359196769088"><ele>106.66666666666666</ele><time>2026-04-04T09:36:39.998Z</time></trkpt><trkpt lat="45.198470514756465" lon="8.49633585808964"><ele>107.0</ele><time>2026-04-04T09:36:40.998Z</time></trkpt><trkpt lat="45.19828811336075" lon="8.49631077955295"><ele>107.0</ele><time>2026-04-04T09:36:41.998Z</time></trkpt><trkpt lat="45.198098336766336" lon="8.49628699552947"><ele>107.0</ele><time>2026-04-04T09:36:42.998Z</time></trkpt><trkpt lat="45.19791312886274" lon="8.496264369835862"><ele>107.0</ele><time>2026-04-04T09:36:43.998Z</time></trkpt><trkpt lat="45.19772744590422" lon="8.496244432815267"><ele>107.0</ele><time>2026-04-04T09:36:44.998Z</time></trkpt><trkpt lat="45.19754314562914" lon="8.496230607255143"><ele>107.0</ele><time>2026-04-04T09:36:45.998Z</time></trkpt><trkpt lat="45.197355823403086" lon="8.496219480960303"><ele>107.0</ele><time>2026-04-04T09:36:46.998Z</time></trkpt><trkpt lat="45.197169598217556" lon="8.496214292062477"><ele>107.33333333333333</ele><time>2026-04-04T09:36:47.998Z</time></trkpt><trkpt lat="45.19698422814023" lon="8.496208425286675"><ele>107.66666666666666</ele><time>2026-04-04T09:36:48.998Z</time></trkpt><trkpt lat="45.19680028567852" lon="8.49619205716665"><ele>108.0</ele><time>2026-04-04T09:36:49.998Z</time></trkpt><trkpt lat="45.19661515707279" lon="8.496160251194343"><ele>107.33333333333334</ele><time>2026-04-04T09:36:50.998Z</time></trkpt><trkpt lat="45.19643110100839" lon="8.496116189073136"><ele>106.66666666666667</ele><time>2026-04-04T09:36:51.998Z</time></trkpt><trkpt lat="45.196252422742134" lon="8.496057336533912"><ele>106.0</ele><time>2026-04-04T09:36:53Z</time></trkpt><trkpt lat="45.19607497826112" lon="8.495981548732578"><ele>106.0</ele><time>2026-04-04T09:36:54Z</time></trkpt><trkpt lat="45.19591441229264" lon="8.495902488816014"><ele>106.0</ele><time>2026-04-04T09:36:55Z</time></trkpt><trkpt lat="45.195750165268365" lon="8.495824868478646"><ele>106.0</ele><time>2026-04-04T09:36:56Z</time></trkpt><trkpt lat="45.19558362620383" lon="8.495759376355617"><ele>106.66666666666667</ele><time>2026-04-04T09:36:57Z</time></trkpt><trkpt lat="45.19541473531866" lon="8.495674928155992"><ele>107.33333333333334</ele><time>2026-04-04T09:36:58Z</time></trkpt><trkpt lat="45.19524136344319" lon="8.495574433227322"><ele>108.0</ele><time>2026-04-04T09:36:59Z</time></trkpt><trkpt lat="45.195071563154045" lon="8.495477906753322"><ele>108.33333333333334</ele><time>2026-04-04T09:37:00Z</time></trkpt><trkpt lat="45.194919226956245" lon="8.495392276203868"><ele>108.66666666666667</ele><time>2026-04-04T09:37:01Z</time></trkpt><trkpt lat="45.19477984691519" lon="8.495311554064116"><ele>109.0</ele><time>2026-04-04T09:37:02Z</time></trkpt><trkpt lat="45.19465850903241" lon="8.495222351971025"><ele>109.0</ele><time>2026-04-04T09:37:03Z</time></trkpt><trkpt lat="45.194530888076976" lon="8.495189634389245"><ele>109.0</ele><time>2026-04-04T09:37:04Z</time></trkpt><trkpt lat="45.19442054811366" lon="8.495151890615155"><ele>109.0</ele><time>2026-04-04T09:37:05Z</time></trkpt><trkpt lat="45.1943154175578" lon="8.495118535366734"><ele>109.0</ele><time>2026-04-04T09:37:06Z</time></trkpt><trkpt lat="45.19421972840413" lon="8.495090236734987"><ele>109.0</ele><time>2026-04-04T09:37:07Z</time></trkpt><trkpt lat="45.19412884363692" lon="8.495065378751697"><ele>109.00000000000001</ele><time>2026-04-04T09:37:08Z</time></trkpt><trkpt lat="45.194061227992464" lon="8.495051700451448"><ele>109.0</ele><time>2026-04-04T09:37:09Z</time></trkpt><trkpt lat="45.19399017135818" lon="8.495039142405258"><ele>109.0</ele><time>2026-04-04T09:37:12Z</time></trkpt><trkpt lat="45.193997445556406" lon="8.494926645795719"><ele>109.0</ele><time>2026-04-04T09:38:16.999Z</time></trkpt><trkpt lat="45.1941005885189" lon="8.494986436223403"><ele>109.00000000000001</ele><time>2026-04-04T09:46:09.999Z</time></trkpt><trkpt lat="45.19417802990577" lon="8.495015849187915"><ele>109.0</ele><time>2026-04-04T09:46:11.999Z</time></trkpt><trkpt lat="45.19426613811633" lon="8.495045076082485"><ele>109.00000000000001</ele><time>2026-04-04T09:46:13.999Z</time></trkpt><trkpt lat="45.19435363088742" lon="8.495073758001089"><ele>109.0</ele><time>2026-04-04T09:46:16.999Z</time></trkpt><trkpt lat="45.19434905835261" lon="8.49516922604965"><ele>109.0</ele><time>2026-04-04T09:46:21.999Z</time></trkpt><trkpt lat="45.194231054651084" lon="8.495160758266572"><ele>109.0</ele><time>2026-04-04T09:46:23.999Z</time></trkpt><trkpt lat="45.194166733664105" lon="8.495129004458366"><ele>109.00000000000001</ele><time>2026-04-04T09:46:24.999Z</time></trkpt><trkpt lat="45.1940833341796" lon="8.495100497012059"><ele>109.0</ele><time>2026-04-04T09:46:25.999Z</time></trkpt><trkpt lat="45.19400462348794" lon="8.495079926258287"><ele>109.00000000000001</ele><time>2026-04-04T09:46:26.999Z</time></trkpt><trkpt lat="45.193931846828136" lon="8.495067557440487"><ele>109.0</ele><time>2026-04-04T09:46:27.999Z</time></trkpt><trkpt lat="45.19385842789984" lon="8.495061049654574"><ele>109.0</ele><time>2026-04-04T09:46:28.999Z</time></trkpt><trkpt lat="45.19379244834661" lon="8.49506499552979"><ele>109.0</ele><time>2026-04-04T09:46:29.999Z</time></trkpt><trkpt lat="45.193711797122646" lon="8.495062577013973"><ele>109.00000000000001</ele><time>2026-04-04T09:46:30.999Z</time></trkpt><trkpt lat="45.193612529346964" lon="8.495058963601789"><ele>109.0</ele><time>2026-04-04T09:46:31.999Z</time></trkpt><trkpt lat="45.193506328460444" lon="8.495059124216723"><ele>109.0</ele><time>2026-04-04T09:46:32.999Z</time></trkpt><trkpt lat="45.19339619174303" lon="8.495057546424723"><ele>109.0</ele><time>2026-04-04T09:46:33.999Z</time></trkpt><trkpt lat="45.19328017332144" lon="8.495059900043582"><ele>109.0</ele><time>2026-04-04T09:46:34.999Z</time></trkpt><trkpt lat="45.193154951162" lon="8.495066140294659"><ele>109.0</ele><time>2026-04-04T09:46:35.999Z</time></trkpt><trkpt lat="45.193025517063575" lon="8.495071269004075"><ele>109.2</ele><time>2026-04-04T09:46:36.999Z</time></trkpt><trkpt lat="45.19290777854268" lon="8.495072855850292"><ele>109.4</ele><time>2026-04-04T09:46:37.999Z</time></trkpt><trkpt lat="45.192801356724395" lon="8.495062755671583"><ele>109.6</ele><time>2026-04-04T09:46:38.999Z</time></trkpt><trkpt lat="45.19270403328819" lon="8.49504131899275"><ele>109.8</ele><time>2026-04-04T09:46:39.999Z</time></trkpt><trkpt lat="45.19260426218048" lon="8.495008835732387"><ele>110.0</ele><time>2026-04-04T09:46:40.999Z</time></trkpt><trkpt lat="45.19248564992728" lon="8.494956019495621"><ele>110.0</ele><time>2026-04-04T09:46:41.999Z</time></trkpt><trkpt lat="45.19236440889201" lon="8.49488502370993"><ele>110.0</ele><time>2026-04-04T09:46:42.999Z</time></trkpt><trkpt lat="45.19223956756355" lon="8.494796507386251"><ele>110.0</ele><time>2026-04-04T09:46:43.999Z</time></trkpt><trkpt lat="45.19211385205108" lon="8.494690314309551"><ele>110.0</ele><time>2026-04-04T09:46:44.999Z</time></trkpt><trkpt lat="45.191997657045754" lon="8.494570440975354"><ele>111.0</ele><time>2026-04-04T09:46:45.999Z</time></trkpt><trkpt lat="45.191879297031164" lon="8.494432680249087"><ele>112.0</ele><time>2026-04-04T09:46:46.999Z</time></trkpt><trkpt lat="45.1917586289017" lon="8.494286306408446"><ele>113.0</ele><time>2026-04-04T09:46:47.999Z</time></trkpt><trkpt lat="45.19163112245279" lon="8.494129467192183"><ele>112.33333333333333</ele><time>2026-04-04T09:46:48.999Z</time></trkpt><trkpt lat="45.191499476274" lon="8.493972298922694"><ele>111.66666666666666</ele><time>2026-04-04T09:46:49.999Z</time></trkpt><trkpt lat="45.19136102706971" lon="8.493813867587077"><ele>111.0</ele><time>2026-04-04T09:46:50.999Z</time></trkpt><trkpt lat="45.19121455865595" lon="8.493656406744371"><ele>111.0</ele><time>2026-04-04T09:46:51.999Z</time></trkpt><trkpt lat="45.1910642941193" lon="8.493508311845599"><ele>111.0</ele><time>2026-04-04T09:46:52.999Z</time></trkpt><trkpt lat="45.1909136661358" lon="8.493374662050627"><ele>111.0</ele><time>2026-04-04T09:46:53.999Z</time></trkpt><trkpt lat="45.190761271164554" lon="8.493245610592455"><ele>110.66666666666666</ele><time>2026-04-04T09:46:54.999Z</time></trkpt><trkpt lat="45.190613291584405" lon="8.493119381676154"><ele>110.33333333333333</ele><time>2026-04-04T09:46:55.999Z</time></trkpt><trkpt lat="45.1904668697966" lon="8.492992432512423"><ele>110.0</ele><time>2026-04-04T09:46:56.999Z</time></trkpt><trkpt lat="45.19032249857585" lon="8.492866173150604"><ele>109.66666666666666</ele><time>2026-04-04T09:46:57.999Z</time></trkpt><trkpt lat="45.19017594257431" lon="8.492739348110844"><ele>109.33333333333334</ele><time>2026-04-04T09:46:58.999Z</time></trkpt><trkpt lat="45.19003757679325" lon="8.492623217990467"><ele>109.0</ele><time>2026-04-04T09:46:59.999Z</time></trkpt><trkpt lat="45.18988938961327" lon="8.492499123843109"><ele>108.33333333333334</ele><time>2026-04-04T09:47:00.999Z</time></trkpt><trkpt lat="45.18972674072198" lon="8.492361619426179"><ele>107.66666666666666</ele><time>2026-04-04T09:47:01.999Z</time></trkpt><trkpt lat="45.18956843852946" lon="8.492229875003567"><ele>107.0</ele><time>2026-04-04T09:47:02.999Z</time></trkpt><trkpt lat="45.18942040208867" lon="8.492101647829813"><ele>107.33333333333333</ele><time>2026-04-04T09:47:03.999Z</time></trkpt><trkpt lat="45.189265270533674" lon="8.491960327460472"><ele>107.66666666666666</ele><time>2026-04-04T09:47:04.999Z</time></trkpt><trkpt lat="45.18913080746258" lon="8.491815048849665"><ele>108.0</ele><time>2026-04-04T09:47:05.999Z</time></trkpt><trkpt lat="45.18899829167181" lon="8.491643891489117"><ele>108.0</ele><time>2026-04-04T09:47:06.998Z</time></trkpt><trkpt lat="45.1888634416213" lon="8.49146085068861"><ele>108.0</ele><time>2026-04-04T09:47:07.998Z</time></trkpt><trkpt lat="45.18872933864421" lon="8.491277535150173"><ele>108.0</ele><time>2026-04-04T09:47:08.998Z</time></trkpt><trkpt lat="45.18860488831381" lon="8.49110781502667"><ele>108.0</ele><time>2026-04-04T09:47:09.998Z</time></trkpt><trkpt lat="45.18846993567185" lon="8.490931417210438"><ele>108.0</ele><time>2026-04-04T09:47:10.998Z</time></trkpt><trkpt lat="45.188330611977435" lon="8.490747916193184"><ele>108.0</ele><time>2026-04-04T09:47:11.998Z</time></trkpt><trkpt lat="45.18820371117696" lon="8.490572837539931"><ele>107.66666666666666</ele><time>2026-04-04T09:47:12.998Z</time></trkpt><trkpt lat="45.18807224197747" lon="8.490396487524782"><ele>107.33333333333333</ele><time>2026-04-04T09:47:13.998Z</time></trkpt><trkpt lat="45.18793782030124" lon="8.490213776588071"><ele>107.0</ele><time>2026-04-04T09:47:14.998Z</time></trkpt><trkpt lat="45.18780380910528" lon="8.490028204067938"><ele>107.0</ele><time>2026-04-04T09:47:15.998Z</time></trkpt><trkpt lat="45.187681895009895" lon="8.48985235466547"><ele>107.0</ele><time>2026-04-04T09:47:16.998Z</time></trkpt><trkpt lat="45.187579712544185" lon="8.4896343851778"><ele>107.0</ele><time>2026-04-04T09:47:17.998Z</time></trkpt><trkpt lat="45.18746074508267" lon="8.489419724266376"><ele>107.0</ele><time>2026-04-04T09:47:18.998Z</time></trkpt><trkpt lat="45.18735999025643" lon="8.4891875942765"><ele>107.0</ele><time>2026-04-04T09:47:19.998Z</time></trkpt><trkpt lat="45.187264589396435" lon="8.488973777653813"><ele>107.0</ele><time>2026-04-04T09:47:20.998Z</time></trkpt><trkpt lat="45.187166897960566" lon="8.4887561583985"><ele>107.0</ele><time>2026-04-04T09:47:22Z</time></trkpt><trkpt lat="45.187072940533454" lon="8.488545717417836"><ele>107.0</ele><time>2026-04-04T09:47:23Z</time></trkpt><trkpt lat="45.18698517529606" lon="8.488357675954592"><ele>107.0</ele><time>2026-04-04T09:47:24Z</time></trkpt><trkpt lat="45.18690606442147" lon="8.488167184154342"><ele>107.0</ele><time>2026-04-04T09:47:25Z</time></trkpt><trkpt lat="45.186778722048366" lon="8.488022587245386"><ele>107.0</ele><time>2026-04-04T09:47:26Z</time></trkpt><trkpt lat="45.18661201651815" lon="8.487936324280218"><ele>107.0</ele><time>2026-04-04T09:47:27Z</time></trkpt><trkpt lat="45.18644123787406" lon="8.487858694266174"><ele>107.33333333333333</ele><time>2026-04-04T09:47:28Z</time></trkpt><trkpt lat="45.18626616507938" lon="8.487775562414132"><ele>107.66666666666666</ele><time>2026-04-04T09:47:29Z</time></trkpt><trkpt lat="45.18608574387053" lon="8.487685769013762"><ele>108.0</ele><time>2026-04-04T09:47:30Z</time></trkpt><trkpt lat="45.1859207253309" lon="8.487603641270182"><ele>108.0</ele><time>2026-04-04T09:47:31Z</time></trkpt><trkpt lat="45.18574786902522" lon="8.487517612801613"><ele>108.0</ele><time>2026-04-04T09:47:32Z</time></trkpt><trkpt lat="45.18556172973475" lon="8.48744967339276"><ele>108.0</ele><time>2026-04-04T09:47:33Z</time></trkpt><trkpt lat="45.18538673693974" lon="8.487337537141993"><ele>108.0</ele><time>2026-04-04T09:47:34Z</time></trkpt><trkpt lat="45.18521525489258" lon="8.487251936620675"><ele>108.0</ele><time>2026-04-04T09:47:35Z</time></trkpt><trkpt lat="45.18504928231293" lon="8.487169913048971"><ele>108.0</ele><time>2026-04-04T09:47:36Z</time></trkpt><trkpt lat="45.18486887217423" lon="8.487102540755133"><ele>108.66666666666666</ele><time>2026-04-04T09:47:37Z</time></trkpt><trkpt lat="45.18470236503053" lon="8.48701683835589"><ele>109.33333333333333</ele><time>2026-04-04T09:47:38Z</time></trkpt><trkpt lat="45.18454243395186" lon="8.486934859001733"><ele>110.0</ele><time>2026-04-04T09:47:39Z</time></trkpt><trkpt lat="45.184373067474496" lon="8.486844159862533"><ele>110.0</ele><time>2026-04-04T09:47:40Z</time></trkpt><trkpt lat="45.184199756087665" lon="8.486750624833004"><ele>110.0</ele><time>2026-04-04T09:47:41Z</time></trkpt><trkpt lat="45.18405001098783" lon="8.48667210538955"><ele>110.0</ele><time>2026-04-04T09:47:42Z</time></trkpt><trkpt lat="45.18392714568038" lon="8.486605407317565"><ele>109.6</ele><time>2026-04-04T09:47:43Z</time></trkpt><trkpt lat="45.18382894466025" lon="8.486543647431489"><ele>109.2</ele><time>2026-04-04T09:47:44Z</time></trkpt><trkpt lat="45.18374509957978" lon="8.486476854307918"><ele>108.80000000000001</ele><time>2026-04-04T09:47:45Z</time></trkpt><trkpt lat="45.18367414841146" lon="8.486428072818324"><ele>108.4</ele><time>2026-04-04T09:47:46Z</time></trkpt><trkpt lat="45.18357145246078" lon="8.486372939561367"><ele>108.0</ele><time>2026-04-04T09:47:48Z</time></trkpt><trkpt lat="45.18354645315617" lon="8.486218328021685"><ele>108.0</ele><time>2026-04-04T09:47:49Z</time></trkpt><trkpt lat="45.18350728056584" lon="8.486123045832642"><ele>108.00000000000001</ele><time>2026-04-04T09:47:50Z</time></trkpt><trkpt lat="45.18348811309692" lon="8.485991593659906"><ele>108.00000000000001</ele><time>2026-04-04T09:47:51Z</time></trkpt><trkpt lat="45.18346988244473" lon="8.485840840206725"><ele>108.0</ele><time>2026-04-04T09:47:52Z</time></trkpt><trkpt lat="45.18343916422103" lon="8.485670763106167"><ele>108.0</ele><time>2026-04-04T09:47:53Z</time></trkpt><trkpt lat="45.183404129824474" lon="8.485492130807653"><ele>108.5</ele><time>2026-04-04T09:47:54Z</time></trkpt><trkpt lat="45.18336893396152" lon="8.485305798914732"><ele>109.0</ele><time>2026-04-04T09:47:55Z</time></trkpt><trkpt lat="45.18333895593953" lon="8.485136072436951"><ele>109.5</ele><time>2026-04-04T09:47:56Z</time></trkpt><trkpt lat="45.183308264786675" lon="8.48496733930654"><ele>110.0</ele><time>2026-04-04T09:47:57Z</time></trkpt><trkpt lat="45.18327716887624" lon="8.484797851674099"><ele>110.0</ele><time>2026-04-04T09:47:58Z</time></trkpt><trkpt lat="45.18324302565477" lon="8.484623236214622"><ele>110.0</ele><time>2026-04-04T09:47:59Z</time></trkpt><trkpt lat="45.18320900429502" lon="8.48445250268766"><ele>110.0</ele><time>2026-04-04T09:48:00Z</time></trkpt><trkpt lat="45.18317752272571" lon="8.484291951712231"><ele>110.0</ele><time>2026-04-04T09:48:01Z</time></trkpt><trkpt lat="45.1831485458004" lon="8.484135745911106"><ele>110.0</ele><time>2026-04-04T09:48:02Z</time></trkpt><trkpt lat="45.18312140048392" lon="8.483984760207914"><ele>110.0</ele><time>2026-04-04T09:48:02.999Z</time></trkpt><trkpt lat="45.18309672249381" lon="8.483835122271701"><ele>110.0</ele><time>2026-04-04T09:48:03.999Z</time></trkpt><trkpt lat="45.18307155305111" lon="8.483685382876546"><ele>110.0</ele><time>2026-04-04T09:48:04.999Z</time></trkpt><trkpt lat="45.18304486919488" lon="8.483534842614034"><ele>110.0</ele><time>2026-04-04T09:48:05.999Z</time></trkpt><trkpt lat="45.18301801350054" lon="8.483384605791027"><ele>110.0</ele><time>2026-04-04T09:48:06.999Z</time></trkpt><trkpt lat="45.18298935656383" lon="8.483231300216621"><ele>110.0</ele><time>2026-04-04T09:48:07.999Z</time></trkpt><trkpt lat="45.182956651381495" lon="8.483066221344481"><ele>110.0</ele><time>2026-04-04T09:48:08.999Z</time></trkpt><trkpt lat="45.18292736688354" lon="8.482907532895284"><ele>110.0</ele><time>2026-04-04T09:48:09.999Z</time></trkpt><trkpt lat="45.18289933486085" lon="8.482744399819849"><ele>110.0</ele><time>2026-04-04T09:48:10.999Z</time></trkpt><trkpt lat="45.1828748583477" lon="8.482586706780411"><ele>110.0</ele><time>2026-04-04T09:48:11.999Z</time></trkpt><trkpt lat="45.18284678327808" lon="8.482422570208245"><ele>110.0</ele><time>2026-04-04T09:48:12.999Z</time></trkpt><trkpt lat="45.18282239120468" lon="8.482266336234282"><ele>110.0</ele><time>2026-04-04T09:48:13.999Z</time></trkpt><trkpt lat="45.182798344814444" lon="8.482116277936798"><ele>110.2</ele><time>2026-04-04T09:48:14.999Z</time></trkpt><trkpt lat="45.182773370827874" lon="8.481971676284068"><ele>110.4</ele><time>2026-04-04T09:48:15.999Z</time></trkpt><trkpt lat="45.1827521216421" lon="8.481819307715702"><ele>110.6</ele><time>2026-04-04T09:48:16.999Z</time></trkpt><trkpt lat="45.18273425621496" lon="8.481667470448706"><ele>110.8</ele><time>2026-04-04T09:48:17.999Z</time></trkpt><trkpt lat="45.182717289751935" lon="8.481531593295164"><ele>111.0</ele><time>2026-04-04T09:48:18.999Z</time></trkpt><trkpt lat="45.182697117675815" lon="8.481401811850162"><ele>111.0</ele><time>2026-04-04T09:48:19.999Z</time></trkpt><trkpt lat="45.18267726589348" lon="8.481259741966955"><ele>111.0</ele><time>2026-04-04T09:48:20.999Z</time></trkpt><trkpt lat="45.18266032630092" lon="8.48112285352501"><ele>111.0</ele><time>2026-04-04T09:48:21.999Z</time></trkpt><trkpt lat="45.182644232947354" lon="8.481003554605495"><ele>111.0</ele><time>2026-04-04T09:48:22.999Z</time></trkpt><trkpt lat="45.18262522702952" lon="8.480889184667374"><ele>111.0</ele><time>2026-04-04T09:48:23.999Z</time></trkpt><trkpt lat="45.182608785428165" lon="8.480791237170267"><ele>111.0</ele><time>2026-04-04T09:48:24.999Z</time></trkpt><trkpt lat="45.18257449841162" lon="8.480664373920456"><ele>111.0</ele><time>2026-04-04T09:48:26.999Z</time></trkpt><trkpt lat="45.18246223854599" lon="8.480650298436688"><ele>111.0</ele><time>2026-04-04T09:48:29.999Z</time></trkpt><trkpt lat="45.182394160032516" lon="8.480630461311618"><ele>111.0</ele><time>2026-04-04T09:48:31.999Z</time></trkpt><trkpt lat="45.182285823204374" lon="8.480634296488976"><ele>111.0</ele><time>2026-04-04T09:48:33.999Z</time></trkpt><trkpt lat="45.182207134468676" lon="8.480634085194117"><ele>111.0</ele><time>2026-04-04T09:48:34.999Z</time></trkpt><trkpt lat="45.18211252536395" lon="8.480648688173847"><ele>111.0</ele><time>2026-04-04T09:48:35.999Z</time></trkpt><trkpt lat="45.18201405600668" lon="8.48066361747682"><ele>111.0</ele><time>2026-04-04T09:48:36.999Z</time></trkpt><trkpt lat="45.18191970385264" lon="8.480681907356686"><ele>111.0</ele><time>2026-04-04T09:48:37.999Z</time></trkpt><trkpt lat="45.181820655953565" lon="8.480695260690448"><ele>111.0</ele><time>2026-04-04T09:48:38.999Z</time></trkpt><trkpt lat="45.1817181045477" lon="8.480719153725076"><ele>111.0</ele><time>2026-04-04T09:48:39.999Z</time></trkpt><trkpt lat="45.181615396836484" lon="8.48077023381938"><ele>111.0</ele><time>2026-04-04T09:48:40.999Z</time></trkpt><trkpt lat="45.18151777180253" lon="8.480853524115656"><ele>111.0</ele><time>2026-04-04T09:48:41.999Z</time></trkpt><trkpt lat="45.18142949978397" lon="8.48093739922296"><ele>111.0</ele><time>2026-04-04T09:48:42.999Z</time></trkpt><trkpt lat="45.18134248879558" lon="8.48100990827698"><ele>111.0</ele><time>2026-04-04T09:48:43.999Z</time></trkpt><trkpt lat="45.181253863020125" lon="8.481071535874818"><ele>111.0</ele><time>2026-04-04T09:48:44.999Z</time></trkpt><trkpt lat="45.18116093590218" lon="8.48113550216852"><ele>111.0</ele><time>2026-04-04T09:48:45.999Z</time></trkpt><trkpt lat="45.181053630125945" lon="8.481201692347007"><ele>111.0</ele><time>2026-04-04T09:48:46.999Z</time></trkpt><trkpt lat="45.18093354729887" lon="8.48127569716861"><ele>111.0</ele><time>2026-04-04T09:48:47.999Z</time></trkpt><trkpt lat="45.18080786920949" lon="8.481324666733892"><ele>111.0</ele><time>2026-04-04T09:48:48.999Z</time></trkpt><trkpt lat="45.180705067656575" lon="8.481369495797662"><ele>110.75</ele><time>2026-04-04T09:48:49.999Z</time></trkpt><trkpt lat="45.18063783594359" lon="8.481395036885434"><ele>110.5</ele><time>2026-04-04T09:48:50.999Z</time></trkpt><trkpt lat="45.18053019561591" lon="8.481409274057524"><ele>110.25</ele><time>2026-04-04T09:48:52.999Z</time></trkpt><trkpt lat="45.180412926079505" lon="8.48123023990753"><ele>110.0</ele><time>2026-04-04T09:48:54.999Z</time></trkpt><trkpt lat="45.18036109453838" lon="8.481045374278084"><ele>110.0</ele><time>2026-04-04T09:48:55.999Z</time></trkpt><trkpt lat="45.18029830975402" lon="8.480911668634798"><ele>110.0</ele><time>2026-04-04T09:48:56.999Z</time></trkpt><trkpt lat="45.18027247984947" lon="8.48077878783414"><ele>110.0</ele><time>2026-04-04T09:48:57.999Z</time></trkpt><trkpt lat="45.18021069097144" lon="8.480677027192405"><ele>110.0</ele><time>2026-04-04T09:48:58.999Z</time></trkpt><trkpt lat="45.180142441904074" lon="8.480605725652968"><ele>110.0</ele><time>2026-04-04T09:48:59.999Z</time></trkpt><trkpt lat="45.18010541727943" lon="8.480506861105003"><ele>110.0</ele><time>2026-04-04T09:49:01.999Z</time></trkpt><trkpt lat="45.18016333130832" lon="8.480436344153873"><ele>110.0</ele><time>2026-04-04T09:49:04.999Z</time></trkpt><trkpt lat="45.18022009590897" lon="8.480374515105442"><ele>110.0</ele><time>2026-04-04T09:49:05.999Z</time></trkpt><trkpt lat="45.18030148639678" lon="8.480323579621473"><ele>110.0</ele><time>2026-04-04T09:49:06.999Z</time></trkpt><trkpt lat="45.180431616874806" lon="8.480231977913135"><ele>110.0</ele><time>2026-04-04T09:49:07.999Z</time></trkpt><trkpt lat="45.18054934045702" lon="8.480137762979739"><ele>110.0</ele><time>2026-04-04T09:49:08.999Z</time></trkpt><trkpt lat="45.18066445368256" lon="8.480033048757555"><ele>110.0</ele><time>2026-04-04T09:49:09.999Z</time></trkpt><trkpt lat="45.180794965528854" lon="8.479928666372382"><ele>110.0</ele><time>2026-04-04T09:49:10.999Z</time></trkpt><trkpt lat="45.180907796487" lon="8.4798250280931"><ele>110.0</ele><time>2026-04-04T09:49:11.999Z</time></trkpt><trkpt lat="45.18101094809849" lon="8.479711532343881"><ele>110.25</ele><time>2026-04-04T09:49:12.999Z</time></trkpt><trkpt lat="45.18112047600069" lon="8.479557384868206"><ele>110.5</ele><time>2026-04-04T09:49:13.999Z</time></trkpt><trkpt lat="45.18120837056395" lon="8.479451529619515"><ele>110.75</ele><time>2026-04-04T09:49:14.999Z</time></trkpt><trkpt lat="45.18129195822225" lon="8.479356533957123"><ele>111.0</ele><time>2026-04-04T09:49:15.999Z</time></trkpt><trkpt lat="45.181371512944615" lon="8.479265804323127"><ele>111.0</ele><time>2026-04-04T09:49:16.999Z</time></trkpt><trkpt lat="45.18146275356842" lon="8.479193364988554"><ele>111.0</ele><time>2026-04-04T09:49:17.999Z</time></trkpt><trkpt lat="45.18155407045046" lon="8.479106382954898"><ele>111.0</ele><time>2026-04-04T09:49:18.999Z</time></trkpt><trkpt lat="45.18165012304588" lon="8.479027498703946"><ele>111.0</ele><time>2026-04-04T09:49:19.999Z</time></trkpt><trkpt lat="45.18174199764508" lon="8.478963035393713"><ele>111.0</ele><time>2026-04-04T09:49:20.999Z</time></trkpt><trkpt lat="45.181841832716295" lon="8.478902552908453"><ele>111.6</ele><time>2026-04-04T09:49:21.999Z</time></trkpt><trkpt lat="45.18196905432744" lon="8.478842234076065"><ele>112.19999999999999</ele><time>2026-04-04T09:49:22.999Z</time></trkpt><trkpt lat="45.18207287256534" lon="8.478801434764497"><ele>112.80000000000001</ele><time>2026-04-04T09:49:23.999Z</time></trkpt><trkpt lat="45.18214710258521" lon="8.4787738638257"><ele>113.4</ele><time>2026-04-04T09:49:25.999Z</time></trkpt><trkpt lat="45.182199252139334" lon="8.478711490633954"><ele>114.0</ele><time>2026-04-04T09:49:37Z</time></trkpt><trkpt lat="45.18218168652037" lon="8.478588691010282"><ele>114.0</ele><time>2026-04-04T09:49:38Z</time></trkpt><trkpt lat="45.182142875950206" lon="8.478449366529679"><ele>114.0</ele><time>2026-04-04T09:49:39Z</time></trkpt><trkpt lat="45.18213264647446" lon="8.47828740383189"><ele>114.0</ele><time>2026-04-04T09:49:40Z</time></trkpt><trkpt lat="45.18210023446291" lon="8.478111154108502"><ele>114.0</ele><time>2026-04-04T09:49:41Z</time></trkpt><trkpt lat="45.182068628202686" lon="8.477950271850608"><ele>113.6</ele><time>2026-04-04T09:49:42Z</time></trkpt><trkpt lat="45.18204232358364" lon="8.477817020726182"><ele>113.2</ele><time>2026-04-04T09:49:43Z</time></trkpt><trkpt lat="45.18200802714751" lon="8.477734326411799"><ele>112.79999999999998</ele><time>2026-04-04T09:49:44Z</time></trkpt><trkpt lat="45.18205281350006" lon="8.477618979040713"><ele>112.39999999999999</ele><time>2026-04-04T09:49:47Z</time></trkpt><trkpt lat="45.182021731700814" lon="8.477511165309982"><ele>112.0</ele><time>2026-04-04T09:49:49Z</time></trkpt><trkpt lat="45.18220688823889" lon="8.477518904757135"><ele>112.0</ele><time>2026-04-04T09:49:51Z</time></trkpt><trkpt lat="45.18230942511496" lon="8.477437764417889"><ele>112.0</ele><time>2026-04-04T09:49:52Z</time></trkpt><trkpt lat="45.18241974033515" lon="8.477348897076032"><ele>112.0</ele><time>2026-04-04T09:49:53Z</time></trkpt><trkpt lat="45.18251860500204" lon="8.477261406809411"><ele>112.0</ele><time>2026-04-04T09:49:54Z</time></trkpt><trkpt lat="45.18260592154339" lon="8.477171302435792"><ele>112.39999999999999</ele><time>2026-04-04T09:49:55Z</time></trkpt><trkpt lat="45.182702800165224" lon="8.477103719752183"><ele>112.79999999999998</ele><time>2026-04-04T09:49:56Z</time></trkpt><trkpt lat="45.18280760282022" lon="8.477018819837827"><ele>113.2</ele><time>2026-04-04T09:49:57Z</time></trkpt><trkpt lat="45.182895054481556" lon="8.476937925337184"><ele>113.6</ele><time>2026-04-04T09:49:58Z</time></trkpt><trkpt lat="45.182985521375976" lon="8.476858002868113"><ele>114.0</ele><time>2026-04-04T09:49:59Z</time></trkpt><trkpt lat="45.1830823011146" lon="8.476777138292535"><ele>114.0</ele><time>2026-04-04T09:50:00Z</time></trkpt><trkpt lat="45.18316737257111" lon="8.476702537906956"><ele>114.0</ele><time>2026-04-04T09:50:01Z</time></trkpt><trkpt lat="45.1832884634428" lon="8.476592182310142"><ele>114.0</ele><time>2026-04-04T09:50:03Z</time></trkpt><trkpt lat="45.18338170312302" lon="8.47666009762926"><ele>114.0</ele><time>2026-04-04T09:50:06Z</time></trkpt><trkpt lat="45.18341073533133" lon="8.476746313936387"><ele>114.0</ele><time>2026-04-04T09:50:07Z</time></trkpt><trkpt lat="45.183417114625264" lon="8.47684948064445"><ele>113.66666666666667</ele><time>2026-04-04T09:50:08Z</time></trkpt><trkpt lat="45.18340968172515" lon="8.476939863468164"><ele>113.33333333333334</ele><time>2026-04-04T09:50:09Z</time></trkpt><trkpt lat="45.18340876417875" lon="8.477091920973258"><ele>113.0</ele><time>2026-04-04T09:50:10Z</time></trkpt><trkpt lat="45.18339924315623" lon="8.477224911498912"><ele>112.66666666666667</ele><time>2026-04-04T09:50:11Z</time></trkpt><trkpt lat="45.18340206559778" lon="8.477363030061593"><ele>112.33333333333334</ele><time>2026-04-04T09:50:12Z</time></trkpt><trkpt lat="45.18341318159194" lon="8.477481976226914"><ele>112.0</ele><time>2026-04-04T09:50:13Z</time></trkpt><trkpt lat="45.183420151056914" lon="8.47759000903157"><ele>111.8</ele><time>2026-04-04T09:50:14Z</time></trkpt><trkpt lat="45.18342595648339" lon="8.477707288553468"><ele>111.6</ele><time>2026-04-04T09:50:16Z</time></trkpt><trkpt lat="45.183290520373376" lon="8.477727544925642"><ele>111.39999999999999</ele><time>2026-04-04T09:50:43.999Z</time></trkpt><trkpt lat="45.18322828592586" lon="8.477772600805723"><ele>111.19999999999999</ele><time>2026-04-04T09:50:48.999Z</time></trkpt><trkpt lat="45.183171964304705" lon="8.477903979917391"><ele>111.0</ele><time>2026-04-04T09:58:31.999Z</time></trkpt><trkpt lat="45.18321252508904" lon="8.477995585907017"><ele>111.0</ele><time>2026-04-04T09:58:51.999Z</time></trkpt></trkseg></trk></gpx>